<?xml version="1.0" encoding="UTF-8" standalone="no"?>
<gpx version="1.1" creator="GPX Editor 1.3.72.1470" xmlns="http://www.topografix.com/GPX/1/1" xmlns:xsi="http://www.w3.org/2001/XMLSchema-instance" xsi:schemaLocation="http://www.topografix.com/GPX/1/1 http://www.topografix.com/GPX/1/1/gpx.xsd">
<metadata>
	<link href="http://www.garmin.com">
		<text>Garmin International</text>
	</link>
	<time>2012-07-26T15:30:09Z</time>
	<bounds minlat="47.4267939012" minlon="11.0240674764" maxlat="47.4718888756" maxlon="11.061963737" />
</metadata>
<trk>
	<name>26-ČRC-12 17:30:06</name>
	<extensions>
<gpxx:TrackExtension><gpxx:DisplayColor>DarkRed</gpxx:DisplayColor></gpxx:TrackExtension>	</extensions>
	<trkseg>
		<trkpt lat="47.4344828725" lon="11.0506577231">
			<ele>2069.38</ele>
			<time>2012-07-26T07:18:55Z</time>
		</trkpt>
		<trkpt lat="47.4344839621" lon="11.0506508499">
			<ele>2069.38</ele>
			<time>2012-07-26T07:19:04Z</time>
		</trkpt>
		<trkpt lat="47.4344955292" lon="11.0506357625">
			<ele>2069.86</ele>
			<time>2012-07-26T07:19:14Z</time>
		</trkpt>
		<trkpt lat="47.4344831239" lon="11.0506144725">
			<ele>2069.86</ele>
			<time>2012-07-26T07:19:22Z</time>
		</trkpt>
		<trkpt lat="47.4344697129" lon="11.0505809449">
			<ele>2071.3</ele>
			<time>2012-07-26T07:19:31Z</time>
		</trkpt>
		<trkpt lat="47.4344722275" lon="11.0505369399">
			<ele>2072.26</ele>
			<time>2012-07-26T07:19:40Z</time>
		</trkpt>
		<trkpt lat="47.4344806932" lon="11.0505122971">
			<ele>2074.18</ele>
			<time>2012-07-26T07:19:49Z</time>
		</trkpt>
		<trkpt lat="47.4344796874" lon="11.0505014006">
			<ele>2075.62</ele>
			<time>2012-07-26T07:19:57Z</time>
		</trkpt>
		<trkpt lat="47.4344758317" lon="11.0504978802">
			<ele>2076.59</ele>
			<time>2012-07-26T07:20:05Z</time>
		</trkpt>
		<trkpt lat="47.4344539549" lon="11.0504449066">
			<ele>2078.51</ele>
			<time>2012-07-26T07:20:15Z</time>
		</trkpt>
		<trkpt lat="47.434451608" lon="11.0504402127">
			<ele>2079.95</ele>
			<time>2012-07-26T07:20:24Z</time>
		</trkpt>
		<trkpt lat="47.434451608" lon="11.0504402127">
			<ele>2082.35</ele>
			<time>2012-07-26T07:20:35Z</time>
		</trkpt>
		<trkpt lat="47.434451608" lon="11.0504402127">
			<ele>2081.87</ele>
			<time>2012-07-26T07:20:48Z</time>
		</trkpt>
		<trkpt lat="47.4344499316" lon="11.0504365247">
			<ele>2082.83</ele>
			<time>2012-07-26T07:20:58Z</time>
		</trkpt>
		<trkpt lat="47.4344499316" lon="11.0504365247">
			<ele>2083.31</ele>
			<time>2012-07-26T07:21:18Z</time>
		</trkpt>
		<trkpt lat="47.4344503507" lon="11.0504286457">
			<ele>2083.31</ele>
			<time>2012-07-26T07:21:31Z</time>
		</trkpt>
		<trkpt lat="47.4344503507" lon="11.0504286457">
			<ele>2082.83</ele>
			<time>2012-07-26T07:21:48Z</time>
		</trkpt>
		<trkpt lat="47.4344503507" lon="11.0504286457">
			<ele>2083.31</ele>
			<time>2012-07-26T07:21:55Z</time>
		</trkpt>
		<trkpt lat="47.434445573" lon="11.05042018">
			<ele>2082.35</ele>
			<time>2012-07-26T07:22:03Z</time>
		</trkpt>
		<trkpt lat="47.4344361015" lon="11.0504121333">
			<ele>2082.35</ele>
			<time>2012-07-26T07:22:11Z</time>
		</trkpt>
		<trkpt lat="47.4344267976" lon="11.0504055116">
			<ele>2082.83</ele>
			<time>2012-07-26T07:22:21Z</time>
		</trkpt>
		<trkpt lat="47.4344267976" lon="11.0504055116">
			<ele>2082.83</ele>
			<time>2012-07-26T07:22:31Z</time>
		</trkpt>
		<trkpt lat="47.4344282225" lon="11.0503962077">
			<ele>2084.76</ele>
			<time>2012-07-26T07:22:41Z</time>
		</trkpt>
		<trkpt lat="47.4344282225" lon="11.0503962077">
			<ele>2084.76</ele>
			<time>2012-07-26T07:22:53Z</time>
		</trkpt>
		<trkpt lat="47.4344282225" lon="11.0503962077">
			<ele>2086.2</ele>
			<time>2012-07-26T07:23:02Z</time>
		</trkpt>
		<trkpt lat="47.4344282225" lon="11.0503962077">
			<ele>2087.16</ele>
			<time>2012-07-26T07:23:13Z</time>
		</trkpt>
		<trkpt lat="47.4344179127" lon="11.0503879935">
			<ele>2089.08</ele>
			<time>2012-07-26T07:23:24Z</time>
		</trkpt>
		<trkpt lat="47.4344179127" lon="11.0503879935">
			<ele>2090.04</ele>
			<time>2012-07-26T07:23:33Z</time>
		</trkpt>
		<trkpt lat="47.4344179127" lon="11.0503879935">
			<ele>2091.97</ele>
			<time>2012-07-26T07:23:45Z</time>
		</trkpt>
		<trkpt lat="47.4344179127" lon="11.0503879935">
			<ele>2092.93</ele>
			<time>2012-07-26T07:23:56Z</time>
		</trkpt>
		<trkpt lat="47.4344133027" lon="11.0503781866">
			<ele>2094.85</ele>
			<time>2012-07-26T07:24:05Z</time>
		</trkpt>
		<trkpt lat="47.4344133027" lon="11.0503781866">
			<ele>2096.77</ele>
			<time>2012-07-26T07:24:16Z</time>
		</trkpt>
		<trkpt lat="47.4344133027" lon="11.0503781866">
			<ele>2098.21</ele>
			<time>2012-07-26T07:24:27Z</time>
		</trkpt>
		<trkpt lat="47.4344133027" lon="11.0503781866">
			<ele>2098.7</ele>
			<time>2012-07-26T07:24:37Z</time>
		</trkpt>
		<trkpt lat="47.4344146438" lon="11.0503610037">
			<ele>2099.66</ele>
			<time>2012-07-26T07:24:49Z</time>
		</trkpt>
		<trkpt lat="47.4344146438" lon="11.0503610037">
			<ele>2100.62</ele>
			<time>2012-07-26T07:25:04Z</time>
		</trkpt>
		<trkpt lat="47.4344146438" lon="11.0503610037">
			<ele>2101.58</ele>
			<time>2012-07-26T07:25:15Z</time>
		</trkpt>
		<trkpt lat="47.4344212655" lon="11.0503200162">
			<ele>2102.54</ele>
			<time>2012-07-26T07:25:23Z</time>
		</trkpt>
		<trkpt lat="47.4344219361" lon="11.0503195133">
			<ele>2104.46</ele>
			<time>2012-07-26T07:25:31Z</time>
		</trkpt>
		<trkpt lat="47.4344212655" lon="11.0503200162">
			<ele>2105.91</ele>
			<time>2012-07-26T07:25:46Z</time>
		</trkpt>
		<trkpt lat="47.4344278034" lon="11.0503076948">
			<ele>2106.39</ele>
			<time>2012-07-26T07:26:00Z</time>
		</trkpt>
		<trkpt lat="47.4344278034" lon="11.0503076948">
			<ele>2107.35</ele>
			<time>2012-07-26T07:26:13Z</time>
		</trkpt>
		<trkpt lat="47.4344292283" lon="11.0503009055">
			<ele>2109.27</ele>
			<time>2012-07-26T07:26:22Z</time>
		</trkpt>
		<trkpt lat="47.4344252888" lon="11.0501893423">
			<ele>2110.23</ele>
			<time>2012-07-26T07:26:33Z</time>
		</trkpt>
		<trkpt lat="47.434420092" lon="11.05016822">
			<ele>2111.67</ele>
			<time>2012-07-26T07:26:42Z</time>
		</trkpt>
		<trkpt lat="47.4344096985" lon="11.0501060262">
			<ele>2112.63</ele>
			<time>2012-07-26T07:26:51Z</time>
		</trkpt>
		<trkpt lat="47.4344029929" lon="11.0500916932">
			<ele>2112.15</ele>
			<time>2012-07-26T07:26:52Z</time>
		</trkpt>
		<trkpt lat="47.4343573116" lon="11.0500029288">
			<ele>2113.12</ele>
			<time>2012-07-26T07:27:01Z</time>
		</trkpt>
		<trkpt lat="47.4343574792" lon="11.0500025097">
			<ele>2113.6</ele>
			<time>2012-07-26T07:27:02Z</time>
		</trkpt>
		<trkpt lat="47.4343387876" lon="11.0499711614">
			<ele>2114.08</ele>
			<time>2012-07-26T07:27:05Z</time>
		</trkpt>
		<trkpt lat="47.4343101215" lon="11.0498934612">
			<ele>2115.52</ele>
			<time>2012-07-26T07:27:12Z</time>
		</trkpt>
		<trkpt lat="47.4342991412" lon="11.0498885158">
			<ele>2116</ele>
			<time>2012-07-26T07:27:16Z</time>
		</trkpt>
		<trkpt lat="47.4342754204" lon="11.0498700757">
			<ele>2116.96</ele>
			<time>2012-07-26T07:27:25Z</time>
		</trkpt>
		<trkpt lat="47.4342529569" lon="11.0498474445">
			<ele>2118.4</ele>
			<time>2012-07-26T07:27:35Z</time>
		</trkpt>
		<trkpt lat="47.4342313316" lon="11.0498247296">
			<ele>2118.88</ele>
			<time>2012-07-26T07:27:45Z</time>
		</trkpt>
		<trkpt lat="47.4342211057" lon="11.0498288367">
			<ele>2119.84</ele>
			<time>2012-07-26T07:27:54Z</time>
		</trkpt>
		<trkpt lat="47.4342578184" lon="11.0498276632">
			<ele>2121.29</ele>
			<time>2012-07-26T07:28:04Z</time>
		</trkpt>
		<trkpt lat="47.434274666" lon="11.0498150066">
			<ele>2122.73</ele>
			<time>2012-07-26T07:28:14Z</time>
		</trkpt>
		<trkpt lat="47.4342652783" lon="11.049818024">
			<ele>2123.21</ele>
			<time>2012-07-26T07:28:27Z</time>
		</trkpt>
		<trkpt lat="47.4342562258" lon="11.0498153418">
			<ele>2123.69</ele>
			<time>2012-07-26T07:28:37Z</time>
		</trkpt>
		<trkpt lat="47.4342402164" lon="11.0497949738">
			<ele>2124.65</ele>
			<time>2012-07-26T07:28:44Z</time>
		</trkpt>
		<trkpt lat="47.4342319183" lon="11.0497829877">
			<ele>2126.57</ele>
			<time>2012-07-26T07:28:54Z</time>
		</trkpt>
		<trkpt lat="47.4342279788" lon="11.0497832391">
			<ele>2128.02</ele>
			<time>2012-07-26T07:29:04Z</time>
		</trkpt>
		<trkpt lat="47.4342226982" lon="11.0497901961">
			<ele>2128.98</ele>
			<time>2012-07-26T07:29:16Z</time>
		</trkpt>
		<trkpt lat="47.4342087004" lon="11.0497668106">
			<ele>2129.94</ele>
			<time>2012-07-26T07:29:25Z</time>
		</trkpt>
		<trkpt lat="47.4342087004" lon="11.0497668106">
			<ele>2128.98</ele>
			<time>2012-07-26T07:29:43Z</time>
		</trkpt>
		<trkpt lat="47.4342086166" lon="11.0497629549">
			<ele>2128.98</ele>
			<time>2012-07-26T07:30:05Z</time>
		</trkpt>
		<trkpt lat="47.4342153221" lon="11.0497471131">
			<ele>2129.46</ele>
			<time>2012-07-26T07:30:18Z</time>
		</trkpt>
		<trkpt lat="47.4341986421" lon="11.0496917088">
			<ele>2131.38</ele>
			<time>2012-07-26T07:30:29Z</time>
		</trkpt>
		<trkpt lat="47.4341884162" lon="11.0496771242">
			<ele>2132.82</ele>
			<time>2012-07-26T07:30:38Z</time>
		</trkpt>
		<trkpt lat="47.4341906793" lon="11.0496720113">
			<ele>2135.23</ele>
			<time>2012-07-26T07:30:48Z</time>
		</trkpt>
		<trkpt lat="47.4341906793" lon="11.0496720113">
			<ele>2136.19</ele>
			<time>2012-07-26T07:30:57Z</time>
		</trkpt>
		<trkpt lat="47.4341693893" lon="11.049684165">
			<ele>2137.15</ele>
			<time>2012-07-26T07:31:07Z</time>
		</trkpt>
		<trkpt lat="47.4341659527" lon="11.0496917926">
			<ele>2136.67</ele>
			<time>2012-07-26T07:31:18Z</time>
		</trkpt>
		<trkpt lat="47.4341507815" lon="11.0496759508">
			<ele>2138.59</ele>
			<time>2012-07-26T07:31:27Z</time>
		</trkpt>
		<trkpt lat="47.4341293238" lon="11.0497222189">
			<ele>2139.55</ele>
			<time>2012-07-26T07:31:39Z</time>
		</trkpt>
		<trkpt lat="47.4341293238" lon="11.0497222189">
			<ele>2140.99</ele>
			<time>2012-07-26T07:31:51Z</time>
		</trkpt>
		<trkpt lat="47.4340723269" lon="11.0497640446">
			<ele>2142.44</ele>
			<time>2012-07-26T07:32:00Z</time>
		</trkpt>
		<trkpt lat="47.4340607598" lon="11.0497636255">
			<ele>2143.88</ele>
			<time>2012-07-26T07:32:10Z</time>
		</trkpt>
		<trkpt lat="47.4340427388" lon="11.0497541539">
			<ele>2145.32</ele>
			<time>2012-07-26T07:32:24Z</time>
		</trkpt>
		<trkpt lat="47.4340369552" lon="11.0497533996">
			<ele>2146.28</ele>
			<time>2012-07-26T07:32:33Z</time>
		</trkpt>
		<trkpt lat="47.4340284895" lon="11.0497277509">
			<ele>2148.2</ele>
			<time>2012-07-26T07:32:43Z</time>
		</trkpt>
		<trkpt lat="47.4340218678" lon="11.0497072991">
			<ele>2149.16</ele>
			<time>2012-07-26T07:32:52Z</time>
		</trkpt>
		<trkpt lat="47.4340256397" lon="11.0496264976">
			<ele>2150.61</ele>
			<time>2012-07-26T07:33:02Z</time>
		</trkpt>
		<trkpt lat="47.4340183474" lon="11.049604537">
			<ele>2150.61</ele>
			<time>2012-07-26T07:33:15Z</time>
		</trkpt>
		<trkpt lat="47.4340242986" lon="11.0496010166">
			<ele>2152.05</ele>
			<time>2012-07-26T07:33:33Z</time>
		</trkpt>
		<trkpt lat="47.4340024218" lon="11.0495744459">
			<ele>2153.01</ele>
			<time>2012-07-26T07:33:40Z</time>
		</trkpt>
		<trkpt lat="47.4339947104" lon="11.0495590232">
			<ele>2153.97</ele>
			<time>2012-07-26T07:33:47Z</time>
		</trkpt>
		<trkpt lat="47.4339888431" lon="11.0495510604">
			<ele>2154.93</ele>
			<time>2012-07-26T07:33:58Z</time>
		</trkpt>
		<trkpt lat="47.4339835625" lon="11.0495455284">
			<ele>2154.93</ele>
			<time>2012-07-26T07:34:17Z</time>
		</trkpt>
		<trkpt lat="47.4339641165" lon="11.0495160241">
			<ele>2155.41</ele>
			<time>2012-07-26T07:34:25Z</time>
		</trkpt>
		<trkpt lat="47.4339577463" lon="11.0495012719">
			<ele>2154.93</ele>
			<time>2012-07-26T07:34:33Z</time>
		</trkpt>
		<trkpt lat="47.4339577463" lon="11.0495012719">
			<ele>2154.45</ele>
			<time>2012-07-26T07:34:51Z</time>
		</trkpt>
		<trkpt lat="47.4339569919" lon="11.0494932253">
			<ele>2154.93</ele>
			<time>2012-07-26T07:35:13Z</time>
		</trkpt>
		<trkpt lat="47.4339569919" lon="11.0494932253">
			<ele>2154.45</ele>
			<time>2012-07-26T07:35:31Z</time>
		</trkpt>
		<trkpt lat="47.4339569919" lon="11.0494932253">
			<ele>2154.93</ele>
			<time>2012-07-26T07:35:49Z</time>
		</trkpt>
		<trkpt lat="47.4339577463" lon="11.0494856816">
			<ele>2155.41</ele>
			<time>2012-07-26T07:36:04Z</time>
		</trkpt>
		<trkpt lat="47.4339545611" lon="11.0494135134">
			<ele>2155.89</ele>
			<time>2012-07-26T07:36:15Z</time>
		</trkpt>
		<trkpt lat="47.4339651223" lon="11.049347464">
			<ele>2157.34</ele>
			<time>2012-07-26T07:36:24Z</time>
		</trkpt>
		<trkpt lat="47.4339677207" lon="11.0493376572">
			<ele>2158.78</ele>
			<time>2012-07-26T07:36:34Z</time>
		</trkpt>
		<trkpt lat="47.4339619372" lon="11.0492904671">
			<ele>2159.74</ele>
			<time>2012-07-26T07:36:42Z</time>
		</trkpt>
		<trkpt lat="47.433973169" lon="11.0492287762">
			<ele>2160.7</ele>
			<time>2012-07-26T07:36:50Z</time>
		</trkpt>
		<trkpt lat="47.434001416" lon="11.0491729528">
			<ele>2161.18</ele>
			<time>2012-07-26T07:36:56Z</time>
		</trkpt>
		<trkpt lat="47.4340138212" lon="11.0491234995">
			<ele>2162.62</ele>
			<time>2012-07-26T07:37:07Z</time>
		</trkpt>
		<trkpt lat="47.4340141565" lon="11.0491022095">
			<ele>2164.06</ele>
			<time>2012-07-26T07:37:18Z</time>
		</trkpt>
		<trkpt lat="47.4340115581" lon="11.0490707774">
			<ele>2165.99</ele>
			<time>2012-07-26T07:37:28Z</time>
		</trkpt>
		<trkpt lat="47.4340156652" lon="11.0490090027">
			<ele>2167.43</ele>
			<time>2012-07-26T07:37:37Z</time>
		</trkpt>
		<trkpt lat="47.4340194371" lon="11.0489763971">
			<ele>2168.39</ele>
			<time>2012-07-26T07:37:45Z</time>
		</trkpt>
		<trkpt lat="47.434020862" lon="11.0489442945">
			<ele>2169.35</ele>
			<time>2012-07-26T07:37:55Z</time>
		</trkpt>
		<trkpt lat="47.4340211134" lon="11.0489399359">
			<ele>2169.83</ele>
			<time>2012-07-26T07:38:10Z</time>
		</trkpt>
		<trkpt lat="47.4340211134" lon="11.0489399359">
			<ele>2171.76</ele>
			<time>2012-07-26T07:38:20Z</time>
		</trkpt>
		<trkpt lat="47.4340213649" lon="11.0489043128">
			<ele>2172.72</ele>
			<time>2012-07-26T07:38:28Z</time>
		</trkpt>
		<trkpt lat="47.4340232927" lon="11.0488763172">
			<ele>2173.68</ele>
			<time>2012-07-26T07:38:40Z</time>
		</trkpt>
		<trkpt lat="47.4340155814" lon="11.0488546081">
			<ele>2174.64</ele>
			<time>2012-07-26T07:38:48Z</time>
		</trkpt>
		<trkpt lat="47.4339933693" lon="11.0488951765">
			<ele>2175.6</ele>
			<time>2012-07-26T07:38:58Z</time>
		</trkpt>
		<trkpt lat="47.433996303" lon="11.0488853697">
			<ele>2177.04</ele>
			<time>2012-07-26T07:39:08Z</time>
		</trkpt>
		<trkpt lat="47.4339823052" lon="11.0489354935">
			<ele>2177.52</ele>
			<time>2012-07-26T07:39:17Z</time>
		</trkpt>
		<trkpt lat="47.4339833949" lon="11.0489323083">
			<ele>2178</ele>
			<time>2012-07-26T07:39:20Z</time>
		</trkpt>
		<trkpt lat="47.4339848198" lon="11.0489385948">
			<ele>2178.48</ele>
			<time>2012-07-26T07:39:29Z</time>
		</trkpt>
		<trkpt lat="47.4339647871" lon="11.0489447135">
			<ele>2179.93</ele>
			<time>2012-07-26T07:39:40Z</time>
		</trkpt>
		<trkpt lat="47.4339491129" lon="11.0489527602">
			<ele>2181.37</ele>
			<time>2012-07-26T07:39:51Z</time>
		</trkpt>
		<trkpt lat="47.4339527171" lon="11.0489131138">
			<ele>2182.33</ele>
			<time>2012-07-26T07:39:59Z</time>
		</trkpt>
		<trkpt lat="47.4339763541" lon="11.0489194002">
			<ele>2183.77</ele>
			<time>2012-07-26T07:40:09Z</time>
		</trkpt>
		<trkpt lat="47.4339763541" lon="11.0489194002">
			<ele>2185.21</ele>
			<time>2012-07-26T07:40:20Z</time>
		</trkpt>
		<trkpt lat="47.4339761864" lon="11.0489186458">
			<ele>2186.18</ele>
			<time>2012-07-26T07:40:30Z</time>
		</trkpt>
		<trkpt lat="47.4339766055" lon="11.0489102639">
			<ele>2187.62</ele>
			<time>2012-07-26T07:40:40Z</time>
		</trkpt>
		<trkpt lat="47.433978701" lon="11.0489014629">
			<ele>2188.58</ele>
			<time>2012-07-26T07:40:50Z</time>
		</trkpt>
		<trkpt lat="47.4339750968" lon="11.0488834418">
			<ele>2190.5</ele>
			<time>2012-07-26T07:41:01Z</time>
		</trkpt>
		<trkpt lat="47.4339762703" lon="11.0488498304">
			<ele>2190.98</ele>
			<time>2012-07-26T07:41:10Z</time>
		</trkpt>
		<trkpt lat="47.4339595065" lon="11.0488257743">
			<ele>2192.42</ele>
			<time>2012-07-26T07:41:20Z</time>
		</trkpt>
		<trkpt lat="47.4339351151" lon="11.0487845354">
			<ele>2193.39</ele>
			<time>2012-07-26T07:41:29Z</time>
		</trkpt>
		<trkpt lat="47.4339216202" lon="11.0487722978">
			<ele>2193.87</ele>
			<time>2012-07-26T07:41:41Z</time>
		</trkpt>
		<trkpt lat="47.4338981509" lon="11.0487588868">
			<ele>2194.35</ele>
			<time>2012-07-26T07:41:57Z</time>
		</trkpt>
		<trkpt lat="47.4338892661" lon="11.0487712082">
			<ele>2196.27</ele>
			<time>2012-07-26T07:42:06Z</time>
		</trkpt>
		<trkpt lat="47.433833275" lon="11.0487419553">
			<ele>2198.19</ele>
			<time>2012-07-26T07:42:17Z</time>
		</trkpt>
		<trkpt lat="47.4338315148" lon="11.0487410333">
			<ele>2198.67</ele>
			<time>2012-07-26T07:42:18Z</time>
		</trkpt>
		<trkpt lat="47.433816595" lon="11.0487516783">
			<ele>2199.15</ele>
			<time>2012-07-26T07:42:27Z</time>
		</trkpt>
		<trkpt lat="47.433811482" lon="11.0487538576">
			<ele>2199.63</ele>
			<time>2012-07-26T07:42:29Z</time>
		</trkpt>
		<trkpt lat="47.4337919522" lon="11.0487474874">
			<ele>2201.08</ele>
			<time>2012-07-26T07:42:38Z</time>
		</trkpt>
		<trkpt lat="47.4337919522" lon="11.0487474874">
			<ele>2202.52</ele>
			<time>2012-07-26T07:42:48Z</time>
		</trkpt>
		<trkpt lat="47.4337919522" lon="11.0487474874">
			<ele>2203.96</ele>
			<time>2012-07-26T07:42:58Z</time>
		</trkpt>
		<trkpt lat="47.433776781" lon="11.0487605631">
			<ele>2204.44</ele>
			<time>2012-07-26T07:43:00Z</time>
		</trkpt>
		<trkpt lat="47.433760101" lon="11.0487772431">
			<ele>2205.88</ele>
			<time>2012-07-26T07:43:11Z</time>
		</trkpt>
		<trkpt lat="47.433760101" lon="11.0487772431">
			<ele>2206.36</ele>
			<time>2012-07-26T07:43:21Z</time>
		</trkpt>
		<trkpt lat="47.433760101" lon="11.0487772431">
			<ele>2207.32</ele>
			<time>2012-07-26T07:43:31Z</time>
		</trkpt>
		<trkpt lat="47.433731351" lon="11.0488115251">
			<ele>2208.29</ele>
			<time>2012-07-26T07:43:41Z</time>
		</trkpt>
		<trkpt lat="47.433731351" lon="11.0488115251">
			<ele>2209.25</ele>
			<time>2012-07-26T07:43:52Z</time>
		</trkpt>
		<trkpt lat="47.433731351" lon="11.0488115251">
			<ele>2210.21</ele>
			<time>2012-07-26T07:44:01Z</time>
		</trkpt>
		<trkpt lat="47.433731351" lon="11.0488115251">
			<ele>2212.13</ele>
			<time>2012-07-26T07:44:12Z</time>
		</trkpt>
		<trkpt lat="47.4337270763" lon="11.0488088429">
			<ele>2212.61</ele>
			<time>2012-07-26T07:44:22Z</time>
		</trkpt>
		<trkpt lat="47.4337174371" lon="11.0487838648">
			<ele>2213.09</ele>
			<time>2012-07-26T07:44:33Z</time>
		</trkpt>
		<trkpt lat="47.4336891901" lon="11.048743967">
			<ele>2213.57</ele>
			<time>2012-07-26T07:44:43Z</time>
		</trkpt>
		<trkpt lat="47.4336465262" lon="11.0486513469">
			<ele>2214.05</ele>
			<time>2012-07-26T07:44:52Z</time>
		</trkpt>
		<trkpt lat="47.4336409941" lon="11.0486443061">
			<ele>2214.53</ele>
			<time>2012-07-26T07:45:09Z</time>
		</trkpt>
		<trkpt lat="47.4336409941" lon="11.0486443061">
			<ele>2215.5</ele>
			<time>2012-07-26T07:45:11Z</time>
		</trkpt>
		<trkpt lat="47.4336425867" lon="11.0486418754">
			<ele>2216.46</ele>
			<time>2012-07-26T07:45:20Z</time>
		</trkpt>
		<trkpt lat="47.433623476" lon="11.0486585554">
			<ele>2217.9</ele>
			<time>2012-07-26T07:45:29Z</time>
		</trkpt>
		<trkpt lat="47.4335746095" lon="11.0487171449">
			<ele>2219.34</ele>
			<time>2012-07-26T07:45:39Z</time>
		</trkpt>
		<trkpt lat="47.4335529841" lon="11.0487317294">
			<ele>2221.26</ele>
			<time>2012-07-26T07:45:50Z</time>
		</trkpt>
		<trkpt lat="47.4335270841" lon="11.048743045">
			<ele>2222.22</ele>
			<time>2012-07-26T07:45:58Z</time>
		</trkpt>
		<trkpt lat="47.4335180316" lon="11.0487454757">
			<ele>2223.67</ele>
			<time>2012-07-26T07:46:01Z</time>
		</trkpt>
		<trkpt lat="47.4334560893" lon="11.0487261973">
			<ele>2224.15</ele>
			<time>2012-07-26T07:46:09Z</time>
		</trkpt>
		<trkpt lat="47.4334259983" lon="11.0487143788">
			<ele>2225.59</ele>
			<time>2012-07-26T07:46:18Z</time>
		</trkpt>
		<trkpt lat="47.4333913811" lon="11.0486687813">
			<ele>2227.03</ele>
			<time>2012-07-26T07:46:28Z</time>
		</trkpt>
		<trkpt lat="47.4333803169" lon="11.0486620758">
			<ele>2227.51</ele>
			<time>2012-07-26T07:46:36Z</time>
		</trkpt>
		<trkpt lat="47.4333757069" lon="11.048655957">
			<ele>2228.47</ele>
			<time>2012-07-26T07:46:50Z</time>
		</trkpt>
		<trkpt lat="47.4333731923" lon="11.0486385226">
			<ele>2229.92</ele>
			<time>2012-07-26T07:46:57Z</time>
		</trkpt>
		<trkpt lat="47.4333800655" lon="11.0486106947">
			<ele>2230.88</ele>
			<time>2012-07-26T07:47:09Z</time>
		</trkpt>
		<trkpt lat="47.4333840888" lon="11.0485659353">
			<ele>2231.36</ele>
			<time>2012-07-26T07:47:19Z</time>
		</trkpt>
		<trkpt lat="47.4333798978" lon="11.0485492554">
			<ele>2232.32</ele>
			<time>2012-07-26T07:47:38Z</time>
		</trkpt>
		<trkpt lat="47.4333698396" lon="11.0485262889">
			<ele>2234.24</ele>
			<time>2012-07-26T07:47:47Z</time>
		</trkpt>
		<trkpt lat="47.4333559256" lon="11.0485194158">
			<ele>2235.68</ele>
			<time>2012-07-26T07:47:56Z</time>
		</trkpt>
		<trkpt lat="47.433353411" lon="11.0485204216">
			<ele>2237.13</ele>
			<time>2012-07-26T07:48:06Z</time>
		</trkpt>
		<trkpt lat="47.433353411" lon="11.0485204216">
			<ele>2238.57</ele>
			<time>2012-07-26T07:48:17Z</time>
		</trkpt>
		<trkpt lat="47.433353411" lon="11.0485204216">
			<ele>2239.53</ele>
			<time>2012-07-26T07:48:28Z</time>
		</trkpt>
		<trkpt lat="47.4333511479" lon="11.0485174041">
			<ele>2240.97</ele>
			<time>2012-07-26T07:48:37Z</time>
		</trkpt>
		<trkpt lat="47.4333511479" lon="11.0485174041">
			<ele>2241.45</ele>
			<time>2012-07-26T07:48:49Z</time>
		</trkpt>
		<trkpt lat="47.4333511479" lon="11.0485174041">
			<ele>2241.93</ele>
			<time>2012-07-26T07:49:04Z</time>
		</trkpt>
		<trkpt lat="47.4333511479" lon="11.048518829">
			<ele>2242.89</ele>
			<time>2012-07-26T07:49:17Z</time>
		</trkpt>
		<trkpt lat="47.433338156" lon="11.0485226009">
			<ele>2244.82</ele>
			<time>2012-07-26T07:49:29Z</time>
		</trkpt>
		<trkpt lat="47.433338156" lon="11.0485226009">
			<ele>2246.26</ele>
			<time>2012-07-26T07:49:41Z</time>
		</trkpt>
		<trkpt lat="47.433312675" lon="11.0485200863">
			<ele>2247.7</ele>
			<time>2012-07-26T07:49:52Z</time>
		</trkpt>
		<trkpt lat="47.4332773872" lon="11.0485215951">
			<ele>2249.14</ele>
			<time>2012-07-26T07:50:02Z</time>
		</trkpt>
		<trkpt lat="47.4332711007" lon="11.0485238582">
			<ele>2249.14</ele>
			<time>2012-07-26T07:50:14Z</time>
		</trkpt>
		<trkpt lat="47.4332622997" lon="11.0485241096">
			<ele>2250.1</ele>
			<time>2012-07-26T07:50:24Z</time>
		</trkpt>
		<trkpt lat="47.4332267605" lon="11.0485246964">
			<ele>2252.03</ele>
			<time>2012-07-26T07:50:36Z</time>
		</trkpt>
		<trkpt lat="47.4332267605" lon="11.0485246964">
			<ele>2252.51</ele>
			<time>2012-07-26T07:50:47Z</time>
		</trkpt>
		<trkpt lat="47.4332267605" lon="11.0485246964">
			<ele>2254.43</ele>
			<time>2012-07-26T07:51:01Z</time>
		</trkpt>
		<trkpt lat="47.4332208093" lon="11.0485283844">
			<ele>2255.39</ele>
			<time>2012-07-26T07:51:22Z</time>
		</trkpt>
		<trkpt lat="47.4331913888" lon="11.0485234391">
			<ele>2256.35</ele>
			<time>2012-07-26T07:51:31Z</time>
		</trkpt>
		<trkpt lat="47.4331563525" lon="11.0485038254">
			<ele>2257.79</ele>
			<time>2012-07-26T07:51:41Z</time>
		</trkpt>
		<trkpt lat="47.4331506528" lon="11.0485003889">
			<ele>2260.2</ele>
			<time>2012-07-26T07:51:51Z</time>
		</trkpt>
		<trkpt lat="47.4331456237" lon="11.0485029873">
			<ele>2261.16</ele>
			<time>2012-07-26T07:51:59Z</time>
		</trkpt>
		<trkpt lat="47.4331140239" lon="11.0485179909">
			<ele>2262.6</ele>
			<time>2012-07-26T07:52:10Z</time>
		</trkpt>
		<trkpt lat="47.4330436997" lon="11.0485182423">
			<ele>2263.56</ele>
			<time>2012-07-26T07:52:19Z</time>
		</trkpt>
		<trkpt lat="47.4329982698" lon="11.0485177394">
			<ele>2266.45</ele>
			<time>2012-07-26T07:52:31Z</time>
		</trkpt>
		<trkpt lat="47.4330043048" lon="11.0484766681">
			<ele>2266.93</ele>
			<time>2012-07-26T07:52:41Z</time>
		</trkpt>
		<trkpt lat="47.4330043048" lon="11.0484766681">
			<ele>2266.93</ele>
			<time>2012-07-26T07:52:57Z</time>
		</trkpt>
		<trkpt lat="47.4329832662" lon="11.0484675318">
			<ele>2267.89</ele>
			<time>2012-07-26T07:53:12Z</time>
		</trkpt>
		<trkpt lat="47.432935657" lon="11.0484546237">
			<ele>2267.89</ele>
			<time>2012-07-26T07:53:20Z</time>
		</trkpt>
		<trkpt lat="47.4329333939" lon="11.048462335">
			<ele>2269.81</ele>
			<time>2012-07-26T07:53:24Z</time>
		</trkpt>
		<trkpt lat="47.4328878801" lon="11.0484774224">
			<ele>2270.77</ele>
			<time>2012-07-26T07:53:35Z</time>
		</trkpt>
		<trkpt lat="47.4328454677" lon="11.0484970361">
			<ele>2272.21</ele>
			<time>2012-07-26T07:53:46Z</time>
		</trkpt>
		<trkpt lat="47.4328195676" lon="11.0485422146">
			<ele>2274.14</ele>
			<time>2012-07-26T07:53:54Z</time>
		</trkpt>
		<trkpt lat="47.4328016303" lon="11.0485773347">
			<ele>2275.1</ele>
			<time>2012-07-26T07:54:02Z</time>
		</trkpt>
		<trkpt lat="47.4327696953" lon="11.0486078449">
			<ele>2276.06</ele>
			<time>2012-07-26T07:54:13Z</time>
		</trkpt>
		<trkpt lat="47.432730468" lon="11.0486338288">
			<ele>2277.98</ele>
			<time>2012-07-26T07:54:23Z</time>
		</trkpt>
		<trkpt lat="47.432698952" lon="11.0486507602">
			<ele>2278.94</ele>
			<time>2012-07-26T07:54:32Z</time>
		</trkpt>
		<trkpt lat="47.4326918274" lon="11.0486754868">
			<ele>2279.42</ele>
			<time>2012-07-26T07:54:42Z</time>
		</trkpt>
		<trkpt lat="47.432654025" lon="11.0487219226">
			<ele>2281.35</ele>
			<time>2012-07-26T07:54:53Z</time>
		</trkpt>
		<trkpt lat="47.43263877" lon="11.0487396922">
			<ele>2283.75</ele>
			<time>2012-07-26T07:55:04Z</time>
		</trkpt>
		<trkpt lat="47.4326240178" lon="11.0487374291">
			<ele>2284.23</ele>
			<time>2012-07-26T07:55:14Z</time>
		</trkpt>
		<trkpt lat="47.43262209" lon="11.04868697">
			<ele>2286.63</ele>
			<time>2012-07-26T07:55:25Z</time>
		</trkpt>
		<trkpt lat="47.4326053262" lon="11.0486520175">
			<ele>2287.59</ele>
			<time>2012-07-26T07:55:36Z</time>
		</trkpt>
		<trkpt lat="47.4325888138" lon="11.0486158915">
			<ele>2288.08</ele>
			<time>2012-07-26T07:55:45Z</time>
		</trkpt>
		<trkpt lat="47.4325686134" lon="11.0485895723">
			<ele>2289.52</ele>
			<time>2012-07-26T07:55:53Z</time>
		</trkpt>
		<trkpt lat="47.4325594772" lon="11.0485797655">
			<ele>2290.48</ele>
			<time>2012-07-26T07:56:05Z</time>
		</trkpt>
		<trkpt lat="47.4325581361" lon="11.0485386103">
			<ele>2290</ele>
			<time>2012-07-26T07:56:24Z</time>
		</trkpt>
		<trkpt lat="47.4325345829" lon="11.048482703">
			<ele>2290.96</ele>
			<time>2012-07-26T07:56:32Z</time>
		</trkpt>
		<trkpt lat="47.4325266201" lon="11.0484637599">
			<ele>2293.36</ele>
			<time>2012-07-26T07:56:45Z</time>
		</trkpt>
		<trkpt lat="47.4324981216" lon="11.0484573059">
			<ele>2295.28</ele>
			<time>2012-07-26T07:56:56Z</time>
		</trkpt>
		<trkpt lat="47.4324780051" lon="11.0484559648">
			<ele>2296.25</ele>
			<time>2012-07-26T07:57:08Z</time>
		</trkpt>
		<trkpt lat="47.4324620795" lon="11.048456803">
			<ele>2298.17</ele>
			<time>2012-07-26T07:57:18Z</time>
		</trkpt>
		<trkpt lat="47.4324620795" lon="11.048456803">
			<ele>2299.61</ele>
			<time>2012-07-26T07:57:30Z</time>
		</trkpt>
		<trkpt lat="47.4324559607" lon="11.0484540369">
			<ele>2300.57</ele>
			<time>2012-07-26T07:57:38Z</time>
		</trkpt>
		<trkpt lat="47.4324443936" lon="11.048459569">
			<ele>2302.01</ele>
			<time>2012-07-26T07:57:48Z</time>
		</trkpt>
		<trkpt lat="47.4323987961" lon="11.0484555457">
			<ele>2302.98</ele>
			<time>2012-07-26T07:57:57Z</time>
		</trkpt>
		<trkpt lat="47.4323629215" lon="11.048478093">
			<ele>2304.9</ele>
			<time>2012-07-26T07:58:07Z</time>
		</trkpt>
		<trkpt lat="47.4323449843" lon="11.0484822001">
			<ele>2305.86</ele>
			<time>2012-07-26T07:58:17Z</time>
		</trkpt>
		<trkpt lat="47.4323389493" lon="11.0484879836">
			<ele>2307.3</ele>
			<time>2012-07-26T07:58:32Z</time>
		</trkpt>
		<trkpt lat="47.432321934" lon="11.0484968685">
			<ele>2308.74</ele>
			<time>2012-07-26T07:58:46Z</time>
		</trkpt>
		<trkpt lat="47.432321934" lon="11.0484968685">
			<ele>2308.26</ele>
			<time>2012-07-26T07:58:49Z</time>
		</trkpt>
		<trkpt lat="47.4322708044" lon="11.0484822001">
			<ele>2309.22</ele>
			<time>2012-07-26T07:58:58Z</time>
		</trkpt>
		<trkpt lat="47.4322655238" lon="11.0484769195">
			<ele>2310.67</ele>
			<time>2012-07-26T07:59:07Z</time>
		</trkpt>
		<trkpt lat="47.4322556332" lon="11.0484794341">
			<ele>2311.63</ele>
			<time>2012-07-26T07:59:17Z</time>
		</trkpt>
		<trkpt lat="47.4322495982" lon="11.0484849662">
			<ele>2312.59</ele>
			<time>2012-07-26T07:59:25Z</time>
		</trkpt>
		<trkpt lat="47.4322423898" lon="11.0484869778">
			<ele>2313.55</ele>
			<time>2012-07-26T07:59:35Z</time>
		</trkpt>
		<trkpt lat="47.4322420545" lon="11.0484883189">
			<ele>2314.03</ele>
			<time>2012-07-26T07:59:44Z</time>
		</trkpt>
		<trkpt lat="47.4322420545" lon="11.0484883189">
			<ele>2314.99</ele>
			<time>2012-07-26T07:59:56Z</time>
		</trkpt>
		<trkpt lat="47.4322288111" lon="11.0484951921">
			<ele>2315.95</ele>
			<time>2012-07-26T08:00:07Z</time>
		</trkpt>
		<trkpt lat="47.4322224408" lon="11.0484961141">
			<ele>2317.88</ele>
			<time>2012-07-26T08:00:19Z</time>
		</trkpt>
		<trkpt lat="47.4322224408" lon="11.0484961141">
			<ele>2319.32</ele>
			<time>2012-07-26T08:00:31Z</time>
		</trkpt>
		<trkpt lat="47.4321890809" lon="11.04850173">
			<ele>2321.24</ele>
			<time>2012-07-26T08:00:41Z</time>
		</trkpt>
		<trkpt lat="47.4321520329" lon="11.048494773">
			<ele>2322.68</ele>
			<time>2012-07-26T08:00:53Z</time>
		</trkpt>
		<trkpt lat="47.4321331736" lon="11.0484981257">
			<ele>2324.61</ele>
			<time>2012-07-26T08:01:03Z</time>
		</trkpt>
		<trkpt lat="47.4321127217" lon="11.0484959465">
			<ele>2324.61</ele>
			<time>2012-07-26T08:01:13Z</time>
		</trkpt>
		<trkpt lat="47.432109369" lon="11.048493851">
			<ele>2325.09</ele>
			<time>2012-07-26T08:01:27Z</time>
		</trkpt>
		<trkpt lat="47.4321054295" lon="11.0484807752">
			<ele>2327.01</ele>
			<time>2012-07-26T08:01:35Z</time>
		</trkpt>
		<trkpt lat="47.4321018253" lon="11.0484765843">
			<ele>2328.45</ele>
			<time>2012-07-26T08:01:46Z</time>
		</trkpt>
		<trkpt lat="47.4320980534" lon="11.0484725609">
			<ele>2329.41</ele>
			<time>2012-07-26T08:01:56Z</time>
		</trkpt>
		<trkpt lat="47.4320939463" lon="11.0484610777">
			<ele>2330.37</ele>
			<time>2012-07-26T08:02:07Z</time>
		</trkpt>
		<trkpt lat="47.432092689" lon="11.0484588984">
			<ele>2330.85</ele>
			<time>2012-07-26T08:02:22Z</time>
		</trkpt>
		<trkpt lat="47.4320914317" lon="11.0484588146">
			<ele>2330.85</ele>
			<time>2012-07-26T08:02:26Z</time>
		</trkpt>
		<trkpt lat="47.4320772663" lon="11.0484388657">
			<ele>2332.78</ele>
			<time>2012-07-26T08:02:36Z</time>
		</trkpt>
		<trkpt lat="47.4320674594" lon="11.0484273825">
			<ele>2333.74</ele>
			<time>2012-07-26T08:02:49Z</time>
		</trkpt>
		<trkpt lat="47.4320674594" lon="11.0484273825">
			<ele>2334.7</ele>
			<time>2012-07-26T08:03:04Z</time>
		</trkpt>
		<trkpt lat="47.4320594966" lon="11.0484340042">
			<ele>2335.66</ele>
			<time>2012-07-26T08:03:13Z</time>
		</trkpt>
		<trkpt lat="47.4320490193" lon="11.0484316573">
			<ele>2336.14</ele>
			<time>2012-07-26T08:03:22Z</time>
		</trkpt>
		<trkpt lat="47.4320460856" lon="11.048432244">
			<ele>2337.1</ele>
			<time>2012-07-26T08:03:32Z</time>
		</trkpt>
		<trkpt lat="47.4320460856" lon="11.048432244">
			<ele>2339.02</ele>
			<time>2012-07-26T08:03:44Z</time>
		</trkpt>
		<trkpt lat="47.4320460856" lon="11.048432244">
			<ele>2339.02</ele>
			<time>2012-07-26T08:03:52Z</time>
		</trkpt>
		<trkpt lat="47.4320279807" lon="11.0484268796">
			<ele>2340.47</ele>
			<time>2012-07-26T08:04:00Z</time>
		</trkpt>
		<trkpt lat="47.4320279807" lon="11.0484268796">
			<ele>2340.95</ele>
			<time>2012-07-26T08:04:09Z</time>
		</trkpt>
		<trkpt lat="47.4320279807" lon="11.0484268796">
			<ele>2341.91</ele>
			<time>2012-07-26T08:04:24Z</time>
		</trkpt>
		<trkpt lat="47.4320279807" lon="11.0484268796">
			<ele>2344.31</ele>
			<time>2012-07-26T08:04:36Z</time>
		</trkpt>
		<trkpt lat="47.4320168328" lon="11.0484267119">
			<ele>2345.27</ele>
			<time>2012-07-26T08:04:44Z</time>
		</trkpt>
		<trkpt lat="47.4320168328" lon="11.0484267119">
			<ele>2345.27</ele>
			<time>2012-07-26T08:04:52Z</time>
		</trkpt>
		<trkpt lat="47.4320168328" lon="11.0484267119">
			<ele>2345.27</ele>
			<time>2012-07-26T08:05:09Z</time>
		</trkpt>
		<trkpt lat="47.4319935311" lon="11.0484086908">
			<ele>2346.72</ele>
			<time>2012-07-26T08:05:19Z</time>
		</trkpt>
		<trkpt lat="47.4319843948" lon="11.0483982135">
			<ele>2348.16</ele>
			<time>2012-07-26T08:05:29Z</time>
		</trkpt>
		<trkpt lat="47.4319840595" lon="11.0483989678">
			<ele>2349.6</ele>
			<time>2012-07-26T08:05:39Z</time>
		</trkpt>
		<trkpt lat="47.4319843948" lon="11.0483982135">
			<ele>2351.52</ele>
			<time>2012-07-26T08:05:49Z</time>
		</trkpt>
		<trkpt lat="47.4319647811" lon="11.0483836289">
			<ele>2352.48</ele>
			<time>2012-07-26T08:05:57Z</time>
		</trkpt>
		<trkpt lat="47.4319319241" lon="11.0483585671">
			<ele>2353.44</ele>
			<time>2012-07-26T08:06:13Z</time>
		</trkpt>
		<trkpt lat="47.4318740051" lon="11.0483296495">
			<ele>2354.89</ele>
			<time>2012-07-26T08:06:24Z</time>
		</trkpt>
		<trkpt lat="47.431850452" lon="11.048334511">
			<ele>2356.33</ele>
			<time>2012-07-26T08:06:34Z</time>
		</trkpt>
		<trkpt lat="47.4318025075" lon="11.0482971277">
			<ele>2357.29</ele>
			<time>2012-07-26T08:06:43Z</time>
		</trkpt>
		<trkpt lat="47.4318025075" lon="11.0482971277">
			<ele>2357.29</ele>
			<time>2012-07-26T08:06:56Z</time>
		</trkpt>
		<trkpt lat="47.4317965563" lon="11.0482867341">
			<ele>2358.73</ele>
			<time>2012-07-26T08:07:10Z</time>
		</trkpt>
		<trkpt lat="47.4317841511" lon="11.0482505243">
			<ele>2359.21</ele>
			<time>2012-07-26T08:07:21Z</time>
		</trkpt>
		<trkpt lat="47.4317854922" lon="11.0482369456">
			<ele>2360.17</ele>
			<time>2012-07-26T08:07:35Z</time>
		</trkpt>
		<trkpt lat="47.4317731708" lon="11.048201574">
			<ele>2360.65</ele>
			<time>2012-07-26T08:07:48Z</time>
		</trkpt>
		<trkpt lat="47.4317714106" lon="11.0481835529">
			<ele>2361.14</ele>
			<time>2012-07-26T08:08:01Z</time>
		</trkpt>
		<trkpt lat="47.431767052" lon="11.0481508635">
			<ele>2362.58</ele>
			<time>2012-07-26T08:08:12Z</time>
		</trkpt>
		<trkpt lat="47.4317652918" lon="11.0481182579">
			<ele>2363.54</ele>
			<time>2012-07-26T08:08:24Z</time>
		</trkpt>
		<trkpt lat="47.4317714106" lon="11.04810711">
			<ele>2364.5</ele>
			<time>2012-07-26T08:08:37Z</time>
		</trkpt>
		<trkpt lat="47.4317704886" lon="11.0481076967">
			<ele>2365.46</ele>
			<time>2012-07-26T08:08:49Z</time>
		</trkpt>
		<trkpt lat="47.4317678064" lon="11.0481040925">
			<ele>2366.42</ele>
			<time>2012-07-26T08:09:03Z</time>
		</trkpt>
		<trkpt lat="47.4317427445" lon="11.0480900947">
			<ele>2368.35</ele>
			<time>2012-07-26T08:09:12Z</time>
		</trkpt>
		<trkpt lat="47.4317125697" lon="11.0480784439">
			<ele>2369.79</ele>
			<time>2012-07-26T08:09:23Z</time>
		</trkpt>
		<trkpt lat="47.431710558" lon="11.048076516">
			<ele>2369.79</ele>
			<time>2012-07-26T08:09:34Z</time>
		</trkpt>
		<trkpt lat="47.4316965602" lon="11.0480776895">
			<ele>2371.71</ele>
			<time>2012-07-26T08:09:46Z</time>
		</trkpt>
		<trkpt lat="47.4316875078" lon="11.048075594">
			<ele>2372.19</ele>
			<time>2012-07-26T08:09:56Z</time>
		</trkpt>
		<trkpt lat="47.4316808861" lon="11.0480813775">
			<ele>2373.63</ele>
			<time>2012-07-26T08:10:05Z</time>
		</trkpt>
		<trkpt lat="47.4316622782" lon="11.0480771866">
			<ele>2375.07</ele>
			<time>2012-07-26T08:10:15Z</time>
		</trkpt>
		<trkpt lat="47.431654986" lon="11.0480802879">
			<ele>2376.52</ele>
			<time>2012-07-26T08:10:28Z</time>
		</trkpt>
		<trkpt lat="47.4316308461" lon="11.048077438">
			<ele>2377.96</ele>
			<time>2012-07-26T08:10:39Z</time>
		</trkpt>
		<trkpt lat="47.4316253141" lon="11.0480776895">
			<ele>2377.96</ele>
			<time>2012-07-26T08:10:54Z</time>
		</trkpt>
		<trkpt lat="47.431600336" lon="11.0480822995">
			<ele>2379.4</ele>
			<time>2012-07-26T08:11:02Z</time>
		</trkpt>
		<trkpt lat="47.4315901101" lon="11.0480879992">
			<ele>2379.88</ele>
			<time>2012-07-26T08:11:15Z</time>
		</trkpt>
		<trkpt lat="47.4315761123" lon="11.0480900947">
			<ele>2381.8</ele>
			<time>2012-07-26T08:11:29Z</time>
		</trkpt>
		<trkpt lat="47.4315761123" lon="11.0480900947">
			<ele>2382.28</ele>
			<time>2012-07-26T08:11:48Z</time>
		</trkpt>
		<trkpt lat="47.4315761123" lon="11.0480900947">
			<ele>2383.25</ele>
			<time>2012-07-26T08:12:04Z</time>
		</trkpt>
		<trkpt lat="47.4315684009" lon="11.048088586">
			<ele>2384.21</ele>
			<time>2012-07-26T08:12:15Z</time>
		</trkpt>
		<trkpt lat="47.4315457698" lon="11.0480723251">
			<ele>2385.65</ele>
			<time>2012-07-26T08:12:27Z</time>
		</trkpt>
		<trkpt lat="47.4315411597" lon="11.0480664577">
			<ele>2387.09</ele>
			<time>2012-07-26T08:12:38Z</time>
		</trkpt>
		<trkpt lat="47.4315411597" lon="11.0480664577">
			<ele>2388.53</ele>
			<time>2012-07-26T08:12:50Z</time>
		</trkpt>
		<trkpt lat="47.4315355439" lon="11.0480540525">
			<ele>2389.49</ele>
			<time>2012-07-26T08:13:04Z</time>
		</trkpt>
		<trkpt lat="47.4315225519" lon="11.048014909">
			<ele>2390.94</ele>
			<time>2012-07-26T08:13:13Z</time>
		</trkpt>
		<trkpt lat="47.4315205403" lon="11.0480045155">
			<ele>2391.42</ele>
			<time>2012-07-26T08:13:28Z</time>
		</trkpt>
		<trkpt lat="47.4315047823" lon="11.0479658749">
			<ele>2392.38</ele>
			<time>2012-07-26T08:13:38Z</time>
		</trkpt>
		<trkpt lat="47.4315047823" lon="11.0479658749">
			<ele>2393.82</ele>
			<time>2012-07-26T08:13:51Z</time>
		</trkpt>
		<trkpt lat="47.4314866774" lon="11.0479151644">
			<ele>2395.26</ele>
			<time>2012-07-26T08:14:02Z</time>
		</trkpt>
		<trkpt lat="47.4314866774" lon="11.0479151644">
			<ele>2396.7</ele>
			<time>2012-07-26T08:14:11Z</time>
		</trkpt>
		<trkpt lat="47.4314866774" lon="11.0479151644">
			<ele>2398.15</ele>
			<time>2012-07-26T08:14:20Z</time>
		</trkpt>
		<trkpt lat="47.4314866774" lon="11.0479151644">
			<ele>2399.59</ele>
			<time>2012-07-26T08:14:30Z</time>
		</trkpt>
		<trkpt lat="47.4314905331" lon="11.0479151644">
			<ele>2400.55</ele>
			<time>2012-07-26T08:14:42Z</time>
		</trkpt>
		<trkpt lat="47.4314905331" lon="11.0479151644">
			<ele>2401.03</ele>
			<time>2012-07-26T08:14:53Z</time>
		</trkpt>
		<trkpt lat="47.4314905331" lon="11.0479151644">
			<ele>2402.47</ele>
			<time>2012-07-26T08:15:05Z</time>
		</trkpt>
		<trkpt lat="47.431491958" lon="11.0479067825">
			<ele>2402.95</ele>
			<time>2012-07-26T08:15:22Z</time>
		</trkpt>
		<trkpt lat="47.431491958" lon="11.0479067825">
			<ele>2404.88</ele>
			<time>2012-07-26T08:15:34Z</time>
		</trkpt>
		<trkpt lat="47.431491958" lon="11.0479067825">
			<ele>2406.32</ele>
			<time>2012-07-26T08:15:51Z</time>
		</trkpt>
		<trkpt lat="47.4314762838" lon="11.0479140747">
			<ele>2407.76</ele>
			<time>2012-07-26T08:16:00Z</time>
		</trkpt>
		<trkpt lat="47.4314762838" lon="11.0479140747">
			<ele>2408.72</ele>
			<time>2012-07-26T08:16:11Z</time>
		</trkpt>
		<trkpt lat="47.4314762838" lon="11.0479140747">
			<ele>2410.16</ele>
			<time>2012-07-26T08:16:21Z</time>
		</trkpt>
		<trkpt lat="47.4314505514" lon="11.0479071178">
			<ele>2412.09</ele>
			<time>2012-07-26T08:16:32Z</time>
		</trkpt>
		<trkpt lat="47.4314415827" lon="11.0478431638">
			<ele>2413.53</ele>
			<time>2012-07-26T08:16:40Z</time>
		</trkpt>
		<trkpt lat="47.4314415827" lon="11.0478431638">
			<ele>2415.45</ele>
			<time>2012-07-26T08:16:49Z</time>
		</trkpt>
		<trkpt lat="47.431411827" lon="11.0478209518">
			<ele>2416.41</ele>
			<time>2012-07-26T08:16:58Z</time>
		</trkpt>
		<trkpt lat="47.431411827" lon="11.0478209518">
			<ele>2417.37</ele>
			<time>2012-07-26T08:17:04Z</time>
		</trkpt>
		<trkpt lat="47.431411827" lon="11.0478209518">
			<ele>2418.81</ele>
			<time>2012-07-26T08:17:15Z</time>
		</trkpt>
		<trkpt lat="47.431411827" lon="11.0478209518">
			<ele>2420.26</ele>
			<time>2012-07-26T08:17:24Z</time>
		</trkpt>
		<trkpt lat="47.4314008467" lon="11.0478230473">
			<ele>2421.22</ele>
			<time>2012-07-26T08:17:35Z</time>
		</trkpt>
		<trkpt lat="47.4314008467" lon="11.0478230473">
			<ele>2422.18</ele>
			<time>2012-07-26T08:17:42Z</time>
		</trkpt>
		<trkpt lat="47.4314008467" lon="11.0478230473">
			<ele>2423.14</ele>
			<time>2012-07-26T08:17:53Z</time>
		</trkpt>
		<trkpt lat="47.4314008467" lon="11.0478230473">
			<ele>2424.1</ele>
			<time>2012-07-26T08:18:03Z</time>
		</trkpt>
		<trkpt lat="47.4313898664" lon="11.0478156712">
			<ele>2425.06</ele>
			<time>2012-07-26T08:18:12Z</time>
		</trkpt>
		<trkpt lat="47.4313898664" lon="11.0478156712">
			<ele>2426.02</ele>
			<time>2012-07-26T08:18:22Z</time>
		</trkpt>
		<trkpt lat="47.4313898664" lon="11.0478156712">
			<ele>2427.95</ele>
			<time>2012-07-26T08:18:36Z</time>
		</trkpt>
		<trkpt lat="47.43138358" lon="11.0478028469">
			<ele>2428.91</ele>
			<time>2012-07-26T08:18:51Z</time>
		</trkpt>
		<trkpt lat="47.43138358" lon="11.0478028469">
			<ele>2430.35</ele>
			<time>2012-07-26T08:19:03Z</time>
		</trkpt>
		<trkpt lat="47.43138358" lon="11.0478028469">
			<ele>2431.79</ele>
			<time>2012-07-26T08:19:15Z</time>
		</trkpt>
		<trkpt lat="47.4313762039" lon="11.0477866698">
			<ele>2433.71</ele>
			<time>2012-07-26T08:19:26Z</time>
		</trkpt>
		<trkpt lat="47.4313762039" lon="11.0477866698">
			<ele>2435.16</ele>
			<time>2012-07-26T08:19:35Z</time>
		</trkpt>
		<trkpt lat="47.4313664809" lon="11.0477684811">
			<ele>2435.64</ele>
			<time>2012-07-26T08:19:46Z</time>
		</trkpt>
		<trkpt lat="47.431359943" lon="11.0477530584">
			<ele>2436.6</ele>
			<time>2012-07-26T08:19:57Z</time>
		</trkpt>
		<trkpt lat="47.4313270021" lon="11.0477349535">
			<ele>2438.04</ele>
			<time>2012-07-26T08:20:07Z</time>
		</trkpt>
		<trkpt lat="47.431267323" lon="11.0477079637">
			<ele>2439</ele>
			<time>2012-07-26T08:20:16Z</time>
		</trkpt>
		<trkpt lat="47.4312167801" lon="11.047680052">
			<ele>2439.48</ele>
			<time>2012-07-26T08:20:23Z</time>
		</trkpt>
		<trkpt lat="47.4312167801" lon="11.047680052">
			<ele>2440.92</ele>
			<time>2012-07-26T08:20:35Z</time>
		</trkpt>
		<trkpt lat="47.4312167801" lon="11.047680052">
			<ele>2442.37</ele>
			<time>2012-07-26T08:20:48Z</time>
		</trkpt>
		<trkpt lat="47.4311725236" lon="11.0476597678">
			<ele>2443.33</ele>
			<time>2012-07-26T08:20:57Z</time>
		</trkpt>
		<trkpt lat="47.4311649799" lon="11.0476604383">
			<ele>2443.81</ele>
			<time>2012-07-26T08:21:10Z</time>
		</trkpt>
		<trkpt lat="47.4311649799" lon="11.0476604383">
			<ele>2444.29</ele>
			<time>2012-07-26T08:21:21Z</time>
		</trkpt>
		<trkpt lat="47.4311433546" lon="11.0476517212">
			<ele>2445.25</ele>
			<time>2012-07-26T08:21:32Z</time>
		</trkpt>
		<trkpt lat="47.4311053846" lon="11.0476318561">
			<ele>2446.69</ele>
			<time>2012-07-26T08:21:41Z</time>
		</trkpt>
		<trkpt lat="47.4310951587" lon="11.0476321913">
			<ele>2447.65</ele>
			<time>2012-07-26T08:21:53Z</time>
		</trkpt>
		<trkpt lat="47.431046376" lon="11.0476202052">
			<ele>2449.1</ele>
			<time>2012-07-26T08:22:03Z</time>
		</trkpt>
		<trkpt lat="47.4310151115" lon="11.0476170201">
			<ele>2449.58</ele>
			<time>2012-07-26T08:22:11Z</time>
		</trkpt>
		<trkpt lat="47.4310087413" lon="11.0476166848">
			<ele>2451.5</ele>
			<time>2012-07-26T08:22:22Z</time>
		</trkpt>
		<trkpt lat="47.4309890438" lon="11.0476020165">
			<ele>2451.98</ele>
			<time>2012-07-26T08:22:30Z</time>
		</trkpt>
		<trkpt lat="47.4309811648" lon="11.0476020165">
			<ele>2453.42</ele>
			<time>2012-07-26T08:22:41Z</time>
		</trkpt>
		<trkpt lat="47.4309607968" lon="11.0475896951">
			<ele>2454.38</ele>
			<time>2012-07-26T08:22:49Z</time>
		</trkpt>
		<trkpt lat="47.4309472181" lon="11.047577206">
			<ele>2454.86</ele>
			<time>2012-07-26T08:23:00Z</time>
		</trkpt>
		<trkpt lat="47.4309397582" lon="11.0475653876">
			<ele>2456.31</ele>
			<time>2012-07-26T08:23:10Z</time>
		</trkpt>
		<trkpt lat="47.4309354834" lon="11.0475609452">
			<ele>2456.31</ele>
			<time>2012-07-26T08:23:23Z</time>
		</trkpt>
		<trkpt lat="47.4309337232" lon="11.0475488752">
			<ele>2457.27</ele>
			<time>2012-07-26T08:23:27Z</time>
		</trkpt>
		<trkpt lat="47.430930119" lon="11.0475334525">
			<ele>2458.71</ele>
			<time>2012-07-26T08:23:40Z</time>
		</trkpt>
		<trkpt lat="47.4309233297" lon="11.0475214664">
			<ele>2460.63</ele>
			<time>2012-07-26T08:23:52Z</time>
		</trkpt>
		<trkpt lat="47.4309233297" lon="11.0475214664">
			<ele>2460.15</ele>
			<time>2012-07-26T08:24:11Z</time>
		</trkpt>
		<trkpt lat="47.4309140258" lon="11.0475065466">
			<ele>2462.07</ele>
			<time>2012-07-26T08:24:20Z</time>
		</trkpt>
		<trkpt lat="47.4309093319" lon="11.0474778805">
			<ele>2463.04</ele>
			<time>2012-07-26T08:24:29Z</time>
		</trkpt>
		<trkpt lat="47.4309019558" lon="11.0474430956">
			<ele>2464.96</ele>
			<time>2012-07-26T08:24:38Z</time>
		</trkpt>
		<trkpt lat="47.4308955017" lon="11.0474357195">
			<ele>2466.4</ele>
			<time>2012-07-26T08:24:50Z</time>
		</trkpt>
		<trkpt lat="47.4308905564" lon="11.0474307742">
			<ele>2466.88</ele>
			<time>2012-07-26T08:24:59Z</time>
		</trkpt>
		<trkpt lat="47.4308816716" lon="11.0474092327">
			<ele>2468.8</ele>
			<time>2012-07-26T08:25:07Z</time>
		</trkpt>
		<trkpt lat="47.4308742955" lon="11.0473896191">
			<ele>2470.24</ele>
			<time>2012-07-26T08:25:16Z</time>
		</trkpt>
		<trkpt lat="47.4308748823" lon="11.0473845899">
			<ele>2470.73</ele>
			<time>2012-07-26T08:25:33Z</time>
		</trkpt>
		<trkpt lat="47.430866668" lon="11.0473764595">
			<ele>2471.21</ele>
			<time>2012-07-26T08:25:40Z</time>
		</trkpt>
		<trkpt lat="47.4308635667" lon="11.0473757889">
			<ele>2472.17</ele>
			<time>2012-07-26T08:25:49Z</time>
		</trkpt>
		<trkpt lat="47.430855101" lon="11.0473755375">
			<ele>2473.13</ele>
			<time>2012-07-26T08:26:02Z</time>
		</trkpt>
		<trkpt lat="47.4308455456" lon="11.0473702569">
			<ele>2474.57</ele>
			<time>2012-07-26T08:26:18Z</time>
		</trkpt>
		<trkpt lat="47.4308318831" lon="11.0473615397">
			<ele>2475.53</ele>
			<time>2012-07-26T08:26:29Z</time>
		</trkpt>
		<trkpt lat="47.430827776" lon="11.047363719">
			<ele>2474.57</ele>
			<time>2012-07-26T08:26:40Z</time>
		</trkpt>
		<trkpt lat="47.430827776" lon="11.047363719">
			<ele>2475.53</ele>
			<time>2012-07-26T08:27:02Z</time>
		</trkpt>
		<trkpt lat="47.4308266025" lon="11.0473624617">
			<ele>2474.57</ele>
			<time>2012-07-26T08:27:28Z</time>
		</trkpt>
		<trkpt lat="47.4308219925" lon="11.0473676585">
			<ele>2476.49</ele>
			<time>2012-07-26T08:27:38Z</time>
		</trkpt>
		<trkpt lat="47.4308127724" lon="11.0473611206">
			<ele>2477.94</ele>
			<time>2012-07-26T08:27:48Z</time>
		</trkpt>
		<trkpt lat="47.4307978526" lon="11.0473552532">
			<ele>2479.86</ele>
			<time>2012-07-26T08:27:58Z</time>
		</trkpt>
		<trkpt lat="47.4307928234" lon="11.0473551694">
			<ele>2481.3</ele>
			<time>2012-07-26T08:28:09Z</time>
		</trkpt>
		<trkpt lat="47.4307806697" lon="11.0473540798">
			<ele>2482.74</ele>
			<time>2012-07-26T08:28:18Z</time>
		</trkpt>
		<trkpt lat="47.4307663366" lon="11.0473371483">
			<ele>2483.7</ele>
			<time>2012-07-26T08:28:28Z</time>
		</trkpt>
		<trkpt lat="47.4307483993" lon="11.0473196302">
			<ele>2485.15</ele>
			<time>2012-07-26T08:28:37Z</time>
		</trkpt>
		<trkpt lat="47.4307402689" lon="11.047314601">
			<ele>2486.11</ele>
			<time>2012-07-26T08:28:49Z</time>
		</trkpt>
		<trkpt lat="47.4307455495" lon="11.0472934786">
			<ele>2486.59</ele>
			<time>2012-07-26T08:28:58Z</time>
		</trkpt>
		<trkpt lat="47.430745801" lon="11.0472855996">
			<ele>2487.07</ele>
			<time>2012-07-26T08:29:08Z</time>
		</trkpt>
		<trkpt lat="47.4307455495" lon="11.0472759604">
			<ele>2488.99</ele>
			<time>2012-07-26T08:29:18Z</time>
		</trkpt>
		<trkpt lat="47.4307390116" lon="11.0472637229">
			<ele>2490.43</ele>
			<time>2012-07-26T08:29:31Z</time>
		</trkpt>
		<trkpt lat="47.4307341501" lon="11.0472576879">
			<ele>2491.87</ele>
			<time>2012-07-26T08:29:43Z</time>
		</trkpt>
		<trkpt lat="47.4307199847" lon="11.0472397506">
			<ele>2492.84</ele>
			<time>2012-07-26T08:29:52Z</time>
		</trkpt>
		<trkpt lat="47.4306738004" lon="11.0472477973">
			<ele>2493.8</ele>
			<time>2012-07-26T08:30:04Z</time>
		</trkpt>
		<trkpt lat="47.4306678493" lon="11.0472385772">
			<ele>2495.24</ele>
			<time>2012-07-26T08:30:13Z</time>
		</trkpt>
		<trkpt lat="47.4306598026" lon="11.0472322907">
			<ele>2496.2</ele>
			<time>2012-07-26T08:30:24Z</time>
		</trkpt>
		<trkpt lat="47.4306506664" lon="11.0472346377">
			<ele>2496.68</ele>
			<time>2012-07-26T08:30:36Z</time>
		</trkpt>
		<trkpt lat="47.4306395184" lon="11.0472424328">
			<ele>2499.08</ele>
			<time>2012-07-26T08:30:48Z</time>
		</trkpt>
		<trkpt lat="47.4306338187" lon="11.0472467076">
			<ele>2498.6</ele>
			<time>2012-07-26T08:30:56Z</time>
		</trkpt>
		<trkpt lat="47.4306145404" lon="11.0472551733">
			<ele>2500.05</ele>
			<time>2012-07-26T08:31:06Z</time>
		</trkpt>
		<trkpt lat="47.4306080863" lon="11.0472508147">
			<ele>2501.01</ele>
			<time>2012-07-26T08:31:19Z</time>
		</trkpt>
		<trkpt lat="47.4306080863" lon="11.0472508147">
			<ele>2501.49</ele>
			<time>2012-07-26T08:31:38Z</time>
		</trkpt>
		<trkpt lat="47.4306061585" lon="11.0472528264">
			<ele>2502.93</ele>
			<time>2012-07-26T08:31:48Z</time>
		</trkpt>
		<trkpt lat="47.4305961002" lon="11.0472567659">
			<ele>2504.85</ele>
			<time>2012-07-26T08:31:59Z</time>
		</trkpt>
		<trkpt lat="47.4305706192" lon="11.0472732782">
			<ele>2505.33</ele>
			<time>2012-07-26T08:32:09Z</time>
		</trkpt>
		<trkpt lat="47.4305552803" lon="11.047274787">
			<ele>2505.81</ele>
			<time>2012-07-26T08:32:16Z</time>
		</trkpt>
		<trkpt lat="47.4305236805" lon="11.0472974181">
			<ele>2507.26</ele>
			<time>2012-07-26T08:32:26Z</time>
		</trkpt>
		<trkpt lat="47.4305018038" lon="11.0473372322">
			<ele>2506.77</ele>
			<time>2012-07-26T08:32:34Z</time>
		</trkpt>
		<trkpt lat="47.4304635823" lon="11.0474038683">
			<ele>2508.22</ele>
			<time>2012-07-26T08:32:42Z</time>
		</trkpt>
		<trkpt lat="47.4304145481" lon="11.0474425089">
			<ele>2509.18</ele>
			<time>2012-07-26T08:32:53Z</time>
		</trkpt>
		<trkpt lat="47.4304031488" lon="11.0474363063">
			<ele>2510.62</ele>
			<time>2012-07-26T08:33:02Z</time>
		</trkpt>
		<trkpt lat="47.4303814396" lon="11.047454495">
			<ele>2512.54</ele>
			<time>2012-07-26T08:33:11Z</time>
		</trkpt>
		<trkpt lat="47.4303671066" lon="11.0474869329">
			<ele>2513.98</ele>
			<time>2012-07-26T08:33:19Z</time>
		</trkpt>
		<trkpt lat="47.4303351715" lon="11.0474959016">
			<ele>2514.95</ele>
			<time>2012-07-26T08:33:28Z</time>
		</trkpt>
		<trkpt lat="47.4303307291" lon="11.0475062113">
			<ele>2515.91</ele>
			<time>2012-07-26T08:33:38Z</time>
		</trkpt>
		<trkpt lat="47.4303113669" lon="11.0475246515">
			<ele>2517.35</ele>
			<time>2012-07-26T08:33:48Z</time>
		</trkpt>
		<trkpt lat="47.4302995484" lon="11.0475269146">
			<ele>2518.79</ele>
			<time>2012-07-26T08:33:58Z</time>
		</trkpt>
		<trkpt lat="47.4302964471" lon="11.0475457739">
			<ele>2519.75</ele>
			<time>2012-07-26T08:34:07Z</time>
		</trkpt>
		<trkpt lat="47.4302913342" lon="11.0475605261">
			<ele>2520.71</ele>
			<time>2012-07-26T08:34:19Z</time>
		</trkpt>
		<trkpt lat="47.4302839581" lon="11.0475694947">
			<ele>2522.64</ele>
			<time>2012-07-26T08:34:29Z</time>
		</trkpt>
		<trkpt lat="47.4302744027" lon="11.0475746915">
			<ele>2523.12</ele>
			<time>2012-07-26T08:34:38Z</time>
		</trkpt>
		<trkpt lat="47.4302449822" lon="11.0476083867">
			<ele>2524.08</ele>
			<time>2012-07-26T08:34:47Z</time>
		</trkpt>
		<trkpt lat="47.4302399531" lon="11.047613332">
			<ele>2525.04</ele>
			<time>2012-07-26T08:34:57Z</time>
		</trkpt>
		<trkpt lat="47.4302282184" lon="11.0476149246">
			<ele>2526.96</ele>
			<time>2012-07-26T08:35:06Z</time>
		</trkpt>
		<trkpt lat="47.4302245304" lon="11.0475958977">
			<ele>2528.4</ele>
			<time>2012-07-26T08:35:15Z</time>
		</trkpt>
		<trkpt lat="47.430223776" lon="11.0475782119">
			<ele>2528.89</ele>
			<time>2012-07-26T08:35:23Z</time>
		</trkpt>
		<trkpt lat="47.4302247819" lon="11.0475755297">
			<ele>2529.37</ele>
			<time>2012-07-26T08:35:30Z</time>
		</trkpt>
		<trkpt lat="47.4302286375" lon="11.0475644656">
			<ele>2530.33</ele>
			<time>2012-07-26T08:35:36Z</time>
		</trkpt>
		<trkpt lat="47.4302222673" lon="11.0475414991">
			<ele>2531.29</ele>
			<time>2012-07-26T08:35:46Z</time>
		</trkpt>
		<trkpt lat="47.4302245304" lon="11.0475181974">
			<ele>2531.29</ele>
			<time>2012-07-26T08:35:58Z</time>
		</trkpt>
		<trkpt lat="47.4302026536" lon="11.0475275852">
			<ele>2532.73</ele>
			<time>2012-07-26T08:36:10Z</time>
		</trkpt>
		<trkpt lat="47.4301861413" lon="11.0475444328">
			<ele>2534.17</ele>
			<time>2012-07-26T08:36:18Z</time>
		</trkpt>
		<trkpt lat="47.4301938526" lon="11.0475503001">
			<ele>2534.65</ele>
			<time>2012-07-26T08:36:35Z</time>
		</trkpt>
		<trkpt lat="47.4301826209" lon="11.0474831611">
			<ele>2536.1</ele>
			<time>2012-07-26T08:36:45Z</time>
		</trkpt>
		<trkpt lat="47.4301294796" lon="11.0474723484">
			<ele>2538.02</ele>
			<time>2012-07-26T08:36:55Z</time>
		</trkpt>
		<trkpt lat="47.4301171582" lon="11.047480898">
			<ele>2538.5</ele>
			<time>2012-07-26T08:36:59Z</time>
		</trkpt>
		<trkpt lat="47.4301071838" lon="11.0475067981">
			<ele>2540.42</ele>
			<time>2012-07-26T08:37:07Z</time>
		</trkpt>
		<trkpt lat="47.4300988857" lon="11.0474942252">
			<ele>2541.86</ele>
			<time>2012-07-26T08:37:16Z</time>
		</trkpt>
		<trkpt lat="47.4300882407" lon="11.0474721808">
			<ele>2542.34</ele>
			<time>2012-07-26T08:37:26Z</time>
		</trkpt>
		<trkpt lat="47.4300392065" lon="11.0474548303">
			<ele>2542.82</ele>
			<time>2012-07-26T08:37:40Z</time>
		</trkpt>
		<trkpt lat="47.4300274719" lon="11.0474620387">
			<ele>2544.75</ele>
			<time>2012-07-26T08:37:50Z</time>
		</trkpt>
		<trkpt lat="47.4300007336" lon="11.0474743601">
			<ele>2544.75</ele>
			<time>2012-07-26T08:38:01Z</time>
		</trkpt>
		<trkpt lat="47.4299931061" lon="11.0474939737">
			<ele>2545.71</ele>
			<time>2012-07-26T08:38:11Z</time>
		</trkpt>
		<trkpt lat="47.4300076067" lon="11.0475374758">
			<ele>2546.67</ele>
			<time>2012-07-26T08:38:19Z</time>
		</trkpt>
		<trkpt lat="47.4300078582" lon="11.0475502163">
			<ele>2547.15</ele>
			<time>2012-07-26T08:38:28Z</time>
		</trkpt>
		<trkpt lat="47.4300118815" lon="11.0475630406">
			<ele>2547.63</ele>
			<time>2012-07-26T08:38:38Z</time>
		</trkpt>
		<trkpt lat="47.4300205149" lon="11.0475708358">
			<ele>2550.51</ele>
			<time>2012-07-26T08:38:47Z</time>
		</trkpt>
		<trkpt lat="47.4300205149" lon="11.0475708358">
			<ele>2550.51</ele>
			<time>2012-07-26T08:38:55Z</time>
		</trkpt>
		<trkpt lat="47.4300205149" lon="11.0475708358">
			<ele>2550.51</ele>
			<time>2012-07-26T08:39:12Z</time>
		</trkpt>
		<trkpt lat="47.4300205149" lon="11.0475708358">
			<ele>2550.51</ele>
			<time>2012-07-26T08:39:15Z</time>
		</trkpt>
		<trkpt lat="47.4300326686" lon="11.0475881863">
			<ele>2551.48</ele>
			<time>2012-07-26T08:39:27Z</time>
		</trkpt>
		<trkpt lat="47.4300355185" lon="11.0476062912">
			<ele>2551.96</ele>
			<time>2012-07-26T08:39:38Z</time>
		</trkpt>
		<trkpt lat="47.4300402962" lon="11.0476546548">
			<ele>2551.96</ele>
			<time>2012-07-26T08:39:42Z</time>
		</trkpt>
		<trkpt lat="47.4300464988" lon="11.0476817284">
			<ele>2553.88</ele>
			<time>2012-07-26T08:39:51Z</time>
		</trkpt>
		<trkpt lat="47.430036189" lon="11.0476840753">
			<ele>2555.32</ele>
			<time>2012-07-26T08:40:02Z</time>
		</trkpt>
		<trkpt lat="47.4300120492" lon="11.0476745199">
			<ele>2555.8</ele>
			<time>2012-07-26T08:40:10Z</time>
		</trkpt>
		<trkpt lat="47.4300015718" lon="11.0476988275">
			<ele>2556.76</ele>
			<time>2012-07-26T08:40:19Z</time>
		</trkpt>
		<trkpt lat="47.4300169945" lon="11.0477167647">
			<ele>2556.76</ele>
			<time>2012-07-26T08:40:31Z</time>
		</trkpt>
		<trkpt lat="47.4299962074" lon="11.0477255657">
			<ele>2558.21</ele>
			<time>2012-07-26T08:40:41Z</time>
		</trkpt>
		<trkpt lat="47.4299858976" lon="11.047730092">
			<ele>2559.65</ele>
			<time>2012-07-26T08:40:50Z</time>
		</trkpt>
		<trkpt lat="47.429986652" lon="11.0477421619">
			<ele>2560.13</ele>
			<time>2012-07-26T08:41:00Z</time>
		</trkpt>
		<trkpt lat="47.4299734086" lon="11.04773378">
			<ele>2561.09</ele>
			<time>2012-07-26T08:41:11Z</time>
		</trkpt>
		<trkpt lat="47.4299553037" lon="11.0477146693">
			<ele>2561.57</ele>
			<time>2012-07-26T08:41:20Z</time>
		</trkpt>
		<trkpt lat="47.4299404677" lon="11.0477153398">
			<ele>2563.01</ele>
			<time>2012-07-26T08:41:28Z</time>
		</trkpt>
		<trkpt lat="47.4299404677" lon="11.0477153398">
			<ele>2563.49</ele>
			<time>2012-07-26T08:41:40Z</time>
		</trkpt>
		<trkpt lat="47.4299109634" lon="11.0476940498">
			<ele>2564.45</ele>
			<time>2012-07-26T08:41:53Z</time>
		</trkpt>
		<trkpt lat="47.4298979715" lon="11.0476928763">
			<ele>2565.9</ele>
			<time>2012-07-26T08:42:04Z</time>
		</trkpt>
		<trkpt lat="47.4298978876" lon="11.0477054492">
			<ele>2566.86</ele>
			<time>2012-07-26T08:42:14Z</time>
		</trkpt>
		<trkpt lat="47.4298878293" lon="11.0477098078">
			<ele>2568.3</ele>
			<time>2012-07-26T08:42:25Z</time>
		</trkpt>
		<trkpt lat="47.4298821297" lon="11.047718944">
			<ele>2569.74</ele>
			<time>2012-07-26T08:42:33Z</time>
		</trkpt>
		<trkpt lat="47.4298690539" lon="11.0477345344">
			<ele>2570.22</ele>
			<time>2012-07-26T08:42:40Z</time>
		</trkpt>
		<trkpt lat="47.4298582412" lon="11.0477313492">
			<ele>2571.66</ele>
			<time>2012-07-26T08:42:49Z</time>
		</trkpt>
		<trkpt lat="47.4298435729" lon="11.0477404855">
			<ele>2573.11</ele>
			<time>2012-07-26T08:43:02Z</time>
		</trkpt>
		<trkpt lat="47.4298423994" lon="11.0477378871">
			<ele>2574.07</ele>
			<time>2012-07-26T08:43:16Z</time>
		</trkpt>
		<trkpt lat="47.4298382923" lon="11.0477387253">
			<ele>2575.51</ele>
			<time>2012-07-26T08:43:24Z</time>
		</trkpt>
		<trkpt lat="47.4298382923" lon="11.0477387253">
			<ele>2575.51</ele>
			<time>2012-07-26T08:43:25Z</time>
		</trkpt>
		<trkpt lat="47.4298256356" lon="11.0477585904">
			<ele>2576.95</ele>
			<time>2012-07-26T08:43:32Z</time>
		</trkpt>
		<trkpt lat="47.4298284855" lon="11.0477677267">
			<ele>2577.43</ele>
			<time>2012-07-26T08:43:43Z</time>
		</trkpt>
		<trkpt lat="47.4298284855" lon="11.0477677267">
			<ele>2576.95</ele>
			<time>2012-07-26T08:43:44Z</time>
		</trkpt>
		<trkpt lat="47.4298102967" lon="11.0477844905">
			<ele>2578.39</ele>
			<time>2012-07-26T08:43:52Z</time>
		</trkpt>
		<trkpt lat="47.4298099615" lon="11.0477971472">
			<ele>2579.84</ele>
			<time>2012-07-26T08:44:05Z</time>
		</trkpt>
		<trkpt lat="47.4298113864" lon="11.0477737617">
			<ele>2582.24</ele>
			<time>2012-07-26T08:44:16Z</time>
		</trkpt>
		<trkpt lat="47.4298101291" lon="11.047779629">
			<ele>2582.24</ele>
			<time>2012-07-26T08:44:29Z</time>
		</trkpt>
		<trkpt lat="47.4298175052" lon="11.0477997456">
			<ele>2583.68</ele>
			<time>2012-07-26T08:44:39Z</time>
		</trkpt>
		<trkpt lat="47.4298221152" lon="11.0478064511">
			<ele>2585.12</ele>
			<time>2012-07-26T08:44:49Z</time>
		</trkpt>
		<trkpt lat="47.4298188463" lon="11.0478024278">
			<ele>2584.64</ele>
			<time>2012-07-26T08:44:57Z</time>
		</trkpt>
		<trkpt lat="47.4298214447" lon="11.047806954">
			<ele>2586.08</ele>
			<time>2012-07-26T08:45:08Z</time>
		</trkpt>
		<trkpt lat="47.4298336823" lon="11.0477982368">
			<ele>2586.56</ele>
			<time>2012-07-26T08:45:17Z</time>
		</trkpt>
		<trkpt lat="47.4298787769" lon="11.0478164256">
			<ele>2588.01</ele>
			<time>2012-07-26T08:45:28Z</time>
		</trkpt>
		<trkpt lat="47.4299002346" lon="11.0478302557">
			<ele>2588.97</ele>
			<time>2012-07-26T08:45:33Z</time>
		</trkpt>
		<trkpt lat="47.4299211893" lon="11.0478576645">
			<ele>2590.41</ele>
			<time>2012-07-26T08:45:43Z</time>
		</trkpt>
		<trkpt lat="47.4298927747" lon="11.0478909407">
			<ele>2589.93</ele>
			<time>2012-07-26T08:45:52Z</time>
		</trkpt>
		<trkpt lat="47.4298911821" lon="11.0478982329">
			<ele>2590.89</ele>
			<time>2012-07-26T08:46:08Z</time>
		</trkpt>
		<trkpt lat="47.4298911821" lon="11.0478982329">
			<ele>2592.33</ele>
			<time>2012-07-26T08:46:21Z</time>
		</trkpt>
		<trkpt lat="47.4298924394" lon="11.0479140747">
			<ele>2592.81</ele>
			<time>2012-07-26T08:46:31Z</time>
		</trkpt>
		<trkpt lat="47.4298701435" lon="11.0479367897">
			<ele>2594.25</ele>
			<time>2012-07-26T08:46:40Z</time>
		</trkpt>
		<trkpt lat="47.4298487697" lon="11.0479545593">
			<ele>2595.7</ele>
			<time>2012-07-26T08:46:48Z</time>
		</trkpt>
		<trkpt lat="47.4298407231" lon="11.0479570739">
			<ele>2596.18</ele>
			<time>2012-07-26T08:47:01Z</time>
		</trkpt>
		<trkpt lat="47.4298371188" lon="11.0479702335">
			<ele>2596.66</ele>
			<time>2012-07-26T08:47:10Z</time>
		</trkpt>
		<trkpt lat="47.4298330955" lon="11.0479990672">
			<ele>2598.1</ele>
			<time>2012-07-26T08:47:19Z</time>
		</trkpt>
		<trkpt lat="47.4298086204" lon="11.0480101313">
			<ele>2599.54</ele>
			<time>2012-07-26T08:47:26Z</time>
		</trkpt>
		<trkpt lat="47.4297695607" lon="11.0479931999">
			<ele>2601.46</ele>
			<time>2012-07-26T08:47:36Z</time>
		</trkpt>
		<trkpt lat="47.4297589157" lon="11.0479802079">
			<ele>2601.46</ele>
			<time>2012-07-26T08:47:42Z</time>
		</trkpt>
		<trkpt lat="47.4297465943" lon="11.0479729157">
			<ele>2603.39</ele>
			<time>2012-07-26T08:47:51Z</time>
		</trkpt>
		<trkpt lat="47.4297315069" lon="11.0479469318">
			<ele>2604.35</ele>
			<time>2012-07-26T08:47:59Z</time>
		</trkpt>
		<trkpt lat="47.4297062773" lon="11.047932934">
			<ele>2606.27</ele>
			<time>2012-07-26T08:48:11Z</time>
		</trkpt>
		<trkpt lat="47.4296672177" lon="11.0479149129">
			<ele>2608.19</ele>
			<time>2012-07-26T08:48:23Z</time>
		</trkpt>
		<trkpt lat="47.4296257272" lon="11.0478976462">
			<ele>2610.12</ele>
			<time>2012-07-26T08:48:35Z</time>
		</trkpt>
		<trkpt lat="47.429611478" lon="11.0478890128">
			<ele>2609.64</ele>
			<time>2012-07-26T08:48:45Z</time>
		</trkpt>
		<trkpt lat="47.429598067" lon="11.0478730872">
			<ele>2611.56</ele>
			<time>2012-07-26T08:49:02Z</time>
		</trkpt>
		<trkpt lat="47.4295673054" lon="11.0478663817">
			<ele>2611.08</ele>
			<time>2012-07-26T08:49:11Z</time>
		</trkpt>
		<trkpt lat="47.4295529723" lon="11.0478407331">
			<ele>2613</ele>
			<time>2012-07-26T08:49:21Z</time>
		</trkpt>
		<trkpt lat="47.4295316823" lon="11.0478144977">
			<ele>2613.48</ele>
			<time>2012-07-26T08:49:30Z</time>
		</trkpt>
		<trkpt lat="47.4295265693" lon="11.047804188">
			<ele>2613.96</ele>
			<time>2012-07-26T08:49:40Z</time>
		</trkpt>
		<trkpt lat="47.4295263179" lon="11.0477964766">
			<ele>2613.96</ele>
			<time>2012-07-26T08:49:51Z</time>
		</trkpt>
		<trkpt lat="47.4295263179" lon="11.0477964766">
			<ele>2613.96</ele>
			<time>2012-07-26T08:50:10Z</time>
		</trkpt>
		<trkpt lat="47.4295145832" lon="11.0477976501">
			<ele>2613</ele>
			<time>2012-07-26T08:50:22Z</time>
		</trkpt>
		<trkpt lat="47.4294639565" lon="11.0477927048">
			<ele>2629.34</ele>
			<time>2012-07-26T09:24:03Z</time>
		</trkpt>
		<trkpt lat="47.4294322729" lon="11.0477958899">
			<ele>2629.82</ele>
			<time>2012-07-26T09:24:07Z</time>
		</trkpt>
		<trkpt lat="47.4294022657" lon="11.0477982368">
			<ele>2628.86</ele>
			<time>2012-07-26T09:24:16Z</time>
		</trkpt>
		<trkpt lat="47.4293926265" lon="11.0477914475">
			<ele>2627.9</ele>
			<time>2012-07-26T09:24:34Z</time>
		</trkpt>
		<trkpt lat="47.4293871783" lon="11.0477896035">
			<ele>2627.9</ele>
			<time>2012-07-26T09:24:35Z</time>
		</trkpt>
		<trkpt lat="47.4293684028" lon="11.0477803834">
			<ele>2628.86</ele>
			<time>2012-07-26T09:24:46Z</time>
		</trkpt>
		<trkpt lat="47.4293301813" lon="11.0477366298">
			<ele>2629.34</ele>
			<time>2012-07-26T09:24:55Z</time>
		</trkpt>
		<trkpt lat="47.4293267448" lon="11.0477148369">
			<ele>2631.27</ele>
			<time>2012-07-26T09:25:06Z</time>
		</trkpt>
		<trkpt lat="47.4293225538" lon="11.0476805549">
			<ele>2630.79</ele>
			<time>2012-07-26T09:25:15Z</time>
		</trkpt>
		<trkpt lat="47.4293244816" lon="11.0476720054">
			<ele>2631.27</ele>
			<time>2012-07-26T09:25:31Z</time>
		</trkpt>
		<trkpt lat="47.4293195363" lon="11.0476425011">
			<ele>2630.79</ele>
			<time>2012-07-26T09:25:39Z</time>
		</trkpt>
		<trkpt lat="47.4293195363" lon="11.0476425011">
			<ele>2630.3</ele>
			<time>2012-07-26T09:25:59Z</time>
		</trkpt>
		<trkpt lat="47.4293195363" lon="11.0476425011">
			<ele>2630.3</ele>
			<time>2012-07-26T09:26:13Z</time>
		</trkpt>
		<trkpt lat="47.4293237273" lon="11.0476381425">
			<ele>2630.79</ele>
			<time>2012-07-26T09:26:30Z</time>
		</trkpt>
		<trkpt lat="47.4293554109" lon="11.0476176068">
			<ele>2630.79</ele>
			<time>2012-07-26T09:26:39Z</time>
		</trkpt>
		<trkpt lat="47.4293442629" lon="11.0475958139">
			<ele>2629.82</ele>
			<time>2012-07-26T09:26:50Z</time>
		</trkpt>
		<trkpt lat="47.4293471128" lon="11.0475963168">
			<ele>2628.38</ele>
			<time>2012-07-26T09:26:58Z</time>
		</trkpt>
		<trkpt lat="47.4293471128" lon="11.0475963168">
			<ele>2627.9</ele>
			<time>2012-07-26T09:27:19Z</time>
		</trkpt>
		<trkpt lat="47.4293473642" lon="11.0475965682">
			<ele>2628.86</ele>
			<time>2012-07-26T09:27:40Z</time>
		</trkpt>
		<trkpt lat="47.4293473642" lon="11.0475965682">
			<ele>2628.38</ele>
			<time>2012-07-26T09:27:57Z</time>
		</trkpt>
		<trkpt lat="47.4293447658" lon="11.0475827381">
			<ele>2629.82</ele>
			<time>2012-07-26T09:28:04Z</time>
		</trkpt>
		<trkpt lat="47.429304868" lon="11.0475928802">
			<ele>2629.82</ele>
			<time>2012-07-26T09:28:15Z</time>
		</trkpt>
		<trkpt lat="47.4293126632" lon="11.0475549102">
			<ele>2627.9</ele>
			<time>2012-07-26T09:28:24Z</time>
		</trkpt>
		<trkpt lat="47.4293196201" lon="11.0475499649">
			<ele>2627.42</ele>
			<time>2012-07-26T09:28:34Z</time>
		</trkpt>
		<trkpt lat="47.4293079693" lon="11.0475301836">
			<ele>2625.98</ele>
			<time>2012-07-26T09:28:42Z</time>
		</trkpt>
		<trkpt lat="47.4293031078" lon="11.0475251544">
			<ele>2625.02</ele>
			<time>2012-07-26T09:28:52Z</time>
		</trkpt>
		<trkpt lat="47.4292963184" lon="11.0474928003">
			<ele>2623.09</ele>
			<time>2012-07-26T09:29:00Z</time>
		</trkpt>
		<trkpt lat="47.4292944744" lon="11.0474860948">
			<ele>2622.13</ele>
			<time>2012-07-26T09:29:09Z</time>
		</trkpt>
		<trkpt lat="47.4292832427" lon="11.0474694148">
			<ele>2621.65</ele>
			<time>2012-07-26T09:29:17Z</time>
		</trkpt>
		<trkpt lat="47.4292858411" lon="11.0474190395">
			<ele>2621.17</ele>
			<time>2012-07-26T09:29:25Z</time>
		</trkpt>
		<trkpt lat="47.429280309" lon="11.0473985039">
			<ele>2620.69</ele>
			<time>2012-07-26T09:29:35Z</time>
		</trkpt>
		<trkpt lat="47.4292649701" lon="11.0473892">
			<ele>2620.21</ele>
			<time>2012-07-26T09:29:45Z</time>
		</trkpt>
		<trkpt lat="47.4292666465" lon="11.0473819915">
			<ele>2619.25</ele>
			<time>2012-07-26T09:29:56Z</time>
		</trkpt>
		<trkpt lat="47.429259019" lon="11.0473691672">
			<ele>2618.29</ele>
			<time>2012-07-26T09:30:07Z</time>
		</trkpt>
		<trkpt lat="47.4292393215" lon="11.0473315325">
			<ele>2616.85</ele>
			<time>2012-07-26T09:30:17Z</time>
		</trkpt>
		<trkpt lat="47.429240495" lon="11.0473288503">
			<ele>2617.33</ele>
			<time>2012-07-26T09:30:29Z</time>
		</trkpt>
		<trkpt lat="47.429240495" lon="11.0473288503">
			<ele>2615.88</ele>
			<time>2012-07-26T09:30:39Z</time>
		</trkpt>
		<trkpt lat="47.4292319454" lon="11.0472940654">
			<ele>2615.88</ele>
			<time>2012-07-26T09:30:48Z</time>
		</trkpt>
		<trkpt lat="47.4292232282" lon="11.0472818278">
			<ele>2614.44</ele>
			<time>2012-07-26T09:30:57Z</time>
		</trkpt>
		<trkpt lat="47.4292198755" lon="11.0472601186">
			<ele>2614.44</ele>
			<time>2012-07-26T09:31:06Z</time>
		</trkpt>
		<trkpt lat="47.4292088114" lon="11.0472557601">
			<ele>2613.48</ele>
			<time>2012-07-26T09:31:14Z</time>
		</trkpt>
		<trkpt lat="47.4292051233" lon="11.0472389963">
			<ele>2613</ele>
			<time>2012-07-26T09:31:23Z</time>
		</trkpt>
		<trkpt lat="47.4291951489" lon="11.0472459532">
			<ele>2613</ele>
			<time>2012-07-26T09:31:34Z</time>
		</trkpt>
		<trkpt lat="47.4291928858" lon="11.0472347215">
			<ele>2612.52</ele>
			<time>2012-07-26T09:31:43Z</time>
		</trkpt>
		<trkpt lat="47.4291854259" lon="11.0472234059">
			<ele>2611.56</ele>
			<time>2012-07-26T09:31:51Z</time>
		</trkpt>
		<trkpt lat="47.4291847553" lon="11.0472160298">
			<ele>2611.08</ele>
			<time>2012-07-26T09:32:01Z</time>
		</trkpt>
		<trkpt lat="47.429186767" lon="11.0472065583">
			<ele>2611.08</ele>
			<time>2012-07-26T09:32:12Z</time>
		</trkpt>
		<trkpt lat="47.4291871022" lon="11.0472049657">
			<ele>2610.12</ele>
			<time>2012-07-26T09:32:26Z</time>
		</trkpt>
		<trkpt lat="47.42918442" lon="11.0471966676">
			<ele>2609.16</ele>
			<time>2012-07-26T09:32:37Z</time>
		</trkpt>
		<trkpt lat="47.4291751999" lon="11.0471820831">
			<ele>2608.67</ele>
			<time>2012-07-26T09:32:48Z</time>
		</trkpt>
		<trkpt lat="47.4291652255" lon="11.0471660737">
			<ele>2608.67</ele>
			<time>2012-07-26T09:32:57Z</time>
		</trkpt>
		<trkpt lat="47.4291521497" lon="11.0471441131">
			<ele>2607.23</ele>
			<time>2012-07-26T09:33:06Z</time>
		</trkpt>
		<trkpt lat="47.4291521497" lon="11.0471441131">
			<ele>2606.75</ele>
			<time>2012-07-26T09:33:14Z</time>
		</trkpt>
		<trkpt lat="47.4291521497" lon="11.0471441131">
			<ele>2605.79</ele>
			<time>2012-07-26T09:33:24Z</time>
		</trkpt>
		<trkpt lat="47.4291517306" lon="11.0471100826">
			<ele>2605.31</ele>
			<time>2012-07-26T09:33:35Z</time>
		</trkpt>
		<trkpt lat="47.4291517306" lon="11.0471100826">
			<ele>2603.87</ele>
			<time>2012-07-26T09:33:45Z</time>
		</trkpt>
		<trkpt lat="47.4291517306" lon="11.0471100826">
			<ele>2603.39</ele>
			<time>2012-07-26T09:33:54Z</time>
		</trkpt>
		<trkpt lat="47.4291517306" lon="11.0471100826">
			<ele>2602.91</ele>
			<time>2012-07-26T09:34:05Z</time>
		</trkpt>
		<trkpt lat="47.4291517306" lon="11.0471100826">
			<ele>2602.43</ele>
			<time>2012-07-26T09:34:13Z</time>
		</trkpt>
		<trkpt lat="47.4291498028" lon="11.0471022874">
			<ele>2601.46</ele>
			<time>2012-07-26T09:34:23Z</time>
		</trkpt>
		<trkpt lat="47.4291498028" lon="11.0471022874">
			<ele>2600.5</ele>
			<time>2012-07-26T09:34:36Z</time>
		</trkpt>
		<trkpt lat="47.4291498028" lon="11.0471022874">
			<ele>2600.5</ele>
			<time>2012-07-26T09:34:51Z</time>
		</trkpt>
		<trkpt lat="47.4291466177" lon="11.047096001">
			<ele>2600.02</ele>
			<time>2012-07-26T09:34:59Z</time>
		</trkpt>
		<trkpt lat="47.4291466177" lon="11.047096001">
			<ele>2600.02</ele>
			<time>2012-07-26T09:35:13Z</time>
		</trkpt>
		<trkpt lat="47.4291466177" lon="11.047096001">
			<ele>2598.58</ele>
			<time>2012-07-26T09:35:23Z</time>
		</trkpt>
		<trkpt lat="47.4291466177" lon="11.047096001">
			<ele>2598.1</ele>
			<time>2012-07-26T09:35:32Z</time>
		</trkpt>
		<trkpt lat="47.4291466177" lon="11.047096001">
			<ele>2597.62</ele>
			<time>2012-07-26T09:35:34Z</time>
		</trkpt>
		<trkpt lat="47.4291535746" lon="11.0470591206">
			<ele>2598.58</ele>
			<time>2012-07-26T09:35:40Z</time>
		</trkpt>
		<trkpt lat="47.4291491322" lon="11.0470201448">
			<ele>2598.1</ele>
			<time>2012-07-26T09:35:55Z</time>
		</trkpt>
		<trkpt lat="47.4291504733" lon="11.0470086616">
			<ele>2597.14</ele>
			<time>2012-07-26T09:36:05Z</time>
		</trkpt>
		<trkpt lat="47.4291504733" lon="11.0470086616">
			<ele>2596.18</ele>
			<time>2012-07-26T09:36:17Z</time>
		</trkpt>
		<trkpt lat="47.4291504733" lon="11.0470086616">
			<ele>2595.7</ele>
			<time>2012-07-26T09:36:30Z</time>
		</trkpt>
		<trkpt lat="47.4291444384" lon="11.046998268">
			<ele>2594.74</ele>
			<time>2012-07-26T09:36:37Z</time>
		</trkpt>
		<trkpt lat="47.429134883" lon="11.0469634831">
			<ele>2594.25</ele>
			<time>2012-07-26T09:36:48Z</time>
		</trkpt>
		<trkpt lat="47.4291238189" lon="11.0469279438">
			<ele>2593.77</ele>
			<time>2012-07-26T09:37:01Z</time>
		</trkpt>
		<trkpt lat="47.4291222263" lon="11.0468803346">
			<ele>2593.29</ele>
			<time>2012-07-26T09:37:14Z</time>
		</trkpt>
		<trkpt lat="47.4291240703" lon="11.0468656663">
			<ele>2593.29</ele>
			<time>2012-07-26T09:37:24Z</time>
		</trkpt>
		<trkpt lat="47.4291245732" lon="11.0468563624">
			<ele>2591.85</ele>
			<time>2012-07-26T09:37:35Z</time>
		</trkpt>
		<trkpt lat="47.4291196279" lon="11.0468437895">
			<ele>2591.85</ele>
			<time>2012-07-26T09:37:45Z</time>
		</trkpt>
		<trkpt lat="47.4291404989" lon="11.0468158778">
			<ele>2588.97</ele>
			<time>2012-07-26T09:37:54Z</time>
		</trkpt>
		<trkpt lat="47.429127926" lon="11.046793079">
			<ele>2588.49</ele>
			<time>2012-07-26T09:38:01Z</time>
		</trkpt>
		<trkpt lat="47.4291157722" lon="11.0467815958">
			<ele>2588.49</ele>
			<time>2012-07-26T09:38:09Z</time>
		</trkpt>
		<trkpt lat="47.4291159399" lon="11.0467625689">
			<ele>2587.04</ele>
			<time>2012-07-26T09:38:20Z</time>
		</trkpt>
		<trkpt lat="47.4291262496" lon="11.0467416141">
			<ele>2585.6</ele>
			<time>2012-07-26T09:38:28Z</time>
		</trkpt>
		<trkpt lat="47.4291211367" lon="11.0467068292">
			<ele>2584.16</ele>
			<time>2012-07-26T09:38:37Z</time>
		</trkpt>
		<trkpt lat="47.4291097373" lon="11.0466878861">
			<ele>2583.68</ele>
			<time>2012-07-26T09:38:46Z</time>
		</trkpt>
		<trkpt lat="47.4291108269" lon="11.0466506705">
			<ele>2581.76</ele>
			<time>2012-07-26T09:38:54Z</time>
		</trkpt>
		<trkpt lat="47.4291283451" lon="11.0466206633">
			<ele>2581.28</ele>
			<time>2012-07-26T09:39:01Z</time>
		</trkpt>
		<trkpt lat="47.4291059654" lon="11.0465904884">
			<ele>2580.32</ele>
			<time>2012-07-26T09:39:10Z</time>
		</trkpt>
		<trkpt lat="47.42908719" lon="11.0465806816">
			<ele>2578.87</ele>
			<time>2012-07-26T09:39:19Z</time>
		</trkpt>
		<trkpt lat="47.4290849268" lon="11.0465177335">
			<ele>2577.43</ele>
			<time>2012-07-26T09:39:28Z</time>
		</trkpt>
		<trkpt lat="47.4290873576" lon="11.0464759078">
			<ele>2576.95</ele>
			<time>2012-07-26T09:39:37Z</time>
		</trkpt>
		<trkpt lat="47.4290950689" lon="11.0464431345">
			<ele>2575.51</ele>
			<time>2012-07-26T09:39:47Z</time>
		</trkpt>
		<trkpt lat="47.4290876929" lon="11.046433663">
			<ele>2575.03</ele>
			<time>2012-07-26T09:39:57Z</time>
		</trkpt>
		<trkpt lat="47.4290888663" lon="11.0464127921">
			<ele>2573.59</ele>
			<time>2012-07-26T09:40:06Z</time>
		</trkpt>
		<trkpt lat="47.4290478788" lon="11.0463376902">
			<ele>2572.63</ele>
			<time>2012-07-26T09:40:15Z</time>
		</trkpt>
		<trkpt lat="47.4290298577" lon="11.046278514">
			<ele>2571.66</ele>
			<time>2012-07-26T09:40:24Z</time>
		</trkpt>
		<trkpt lat="47.4290148541" lon="11.0462425556">
			<ele>2571.18</ele>
			<time>2012-07-26T09:40:32Z</time>
		</trkpt>
		<trkpt lat="47.4290350545" lon="11.0462220199">
			<ele>2571.18</ele>
			<time>2012-07-26T09:40:39Z</time>
		</trkpt>
		<trkpt lat="47.4290244933" lon="11.0462127998">
			<ele>2571.18</ele>
			<time>2012-07-26T09:40:48Z</time>
		</trkpt>
		<trkpt lat="47.4290352222" lon="11.0461775959">
			<ele>2570.22</ele>
			<time>2012-07-26T09:40:57Z</time>
		</trkpt>
		<trkpt lat="47.4290243257" lon="11.0461667832">
			<ele>2569.74</ele>
			<time>2012-07-26T09:41:07Z</time>
		</trkpt>
		<trkpt lat="47.4290332943" lon="11.0461556353">
			<ele>2568.78</ele>
			<time>2012-07-26T09:41:17Z</time>
		</trkpt>
		<trkpt lat="47.429024158" lon="11.0461559705">
			<ele>2568.78</ele>
			<time>2012-07-26T09:41:26Z</time>
		</trkpt>
		<trkpt lat="47.429024661" lon="11.0461436491">
			<ele>2567.82</ele>
			<time>2012-07-26T09:41:33Z</time>
		</trkpt>
		<trkpt lat="47.4289966654" lon="11.0461087804">
			<ele>2566.86</ele>
			<time>2012-07-26T09:41:41Z</time>
		</trkpt>
		<trkpt lat="47.4290052149" lon="11.0460675415">
			<ele>2565.42</ele>
			<time>2012-07-26T09:41:49Z</time>
		</trkpt>
		<trkpt lat="47.4290221464" lon="11.0460708942">
			<ele>2563.97</ele>
			<time>2012-07-26T09:41:57Z</time>
		</trkpt>
		<trkpt lat="47.4290011078" lon="11.0460071918">
			<ele>2563.01</ele>
			<time>2012-07-26T09:42:08Z</time>
		</trkpt>
		<trkpt lat="47.4289555103" lon="11.0459639411">
			<ele>2563.49</ele>
			<time>2012-07-26T09:42:17Z</time>
		</trkpt>
		<trkpt lat="47.4289320409" lon="11.0459206067">
			<ele>2562.05</ele>
			<time>2012-07-26T09:42:26Z</time>
		</trkpt>
		<trkpt lat="47.4289219826" lon="11.0459196009">
			<ele>2562.05</ele>
			<time>2012-07-26T09:42:36Z</time>
		</trkpt>
		<trkpt lat="47.4289037939" lon="11.0459129792">
			<ele>2560.13</ele>
			<time>2012-07-26T09:42:45Z</time>
		</trkpt>
		<trkpt lat="47.4288932327" lon="11.0459086206">
			<ele>2559.65</ele>
			<time>2012-07-26T09:42:57Z</time>
		</trkpt>
		<trkpt lat="47.4288683385" lon="11.0458502825">
			<ele>2557.73</ele>
			<time>2012-07-26T09:43:06Z</time>
		</trkpt>
		<trkpt lat="47.4288499821" lon="11.0458272323">
			<ele>2557.24</ele>
			<time>2012-07-26T09:43:09Z</time>
		</trkpt>
		<trkpt lat="47.4288276862" lon="11.0457679722">
			<ele>2556.76</ele>
			<time>2012-07-26T09:43:13Z</time>
		</trkpt>
		<trkpt lat="47.428808827" lon="11.0457139928">
			<ele>2556.76</ele>
			<time>2012-07-26T09:43:23Z</time>
		</trkpt>
		<trkpt lat="47.4287996907" lon="11.0456370469">
			<ele>2557.24</ele>
			<time>2012-07-26T09:43:32Z</time>
		</trkpt>
		<trkpt lat="47.4288265966" lon="11.0455766972">
			<ele>2558.21</ele>
			<time>2012-07-26T09:43:41Z</time>
		</trkpt>
		<trkpt lat="47.4288147781" lon="11.0455814749">
			<ele>2556.76</ele>
			<time>2012-07-26T09:43:48Z</time>
		</trkpt>
		<trkpt lat="47.4288051389" lon="11.0455378052">
			<ele>2556.76</ele>
			<time>2012-07-26T09:43:58Z</time>
		</trkpt>
		<trkpt lat="47.428808324" lon="11.045518443">
			<ele>2556.76</ele>
			<time>2012-07-26T09:44:06Z</time>
		</trkpt>
		<trkpt lat="47.4288032111" lon="11.0455167666">
			<ele>2556.76</ele>
			<time>2012-07-26T09:44:18Z</time>
		</trkpt>
		<trkpt lat="47.4288029596" lon="11.0455099773">
			<ele>2556.28</ele>
			<time>2012-07-26T09:44:31Z</time>
		</trkpt>
		<trkpt lat="47.4287939072" lon="11.0454875976">
			<ele>2555.8</ele>
			<time>2012-07-26T09:44:40Z</time>
		</trkpt>
		<trkpt lat="47.4287892133" lon="11.0454694089">
			<ele>2555.32</ele>
			<time>2012-07-26T09:44:53Z</time>
		</trkpt>
		<trkpt lat="47.4287890457" lon="11.0454303492">
			<ele>2555.32</ele>
			<time>2012-07-26T09:45:05Z</time>
		</trkpt>
		<trkpt lat="47.428793991" lon="11.0453877691">
			<ele>2554.36</ele>
			<time>2012-07-26T09:45:12Z</time>
		</trkpt>
		<trkpt lat="47.4287654087" lon="11.0453462787">
			<ele>2553.4</ele>
			<time>2012-07-26T09:45:23Z</time>
		</trkpt>
		<trkpt lat="47.4287508242" lon="11.04531141">
			<ele>2554.36</ele>
			<time>2012-07-26T09:45:32Z</time>
		</trkpt>
		<trkpt lat="47.4287354853" lon="11.0452606995">
			<ele>2554.36</ele>
			<time>2012-07-26T09:45:40Z</time>
		</trkpt>
		<trkpt lat="47.4287337251" lon="11.0452433489">
			<ele>2554.36</ele>
			<time>2012-07-26T09:45:50Z</time>
		</trkpt>
		<trkpt lat="47.4287348147" lon="11.0452557541">
			<ele>2553.88</ele>
			<time>2012-07-26T09:45:57Z</time>
		</trkpt>
		<trkpt lat="47.4287224934" lon="11.0452735238">
			<ele>2551.96</ele>
			<time>2012-07-26T09:46:05Z</time>
		</trkpt>
		<trkpt lat="47.4287157878" lon="11.0452519823">
			<ele>2551.48</ele>
			<time>2012-07-26T09:46:13Z</time>
		</trkpt>
		<trkpt lat="47.4287115131" lon="11.0452418402">
			<ele>2551.48</ele>
			<time>2012-07-26T09:46:25Z</time>
		</trkpt>
		<trkpt lat="47.4287055619" lon="11.0452370625">
			<ele>2551.48</ele>
			<time>2012-07-26T09:46:37Z</time>
		</trkpt>
		<trkpt lat="47.4287038855" lon="11.0452179518">
			<ele>2550.51</ele>
			<time>2012-07-26T09:46:51Z</time>
		</trkpt>
		<trkpt lat="47.4287017062" lon="11.0452197958">
			<ele>2550.03</ele>
			<time>2012-07-26T09:47:02Z</time>
		</trkpt>
		<trkpt lat="47.4286810029" lon="11.045230357">
			<ele>2548.59</ele>
			<time>2012-07-26T09:47:10Z</time>
		</trkpt>
		<trkpt lat="47.4286460504" lon="11.0452033672">
			<ele>2548.59</ele>
			<time>2012-07-26T09:47:21Z</time>
		</trkpt>
		<trkpt lat="47.4286137801" lon="11.0451565124">
			<ele>2547.63</ele>
			<time>2012-07-26T09:47:31Z</time>
		</trkpt>
		<trkpt lat="47.4285871256" lon="11.0451017786">
			<ele>2548.11</ele>
			<time>2012-07-26T09:47:39Z</time>
		</trkpt>
		<trkpt lat="47.4285685178" lon="11.0450782254">
			<ele>2547.63</ele>
			<time>2012-07-26T09:47:49Z</time>
		</trkpt>
		<trkpt lat="47.4285587948" lon="11.0450859368">
			<ele>2545.71</ele>
			<time>2012-07-26T09:48:00Z</time>
		</trkpt>
		<trkpt lat="47.4285568669" lon="11.0450485535">
			<ele>2545.71</ele>
			<time>2012-07-26T09:48:09Z</time>
		</trkpt>
		<trkpt lat="47.4285576213" lon="11.0450410936">
			<ele>2545.23</ele>
			<time>2012-07-26T09:48:22Z</time>
		</trkpt>
		<trkpt lat="47.4285389297" lon="11.0450323764">
			<ele>2544.75</ele>
			<time>2012-07-26T09:48:30Z</time>
		</trkpt>
		<trkpt lat="47.4285169691" lon="11.0450143553">
			<ele>2543.31</ele>
			<time>2012-07-26T09:48:39Z</time>
		</trkpt>
		<trkpt lat="47.4284970202" lon="11.0450007766">
			<ele>2542.34</ele>
			<time>2012-07-26T09:48:46Z</time>
		</trkpt>
		<trkpt lat="47.4284867942" lon="11.0449623037">
			<ele>2540.9</ele>
			<time>2012-07-26T09:48:56Z</time>
		</trkpt>
		<trkpt lat="47.4284810107" lon="11.0449701827">
			<ele>2539.94</ele>
			<time>2012-07-26T09:48:58Z</time>
		</trkpt>
		<trkpt lat="47.4284617323" lon="11.0449474677">
			<ele>2539.94</ele>
			<time>2012-07-26T09:49:09Z</time>
		</trkpt>
		<trkpt lat="47.4284617323" lon="11.0449474677">
			<ele>2540.42</ele>
			<time>2012-07-26T09:49:28Z</time>
		</trkpt>
		<trkpt lat="47.4284617323" lon="11.0449474677">
			<ele>2539.94</ele>
			<time>2012-07-26T09:49:38Z</time>
		</trkpt>
		<trkpt lat="47.4284566194" lon="11.0449255072">
			<ele>2538.5</ele>
			<time>2012-07-26T09:49:49Z</time>
		</trkpt>
		<trkpt lat="47.4284474831" lon="11.0449089948">
			<ele>2537.54</ele>
			<time>2012-07-26T09:49:57Z</time>
		</trkpt>
		<trkpt lat="47.4284474831" lon="11.0449089948">
			<ele>2537.54</ele>
			<time>2012-07-26T09:50:06Z</time>
		</trkpt>
		<trkpt lat="47.4284474831" lon="11.0449089948">
			<ele>2537.54</ele>
			<time>2012-07-26T09:50:28Z</time>
		</trkpt>
		<trkpt lat="47.4284430407" lon="11.0449005291">
			<ele>2537.54</ele>
			<time>2012-07-26T09:50:39Z</time>
		</trkpt>
		<trkpt lat="47.4284330662" lon="11.0448891297">
			<ele>2536.58</ele>
			<time>2012-07-26T09:50:48Z</time>
		</trkpt>
		<trkpt lat="47.4284330662" lon="11.0448891297">
			<ele>2536.58</ele>
			<time>2012-07-26T09:50:50Z</time>
		</trkpt>
		<trkpt lat="47.4284260254" lon="11.0448749643">
			<ele>2537.54</ele>
			<time>2012-07-26T09:50:59Z</time>
		</trkpt>
		<trkpt lat="47.4284171406" lon="11.044864906">
			<ele>2536.58</ele>
			<time>2012-07-26T09:51:09Z</time>
		</trkpt>
		<trkpt lat="47.4284182303" lon="11.0448553506">
			<ele>2536.1</ele>
			<time>2012-07-26T09:51:17Z</time>
		</trkpt>
		<trkpt lat="47.4284042325" lon="11.0448419396">
			<ele>2536.1</ele>
			<time>2012-07-26T09:51:29Z</time>
		</trkpt>
		<trkpt lat="47.4284042325" lon="11.0448419396">
			<ele>2536.1</ele>
			<time>2012-07-26T09:51:49Z</time>
		</trkpt>
		<trkpt lat="47.4284054898" lon="11.0448339768">
			<ele>2536.1</ele>
			<time>2012-07-26T09:51:59Z</time>
		</trkpt>
		<trkpt lat="47.4284056574" lon="11.0448312946">
			<ele>2535.61</ele>
			<time>2012-07-26T09:52:08Z</time>
		</trkpt>
		<trkpt lat="47.4283879716" lon="11.0448435321">
			<ele>2534.65</ele>
			<time>2012-07-26T09:52:18Z</time>
		</trkpt>
		<trkpt lat="47.4283751473" lon="11.0448625591">
			<ele>2533.69</ele>
			<time>2012-07-26T09:52:30Z</time>
		</trkpt>
		<trkpt lat="47.4283704534" lon="11.0448690969">
			<ele>2533.21</ele>
			<time>2012-07-26T09:52:42Z</time>
		</trkpt>
		<trkpt lat="47.4283645023" lon="11.0448365752">
			<ele>2534.17</ele>
			<time>2012-07-26T09:52:52Z</time>
		</trkpt>
		<trkpt lat="47.4283843674" lon="11.0448163748">
			<ele>2535.61</ele>
			<time>2012-07-26T09:53:00Z</time>
		</trkpt>
		<trkpt lat="47.4283820204" lon="11.0448061489">
			<ele>2536.1</ele>
			<time>2012-07-26T09:53:10Z</time>
		</trkpt>
		<trkpt lat="47.4283820204" lon="11.0448061489">
			<ele>2537.06</ele>
			<time>2012-07-26T09:53:21Z</time>
		</trkpt>
		<trkpt lat="47.4283820204" lon="11.0448061489">
			<ele>2537.54</ele>
			<time>2012-07-26T09:53:32Z</time>
		</trkpt>
		<trkpt lat="47.4283831939" lon="11.0448019579">
			<ele>2537.54</ele>
			<time>2012-07-26T09:53:46Z</time>
		</trkpt>
		<trkpt lat="47.4283831939" lon="11.0448019579">
			<ele>2538.02</ele>
			<time>2012-07-26T09:54:00Z</time>
		</trkpt>
		<trkpt lat="47.4283831939" lon="11.0448019579">
			<ele>2537.54</ele>
			<time>2012-07-26T09:54:11Z</time>
		</trkpt>
		<trkpt lat="47.4283861276" lon="11.0447904747">
			<ele>2537.06</ele>
			<time>2012-07-26T09:54:22Z</time>
		</trkpt>
		<trkpt lat="47.4283945933" lon="11.0447973479">
			<ele>2537.06</ele>
			<time>2012-07-26T09:54:32Z</time>
		</trkpt>
		<trkpt lat="47.4283945933" lon="11.0447973479">
			<ele>2536.1</ele>
			<time>2012-07-26T09:54:49Z</time>
		</trkpt>
		<trkpt lat="47.4283913244" lon="11.0448089149">
			<ele>2535.61</ele>
			<time>2012-07-26T09:54:59Z</time>
		</trkpt>
		<trkpt lat="47.4283982813" lon="11.0448170453">
			<ele>2535.13</ele>
			<time>2012-07-26T09:55:05Z</time>
		</trkpt>
		<trkpt lat="47.4284057412" lon="11.0448107589">
			<ele>2534.65</ele>
			<time>2012-07-26T09:55:14Z</time>
		</trkpt>
		<trkpt lat="47.4284057412" lon="11.0448107589">
			<ele>2535.13</ele>
			<time>2012-07-26T09:55:28Z</time>
		</trkpt>
		<trkpt lat="47.4284057412" lon="11.044811178">
			<ele>2534.65</ele>
			<time>2012-07-26T09:55:54Z</time>
		</trkpt>
		<trkpt lat="47.4284057412" lon="11.044811178">
			<ele>2534.17</ele>
			<time>2012-07-26T09:56:15Z</time>
		</trkpt>
		<trkpt lat="47.4283981137" lon="11.0448035505">
			<ele>2535.13</ele>
			<time>2012-07-26T09:56:25Z</time>
		</trkpt>
		<trkpt lat="47.4283961859" lon="11.0447951686">
			<ele>2536.58</ele>
			<time>2012-07-26T09:56:38Z</time>
		</trkpt>
		<trkpt lat="47.4283961859" lon="11.0447951686">
			<ele>2536.58</ele>
			<time>2012-07-26T09:56:47Z</time>
		</trkpt>
		<trkpt lat="47.4283961859" lon="11.0447951686">
			<ele>2537.54</ele>
			<time>2012-07-26T09:56:57Z</time>
		</trkpt>
		<trkpt lat="47.4283961859" lon="11.0447951686">
			<ele>2536.58</ele>
			<time>2012-07-26T09:57:09Z</time>
		</trkpt>
		<trkpt lat="47.4283955153" lon="11.0447870381">
			<ele>2535.61</ele>
			<time>2012-07-26T09:57:22Z</time>
		</trkpt>
		<trkpt lat="47.4283955153" lon="11.0447870381">
			<ele>2534.17</ele>
			<time>2012-07-26T09:57:35Z</time>
		</trkpt>
		<trkpt lat="47.4283955153" lon="11.0447870381">
			<ele>2533.69</ele>
			<time>2012-07-26T09:57:47Z</time>
		</trkpt>
		<trkpt lat="47.4283901509" lon="11.0447912291">
			<ele>2533.21</ele>
			<time>2012-07-26T09:57:55Z</time>
		</trkpt>
		<trkpt lat="47.4283771589" lon="11.0447585396">
			<ele>2533.69</ele>
			<time>2012-07-26T09:58:04Z</time>
		</trkpt>
		<trkpt lat="47.4283771589" lon="11.0447585396">
			<ele>2533.21</ele>
			<time>2012-07-26T09:58:19Z</time>
		</trkpt>
		<trkpt lat="47.4283771589" lon="11.0447585396">
			<ele>2532.25</ele>
			<time>2012-07-26T09:58:29Z</time>
		</trkpt>
		<trkpt lat="47.4283706211" lon="11.0447479784">
			<ele>2534.17</ele>
			<time>2012-07-26T09:58:37Z</time>
		</trkpt>
		<trkpt lat="47.4283706211" lon="11.0447479784">
			<ele>2535.61</ele>
			<time>2012-07-26T09:58:52Z</time>
		</trkpt>
		<trkpt lat="47.4283706211" lon="11.0447384231">
			<ele>2535.61</ele>
			<time>2012-07-26T09:59:02Z</time>
		</trkpt>
		<trkpt lat="47.4283706211" lon="11.0447384231">
			<ele>2535.13</ele>
			<time>2012-07-26T09:59:12Z</time>
		</trkpt>
		<trkpt lat="47.4283529352" lon="11.0446847789">
			<ele>2535.13</ele>
			<time>2012-07-26T09:59:19Z</time>
		</trkpt>
		<trkpt lat="47.428350253" lon="11.0446744692">
			<ele>2535.13</ele>
			<time>2012-07-26T09:59:34Z</time>
		</trkpt>
		<trkpt lat="47.428350253" lon="11.0446744692">
			<ele>2534.65</ele>
			<time>2012-07-26T09:59:55Z</time>
		</trkpt>
		<trkpt lat="47.4283467326" lon="11.0446676798">
			<ele>2534.65</ele>
			<time>2012-07-26T10:00:05Z</time>
		</trkpt>
		<trkpt lat="47.4283467326" lon="11.0446676798">
			<ele>2533.69</ele>
			<time>2012-07-26T10:00:13Z</time>
		</trkpt>
		<trkpt lat="47.4283467326" lon="11.0446676798">
			<ele>2532.73</ele>
			<time>2012-07-26T10:00:22Z</time>
		</trkpt>
		<trkpt lat="47.428303482" lon="11.044577742">
			<ele>2532.73</ele>
			<time>2012-07-26T10:00:30Z</time>
		</trkpt>
		<trkpt lat="47.4282929208" lon="11.0445487406">
			<ele>2532.73</ele>
			<time>2012-07-26T10:00:42Z</time>
		</trkpt>
		<trkpt lat="47.4282929208" lon="11.0445487406">
			<ele>2531.77</ele>
			<time>2012-07-26T10:01:03Z</time>
		</trkpt>
		<trkpt lat="47.4282868858" lon="11.0445422865">
			<ele>2530.81</ele>
			<time>2012-07-26T10:01:16Z</time>
		</trkpt>
		<trkpt lat="47.4282868858" lon="11.0445422865">
			<ele>2531.29</ele>
			<time>2012-07-26T10:01:28Z</time>
		</trkpt>
		<trkpt lat="47.4282868858" lon="11.0445422865">
			<ele>2529.85</ele>
			<time>2012-07-26T10:01:37Z</time>
		</trkpt>
		<trkpt lat="47.4282868858" lon="11.0445422865">
			<ele>2529.85</ele>
			<time>2012-07-26T10:01:46Z</time>
		</trkpt>
		<trkpt lat="47.4282786716" lon="11.0445354134">
			<ele>2529.85</ele>
			<time>2012-07-26T10:01:56Z</time>
		</trkpt>
		<trkpt lat="47.4282786716" lon="11.0445354134">
			<ele>2529.37</ele>
			<time>2012-07-26T10:02:07Z</time>
		</trkpt>
		<trkpt lat="47.4282786716" lon="11.0445354134">
			<ele>2528.4</ele>
			<time>2012-07-26T10:02:19Z</time>
		</trkpt>
		<trkpt lat="47.4282786716" lon="11.0445354134">
			<ele>2528.89</ele>
			<time>2012-07-26T10:02:29Z</time>
		</trkpt>
		<trkpt lat="47.4282419588" lon="11.0444702022">
			<ele>2528.4</ele>
			<time>2012-07-26T10:02:40Z</time>
		</trkpt>
		<trkpt lat="47.4282419588" lon="11.0444702022">
			<ele>2527.44</ele>
			<time>2012-07-26T10:02:53Z</time>
		</trkpt>
		<trkpt lat="47.4282419588" lon="11.0444702022">
			<ele>2527.92</ele>
			<time>2012-07-26T10:03:05Z</time>
		</trkpt>
		<trkpt lat="47.4282419588" lon="11.0444702022">
			<ele>2526.96</ele>
			<time>2012-07-26T10:03:17Z</time>
		</trkpt>
		<trkpt lat="47.4282394443" lon="11.0444267001">
			<ele>2526.48</ele>
			<time>2012-07-26T10:03:27Z</time>
		</trkpt>
		<trkpt lat="47.4282394443" lon="11.0444267001">
			<ele>2525.52</ele>
			<time>2012-07-26T10:03:37Z</time>
		</trkpt>
		<trkpt lat="47.4282394443" lon="11.0444267001">
			<ele>2524.08</ele>
			<time>2012-07-26T10:03:47Z</time>
		</trkpt>
		<trkpt lat="47.4282394443" lon="11.0444267001">
			<ele>2523.6</ele>
			<time>2012-07-26T10:03:58Z</time>
		</trkpt>
		<trkpt lat="47.4282386899" lon="11.0444229282">
			<ele>2523.12</ele>
			<time>2012-07-26T10:04:15Z</time>
		</trkpt>
		<trkpt lat="47.4282386899" lon="11.0444229282">
			<ele>2523.6</ele>
			<time>2012-07-26T10:04:32Z</time>
		</trkpt>
		<trkpt lat="47.428227542" lon="11.0443797614">
			<ele>2522.64</ele>
			<time>2012-07-26T10:04:42Z</time>
		</trkpt>
		<trkpt lat="47.428227542" lon="11.0443797614">
			<ele>2523.12</ele>
			<time>2012-07-26T10:04:54Z</time>
		</trkpt>
		<trkpt lat="47.428227542" lon="11.0443797614">
			<ele>2522.16</ele>
			<time>2012-07-26T10:05:10Z</time>
		</trkpt>
		<trkpt lat="47.4282247759" lon="11.0443483293">
			<ele>2521.68</ele>
			<time>2012-07-26T10:05:20Z</time>
		</trkpt>
		<trkpt lat="47.4282247759" lon="11.0443483293">
			<ele>2521.19</ele>
			<time>2012-07-26T10:05:37Z</time>
		</trkpt>
		<trkpt lat="47.4282247759" lon="11.0443483293">
			<ele>2519.75</ele>
			<time>2012-07-26T10:05:49Z</time>
		</trkpt>
		<trkpt lat="47.4282100238" lon="11.0443174839">
			<ele>2519.75</ele>
			<time>2012-07-26T10:05:56Z</time>
		</trkpt>
		<trkpt lat="47.4282100238" lon="11.0443174839">
			<ele>2519.75</ele>
			<time>2012-07-26T10:06:01Z</time>
		</trkpt>
		<trkpt lat="47.4282035697" lon="11.0442800168">
			<ele>2518.31</ele>
			<time>2012-07-26T10:06:09Z</time>
		</trkpt>
		<trkpt lat="47.4282035697" lon="11.0442800168">
			<ele>2519.27</ele>
			<time>2012-07-26T10:06:24Z</time>
		</trkpt>
		<trkpt lat="47.4282035697" lon="11.0442800168">
			<ele>2518.79</ele>
			<time>2012-07-26T10:06:35Z</time>
		</trkpt>
		<trkpt lat="47.4281892367" lon="11.044248417">
			<ele>2518.31</ele>
			<time>2012-07-26T10:06:46Z</time>
		</trkpt>
		<trkpt lat="47.4281819444" lon="11.0442295577">
			<ele>2517.83</ele>
			<time>2012-07-26T10:06:58Z</time>
		</trkpt>
		<trkpt lat="47.4281819444" lon="11.0442295577">
			<ele>2518.31</ele>
			<time>2012-07-26T10:07:08Z</time>
		</trkpt>
		<trkpt lat="47.4281819444" lon="11.0442295577">
			<ele>2516.87</ele>
			<time>2012-07-26T10:07:18Z</time>
		</trkpt>
		<trkpt lat="47.4281819444" lon="11.0442295577">
			<ele>2515.91</ele>
			<time>2012-07-26T10:07:27Z</time>
		</trkpt>
		<trkpt lat="47.428163169" lon="11.0442267079">
			<ele>2513.98</ele>
			<time>2012-07-26T10:07:36Z</time>
		</trkpt>
		<trkpt lat="47.4281519372" lon="11.0442189127">
			<ele>2514.95</ele>
			<time>2012-07-26T10:07:44Z</time>
		</trkpt>
		<trkpt lat="47.4281485844" lon="11.0441987962">
			<ele>2513.98</ele>
			<time>2012-07-26T10:07:52Z</time>
		</trkpt>
		<trkpt lat="47.4281067587" lon="11.0441575572">
			<ele>2514.95</ele>
			<time>2012-07-26T10:08:01Z</time>
		</trkpt>
		<trkpt lat="47.4281067587" lon="11.0441575572">
			<ele>2515.43</ele>
			<time>2012-07-26T10:08:11Z</time>
		</trkpt>
		<trkpt lat="47.4281067587" lon="11.0441575572">
			<ele>2514.95</ele>
			<time>2012-07-26T10:08:25Z</time>
		</trkpt>
		<trkpt lat="47.4281067587" lon="11.0441575572">
			<ele>2513.98</ele>
			<time>2012-07-26T10:08:36Z</time>
		</trkpt>
		<trkpt lat="47.428093683" lon="11.0441431403">
			<ele>2513.5</ele>
			<time>2012-07-26T10:08:49Z</time>
		</trkpt>
		<trkpt lat="47.428093683" lon="11.0441431403">
			<ele>2512.54</ele>
			<time>2012-07-26T10:09:02Z</time>
		</trkpt>
		<trkpt lat="47.428093683" lon="11.0441431403">
			<ele>2511.58</ele>
			<time>2012-07-26T10:09:12Z</time>
		</trkpt>
		<trkpt lat="47.4280858878" lon="11.0441118758">
			<ele>2511.58</ele>
			<time>2012-07-26T10:09:26Z</time>
		</trkpt>
		<trkpt lat="47.4280858878" lon="11.0441118758">
			<ele>2510.14</ele>
			<time>2012-07-26T10:09:35Z</time>
		</trkpt>
		<trkpt lat="47.4280858878" lon="11.0441118758">
			<ele>2510.14</ele>
			<time>2012-07-26T10:09:42Z</time>
		</trkpt>
		<trkpt lat="47.4280858878" lon="11.0441118758">
			<ele>2510.62</ele>
			<time>2012-07-26T10:09:54Z</time>
		</trkpt>
		<trkpt lat="47.4280725606" lon="11.044098381">
			<ele>2508.7</ele>
			<time>2012-07-26T10:10:02Z</time>
		</trkpt>
		<trkpt lat="47.4280725606" lon="11.044098381">
			<ele>2509.18</ele>
			<time>2012-07-26T10:10:12Z</time>
		</trkpt>
		<trkpt lat="47.4280725606" lon="11.044098381">
			<ele>2509.18</ele>
			<time>2012-07-26T10:10:22Z</time>
		</trkpt>
		<trkpt lat="47.4280725606" lon="11.044098381">
			<ele>2508.7</ele>
			<time>2012-07-26T10:10:30Z</time>
		</trkpt>
		<trkpt lat="47.4280465767" lon="11.0439893324">
			<ele>2508.22</ele>
			<time>2012-07-26T10:10:38Z</time>
		</trkpt>
		<trkpt lat="47.4280465767" lon="11.0439893324">
			<ele>2507.26</ele>
			<time>2012-07-26T10:10:46Z</time>
		</trkpt>
		<trkpt lat="47.4280018173" lon="11.0439523682">
			<ele>2506.77</ele>
			<time>2012-07-26T10:10:55Z</time>
		</trkpt>
		<trkpt lat="47.4279522803" lon="11.0438875761">
			<ele>2507.74</ele>
			<time>2012-07-26T10:11:00Z</time>
		</trkpt>
		<trkpt lat="47.4279388692" lon="11.0438591614">
			<ele>2507.74</ele>
			<time>2012-07-26T10:11:02Z</time>
		</trkpt>
		<trkpt lat="47.4278936069" lon="11.0438046791">
			<ele>2508.7</ele>
			<time>2012-07-26T10:11:11Z</time>
		</trkpt>
		<trkpt lat="47.4278936069" lon="11.0438046791">
			<ele>2509.66</ele>
			<time>2012-07-26T10:11:22Z</time>
		</trkpt>
		<trkpt lat="47.4278936069" lon="11.0438046791">
			<ele>2510.62</ele>
			<time>2012-07-26T10:11:31Z</time>
		</trkpt>
		<trkpt lat="47.4278696347" lon="11.0437814612">
			<ele>2510.62</ele>
			<time>2012-07-26T10:11:42Z</time>
		</trkpt>
		<trkpt lat="47.4278187566" lon="11.0437051021">
			<ele>2510.14</ele>
			<time>2012-07-26T10:11:50Z</time>
		</trkpt>
		<trkpt lat="47.4278149847" lon="11.0436807945">
			<ele>2510.14</ele>
			<time>2012-07-26T10:11:57Z</time>
		</trkpt>
		<trkpt lat="47.4278149847" lon="11.0436807945">
			<ele>2509.66</ele>
			<time>2012-07-26T10:12:09Z</time>
		</trkpt>
		<trkpt lat="47.4278149847" lon="11.0436807945">
			<ele>2508.7</ele>
			<time>2012-07-26T10:12:19Z</time>
		</trkpt>
		<trkpt lat="47.4278149847" lon="11.0436807945">
			<ele>2508.22</ele>
			<time>2012-07-26T10:12:31Z</time>
		</trkpt>
		<trkpt lat="47.4277905095" lon="11.0436160862">
			<ele>2508.22</ele>
			<time>2012-07-26T10:12:43Z</time>
		</trkpt>
		<trkpt lat="47.4277532939" lon="11.0435106419">
			<ele>2508.22</ele>
			<time>2012-07-26T10:12:50Z</time>
		</trkpt>
		<trkpt lat="47.4277470075" lon="11.0434993263">
			<ele>2506.77</ele>
			<time>2012-07-26T10:13:00Z</time>
		</trkpt>
		<trkpt lat="47.4277093727" lon="11.0434613563">
			<ele>2505.81</ele>
			<time>2012-07-26T10:13:08Z</time>
		</trkpt>
		<trkpt lat="47.4276958779" lon="11.0434528906">
			<ele>2505.33</ele>
			<time>2012-07-26T10:13:19Z</time>
		</trkpt>
		<trkpt lat="47.4276636913" lon="11.0434572492">
			<ele>2502.93</ele>
			<time>2012-07-26T10:13:29Z</time>
		</trkpt>
		<trkpt lat="47.427648101" lon="11.0434500407">
			<ele>2503.41</ele>
			<time>2012-07-26T10:13:40Z</time>
		</trkpt>
		<trkpt lat="47.427648101" lon="11.0434500407">
			<ele>2502.93</ele>
			<time>2012-07-26T10:13:50Z</time>
		</trkpt>
		<trkpt lat="47.4276368693" lon="11.0434243083">
			<ele>2502.93</ele>
			<time>2012-07-26T10:13:59Z</time>
		</trkpt>
		<trkpt lat="47.4276368693" lon="11.0434243083">
			<ele>2502.93</ele>
			<time>2012-07-26T10:14:08Z</time>
		</trkpt>
		<trkpt lat="47.4276206084" lon="11.0434173513">
			<ele>2502.45</ele>
			<time>2012-07-26T10:14:17Z</time>
		</trkpt>
		<trkpt lat="47.4275668804" lon="11.0433680657">
			<ele>2502.93</ele>
			<time>2012-07-26T10:14:27Z</time>
		</trkpt>
		<trkpt lat="47.4275555648" lon="11.0433625337">
			<ele>2501.97</ele>
			<time>2012-07-26T10:14:36Z</time>
		</trkpt>
		<trkpt lat="47.4275450036" lon="11.043348955">
			<ele>2501.49</ele>
			<time>2012-07-26T10:14:49Z</time>
		</trkpt>
		<trkpt lat="47.4275036808" lon="11.0433098953">
			<ele>2500.53</ele>
			<time>2012-07-26T10:14:58Z</time>
		</trkpt>
		<trkpt lat="47.4275000766" lon="11.0433068778">
			<ele>2501.01</ele>
			<time>2012-07-26T10:14:59Z</time>
		</trkpt>
		<trkpt lat="47.4274952151" lon="11.0433000047">
			<ele>2501.01</ele>
			<time>2012-07-26T10:15:09Z</time>
		</trkpt>
		<trkpt lat="47.4274764396" lon="11.043275781">
			<ele>2500.53</ele>
			<time>2012-07-26T10:15:16Z</time>
		</trkpt>
		<trkpt lat="47.4274764396" lon="11.043275781">
			<ele>2500.05</ele>
			<time>2012-07-26T10:15:29Z</time>
		</trkpt>
		<trkpt lat="47.4274657108" lon="11.0432740208">
			<ele>2499.57</ele>
			<time>2012-07-26T10:15:38Z</time>
		</trkpt>
		<trkpt lat="47.4274657108" lon="11.0432740208">
			<ele>2498.6</ele>
			<time>2012-07-26T10:15:46Z</time>
		</trkpt>
		<trkpt lat="47.4274657108" lon="11.0432740208">
			<ele>2498.12</ele>
			<time>2012-07-26T10:15:57Z</time>
		</trkpt>
		<trkpt lat="47.4274657108" lon="11.0432740208">
			<ele>2498.6</ele>
			<time>2012-07-26T10:16:08Z</time>
		</trkpt>
		<trkpt lat="47.4274657108" lon="11.0432740208">
			<ele>2499.57</ele>
			<time>2012-07-26T10:16:16Z</time>
		</trkpt>
		<trkpt lat="47.4274596758" lon="11.0432214662">
			<ele>2498.6</ele>
			<time>2012-07-26T10:16:26Z</time>
		</trkpt>
		<trkpt lat="47.4274579156" lon="11.0432109889">
			<ele>2498.12</ele>
			<time>2012-07-26T10:16:36Z</time>
		</trkpt>
		<trkpt lat="47.4274579156" lon="11.0432109889">
			<ele>2497.64</ele>
			<time>2012-07-26T10:16:45Z</time>
		</trkpt>
		<trkpt lat="47.4274579156" lon="11.0432109889">
			<ele>2497.16</ele>
			<time>2012-07-26T10:16:57Z</time>
		</trkpt>
		<trkpt lat="47.4274478573" lon="11.0432027746">
			<ele>2496.68</ele>
			<time>2012-07-26T10:17:08Z</time>
		</trkpt>
		<trkpt lat="47.427439224" lon="11.0432009306">
			<ele>2495.72</ele>
			<time>2012-07-26T10:17:16Z</time>
		</trkpt>
		<trkpt lat="47.4274246395" lon="11.0431849211">
			<ele>2495.24</ele>
			<time>2012-07-26T10:17:24Z</time>
		</trkpt>
		<trkpt lat="47.4274246395" lon="11.0431849211">
			<ele>2495.24</ele>
			<time>2012-07-26T10:17:36Z</time>
		</trkpt>
		<trkpt lat="47.4273692351" lon="11.0431161057">
			<ele>2494.76</ele>
			<time>2012-07-26T10:17:45Z</time>
		</trkpt>
		<trkpt lat="47.4273692351" lon="11.0431161057">
			<ele>2493.8</ele>
			<time>2012-07-26T10:17:58Z</time>
		</trkpt>
		<trkpt lat="47.4273692351" lon="11.0431161057">
			<ele>2492.84</ele>
			<time>2012-07-26T10:18:06Z</time>
		</trkpt>
		<trkpt lat="47.4273692351" lon="11.0431161057">
			<ele>2491.87</ele>
			<time>2012-07-26T10:18:13Z</time>
		</trkpt>
		<trkpt lat="47.4273692351" lon="11.0431161057">
			<ele>2490.91</ele>
			<time>2012-07-26T10:18:21Z</time>
		</trkpt>
		<trkpt lat="47.427306287" lon="11.043040501">
			<ele>2492.36</ele>
			<time>2012-07-26T10:18:29Z</time>
		</trkpt>
		<trkpt lat="47.4272823986" lon="11.0430074763">
			<ele>2493.32</ele>
			<time>2012-07-26T10:18:35Z</time>
		</trkpt>
		<trkpt lat="47.4272823986" lon="11.0430074763">
			<ele>2491.39</ele>
			<time>2012-07-26T10:18:44Z</time>
		</trkpt>
		<trkpt lat="47.4272602703" lon="11.0429781396">
			<ele>2491.87</ele>
			<time>2012-07-26T10:18:49Z</time>
		</trkpt>
		<trkpt lat="47.4272380583" lon="11.0429638904">
			<ele>2490.43</ele>
			<time>2012-07-26T10:18:56Z</time>
		</trkpt>
		<trkpt lat="47.4272380583" lon="11.0429638904">
			<ele>2490.43</ele>
			<time>2012-07-26T10:19:03Z</time>
		</trkpt>
		<trkpt lat="47.4272236414" lon="11.0429349728">
			<ele>2489.95</ele>
			<time>2012-07-26T10:19:06Z</time>
		</trkpt>
		<trkpt lat="47.4271707516" lon="11.0429181252">
			<ele>2489.47</ele>
			<time>2012-07-26T10:19:15Z</time>
		</trkpt>
		<trkpt lat="47.4271707516" lon="11.0429181252">
			<ele>2488.51</ele>
			<time>2012-07-26T10:19:19Z</time>
		</trkpt>
		<trkpt lat="47.4271055404" lon="11.0428675823">
			<ele>2487.55</ele>
			<time>2012-07-26T10:19:28Z</time>
		</trkpt>
		<trkpt lat="47.4270951468" lon="11.0428567696">
			<ele>2487.07</ele>
			<time>2012-07-26T10:19:31Z</time>
		</trkpt>
		<trkpt lat="47.4270252418" lon="11.042781584">
			<ele>2487.55</ele>
			<time>2012-07-26T10:19:40Z</time>
		</trkpt>
		<trkpt lat="47.4269948993" lon="11.0427648202">
			<ele>2486.59</ele>
			<time>2012-07-26T10:19:50Z</time>
		</trkpt>
		<trkpt lat="47.4269782193" lon="11.0427524988">
			<ele>2486.11</ele>
			<time>2012-07-26T10:19:52Z</time>
		</trkpt>
		<trkpt lat="47.4269253295" lon="11.0426378343">
			<ele>2486.11</ele>
			<time>2012-07-26T10:20:00Z</time>
		</trkpt>
		<trkpt lat="47.4268938974" lon="11.0424815118">
			<ele>2485.15</ele>
			<time>2012-07-26T10:20:10Z</time>
		</trkpt>
		<trkpt lat="47.4268504791" lon="11.0424012132">
			<ele>2483.7</ele>
			<time>2012-07-26T10:20:19Z</time>
		</trkpt>
		<trkpt lat="47.426843103" lon="11.0423876345">
			<ele>2482.74</ele>
			<time>2012-07-26T10:20:30Z</time>
		</trkpt>
		<trkpt lat="47.426843103" lon="11.0423876345">
			<ele>2482.74</ele>
			<time>2012-07-26T10:20:43Z</time>
		</trkpt>
		<trkpt lat="47.4268441088" lon="11.0423804261">
			<ele>2482.74</ele>
			<time>2012-07-26T10:21:03Z</time>
		</trkpt>
		<trkpt lat="47.4268441088" lon="11.0423804261">
			<ele>2482.74</ele>
			<time>2012-07-26T10:21:23Z</time>
		</trkpt>
		<trkpt lat="47.4268441088" lon="11.0423804261">
			<ele>2481.3</ele>
			<time>2012-07-26T10:21:36Z</time>
		</trkpt>
		<trkpt lat="47.4268584419" lon="11.0423674341">
			<ele>2481.78</ele>
			<time>2012-07-26T10:21:49Z</time>
		</trkpt>
		<trkpt lat="47.4268584419" lon="11.0423674341">
			<ele>2481.78</ele>
			<time>2012-07-26T10:22:10Z</time>
		</trkpt>
		<trkpt lat="47.4268571846" lon="11.0423635785">
			<ele>2481.3</ele>
			<time>2012-07-26T10:22:34Z</time>
		</trkpt>
		<trkpt lat="47.4268543348" lon="11.0423541907">
			<ele>2481.78</ele>
			<time>2012-07-26T10:22:57Z</time>
		</trkpt>
		<trkpt lat="47.4268543348" lon="11.0423541907">
			<ele>2481.78</ele>
			<time>2012-07-26T10:22:58Z</time>
		</trkpt>
		<trkpt lat="47.4268289376" lon="11.0423027258">
			<ele>2480.82</ele>
			<time>2012-07-26T10:23:02Z</time>
		</trkpt>
		<trkpt lat="47.4268104974" lon="11.0422816873">
			<ele>2481.78</ele>
			<time>2012-07-26T10:23:11Z</time>
		</trkpt>
		<trkpt lat="47.4268104974" lon="11.0422816873">
			<ele>2481.3</ele>
			<time>2012-07-26T10:23:25Z</time>
		</trkpt>
		<trkpt lat="47.4268041272" lon="11.0422858782">
			<ele>2481.3</ele>
			<time>2012-07-26T10:23:35Z</time>
		</trkpt>
		<trkpt lat="47.4267939012" lon="11.042284118">
			<ele>2480.82</ele>
			<time>2012-07-26T10:23:46Z</time>
		</trkpt>
		<trkpt lat="47.4267943203" lon="11.0422825254">
			<ele>2480.34</ele>
			<time>2012-07-26T10:23:57Z</time>
		</trkpt>
		<trkpt lat="47.4267943203" lon="11.0422825254">
			<ele>2479.86</ele>
			<time>2012-07-26T10:24:26Z</time>
		</trkpt>
		<trkpt lat="47.4267952424" lon="11.0422849562">
			<ele>2480.82</ele>
			<time>2012-07-26T10:24:37Z</time>
		</trkpt>
		<trkpt lat="47.4268271774" lon="11.0422799271">
			<ele>2481.3</ele>
			<time>2012-07-26T10:24:42Z</time>
		</trkpt>
		<trkpt lat="47.4268787261" lon="11.0422349162">
			<ele>2479.86</ele>
			<time>2012-07-26T10:24:54Z</time>
		</trkpt>
		<trkpt lat="47.4268457014" lon="11.0422133747">
			<ele>2478.9</ele>
			<time>2012-07-26T10:25:05Z</time>
		</trkpt>
		<trkpt lat="47.4268426839" lon="11.0421742313">
			<ele>2477.45</ele>
			<time>2012-07-26T10:25:13Z</time>
		</trkpt>
		<trkpt lat="47.4268640578" lon="11.0421462357">
			<ele>2475.53</ele>
			<time>2012-07-26T10:25:23Z</time>
		</trkpt>
		<trkpt lat="47.4268633034" lon="11.0421522707">
			<ele>2474.09</ele>
			<time>2012-07-26T10:25:27Z</time>
		</trkpt>
		<trkpt lat="47.4268633034" lon="11.0421522707">
			<ele>2476.01</ele>
			<time>2012-07-26T10:25:29Z</time>
		</trkpt>
		<trkpt lat="47.4268633034" lon="11.0421522707">
			<ele>2477.94</ele>
			<time>2012-07-26T10:25:31Z</time>
		</trkpt>
		<trkpt lat="47.4268633034" lon="11.0421522707">
			<ele>2476.01</ele>
			<time>2012-07-26T10:25:33Z</time>
		</trkpt>
		<trkpt lat="47.4268633034" lon="11.0421522707">
			<ele>2468.32</ele>
			<time>2012-07-26T10:25:49Z</time>
		</trkpt>
		<trkpt lat="47.4268633034" lon="11.0421522707">
			<ele>2476.49</ele>
			<time>2012-07-26T10:25:50Z</time>
		</trkpt>
		<trkpt lat="47.4268657342" lon="11.0421505943">
			<ele>2475.53</ele>
			<time>2012-07-26T10:25:58Z</time>
		</trkpt>
		<trkpt lat="47.426868584" lon="11.0421347525">
			<ele>2475.05</ele>
			<time>2012-07-26T10:26:07Z</time>
		</trkpt>
		<trkpt lat="47.4268730264" lon="11.0421312321">
			<ele>2475.05</ele>
			<time>2012-07-26T10:26:26Z</time>
		</trkpt>
		<trkpt lat="47.4268730264" lon="11.0421404522">
			<ele>2474.57</ele>
			<time>2012-07-26T10:26:36Z</time>
		</trkpt>
		<trkpt lat="47.4268882815" lon="11.0421415418">
			<ele>2474.09</ele>
			<time>2012-07-26T10:26:45Z</time>
		</trkpt>
		<trkpt lat="47.4268938135" lon="11.0421421286">
			<ele>2473.61</ele>
			<time>2012-07-26T10:26:56Z</time>
		</trkpt>
		<trkpt lat="47.4269077275" lon="11.0421520192">
			<ele>2473.13</ele>
			<time>2012-07-26T10:27:06Z</time>
		</trkpt>
		<trkpt lat="47.4269150198" lon="11.0421512648">
			<ele>2472.65</ele>
			<time>2012-07-26T10:27:13Z</time>
		</trkpt>
		<trkpt lat="47.4269198813" lon="11.0421518516">
			<ele>2471.21</ele>
			<time>2012-07-26T10:27:23Z</time>
		</trkpt>
		<trkpt lat="47.4269206356" lon="11.0421542823">
			<ele>2470.73</ele>
			<time>2012-07-26T10:27:33Z</time>
		</trkpt>
		<trkpt lat="47.4269414227" lon="11.0421589762">
			<ele>2469.76</ele>
			<time>2012-07-26T10:27:43Z</time>
		</trkpt>
		<trkpt lat="47.4269414227" lon="11.0421589762">
			<ele>2469.28</ele>
			<time>2012-07-26T10:27:58Z</time>
		</trkpt>
		<trkpt lat="47.426944524" lon="11.0421578027">
			<ele>2468.32</ele>
			<time>2012-07-26T10:28:08Z</time>
		</trkpt>
		<trkpt lat="47.4269615393" lon="11.0421655141">
			<ele>2468.32</ele>
			<time>2012-07-26T10:28:17Z</time>
		</trkpt>
		<trkpt lat="47.4269615393" lon="11.0421655141">
			<ele>2468.32</ele>
			<time>2012-07-26T10:28:34Z</time>
		</trkpt>
		<trkpt lat="47.4269576836" lon="11.0421645083">
			<ele>2468.32</ele>
			<time>2012-07-26T10:28:49Z</time>
		</trkpt>
		<trkpt lat="47.4269683287" lon="11.0421620775">
			<ele>2467.36</ele>
			<time>2012-07-26T10:29:00Z</time>
		</trkpt>
		<trkpt lat="47.426975118" lon="11.0421663523">
			<ele>2465.92</ele>
			<time>2012-07-26T10:29:12Z</time>
		</trkpt>
		<trkpt lat="47.4269795604" lon="11.0421683639">
			<ele>2465.44</ele>
			<time>2012-07-26T10:29:23Z</time>
		</trkpt>
		<trkpt lat="47.4269980844" lon="11.0421813559">
			<ele>2464.48</ele>
			<time>2012-07-26T10:29:34Z</time>
		</trkpt>
		<trkpt lat="47.4270023592" lon="11.0421846248">
			<ele>2463.52</ele>
			<time>2012-07-26T10:29:46Z</time>
		</trkpt>
		<trkpt lat="47.4270107411" lon="11.0421848763">
			<ele>2462.55</ele>
			<time>2012-07-26T10:29:58Z</time>
		</trkpt>
		<trkpt lat="47.4270189553" lon="11.0421940964">
			<ele>2461.59</ele>
			<time>2012-07-26T10:30:10Z</time>
		</trkpt>
		<trkpt lat="47.4270278402" lon="11.042206334">
			<ele>2460.63</ele>
			<time>2012-07-26T10:30:20Z</time>
		</trkpt>
		<trkpt lat="47.4270333722" lon="11.0422028974">
			<ele>2460.63</ele>
			<time>2012-07-26T10:30:31Z</time>
		</trkpt>
		<trkpt lat="47.427054327" lon="11.0422077589">
			<ele>2459.19</ele>
			<time>2012-07-26T10:30:42Z</time>
		</trkpt>
		<trkpt lat="47.4270650558" lon="11.0422097705">
			<ele>2458.23</ele>
			<time>2012-07-26T10:30:50Z</time>
		</trkpt>
		<trkpt lat="47.4270734377" lon="11.0422120336">
			<ele>2457.75</ele>
			<time>2012-07-26T10:31:03Z</time>
		</trkpt>
		<trkpt lat="47.4270785507" lon="11.0422061663">
			<ele>2457.27</ele>
			<time>2012-07-26T10:31:14Z</time>
		</trkpt>
		<trkpt lat="47.4270956498" lon="11.042196108">
			<ele>2455.82</ele>
			<time>2012-07-26T10:31:22Z</time>
		</trkpt>
		<trkpt lat="47.4271058757" lon="11.0421998799">
			<ele>2454.86</ele>
			<time>2012-07-26T10:31:33Z</time>
		</trkpt>
		<trkpt lat="47.4271197058" lon="11.0422216728">
			<ele>2454.38</ele>
			<time>2012-07-26T10:31:44Z</time>
		</trkpt>
		<trkpt lat="47.4271197058" lon="11.0422216728">
			<ele>2453.42</ele>
			<time>2012-07-26T10:31:57Z</time>
		</trkpt>
		<trkpt lat="47.4271273334" lon="11.0422204155">
			<ele>2451.98</ele>
			<time>2012-07-26T10:32:11Z</time>
		</trkpt>
		<trkpt lat="47.4271637946" lon="11.042227624">
			<ele>2451.02</ele>
			<time>2012-07-26T10:32:24Z</time>
		</trkpt>
		<trkpt lat="47.4271869287" lon="11.0422250256">
			<ele>2448.62</ele>
			<time>2012-07-26T10:32:35Z</time>
		</trkpt>
		<trkpt lat="47.4271898624" lon="11.0422287975">
			<ele>2448.62</ele>
			<time>2012-07-26T10:32:47Z</time>
		</trkpt>
		<trkpt lat="47.4271898624" lon="11.0422287975">
			<ele>2448.62</ele>
			<time>2012-07-26T10:32:48Z</time>
		</trkpt>
		<trkpt lat="47.427202519" lon="11.0422302224">
			<ele>2447.17</ele>
			<time>2012-07-26T10:32:56Z</time>
		</trkpt>
		<trkpt lat="47.4272161815" lon="11.0422186553">
			<ele>2446.69</ele>
			<time>2012-07-26T10:33:09Z</time>
		</trkpt>
		<trkpt lat="47.4272255693" lon="11.0422101896">
			<ele>2445.25</ele>
			<time>2012-07-26T10:33:18Z</time>
		</trkpt>
		<trkpt lat="47.4272293411" lon="11.0422017239">
			<ele>2444.77</ele>
			<time>2012-07-26T10:33:27Z</time>
		</trkpt>
		<trkpt lat="47.427232191" lon="11.0421920009">
			<ele>2444.29</ele>
			<time>2012-07-26T10:33:34Z</time>
		</trkpt>
		<trkpt lat="47.427232191" lon="11.0421861336">
			<ele>2443.81</ele>
			<time>2012-07-26T10:33:44Z</time>
		</trkpt>
		<trkpt lat="47.42724007" lon="11.0421716329">
			<ele>2441.89</ele>
			<time>2012-07-26T10:33:55Z</time>
		</trkpt>
		<trkpt lat="47.4272332806" lon="11.0421688668">
			<ele>2441.41</ele>
			<time>2012-07-26T10:34:11Z</time>
		</trkpt>
		<trkpt lat="47.4272332806" lon="11.0421688668">
			<ele>2441.89</ele>
			<time>2012-07-26T10:34:33Z</time>
		</trkpt>
		<trkpt lat="47.427236801" lon="11.042164173">
			<ele>2441.89</ele>
			<time>2012-07-26T10:34:50Z</time>
		</trkpt>
		<trkpt lat="47.4272355437" lon="11.0421527736">
			<ele>2440.92</ele>
			<time>2012-07-26T10:35:03Z</time>
		</trkpt>
		<trkpt lat="47.4272363819" lon="11.042143805">
			<ele>2439.96</ele>
			<time>2012-07-26T10:35:14Z</time>
		</trkpt>
		<trkpt lat="47.4272388965" lon="11.0421231855">
			<ele>2439</ele>
			<time>2012-07-26T10:35:21Z</time>
		</trkpt>
		<trkpt lat="47.4272480328" lon="11.0420977883">
			<ele>2438.04</ele>
			<time>2012-07-26T10:35:28Z</time>
		</trkpt>
		<trkpt lat="47.427251637" lon="11.0420818627">
			<ele>2437.56</ele>
			<time>2012-07-26T10:35:35Z</time>
		</trkpt>
		<trkpt lat="47.4272436742" lon="11.0420532804">
			<ele>2436.12</ele>
			<time>2012-07-26T10:35:48Z</time>
		</trkpt>
		<trkpt lat="47.4272412434" lon="11.0420381092">
			<ele>2434.68</ele>
			<time>2012-07-26T10:35:56Z</time>
		</trkpt>
		<trkpt lat="47.4272316881" lon="11.0420170706">
			<ele>2433.71</ele>
			<time>2012-07-26T10:36:02Z</time>
		</trkpt>
		<trkpt lat="47.4272299279" lon="11.0420079343">
			<ele>2433.23</ele>
			<time>2012-07-26T10:36:09Z</time>
		</trkpt>
		<trkpt lat="47.4272246473" lon="11.0420049168">
			<ele>2432.27</ele>
			<time>2012-07-26T10:36:21Z</time>
		</trkpt>
		<trkpt lat="47.4272181094" lon="11.0419852193">
			<ele>2431.79</ele>
			<time>2012-07-26T10:36:32Z</time>
		</trkpt>
		<trkpt lat="47.4272181094" lon="11.0419852193">
			<ele>2431.79</ele>
			<time>2012-07-26T10:36:33Z</time>
		</trkpt>
		<trkpt lat="47.4272140022" lon="11.0419786815">
			<ele>2430.35</ele>
			<time>2012-07-26T10:36:41Z</time>
		</trkpt>
		<trkpt lat="47.4271978252" lon="11.0419695452">
			<ele>2430.35</ele>
			<time>2012-07-26T10:36:49Z</time>
		</trkpt>
		<trkpt lat="47.4271896947" lon="11.0419493448">
			<ele>2428.91</ele>
			<time>2012-07-26T10:36:58Z</time>
		</trkpt>
		<trkpt lat="47.4271866772" lon="11.0419392027">
			<ele>2428.43</ele>
			<time>2012-07-26T10:37:06Z</time>
		</trkpt>
		<trkpt lat="47.4271657225" lon="11.0419129673">
			<ele>2427.95</ele>
			<time>2012-07-26T10:37:14Z</time>
		</trkpt>
		<trkpt lat="47.4271553289" lon="11.0418880731">
			<ele>2426.5</ele>
			<time>2012-07-26T10:37:22Z</time>
		</trkpt>
		<trkpt lat="47.4271513056" lon="11.0418614186">
			<ele>2425.54</ele>
			<time>2012-07-26T10:37:29Z</time>
		</trkpt>
		<trkpt lat="47.4271468632" lon="11.0418466665">
			<ele>2424.58</ele>
			<time>2012-07-26T10:37:35Z</time>
		</trkpt>
		<trkpt lat="47.4271448515" lon="11.0418236163">
			<ele>2423.14</ele>
			<time>2012-07-26T10:37:42Z</time>
		</trkpt>
		<trkpt lat="47.4271412473" lon="11.0418104567">
			<ele>2421.7</ele>
			<time>2012-07-26T10:37:54Z</time>
		</trkpt>
		<trkpt lat="47.427142337" lon="11.0418040026">
			<ele>2420.74</ele>
			<time>2012-07-26T10:38:03Z</time>
		</trkpt>
		<trkpt lat="47.4271308538" lon="11.0417692177">
			<ele>2419.3</ele>
			<time>2012-07-26T10:38:12Z</time>
		</trkpt>
		<trkpt lat="47.4271287583" lon="11.0417663679">
			<ele>2419.3</ele>
			<time>2012-07-26T10:38:25Z</time>
		</trkpt>
		<trkpt lat="47.427123813" lon="11.0417317506">
			<ele>2417.85</ele>
			<time>2012-07-26T10:38:35Z</time>
		</trkpt>
		<trkpt lat="47.427123813" lon="11.0417317506">
			<ele>2417.37</ele>
			<time>2012-07-26T10:38:48Z</time>
		</trkpt>
		<trkpt lat="47.4271166045" lon="11.0417049285">
			<ele>2416.41</ele>
			<time>2012-07-26T10:38:54Z</time>
		</trkpt>
		<trkpt lat="47.4271122459" lon="11.041700989">
			<ele>2415.45</ele>
			<time>2012-07-26T10:39:04Z</time>
		</trkpt>
		<trkpt lat="47.4271099828" lon="11.041692188">
			<ele>2414.49</ele>
			<time>2012-07-26T10:39:13Z</time>
		</trkpt>
		<trkpt lat="47.4271046184" lon="11.0416838061">
			<ele>2414.01</ele>
			<time>2012-07-26T10:39:21Z</time>
		</trkpt>
		<trkpt lat="47.4271006789" lon="11.0416828841">
			<ele>2413.53</ele>
			<time>2012-07-26T10:39:30Z</time>
		</trkpt>
		<trkpt lat="47.4270923808" lon="11.0416440759">
			<ele>2412.57</ele>
			<time>2012-07-26T10:39:38Z</time>
		</trkpt>
		<trkpt lat="47.4270877708" lon="11.0416337661">
			<ele>2411.6</ele>
			<time>2012-07-26T10:39:52Z</time>
		</trkpt>
		<trkpt lat="47.4270815682" lon="11.0415942874">
			<ele>2410.64</ele>
			<time>2012-07-26T10:40:04Z</time>
		</trkpt>
		<trkpt lat="47.4270837475" lon="11.0415799543">
			<ele>2409.68</ele>
			<time>2012-07-26T10:40:11Z</time>
		</trkpt>
		<trkpt lat="47.4270808138" lon="11.041559251">
			<ele>2408.72</ele>
			<time>2012-07-26T10:40:20Z</time>
		</trkpt>
		<trkpt lat="47.4270828255" lon="11.0415391345">
			<ele>2408.24</ele>
			<time>2012-07-26T10:40:28Z</time>
		</trkpt>
		<trkpt lat="47.4270761199" lon="11.0415174253">
			<ele>2407.28</ele>
			<time>2012-07-26T10:40:37Z</time>
		</trkpt>
		<trkpt lat="47.4270725995" lon="11.0415083729">
			<ele>2407.28</ele>
			<time>2012-07-26T10:40:49Z</time>
		</trkpt>
		<trkpt lat="47.4270609487" lon="11.0414423235">
			<ele>2405.36</ele>
			<time>2012-07-26T10:41:01Z</time>
		</trkpt>
		<trkpt lat="47.4270609487" lon="11.0414423235">
			<ele>2405.84</ele>
			<time>2012-07-26T10:41:15Z</time>
		</trkpt>
		<trkpt lat="47.4270775449" lon="11.0413960554">
			<ele>2404.39</ele>
			<time>2012-07-26T10:41:24Z</time>
		</trkpt>
		<trkpt lat="47.4270758685" lon="11.0413616057">
			<ele>2403.43</ele>
			<time>2012-07-26T10:41:33Z</time>
		</trkpt>
		<trkpt lat="47.4270755332" lon="11.0413495358">
			<ele>2402.95</ele>
			<time>2012-07-26T10:41:41Z</time>
		</trkpt>
		<trkpt lat="47.4270767067" lon="11.0413409024">
			<ele>2401.51</ele>
			<time>2012-07-26T10:41:51Z</time>
		</trkpt>
		<trkpt lat="47.4270465318" lon="11.0413086321">
			<ele>2400.55</ele>
			<time>2012-07-26T10:42:00Z</time>
		</trkpt>
		<trkpt lat="47.4270425923" lon="11.0412599333">
			<ele>2399.59</ele>
			<time>2012-07-26T10:42:10Z</time>
		</trkpt>
		<trkpt lat="47.4270457774" lon="11.0412524734">
			<ele>2399.11</ele>
			<time>2012-07-26T10:42:19Z</time>
		</trkpt>
		<trkpt lat="47.4270445202" lon="11.0412421636">
			<ele>2398.63</ele>
			<time>2012-07-26T10:42:30Z</time>
		</trkpt>
		<trkpt lat="47.4270536564" lon="11.0412107315">
			<ele>2397.67</ele>
			<time>2012-07-26T10:42:39Z</time>
		</trkpt>
		<trkpt lat="47.4270578474" lon="11.0412083846">
			<ele>2396.7</ele>
			<time>2012-07-26T10:42:48Z</time>
		</trkpt>
		<trkpt lat="47.4270530697" lon="11.0411885194">
			<ele>2396.22</ele>
			<time>2012-07-26T10:43:01Z</time>
		</trkpt>
		<trkpt lat="47.4270548299" lon="11.0411578417">
			<ele>2395.74</ele>
			<time>2012-07-26T10:43:11Z</time>
		</trkpt>
		<trkpt lat="47.4270548299" lon="11.0411578417">
			<ele>2394.78</ele>
			<time>2012-07-26T10:43:33Z</time>
		</trkpt>
		<trkpt lat="47.4270548299" lon="11.0411578417">
			<ele>2394.3</ele>
			<time>2012-07-26T10:43:43Z</time>
		</trkpt>
		<trkpt lat="47.4270476215" lon="11.0411540698">
			<ele>2393.82</ele>
			<time>2012-07-26T10:43:54Z</time>
		</trkpt>
		<trkpt lat="47.4270572606" lon="11.0411435086">
			<ele>2393.82</ele>
			<time>2012-07-26T10:44:04Z</time>
		</trkpt>
		<trkpt lat="47.4270690791" lon="11.0411134176">
			<ele>2393.34</ele>
			<time>2012-07-26T10:44:14Z</time>
		</trkpt>
		<trkpt lat="47.4270802271" lon="11.0411139205">
			<ele>2392.38</ele>
			<time>2012-07-26T10:44:24Z</time>
		</trkpt>
		<trkpt lat="47.4270927161" lon="11.0410959832">
			<ele>2391.42</ele>
			<time>2012-07-26T10:44:33Z</time>
		</trkpt>
		<trkpt lat="47.4271120783" lon="11.0410699993">
			<ele>2390.94</ele>
			<time>2012-07-26T10:44:40Z</time>
		</trkpt>
		<trkpt lat="47.4271192867" lon="11.041069245">
			<ele>2390.46</ele>
			<time>2012-07-26T10:44:48Z</time>
		</trkpt>
		<trkpt lat="47.4271237291" lon="11.0410742741">
			<ele>2389.01</ele>
			<time>2012-07-26T10:44:56Z</time>
		</trkpt>
		<trkpt lat="47.427127501" lon="11.0410735197">
			<ele>2389.01</ele>
			<time>2012-07-26T10:45:04Z</time>
		</trkpt>
		<trkpt lat="47.4271303508" lon="11.0410679039">
			<ele>2389.01</ele>
			<time>2012-07-26T10:45:16Z</time>
		</trkpt>
		<trkpt lat="47.4271342903" lon="11.0410565045">
			<ele>2388.53</ele>
			<time>2012-07-26T10:45:27Z</time>
		</trkpt>
		<trkpt lat="47.4271486234" lon="11.041048374">
			<ele>2387.57</ele>
			<time>2012-07-26T10:45:36Z</time>
		</trkpt>
		<trkpt lat="47.4271455221" lon="11.0410387348">
			<ele>2387.09</ele>
			<time>2012-07-26T10:45:46Z</time>
		</trkpt>
		<trkpt lat="47.4271431752" lon="11.0410251562">
			<ele>2386.13</ele>
			<time>2012-07-26T10:45:55Z</time>
		</trkpt>
		<trkpt lat="47.427139068" lon="11.0410218872">
			<ele>2385.17</ele>
			<time>2012-07-26T10:46:04Z</time>
		</trkpt>
		<trkpt lat="47.4271391518" lon="11.0410223901">
			<ele>2384.21</ele>
			<time>2012-07-26T10:46:15Z</time>
		</trkpt>
		<trkpt lat="47.4271414988" lon="11.0410181154">
			<ele>2383.73</ele>
			<time>2012-07-26T10:46:25Z</time>
		</trkpt>
		<trkpt lat="47.4271544069" lon="11.0410147626">
			<ele>2383.73</ele>
			<time>2012-07-26T10:46:35Z</time>
		</trkpt>
		<trkpt lat="47.4271648005" lon="11.0410224739">
			<ele>2382.76</ele>
			<time>2012-07-26T10:46:45Z</time>
		</trkpt>
		<trkpt lat="47.4271697458" lon="11.0410266649">
			<ele>2381.32</ele>
			<time>2012-07-26T10:46:55Z</time>
		</trkpt>
		<trkpt lat="47.4271716736" lon="11.0410279222">
			<ele>2380.36</ele>
			<time>2012-07-26T10:47:06Z</time>
		</trkpt>
		<trkpt lat="47.4271710031" lon="11.0410283413">
			<ele>2379.88</ele>
			<time>2012-07-26T10:47:18Z</time>
		</trkpt>
		<trkpt lat="47.4271795526" lon="11.0410305206">
			<ele>2379.4</ele>
			<time>2012-07-26T10:47:29Z</time>
		</trkpt>
		<trkpt lat="47.4271902815" lon="11.0410259943">
			<ele>2378.92</ele>
			<time>2012-07-26T10:47:40Z</time>
		</trkpt>
		<trkpt lat="47.427200675" lon="11.0410367232">
			<ele>2377.48</ele>
			<time>2012-07-26T10:47:52Z</time>
		</trkpt>
		<trkpt lat="47.4272071291" lon="11.0410347115">
			<ele>2376.52</ele>
			<time>2012-07-26T10:48:01Z</time>
		</trkpt>
		<trkpt lat="47.4272069614" lon="11.0410490446">
			<ele>2376.04</ele>
			<time>2012-07-26T10:48:13Z</time>
		</trkpt>
		<trkpt lat="47.4272291735" lon="11.0410473682">
			<ele>2375.55</ele>
			<time>2012-07-26T10:48:22Z</time>
		</trkpt>
		<trkpt lat="47.427234957" lon="11.0410224739">
			<ele>2373.63</ele>
			<time>2012-07-26T10:48:31Z</time>
		</trkpt>
		<trkpt lat="47.4272551574" lon="11.0410176963">
			<ele>2372.67</ele>
			<time>2012-07-26T10:48:40Z</time>
		</trkpt>
		<trkpt lat="47.4272661377" lon="11.0410237312">
			<ele>2371.71</ele>
			<time>2012-07-26T10:48:48Z</time>
		</trkpt>
		<trkpt lat="47.4272696581" lon="11.0410244018">
			<ele>2371.23</ele>
			<time>2012-07-26T10:48:56Z</time>
		</trkpt>
		<trkpt lat="47.4272823986" lon="11.041031694">
			<ele>2371.23</ele>
			<time>2012-07-26T10:49:05Z</time>
		</trkpt>
		<trkpt lat="47.4272931274" lon="11.0410166904">
			<ele>2370.27</ele>
			<time>2012-07-26T10:49:12Z</time>
		</trkpt>
		<trkpt lat="47.4272904452" lon="11.0409561731">
			<ele>2367.86</ele>
			<time>2012-07-26T10:49:21Z</time>
		</trkpt>
		<trkpt lat="47.4273155071" lon="11.0409246571">
			<ele>2366.9</ele>
			<time>2012-07-26T10:49:29Z</time>
		</trkpt>
		<trkpt lat="47.4273326062" lon="11.0408927221">
			<ele>2365.46</ele>
			<time>2012-07-26T10:49:37Z</time>
		</trkpt>
		<trkpt lat="47.4273353722" lon="11.0408866033">
			<ele>2364.5</ele>
			<time>2012-07-26T10:49:53Z</time>
		</trkpt>
		<trkpt lat="47.4273463525" lon="11.0408914648">
			<ele>2364.5</ele>
			<time>2012-07-26T10:50:03Z</time>
		</trkpt>
		<trkpt lat="47.4273463525" lon="11.0408914648">
			<ele>2364.98</ele>
			<time>2012-07-26T10:50:23Z</time>
		</trkpt>
		<trkpt lat="47.4273480289" lon="11.0408875253">
			<ele>2364.5</ele>
			<time>2012-07-26T10:50:45Z</time>
		</trkpt>
		<trkpt lat="47.4273538124" lon="11.0408908781">
			<ele>2364.5</ele>
			<time>2012-07-26T10:50:55Z</time>
		</trkpt>
		<trkpt lat="47.4273543153" lon="11.0408902913">
			<ele>2364.02</ele>
			<time>2012-07-26T10:51:03Z</time>
		</trkpt>
		<trkpt lat="47.4273712467" lon="11.0408738628">
			<ele>2363.54</ele>
			<time>2012-07-26T10:51:12Z</time>
		</trkpt>
		<trkpt lat="47.4273750186" lon="11.0408781376">
			<ele>2362.58</ele>
			<time>2012-07-26T10:51:23Z</time>
		</trkpt>
		<trkpt lat="47.4273844063" lon="11.0408754554">
			<ele>2362.58</ele>
			<time>2012-07-26T10:51:34Z</time>
		</trkpt>
		<trkpt lat="47.4273945484" lon="11.0408864357">
			<ele>2361.62</ele>
			<time>2012-07-26T10:51:42Z</time>
		</trkpt>
		<trkpt lat="47.4273994099" lon="11.0408887826">
			<ele>2361.14</ele>
			<time>2012-07-26T10:51:50Z</time>
		</trkpt>
		<trkpt lat="47.427402176" lon="11.0408878606">
			<ele>2360.65</ele>
			<time>2012-07-26T10:51:58Z</time>
		</trkpt>
		<trkpt lat="47.4273990747" lon="11.0408945661">
			<ele>2359.69</ele>
			<time>2012-07-26T10:52:09Z</time>
		</trkpt>
		<trkpt lat="47.4274059478" lon="11.0409012716">
			<ele>2358.73</ele>
			<time>2012-07-26T10:52:21Z</time>
		</trkpt>
		<trkpt lat="47.4274124857" lon="11.0409101564">
			<ele>2358.25</ele>
			<time>2012-07-26T10:52:31Z</time>
		</trkpt>
		<trkpt lat="47.4274124857" lon="11.0409101564">
			<ele>2356.33</ele>
			<time>2012-07-26T10:52:43Z</time>
		</trkpt>
		<trkpt lat="47.4274190236" lon="11.040916862">
			<ele>2355.37</ele>
			<time>2012-07-26T10:52:56Z</time>
		</trkpt>
		<trkpt lat="47.4274201132" lon="11.0409178678">
			<ele>2355.37</ele>
			<time>2012-07-26T10:53:08Z</time>
		</trkpt>
		<trkpt lat="47.4274201132" lon="11.0409178678">
			<ele>2354.89</ele>
			<time>2012-07-26T10:53:18Z</time>
		</trkpt>
		<trkpt lat="47.4274265673" lon="11.0409235675">
			<ele>2353.93</ele>
			<time>2012-07-26T10:53:26Z</time>
		</trkpt>
		<trkpt lat="47.4274279084" lon="11.0409281775">
			<ele>2353.44</ele>
			<time>2012-07-26T10:53:37Z</time>
		</trkpt>
		<trkpt lat="47.4274279084" lon="11.0409281775">
			<ele>2352.48</ele>
			<time>2012-07-26T10:53:49Z</time>
		</trkpt>
		<trkpt lat="47.4274323508" lon="11.0409286804">
			<ele>2352.48</ele>
			<time>2012-07-26T10:54:01Z</time>
		</trkpt>
		<trkpt lat="47.4274421576" lon="11.0409380682">
			<ele>2351.04</ele>
			<time>2012-07-26T10:54:13Z</time>
		</trkpt>
		<trkpt lat="47.4274421576" lon="11.0409380682">
			<ele>2350.56</ele>
			<time>2012-07-26T10:54:24Z</time>
		</trkpt>
		<trkpt lat="47.4274421576" lon="11.0409380682">
			<ele>2350.56</ele>
			<time>2012-07-26T10:54:34Z</time>
		</trkpt>
		<trkpt lat="47.4274421576" lon="11.0409380682">
			<ele>2350.08</ele>
			<time>2012-07-26T10:54:44Z</time>
		</trkpt>
		<trkpt lat="47.4274440017" lon="11.0409367271">
			<ele>2349.12</ele>
			<time>2012-07-26T10:54:54Z</time>
		</trkpt>
		<trkpt lat="47.4274440017" lon="11.0409367271">
			<ele>2348.16</ele>
			<time>2012-07-26T10:55:03Z</time>
		</trkpt>
		<trkpt lat="47.4274440017" lon="11.0409367271">
			<ele>2347.68</ele>
			<time>2012-07-26T10:55:12Z</time>
		</trkpt>
		<trkpt lat="47.4274440017" lon="11.0409367271">
			<ele>2346.72</ele>
			<time>2012-07-26T10:55:22Z</time>
		</trkpt>
		<trkpt lat="47.4274450913" lon="11.0409391578">
			<ele>2345.27</ele>
			<time>2012-07-26T10:55:34Z</time>
		</trkpt>
		<trkpt lat="47.427444756" lon="11.040939074">
			<ele>2345.27</ele>
			<time>2012-07-26T10:55:46Z</time>
		</trkpt>
		<trkpt lat="47.4274450913" lon="11.0409391578">
			<ele>2344.31</ele>
			<time>2012-07-26T10:55:58Z</time>
		</trkpt>
		<trkpt lat="47.4274460971" lon="11.0409415048">
			<ele>2344.31</ele>
			<time>2012-07-26T10:56:10Z</time>
		</trkpt>
		<trkpt lat="47.4274460971" lon="11.0409415048">
			<ele>2344.31</ele>
			<time>2012-07-26T10:56:23Z</time>
		</trkpt>
		<trkpt lat="47.4274460971" lon="11.0409415048">
			<ele>2344.31</ele>
			<time>2012-07-26T10:56:25Z</time>
		</trkpt>
		<trkpt lat="47.4274673872" lon="11.0409613699">
			<ele>2342.87</ele>
			<time>2012-07-26T10:56:36Z</time>
		</trkpt>
		<trkpt lat="47.4274673872" lon="11.0409613699">
			<ele>2341.91</ele>
			<time>2012-07-26T10:56:46Z</time>
		</trkpt>
		<trkpt lat="47.4274673872" lon="11.0409613699">
			<ele>2340.47</ele>
			<time>2012-07-26T10:56:58Z</time>
		</trkpt>
		<trkpt lat="47.4274657108" lon="11.0409635492">
			<ele>2339.99</ele>
			<time>2012-07-26T10:57:13Z</time>
		</trkpt>
		<trkpt lat="47.4274657108" lon="11.0409635492">
			<ele>2339.51</ele>
			<time>2012-07-26T10:57:22Z</time>
		</trkpt>
		<trkpt lat="47.4274749309" lon="11.0409745295">
			<ele>2339.02</ele>
			<time>2012-07-26T10:57:32Z</time>
		</trkpt>
		<trkpt lat="47.4274989869" lon="11.0410193726">
			<ele>2338.06</ele>
			<time>2012-07-26T10:57:41Z</time>
		</trkpt>
		<trkpt lat="47.4274989869" lon="11.0410193726">
			<ele>2336.62</ele>
			<time>2012-07-26T10:57:50Z</time>
		</trkpt>
		<trkpt lat="47.4274989869" lon="11.0410193726">
			<ele>2337.1</ele>
			<time>2012-07-26T10:57:53Z</time>
		</trkpt>
		<trkpt lat="47.4275076203" lon="11.0410412494">
			<ele>2336.14</ele>
			<time>2012-07-26T10:58:04Z</time>
		</trkpt>
		<trkpt lat="47.4274851568" lon="11.0410337895">
			<ele>2335.66</ele>
			<time>2012-07-26T10:58:17Z</time>
		</trkpt>
		<trkpt lat="47.4274502043" lon="11.0410326999">
			<ele>2334.7</ele>
			<time>2012-07-26T10:58:23Z</time>
		</trkpt>
		<trkpt lat="47.4274502043" lon="11.0410326999">
			<ele>2334.7</ele>
			<time>2012-07-26T10:58:31Z</time>
		</trkpt>
		<trkpt lat="47.4274661299" lon="11.0410466138">
			<ele>2334.22</ele>
			<time>2012-07-26T10:58:43Z</time>
		</trkpt>
		<trkpt lat="47.4274622742" lon="11.041047452">
			<ele>2333.74</ele>
			<time>2012-07-26T10:58:55Z</time>
		</trkpt>
		<trkpt lat="47.4274610169" lon="11.0410475358">
			<ele>2333.74</ele>
			<time>2012-07-26T10:58:58Z</time>
		</trkpt>
		<trkpt lat="47.4274550658" lon="11.0410431772">
			<ele>2333.74</ele>
			<time>2012-07-26T10:59:09Z</time>
		</trkpt>
		<trkpt lat="47.4274596758" lon="11.0410062131">
			<ele>2334.22</ele>
			<time>2012-07-26T10:59:21Z</time>
		</trkpt>
		<trkpt lat="47.4274467677" lon="11.0409722663">
			<ele>2335.18</ele>
			<time>2012-07-26T10:59:29Z</time>
		</trkpt>
		<trkpt lat="47.4274439178" lon="11.0409407504">
			<ele>2335.66</ele>
			<time>2012-07-26T10:59:37Z</time>
		</trkpt>
		<trkpt lat="47.4274439178" lon="11.0409407504">
			<ele>2336.14</ele>
			<time>2012-07-26T10:59:49Z</time>
		</trkpt>
		<trkpt lat="47.4274145812" lon="11.0409252439">
			<ele>2336.14</ele>
			<time>2012-07-26T10:59:59Z</time>
		</trkpt>
		<trkpt lat="47.4274191912" lon="11.0409253277">
			<ele>2335.66</ele>
			<time>2012-07-26T11:00:09Z</time>
		</trkpt>
		<trkpt lat="47.427508207" lon="11.0409204662">
			<ele>2334.7</ele>
			<time>2012-07-26T11:00:24Z</time>
		</trkpt>
		<trkpt lat="47.427508207" lon="11.0409204662">
			<ele>2333.74</ele>
			<time>2012-07-26T11:00:38Z</time>
		</trkpt>
		<trkpt lat="47.4275845662" lon="11.0409094859">
			<ele>2332.78</ele>
			<time>2012-07-26T11:00:49Z</time>
		</trkpt>
		<trkpt lat="47.4276016653" lon="11.0409017745">
			<ele>2332.3</ele>
			<time>2012-07-26T11:01:00Z</time>
		</trkpt>
		<trkpt lat="47.4276072811" lon="11.040894147">
			<ele>2332.3</ele>
			<time>2012-07-26T11:01:10Z</time>
		</trkpt>
		<trkpt lat="47.4276116397" lon="11.0408834182">
			<ele>2331.81</ele>
			<time>2012-07-26T11:01:23Z</time>
		</trkpt>
		<trkpt lat="47.4276116397" lon="11.0408834182">
			<ele>2330.85</ele>
			<time>2012-07-26T11:01:36Z</time>
		</trkpt>
		<trkpt lat="47.4276357796" lon="11.0408815742">
			<ele>2329.89</ele>
			<time>2012-07-26T11:01:48Z</time>
		</trkpt>
		<trkpt lat="47.4276382104" lon="11.0408778023">
			<ele>2329.41</ele>
			<time>2012-07-26T11:02:00Z</time>
		</trkpt>
		<trkpt lat="47.4276382104" lon="11.0408778023">
			<ele>2328.93</ele>
			<time>2012-07-26T11:02:20Z</time>
		</trkpt>
		<trkpt lat="47.4276382104" lon="11.0408778023">
			<ele>2328.45</ele>
			<time>2012-07-26T11:02:34Z</time>
		</trkpt>
		<trkpt lat="47.4276575726" lon="11.0408637207">
			<ele>2328.45</ele>
			<time>2012-07-26T11:02:46Z</time>
		</trkpt>
		<trkpt lat="47.4276612606" lon="11.0408630501">
			<ele>2327.97</ele>
			<time>2012-07-26T11:02:58Z</time>
		</trkpt>
		<trkpt lat="47.4276612606" lon="11.0408630501">
			<ele>2327.01</ele>
			<time>2012-07-26T11:03:13Z</time>
		</trkpt>
		<trkpt lat="47.4276674632" lon="11.0408505611">
			<ele>2327.49</ele>
			<time>2012-07-26T11:03:24Z</time>
		</trkpt>
		<trkpt lat="47.4276674632" lon="11.0408505611">
			<ele>2327.01</ele>
			<time>2012-07-26T11:03:36Z</time>
		</trkpt>
		<trkpt lat="47.4276538845" lon="11.04082793">
			<ele>2326.53</ele>
			<time>2012-07-26T11:03:46Z</time>
		</trkpt>
		<trkpt lat="47.4276305828" lon="11.0407895409">
			<ele>2325.57</ele>
			<time>2012-07-26T11:03:58Z</time>
		</trkpt>
		<trkpt lat="47.4276129808" lon="11.0407549236">
			<ele>2325.09</ele>
			<time>2012-07-26T11:04:08Z</time>
		</trkpt>
		<trkpt lat="47.4276159983" lon="11.0407431051">
			<ele>2324.12</ele>
			<time>2012-07-26T11:04:16Z</time>
		</trkpt>
		<trkpt lat="47.427615663" lon="11.0407321248">
			<ele>2324.12</ele>
			<time>2012-07-26T11:04:28Z</time>
		</trkpt>
		<trkpt lat="47.4276071973" lon="11.0407302808">
			<ele>2323.64</ele>
			<time>2012-07-26T11:04:42Z</time>
		</trkpt>
		<trkpt lat="47.4276170041" lon="11.0407142714">
			<ele>2323.16</ele>
			<time>2012-07-26T11:04:54Z</time>
		</trkpt>
		<trkpt lat="47.4276170041" lon="11.0407142714">
			<ele>2322.2</ele>
			<time>2012-07-26T11:05:10Z</time>
		</trkpt>
		<trkpt lat="47.4276170041" lon="11.0407142714">
			<ele>2321.72</ele>
			<time>2012-07-26T11:05:24Z</time>
		</trkpt>
		<trkpt lat="47.4276144058" lon="11.0407131817">
			<ele>2321.24</ele>
			<time>2012-07-26T11:05:36Z</time>
		</trkpt>
		<trkpt lat="47.427630499" lon="11.0406944901">
			<ele>2321.24</ele>
			<time>2012-07-26T11:05:46Z</time>
		</trkpt>
		<trkpt lat="47.4276359472" lon="11.040694993">
			<ele>2320.28</ele>
			<time>2012-07-26T11:05:59Z</time>
		</trkpt>
		<trkpt lat="47.4276201893" lon="11.0406700987">
			<ele>2318.84</ele>
			<time>2012-07-26T11:06:08Z</time>
		</trkpt>
		<trkpt lat="47.4276274815" lon="11.0406533349">
			<ele>2318.84</ele>
			<time>2012-07-26T11:06:15Z</time>
		</trkpt>
		<trkpt lat="47.4276441615" lon="11.0406203102">
			<ele>2318.36</ele>
			<time>2012-07-26T11:06:23Z</time>
		</trkpt>
		<trkpt lat="47.4276565667" lon="11.0406067315">
			<ele>2318.36</ele>
			<time>2012-07-26T11:06:34Z</time>
		</trkpt>
		<trkpt lat="47.4276564829" lon="11.0405724496">
			<ele>2317.4</ele>
			<time>2012-07-26T11:06:42Z</time>
		</trkpt>
		<trkpt lat="47.4276830535" lon="11.0405631457">
			<ele>2318.36</ele>
			<time>2012-07-26T11:06:56Z</time>
		</trkpt>
		<trkpt lat="47.4276883341" lon="11.0405634809">
			<ele>2319.32</ele>
			<time>2012-07-26T11:07:07Z</time>
		</trkpt>
		<trkpt lat="47.4276883341" lon="11.0405634809">
			<ele>2319.8</ele>
			<time>2012-07-26T11:07:16Z</time>
		</trkpt>
		<trkpt lat="47.4276883341" lon="11.0405634809">
			<ele>2320.28</ele>
			<time>2012-07-26T11:07:30Z</time>
		</trkpt>
		<trkpt lat="47.4276998173" lon="11.0405760538">
			<ele>2321.72</ele>
			<time>2012-07-26T11:07:40Z</time>
		</trkpt>
		<trkpt lat="47.4276998173" lon="11.0405760538">
			<ele>2322.68</ele>
			<time>2012-07-26T11:07:52Z</time>
		</trkpt>
		<trkpt lat="47.4276998173" lon="11.0405760538">
			<ele>2323.64</ele>
			<time>2012-07-26T11:08:01Z</time>
		</trkpt>
		<trkpt lat="47.4276998173" lon="11.0405760538">
			<ele>2324.12</ele>
			<time>2012-07-26T11:08:13Z</time>
		</trkpt>
		<trkpt lat="47.427716665" lon="11.0405876208">
			<ele>2324.61</ele>
			<time>2012-07-26T11:08:26Z</time>
		</trkpt>
		<trkpt lat="47.4277289864" lon="11.0405850224">
			<ele>2324.61</ele>
			<time>2012-07-26T11:08:36Z</time>
		</trkpt>
		<trkpt lat="47.4277289864" lon="11.0405852739">
			<ele>2324.61</ele>
			<time>2012-07-26T11:08:47Z</time>
		</trkpt>
		<trkpt lat="47.4277289864" lon="11.0405850224">
			<ele>2324.12</ele>
			<time>2012-07-26T11:09:02Z</time>
		</trkpt>
		<trkpt lat="47.4277289864" lon="11.0405850224">
			<ele>2323.64</ele>
			<time>2012-07-26T11:09:14Z</time>
		</trkpt>
		<trkpt lat="47.4277436547" lon="11.0405828431">
			<ele>2323.64</ele>
			<time>2012-07-26T11:09:22Z</time>
		</trkpt>
		<trkpt lat="47.4277436547" lon="11.0405828431">
			<ele>2324.12</ele>
			<time>2012-07-26T11:09:33Z</time>
		</trkpt>
		<trkpt lat="47.4277436547" lon="11.0405828431">
			<ele>2324.12</ele>
			<time>2012-07-26T11:09:47Z</time>
		</trkpt>
		<trkpt lat="47.4277506117" lon="11.04058058">
			<ele>2324.61</ele>
			<time>2012-07-26T11:10:01Z</time>
		</trkpt>
		<trkpt lat="47.4277506117" lon="11.04058058">
			<ele>2323.64</ele>
			<time>2012-07-26T11:10:11Z</time>
		</trkpt>
		<trkpt lat="47.4277742486" lon="11.0405595414">
			<ele>2323.16</ele>
			<time>2012-07-26T11:10:18Z</time>
		</trkpt>
		<trkpt lat="47.4278161582" lon="11.040517129">
			<ele>2323.16</ele>
			<time>2012-07-26T11:10:27Z</time>
		</trkpt>
		<trkpt lat="47.4278433993" lon="11.0404729564">
			<ele>2322.2</ele>
			<time>2012-07-26T11:10:38Z</time>
		</trkpt>
		<trkpt lat="47.4278830457" lon="11.0404110979">
			<ele>2321.24</ele>
			<time>2012-07-26T11:10:48Z</time>
		</trkpt>
		<trkpt lat="47.4279293139" lon="11.0403916519">
			<ele>2320.76</ele>
			<time>2012-07-26T11:10:59Z</time>
		</trkpt>
		<trkpt lat="47.4279293139" lon="11.0403916519">
			<ele>2320.76</ele>
			<time>2012-07-26T11:11:08Z</time>
		</trkpt>
		<trkpt lat="47.4279293139" lon="11.0403916519">
			<ele>2319.32</ele>
			<time>2012-07-26T11:11:19Z</time>
		</trkpt>
		<trkpt lat="47.4279293139" lon="11.0403916519">
			<ele>2319.8</ele>
			<time>2012-07-26T11:11:28Z</time>
		</trkpt>
		<trkpt lat="47.4279311579" lon="11.040382348">
			<ele>2318.84</ele>
			<time>2012-07-26T11:11:35Z</time>
		</trkpt>
		<trkpt lat="47.4279311579" lon="11.040382348">
			<ele>2318.84</ele>
			<time>2012-07-26T11:11:44Z</time>
		</trkpt>
		<trkpt lat="47.4279408809" lon="11.040368434">
			<ele>2318.36</ele>
			<time>2012-07-26T11:11:52Z</time>
		</trkpt>
		<trkpt lat="47.4279408809" lon="11.040368434">
			<ele>2316.91</ele>
			<time>2012-07-26T11:12:03Z</time>
		</trkpt>
		<trkpt lat="47.4279408809" lon="11.040368434">
			<ele>2316.43</ele>
			<time>2012-07-26T11:12:13Z</time>
		</trkpt>
		<trkpt lat="47.4279408809" lon="11.040368434">
			<ele>2316.43</ele>
			<time>2012-07-26T11:12:24Z</time>
		</trkpt>
		<trkpt lat="47.4279445689" lon="11.040340187">
			<ele>2316.43</ele>
			<time>2012-07-26T11:12:34Z</time>
		</trkpt>
		<trkpt lat="47.4279423896" lon="11.0402866267">
			<ele>2315.47</ele>
			<time>2012-07-26T11:12:43Z</time>
		</trkpt>
		<trkpt lat="47.4279423896" lon="11.0402866267">
			<ele>2314.99</ele>
			<time>2012-07-26T11:12:54Z</time>
		</trkpt>
		<trkpt lat="47.4279585667" lon="11.0402784962">
			<ele>2314.51</ele>
			<time>2012-07-26T11:13:02Z</time>
		</trkpt>
		<trkpt lat="47.4279585667" lon="11.0402784962">
			<ele>2314.51</ele>
			<time>2012-07-26T11:13:13Z</time>
		</trkpt>
		<trkpt lat="47.427968625" lon="11.0402549431">
			<ele>2314.51</ele>
			<time>2012-07-26T11:13:22Z</time>
		</trkpt>
		<trkpt lat="47.4279626738" lon="11.0402170569">
			<ele>2314.03</ele>
			<time>2012-07-26T11:13:31Z</time>
		</trkpt>
		<trkpt lat="47.4279578961" lon="11.0401707049">
			<ele>2313.07</ele>
			<time>2012-07-26T11:13:40Z</time>
		</trkpt>
		<trkpt lat="47.4279588182" lon="11.0401422065">
			<ele>2312.11</ele>
			<time>2012-07-26T11:13:49Z</time>
		</trkpt>
		<trkpt lat="47.4279604107" lon="11.0401527677">
			<ele>2311.63</ele>
			<time>2012-07-26T11:13:58Z</time>
		</trkpt>
		<trkpt lat="47.4279604945" lon="11.0401487444">
			<ele>2311.63</ele>
			<time>2012-07-26T11:14:09Z</time>
		</trkpt>
		<trkpt lat="47.4279596563" lon="11.0401479062">
			<ele>2311.63</ele>
			<time>2012-07-26T11:14:20Z</time>
		</trkpt>
		<trkpt lat="47.427973235" lon="11.0401613172">
			<ele>2310.19</ele>
			<time>2012-07-26T11:14:29Z</time>
		</trkpt>
		<trkpt lat="47.4279823713" lon="11.040160479">
			<ele>2309.7</ele>
			<time>2012-07-26T11:14:39Z</time>
		</trkpt>
		<trkpt lat="47.4279876519" lon="11.0401601437">
			<ele>2309.22</ele>
			<time>2012-07-26T11:14:49Z</time>
		</trkpt>
		<trkpt lat="47.4279951118" lon="11.0401598085">
			<ele>2308.74</ele>
			<time>2012-07-26T11:15:00Z</time>
		</trkpt>
		<trkpt lat="47.4279951118" lon="11.0401598085">
			<ele>2307.3</ele>
			<time>2012-07-26T11:15:12Z</time>
		</trkpt>
		<trkpt lat="47.4280122947" lon="11.0401495825">
			<ele>2306.82</ele>
			<time>2012-07-26T11:15:20Z</time>
		</trkpt>
		<trkpt lat="47.4280132167" lon="11.0401459783">
			<ele>2306.34</ele>
			<time>2012-07-26T11:15:37Z</time>
		</trkpt>
		<trkpt lat="47.4280221853" lon="11.0401299689">
			<ele>2306.34</ele>
			<time>2012-07-26T11:15:54Z</time>
		</trkpt>
		<trkpt lat="47.4280414637" lon="11.0401318129">
			<ele>2304.9</ele>
			<time>2012-07-26T11:16:02Z</time>
		</trkpt>
		<trkpt lat="47.4280592334" lon="11.04014799">
			<ele>2303.94</ele>
			<time>2012-07-26T11:16:13Z</time>
		</trkpt>
		<trkpt lat="47.4280733149" lon="11.0401574615">
			<ele>2302.01</ele>
			<time>2012-07-26T11:16:22Z</time>
		</trkpt>
		<trkpt lat="47.4280837085" lon="11.0401480738">
			<ele>2301.53</ele>
			<time>2012-07-26T11:16:33Z</time>
		</trkpt>
		<trkpt lat="47.4280982092" lon="11.0401368421">
			<ele>2301.05</ele>
			<time>2012-07-26T11:16:42Z</time>
		</trkpt>
		<trkpt lat="47.4281035736" lon="11.0401399434">
			<ele>2299.13</ele>
			<time>2012-07-26T11:16:53Z</time>
		</trkpt>
		<trkpt lat="47.4281018134" lon="11.0401280411">
			<ele>2298.65</ele>
			<time>2012-07-26T11:17:01Z</time>
		</trkpt>
		<trkpt lat="47.4281077646" lon="11.0401040688">
			<ele>2298.17</ele>
			<time>2012-07-26T11:17:09Z</time>
		</trkpt>
		<trkpt lat="47.4281141348" lon="11.0400917474">
			<ele>2298.17</ele>
			<time>2012-07-26T11:17:17Z</time>
		</trkpt>
		<trkpt lat="47.4281143025" lon="11.0400754027">
			<ele>2298.65</ele>
			<time>2012-07-26T11:17:26Z</time>
		</trkpt>
		<trkpt lat="47.4281128775" lon="11.0400848743">
			<ele>2298.17</ele>
			<time>2012-07-26T11:17:37Z</time>
		</trkpt>
		<trkpt lat="47.4281091057" lon="11.0400923342">
			<ele>2297.69</ele>
			<time>2012-07-26T11:17:46Z</time>
		</trkpt>
		<trkpt lat="47.4281063396" lon="11.0400774144">
			<ele>2296.25</ele>
			<time>2012-07-26T11:17:53Z</time>
		</trkpt>
		<trkpt lat="47.428103406" lon="11.040069703">
			<ele>2295.77</ele>
			<time>2012-07-26T11:18:01Z</time>
		</trkpt>
		<trkpt lat="47.4281050824" lon="11.0400692839">
			<ele>2294.32</ele>
			<time>2012-07-26T11:18:12Z</time>
		</trkpt>
		<trkpt lat="47.4281050824" lon="11.0400692839">
			<ele>2293.84</ele>
			<time>2012-07-26T11:18:13Z</time>
		</trkpt>
		<trkpt lat="47.4281301443" lon="11.0400020611">
			<ele>2294.32</ele>
			<time>2012-07-26T11:18:23Z</time>
		</trkpt>
		<trkpt lat="47.4281402025" lon="11.040002564">
			<ele>2294.8</ele>
			<time>2012-07-26T11:18:32Z</time>
		</trkpt>
		<trkpt lat="47.4281391967" lon="11.0399999656">
			<ele>2294.32</ele>
			<time>2012-07-26T11:18:45Z</time>
		</trkpt>
		<trkpt lat="47.428139532" lon="11.0399966128">
			<ele>2294.32</ele>
			<time>2012-07-26T11:18:59Z</time>
		</trkpt>
		<trkpt lat="47.428139532" lon="11.0399966128">
			<ele>2294.32</ele>
			<time>2012-07-26T11:19:13Z</time>
		</trkpt>
		<trkpt lat="47.4281394482" lon="11.0399968643">
			<ele>2294.32</ele>
			<time>2012-07-26T11:19:33Z</time>
		</trkpt>
		<trkpt lat="47.428120086" lon="11.0399595648">
			<ele>2292.88</ele>
			<time>2012-07-26T11:19:46Z</time>
		</trkpt>
		<trkpt lat="47.4281246122" lon="11.0399593133">
			<ele>2293.36</ele>
			<time>2012-07-26T11:19:59Z</time>
		</trkpt>
		<trkpt lat="47.4281266239" lon="11.0399580561">
			<ele>2293.84</ele>
			<time>2012-07-26T11:20:12Z</time>
		</trkpt>
		<trkpt lat="47.4281284679" lon="11.039963169">
			<ele>2293.84</ele>
			<time>2012-07-26T11:20:28Z</time>
		</trkpt>
		<trkpt lat="47.4281272106" lon="11.0399540327">
			<ele>2293.84</ele>
			<time>2012-07-26T11:20:41Z</time>
		</trkpt>
		<trkpt lat="47.4281272106" lon="11.0399540327">
			<ele>2293.36</ele>
			<time>2012-07-26T11:21:01Z</time>
		</trkpt>
		<trkpt lat="47.4281241931" lon="11.039947914">
			<ele>2293.84</ele>
			<time>2012-07-26T11:21:27Z</time>
		</trkpt>
		<trkpt lat="47.4281241931" lon="11.039947914">
			<ele>2292.88</ele>
			<time>2012-07-26T11:21:49Z</time>
		</trkpt>
		<trkpt lat="47.4281242769" lon="11.0399466567">
			<ele>2293.36</ele>
			<time>2012-07-26T11:22:07Z</time>
		</trkpt>
		<trkpt lat="47.4281109497" lon="11.0399222653">
			<ele>2293.84</ele>
			<time>2012-07-26T11:22:23Z</time>
		</trkpt>
		<trkpt lat="47.4281194992" lon="11.0399218462">
			<ele>2294.32</ele>
			<time>2012-07-26T11:22:34Z</time>
		</trkpt>
		<trkpt lat="47.4281141348" lon="11.0399168171">
			<ele>2294.32</ele>
			<time>2012-07-26T11:22:48Z</time>
		</trkpt>
		<trkpt lat="47.4281072617" lon="11.0399129614">
			<ele>2293.84</ele>
			<time>2012-07-26T11:23:02Z</time>
		</trkpt>
		<trkpt lat="47.4281083513" lon="11.0399162304">
			<ele>2293.84</ele>
			<time>2012-07-26T11:23:18Z</time>
		</trkpt>
		<trkpt lat="47.4281096924" lon="11.0399220977">
			<ele>2294.32</ele>
			<time>2012-07-26T11:23:36Z</time>
		</trkpt>
		<trkpt lat="47.4281145539" lon="11.039920589">
			<ele>2293.84</ele>
			<time>2012-07-26T11:23:46Z</time>
		</trkpt>
		<trkpt lat="47.4281481653" lon="11.0399203375">
			<ele>2292.88</ele>
			<time>2012-07-26T11:23:55Z</time>
		</trkpt>
		<trkpt lat="47.4281643424" lon="11.0399099439">
			<ele>2291.92</ele>
			<time>2012-07-26T11:24:03Z</time>
		</trkpt>
		<trkpt lat="47.4281629175" lon="11.039887229">
			<ele>2290.48</ele>
			<time>2012-07-26T11:24:10Z</time>
		</trkpt>
		<trkpt lat="47.4281991273" lon="11.0398998018">
			<ele>2288.08</ele>
			<time>2012-07-26T11:24:19Z</time>
		</trkpt>
		<trkpt lat="47.4282139633" lon="11.0399065912">
			<ele>2288.08</ele>
			<time>2012-07-26T11:24:26Z</time>
		</trkpt>
		<trkpt lat="47.4282327387" lon="11.039905753">
			<ele>2286.63</ele>
			<time>2012-07-26T11:24:34Z</time>
		</trkpt>
		<trkpt lat="47.4282474909" lon="11.0399060883">
			<ele>2285.67</ele>
			<time>2012-07-26T11:24:43Z</time>
		</trkpt>
		<trkpt lat="47.4282457307" lon="11.0398766678">
			<ele>2284.71</ele>
			<time>2012-07-26T11:24:52Z</time>
		</trkpt>
		<trkpt lat="47.4282602314" lon="11.0398759972">
			<ele>2284.23</ele>
			<time>2012-07-26T11:25:00Z</time>
		</trkpt>
		<trkpt lat="47.4282619916" lon="11.0398633406">
			<ele>2283.27</ele>
			<time>2012-07-26T11:25:09Z</time>
		</trkpt>
		<trkpt lat="47.4282887299" lon="11.0398559645">
			<ele>2282.79</ele>
			<time>2012-07-26T11:25:17Z</time>
		</trkpt>
		<trkpt lat="47.4283085112" lon="11.039871471">
			<ele>2280.87</ele>
			<time>2012-07-26T11:25:27Z</time>
		</trkpt>
		<trkpt lat="47.4283431284" lon="11.0398783442">
			<ele>2279.42</ele>
			<time>2012-07-26T11:25:38Z</time>
		</trkpt>
		<trkpt lat="47.4283691961" lon="11.039875662">
			<ele>2278.46</ele>
			<time>2012-07-26T11:25:46Z</time>
		</trkpt>
		<trkpt lat="47.4283875525" lon="11.0398801882">
			<ele>2277.02</ele>
			<time>2012-07-26T11:25:54Z</time>
		</trkpt>
		<trkpt lat="47.4283875525" lon="11.0398801882">
			<ele>2275.58</ele>
			<time>2012-07-26T11:26:06Z</time>
		</trkpt>
		<trkpt lat="47.428401215" lon="11.0398846306">
			<ele>2275.1</ele>
			<time>2012-07-26T11:26:17Z</time>
		</trkpt>
		<trkpt lat="47.4284161348" lon="11.0398693755">
			<ele>2274.14</ele>
			<time>2012-07-26T11:26:29Z</time>
		</trkpt>
		<trkpt lat="47.4284256063" lon="11.0398564674">
			<ele>2273.17</ele>
			<time>2012-07-26T11:26:41Z</time>
		</trkpt>
		<trkpt lat="47.4284562003" lon="11.0398527794">
			<ele>2271.73</ele>
			<time>2012-07-26T11:26:52Z</time>
		</trkpt>
		<trkpt lat="47.4284562003" lon="11.0398527794">
			<ele>2271.25</ele>
			<time>2012-07-26T11:27:03Z</time>
		</trkpt>
		<trkpt lat="47.4284590501" lon="11.0398238618">
			<ele>2269.81</ele>
			<time>2012-07-26T11:27:17Z</time>
		</trkpt>
		<trkpt lat="47.4284171406" lon="11.0397761688">
			<ele>2269.81</ele>
			<time>2012-07-26T11:27:28Z</time>
		</trkpt>
		<trkpt lat="47.4284128658" lon="11.0397636797">
			<ele>2268.85</ele>
			<time>2012-07-26T11:27:42Z</time>
		</trkpt>
		<trkpt lat="47.4284128658" lon="11.0397636797">
			<ele>2268.37</ele>
			<time>2012-07-26T11:27:59Z</time>
		</trkpt>
		<trkpt lat="47.4284149613" lon="11.0397644341">
			<ele>2268.85</ele>
			<time>2012-07-26T11:28:17Z</time>
		</trkpt>
		<trkpt lat="47.4284427054" lon="11.0397521965">
			<ele>2267.89</ele>
			<time>2012-07-26T11:28:36Z</time>
		</trkpt>
		<trkpt lat="47.4284536019" lon="11.0397159029">
			<ele>2266.45</ele>
			<time>2012-07-26T11:28:45Z</time>
		</trkpt>
		<trkpt lat="47.4284891412" lon="11.0397007316">
			<ele>2265.48</ele>
			<time>2012-07-26T11:28:54Z</time>
		</trkpt>
		<trkpt lat="47.4284949247" lon="11.0397021566">
			<ele>2264.52</ele>
			<time>2012-07-26T11:29:03Z</time>
		</trkpt>
		<trkpt lat="47.4285240937" lon="11.0396973789">
			<ele>2263.08</ele>
			<time>2012-07-26T11:29:13Z</time>
		</trkpt>
		<trkpt lat="47.4285258539" lon="11.0396775976">
			<ele>2263.08</ele>
			<time>2012-07-26T11:29:25Z</time>
		</trkpt>
		<trkpt lat="47.4285574537" lon="11.0396855604">
			<ele>2261.16</ele>
			<time>2012-07-26T11:29:33Z</time>
		</trkpt>
		<trkpt lat="47.4285744689" lon="11.0396835487">
			<ele>2260.68</ele>
			<time>2012-07-26T11:29:41Z</time>
		</trkpt>
		<trkpt lat="47.428594837" lon="11.0397009831">
			<ele>2259.72</ele>
			<time>2012-07-26T11:29:52Z</time>
		</trkpt>
		<trkpt lat="47.4286025483" lon="11.0396995582">
			<ele>2259.72</ele>
			<time>2012-07-26T11:30:02Z</time>
		</trkpt>
		<trkpt lat="47.4285930768" lon="11.0396842193">
			<ele>2259.24</ele>
			<time>2012-07-26T11:30:14Z</time>
		</trkpt>
		<trkpt lat="47.4285811745" lon="11.039675083">
			<ele>2258.75</ele>
			<time>2012-07-26T11:30:22Z</time>
		</trkpt>
		<trkpt lat="47.4285999499" lon="11.0396622587">
			<ele>2256.83</ele>
			<time>2012-07-26T11:30:32Z</time>
		</trkpt>
		<trkpt lat="47.4285960104" lon="11.0396522004">
			<ele>2256.83</ele>
			<time>2012-07-26T11:30:45Z</time>
		</trkpt>
		<trkpt lat="47.4285982735" lon="11.039640801">
			<ele>2256.83</ele>
			<time>2012-07-26T11:30:58Z</time>
		</trkpt>
		<trkpt lat="47.4285976868" lon="11.0396371968">
			<ele>2256.83</ele>
			<time>2012-07-26T11:31:10Z</time>
		</trkpt>
		<trkpt lat="47.4285989441" lon="11.0396402981">
			<ele>2256.35</ele>
			<time>2012-07-26T11:31:23Z</time>
		</trkpt>
		<trkpt lat="47.4286040571" lon="11.0396340117">
			<ele>2255.39</ele>
			<time>2012-07-26T11:31:34Z</time>
		</trkpt>
		<trkpt lat="47.4286052305" lon="11.039632922">
			<ele>2254.91</ele>
			<time>2012-07-26T11:31:44Z</time>
		</trkpt>
		<trkpt lat="47.4286052305" lon="11.039632922">
			<ele>2254.43</ele>
			<time>2012-07-26T11:31:57Z</time>
		</trkpt>
		<trkpt lat="47.4286052305" lon="11.039632922">
			<ele>2253.95</ele>
			<time>2012-07-26T11:32:09Z</time>
		</trkpt>
		<trkpt lat="47.4286052305" lon="11.039632922">
			<ele>2254.43</ele>
			<time>2012-07-26T11:32:13Z</time>
		</trkpt>
		<trkpt lat="47.428553598" lon="11.0395786073">
			<ele>2252.99</ele>
			<time>2012-07-26T11:32:20Z</time>
		</trkpt>
		<trkpt lat="47.4285489041" lon="11.0395755898">
			<ele>2251.54</ele>
			<time>2012-07-26T11:32:31Z</time>
		</trkpt>
		<trkpt lat="47.4285440426" lon="11.0395441577">
			<ele>2250.1</ele>
			<time>2012-07-26T11:32:41Z</time>
		</trkpt>
		<trkpt lat="47.4285566155" lon="11.0395242926">
			<ele>2249.14</ele>
			<time>2012-07-26T11:32:45Z</time>
		</trkpt>
		<trkpt lat="47.4286150374" lon="11.0395247955">
			<ele>2248.18</ele>
			<time>2012-07-26T11:32:54Z</time>
		</trkpt>
		<trkpt lat="47.4286362436" lon="11.0395088699">
			<ele>2246.26</ele>
			<time>2012-07-26T11:32:59Z</time>
		</trkpt>
		<trkpt lat="47.4286478944" lon="11.0395030025">
			<ele>2245.3</ele>
			<time>2012-07-26T11:33:01Z</time>
		</trkpt>
		<trkpt lat="47.4286991078" lon="11.0394911002">
			<ele>2243.37</ele>
			<time>2012-07-26T11:33:10Z</time>
		</trkpt>
		<trkpt lat="47.428720817" lon="11.0394826345">
			<ele>2242.41</ele>
			<time>2012-07-26T11:33:14Z</time>
		</trkpt>
		<trkpt lat="47.4287445378" lon="11.0394677147">
			<ele>2240.97</ele>
			<time>2012-07-26T11:33:26Z</time>
		</trkpt>
		<trkpt lat="47.428770354" lon="11.0394559801">
			<ele>2239.53</ele>
			<time>2012-07-26T11:33:37Z</time>
		</trkpt>
		<trkpt lat="47.4287801608" lon="11.0394359473">
			<ele>2237.61</ele>
			<time>2012-07-26T11:33:47Z</time>
		</trkpt>
		<trkpt lat="47.4287801608" lon="11.0394359473">
			<ele>2235.68</ele>
			<time>2012-07-26T11:33:59Z</time>
		</trkpt>
		<trkpt lat="47.4287974276" lon="11.0394078679">
			<ele>2234.24</ele>
			<time>2012-07-26T11:34:08Z</time>
		</trkpt>
		<trkpt lat="47.428800948" lon="11.0393929482">
			<ele>2233.76</ele>
			<time>2012-07-26T11:34:16Z</time>
		</trkpt>
		<trkpt lat="47.428800948" lon="11.0393929482">
			<ele>2232.8</ele>
			<time>2012-07-26T11:34:35Z</time>
		</trkpt>
		<trkpt lat="47.4288020376" lon="11.0393916909">
			<ele>2232.8</ele>
			<time>2012-07-26T11:35:04Z</time>
		</trkpt>
		<trkpt lat="47.4288073182" lon="11.0393931158">
			<ele>2234.24</ele>
			<time>2012-07-26T11:35:09Z</time>
		</trkpt>
		<trkpt lat="47.4288089946" lon="11.0393931158">
			<ele>2233.76</ele>
			<time>2012-07-26T11:35:17Z</time>
		</trkpt>
		<trkpt lat="47.4288089946" lon="11.0393931158">
			<ele>2231.36</ele>
			<time>2012-07-26T11:35:26Z</time>
		</trkpt>
		<trkpt lat="47.4288307875" lon="11.0393792856">
			<ele>2229.43</ele>
			<time>2012-07-26T11:35:35Z</time>
		</trkpt>
		<trkpt lat="47.428929694" lon="11.0392956343">
			<ele>2227.51</ele>
			<time>2012-07-26T11:35:45Z</time>
		</trkpt>
		<trkpt lat="47.4289456196" lon="11.0392784514">
			<ele>2226.07</ele>
			<time>2012-07-26T11:35:54Z</time>
		</trkpt>
		<trkpt lat="47.4289574381" lon="11.0392695665">
			<ele>2224.63</ele>
			<time>2012-07-26T11:36:04Z</time>
		</trkpt>
		<trkpt lat="47.4289574381" lon="11.0392695665">
			<ele>2222.71</ele>
			<time>2012-07-26T11:36:14Z</time>
		</trkpt>
		<trkpt lat="47.4289574381" lon="11.0392695665">
			<ele>2221.74</ele>
			<time>2012-07-26T11:36:28Z</time>
		</trkpt>
		<trkpt lat="47.4289574381" lon="11.0392695665">
			<ele>2220.78</ele>
			<time>2012-07-26T11:36:40Z</time>
		</trkpt>
		<trkpt lat="47.4289627187" lon="11.0392688122">
			<ele>2219.82</ele>
			<time>2012-07-26T11:36:50Z</time>
		</trkpt>
		<trkpt lat="47.4289627187" lon="11.0392688122">
			<ele>2218.86</ele>
			<time>2012-07-26T11:36:59Z</time>
		</trkpt>
		<trkpt lat="47.4289627187" lon="11.0392688122">
			<ele>2216.94</ele>
			<time>2012-07-26T11:37:07Z</time>
		</trkpt>
		<trkpt lat="47.4289796501" lon="11.0392380506">
			<ele>2215.5</ele>
			<time>2012-07-26T11:37:16Z</time>
		</trkpt>
		<trkpt lat="47.4289796501" lon="11.0392380506">
			<ele>2214.05</ele>
			<time>2012-07-26T11:37:24Z</time>
		</trkpt>
		<trkpt lat="47.4289796501" lon="11.0392380506">
			<ele>2212.13</ele>
			<time>2012-07-26T11:37:33Z</time>
		</trkpt>
		<trkpt lat="47.4289796501" lon="11.0392380506">
			<ele>2211.17</ele>
			<time>2012-07-26T11:37:42Z</time>
		</trkpt>
		<trkpt lat="47.4289992638" lon="11.0392077919">
			<ele>2210.21</ele>
			<time>2012-07-26T11:37:51Z</time>
		</trkpt>
		<trkpt lat="47.4289992638" lon="11.0392077919">
			<ele>2208.77</ele>
			<time>2012-07-26T11:38:00Z</time>
		</trkpt>
		<trkpt lat="47.4289992638" lon="11.0392077919">
			<ele>2207.32</ele>
			<time>2012-07-26T11:38:10Z</time>
		</trkpt>
		<trkpt lat="47.4290576857" lon="11.0391415749">
			<ele>2206.36</ele>
			<time>2012-07-26T11:38:17Z</time>
		</trkpt>
		<trkpt lat="47.4290576857" lon="11.0391415749">
			<ele>2205.88</ele>
			<time>2012-07-26T11:38:30Z</time>
		</trkpt>
		<trkpt lat="47.4290576857" lon="11.0391415749">
			<ele>2203.48</ele>
			<time>2012-07-26T11:38:43Z</time>
		</trkpt>
		<trkpt lat="47.429062631" lon="11.0391459335">
			<ele>2201.56</ele>
			<time>2012-07-26T11:38:52Z</time>
		</trkpt>
		<trkpt lat="47.429062631" lon="11.0391459335">
			<ele>2201.08</ele>
			<time>2012-07-26T11:39:01Z</time>
		</trkpt>
		<trkpt lat="47.429062631" lon="11.0391459335">
			<ele>2199.63</ele>
			<time>2012-07-26T11:39:12Z</time>
		</trkpt>
		<trkpt lat="47.4291083962" lon="11.0390984081">
			<ele>2198.19</ele>
			<time>2012-07-26T11:39:19Z</time>
		</trkpt>
		<trkpt lat="47.4292358011" lon="11.0389581788">
			<ele>2196.75</ele>
			<time>2012-07-26T11:39:28Z</time>
		</trkpt>
		<trkpt lat="47.4292479549" lon="11.038921969">
			<ele>2195.79</ele>
			<time>2012-07-26T11:39:39Z</time>
		</trkpt>
		<trkpt lat="47.4292479549" lon="11.038921969">
			<ele>2194.83</ele>
			<time>2012-07-26T11:39:49Z</time>
		</trkpt>
		<trkpt lat="47.4292479549" lon="11.038921969">
			<ele>2194.83</ele>
			<time>2012-07-26T11:39:53Z</time>
		</trkpt>
		<trkpt lat="47.4292833265" lon="11.0389064625">
			<ele>2194.35</ele>
			<time>2012-07-26T11:40:01Z</time>
		</trkpt>
		<trkpt lat="47.4292829912" lon="11.0388782155">
			<ele>2193.87</ele>
			<time>2012-07-26T11:40:12Z</time>
		</trkpt>
		<trkpt lat="47.4292868469" lon="11.0388474539">
			<ele>2192.9</ele>
			<time>2012-07-26T11:40:22Z</time>
		</trkpt>
		<trkpt lat="47.4292750284" lon="11.0388065502">
			<ele>2192.42</ele>
			<time>2012-07-26T11:40:32Z</time>
		</trkpt>
		<trkpt lat="47.4292732682" lon="11.0387959052">
			<ele>2191.46</ele>
			<time>2012-07-26T11:40:41Z</time>
		</trkpt>
		<trkpt lat="47.4292690773" lon="11.0387985036">
			<ele>2190.98</ele>
			<time>2012-07-26T11:40:52Z</time>
		</trkpt>
		<trkpt lat="47.4292686582" lon="11.0388012696">
			<ele>2191.46</ele>
			<time>2012-07-26T11:41:04Z</time>
		</trkpt>
		<trkpt lat="47.4292822368" lon="11.0387599468">
			<ele>2189.54</ele>
			<time>2012-07-26T11:41:11Z</time>
		</trkpt>
		<trkpt lat="47.4292845" lon="11.0387513135">
			<ele>2188.58</ele>
			<time>2012-07-26T11:41:22Z</time>
		</trkpt>
		<trkpt lat="47.4292896129" lon="11.0387337953">
			<ele>2187.62</ele>
			<time>2012-07-26T11:41:31Z</time>
		</trkpt>
		<trkpt lat="47.4293024372" lon="11.0387280956">
			<ele>2186.66</ele>
			<time>2012-07-26T11:41:41Z</time>
		</trkpt>
		<trkpt lat="47.4293010961" lon="11.0387282632">
			<ele>2186.18</ele>
			<time>2012-07-26T11:41:54Z</time>
		</trkpt>
		<trkpt lat="47.4292953126" lon="11.0387140978">
			<ele>2184.73</ele>
			<time>2012-07-26T11:42:04Z</time>
		</trkpt>
		<trkpt lat="47.4292974081" lon="11.0387113318">
			<ele>2184.73</ele>
			<time>2012-07-26T11:42:14Z</time>
		</trkpt>
		<trkpt lat="47.4292885233" lon="11.0386984237">
			<ele>2185.21</ele>
			<time>2012-07-26T11:42:27Z</time>
		</trkpt>
		<trkpt lat="47.4292935524" lon="11.0386896227">
			<ele>2184.73</ele>
			<time>2012-07-26T11:42:40Z</time>
		</trkpt>
		<trkpt lat="47.4292991683" lon="11.0386855993">
			<ele>2184.73</ele>
			<time>2012-07-26T11:42:48Z</time>
		</trkpt>
		<trkpt lat="47.4292926304" lon="11.0386826657">
			<ele>2184.25</ele>
			<time>2012-07-26T11:42:49Z</time>
		</trkpt>
		<trkpt lat="47.4292765372" lon="11.0386431869">
			<ele>2184.25</ele>
			<time>2012-07-26T11:42:53Z</time>
		</trkpt>
		<trkpt lat="47.4293083046" lon="11.038647294">
			<ele>2182.33</ele>
			<time>2012-07-26T11:42:59Z</time>
		</trkpt>
		<trkpt lat="47.4293467775" lon="11.0386156105">
			<ele>2180.89</ele>
			<time>2012-07-26T11:43:08Z</time>
		</trkpt>
		<trkpt lat="47.4293944705" lon="11.0386210587">
			<ele>2178.97</ele>
			<time>2012-07-26T11:43:16Z</time>
		</trkpt>
		<trkpt lat="47.4294100609" lon="11.0386341345">
			<ele>2178.48</ele>
			<time>2012-07-26T11:43:25Z</time>
		</trkpt>
		<trkpt lat="47.4294295907" lon="11.0386591963">
			<ele>2177.52</ele>
			<time>2012-07-26T11:43:35Z</time>
		</trkpt>
		<trkpt lat="47.4294413254" lon="11.0386534967">
			<ele>2177.52</ele>
			<time>2012-07-26T11:43:48Z</time>
		</trkpt>
		<trkpt lat="47.4294360448" lon="11.0386637226">
			<ele>2178</ele>
			<time>2012-07-26T11:43:53Z</time>
		</trkpt>
		<trkpt lat="47.4294245616" lon="11.0386379901">
			<ele>2177.52</ele>
			<time>2012-07-26T11:44:01Z</time>
		</trkpt>
		<trkpt lat="47.4294250645" lon="11.0386230703">
			<ele>2177.04</ele>
			<time>2012-07-26T11:44:13Z</time>
		</trkpt>
		<trkpt lat="47.4294409901" lon="11.0386082344">
			<ele>2175.6</ele>
			<time>2012-07-26T11:44:23Z</time>
		</trkpt>
		<trkpt lat="47.4294465221" lon="11.0386055522">
			<ele>2174.16</ele>
			<time>2012-07-26T11:44:32Z</time>
		</trkpt>
		<trkpt lat="47.4294465221" lon="11.0386055522">
			<ele>2174.16</ele>
			<time>2012-07-26T11:44:46Z</time>
		</trkpt>
		<trkpt lat="47.4294744339" lon="11.0386027023">
			<ele>2173.68</ele>
			<time>2012-07-26T11:44:57Z</time>
		</trkpt>
		<trkpt lat="47.4294817261" lon="11.0385961644">
			<ele>2172.24</ele>
			<time>2012-07-26T11:45:00Z</time>
		</trkpt>
		<trkpt lat="47.4295157567" lon="11.0385851841">
			<ele>2172.24</ele>
			<time>2012-07-26T11:45:11Z</time>
		</trkpt>
		<trkpt lat="47.4295153376" lon="11.038594069">
			<ele>2171.27</ele>
			<time>2012-07-26T11:45:22Z</time>
		</trkpt>
		<trkpt lat="47.429515589" lon="11.0385773052">
			<ele>2169.83</ele>
			<time>2012-07-26T11:45:31Z</time>
		</trkpt>
		<trkpt lat="47.4295351189" lon="11.0385600384">
			<ele>2169.35</ele>
			<time>2012-07-26T11:45:35Z</time>
		</trkpt>
		<trkpt lat="47.4295251444" lon="11.038540341">
			<ele>2167.91</ele>
			<time>2012-07-26T11:45:44Z</time>
		</trkpt>
		<trkpt lat="47.4295202829" lon="11.0385160334">
			<ele>2166.47</ele>
			<time>2012-07-26T11:45:55Z</time>
		</trkpt>
		<trkpt lat="47.4295025971" lon="11.0385032091">
			<ele>2165.51</ele>
			<time>2012-07-26T11:46:08Z</time>
		</trkpt>
		<trkpt lat="47.4294872582" lon="11.0384859424">
			<ele>2165.51</ele>
			<time>2012-07-26T11:46:19Z</time>
		</trkpt>
		<trkpt lat="47.4294676445" lon="11.038484266">
			<ele>2165.99</ele>
			<time>2012-07-26T11:46:28Z</time>
		</trkpt>
		<trkpt lat="47.429461861" lon="11.0384684242">
			<ele>2165.03</ele>
			<time>2012-07-26T11:46:41Z</time>
		</trkpt>
		<trkpt lat="47.429461861" lon="11.0384684242">
			<ele>2165.03</ele>
			<time>2012-07-26T11:46:51Z</time>
		</trkpt>
		<trkpt lat="47.4294459354" lon="11.038452331">
			<ele>2163.58</ele>
			<time>2012-07-26T11:47:06Z</time>
		</trkpt>
		<trkpt lat="47.42943177" lon="11.0384316277">
			<ele>2163.58</ele>
			<time>2012-07-26T11:47:07Z</time>
		</trkpt>
		<trkpt lat="47.4294319376" lon="11.0384087451">
			<ele>2162.62</ele>
			<time>2012-07-26T11:47:15Z</time>
		</trkpt>
		<trkpt lat="47.4294319376" lon="11.0384087451">
			<ele>2162.14</ele>
			<time>2012-07-26T11:47:25Z</time>
		</trkpt>
		<trkpt lat="47.4294319376" lon="11.0384087451">
			<ele>2161.18</ele>
			<time>2012-07-26T11:47:34Z</time>
		</trkpt>
		<trkpt lat="47.4294319376" lon="11.0384087451">
			<ele>2160.7</ele>
			<time>2012-07-26T11:47:45Z</time>
		</trkpt>
		<trkpt lat="47.4294378888" lon="11.0383975133">
			<ele>2158.78</ele>
			<time>2012-07-26T11:47:55Z</time>
		</trkpt>
		<trkpt lat="47.4294378888" lon="11.0383975133">
			<ele>2157.82</ele>
			<time>2012-07-26T11:48:05Z</time>
		</trkpt>
		<trkpt lat="47.4294378888" lon="11.0383975133">
			<ele>2155.89</ele>
			<time>2012-07-26T11:48:16Z</time>
		</trkpt>
		<trkpt lat="47.4294378888" lon="11.0383975133">
			<ele>2154.93</ele>
			<time>2012-07-26T11:48:28Z</time>
		</trkpt>
		<trkpt lat="47.4294523057" lon="11.0384006146">
			<ele>2153.49</ele>
			<time>2012-07-26T11:48:37Z</time>
		</trkpt>
		<trkpt lat="47.4294523057" lon="11.0384006146">
			<ele>2151.57</ele>
			<time>2012-07-26T11:48:47Z</time>
		</trkpt>
		<trkpt lat="47.4294523057" lon="11.0384006146">
			<ele>2150.13</ele>
			<time>2012-07-26T11:48:55Z</time>
		</trkpt>
		<trkpt lat="47.4294523057" lon="11.0384006146">
			<ele>2149.16</ele>
			<time>2012-07-26T11:49:03Z</time>
		</trkpt>
		<trkpt lat="47.4294538982" lon="11.0384003632">
			<ele>2147.72</ele>
			<time>2012-07-26T11:49:10Z</time>
		</trkpt>
		<trkpt lat="47.4295296706" lon="11.038406482">
			<ele>2146.76</ele>
			<time>2012-07-26T11:49:18Z</time>
		</trkpt>
		<trkpt lat="47.4295759387" lon="11.0383614711">
			<ele>2145.32</ele>
			<time>2012-07-26T11:49:25Z</time>
		</trkpt>
		<trkpt lat="47.4295759387" lon="11.0383614711">
			<ele>2145.8</ele>
			<time>2012-07-26T11:49:28Z</time>
		</trkpt>
		<trkpt lat="47.4296192732" lon="11.0382774845">
			<ele>2142.92</ele>
			<time>2012-07-26T11:49:39Z</time>
		</trkpt>
		<trkpt lat="47.4296192732" lon="11.0382774845">
			<ele>2142.92</ele>
			<time>2012-07-26T11:49:40Z</time>
		</trkpt>
		<trkpt lat="47.4296460114" lon="11.0382221639">
			<ele>2140.99</ele>
			<time>2012-07-26T11:49:47Z</time>
		</trkpt>
		<trkpt lat="47.4296914414" lon="11.0381851159">
			<ele>2140.51</ele>
			<time>2012-07-26T11:49:57Z</time>
		</trkpt>
		<trkpt lat="47.4296914414" lon="11.0381851159">
			<ele>2138.11</ele>
			<time>2012-07-26T11:50:07Z</time>
		</trkpt>
		<trkpt lat="47.4297242146" lon="11.0381344892">
			<ele>2137.63</ele>
			<time>2012-07-26T11:50:16Z</time>
		</trkpt>
		<trkpt lat="47.4297285732" lon="11.0381278675">
			<ele>2136.19</ele>
			<time>2012-07-26T11:50:26Z</time>
		</trkpt>
		<trkpt lat="47.4297289085" lon="11.0381182283">
			<ele>2134.74</ele>
			<time>2012-07-26T11:50:35Z</time>
		</trkpt>
		<trkpt lat="47.4297021702" lon="11.0380733851">
			<ele>2133.3</ele>
			<time>2012-07-26T11:50:44Z</time>
		</trkpt>
		<trkpt lat="47.4297303334" lon="11.0380122811">
			<ele>2132.34</ele>
			<time>2012-07-26T11:50:53Z</time>
		</trkpt>
		<trkpt lat="47.4297375418" lon="11.0379916616">
			<ele>2130.42</ele>
			<time>2012-07-26T11:51:03Z</time>
		</trkpt>
		<trkpt lat="47.4297422357" lon="11.0379804298">
			<ele>2128.98</ele>
			<time>2012-07-26T11:51:11Z</time>
		</trkpt>
		<trkpt lat="47.4297535513" lon="11.0378691182">
			<ele>2128.02</ele>
			<time>2012-07-26T11:51:19Z</time>
		</trkpt>
		<trkpt lat="47.4297843967" lon="11.0377728101">
			<ele>2127.05</ele>
			<time>2012-07-26T11:51:30Z</time>
		</trkpt>
		<trkpt lat="47.4298325088" lon="11.0377175733">
			<ele>2126.57</ele>
			<time>2012-07-26T11:51:38Z</time>
		</trkpt>
		<trkpt lat="47.4298519548" lon="11.0376995523">
			<ele>2125.13</ele>
			<time>2012-07-26T11:51:48Z</time>
		</trkpt>
		<trkpt lat="47.4298519548" lon="11.0376995523">
			<ele>2125.61</ele>
			<time>2012-07-26T11:52:14Z</time>
		</trkpt>
		<trkpt lat="47.4298567325" lon="11.0377021506">
			<ele>2125.61</ele>
			<time>2012-07-26T11:52:32Z</time>
		</trkpt>
		<trkpt lat="47.4298567325" lon="11.0377021506">
			<ele>2125.61</ele>
			<time>2012-07-26T11:52:54Z</time>
		</trkpt>
		<trkpt lat="47.4298599176" lon="11.037705671">
			<ele>2126.09</ele>
			<time>2012-07-26T11:53:20Z</time>
		</trkpt>
		<trkpt lat="47.4298599176" lon="11.037705671">
			<ele>2125.61</ele>
			<time>2012-07-26T11:53:42Z</time>
		</trkpt>
		<trkpt lat="47.4298681319" lon="11.0377055872">
			<ele>2126.09</ele>
			<time>2012-07-26T11:54:05Z</time>
		</trkpt>
		<trkpt lat="47.4298823811" lon="11.0377109516">
			<ele>2127.05</ele>
			<time>2012-07-26T11:54:12Z</time>
		</trkpt>
		<trkpt lat="47.4298939481" lon="11.0377039947">
			<ele>2125.61</ele>
			<time>2012-07-26T11:54:22Z</time>
		</trkpt>
		<trkpt lat="47.4299148191" lon="11.0376919247">
			<ele>2123.69</ele>
			<time>2012-07-26T11:54:30Z</time>
		</trkpt>
		<trkpt lat="47.4299744144" lon="11.0377018154">
			<ele>2121.77</ele>
			<time>2012-07-26T11:54:40Z</time>
		</trkpt>
		<trkpt lat="47.4299860653" lon="11.0376930144">
			<ele>2119.84</ele>
			<time>2012-07-26T11:54:50Z</time>
		</trkpt>
		<trkpt lat="47.4300066847" lon="11.0376815312">
			<ele>2118.4</ele>
			<time>2012-07-26T11:54:59Z</time>
		</trkpt>
		<trkpt lat="47.4300066847" lon="11.0376815312">
			<ele>2116.96</ele>
			<time>2012-07-26T11:55:09Z</time>
		</trkpt>
		<trkpt lat="47.4300066847" lon="11.0376815312">
			<ele>2114.08</ele>
			<time>2012-07-26T11:55:18Z</time>
		</trkpt>
		<trkpt lat="47.4300698843" lon="11.0375780985">
			<ele>2113.6</ele>
			<time>2012-07-26T11:55:25Z</time>
		</trkpt>
		<trkpt lat="47.430150602" lon="11.0374757554">
			<ele>2112.63</ele>
			<time>2012-07-26T11:55:34Z</time>
		</trkpt>
		<trkpt lat="47.430177005" lon="11.0374213569">
			<ele>2110.71</ele>
			<time>2012-07-26T11:55:44Z</time>
		</trkpt>
		<trkpt lat="47.430177005" lon="11.0374213569">
			<ele>2110.71</ele>
			<time>2012-07-26T11:55:53Z</time>
		</trkpt>
		<trkpt lat="47.4301669467" lon="11.0374002345">
			<ele>2109.27</ele>
			<time>2012-07-26T11:56:01Z</time>
		</trkpt>
		<trkpt lat="47.4301669467" lon="11.0374002345">
			<ele>2109.27</ele>
			<time>2012-07-26T11:56:02Z</time>
		</trkpt>
		<trkpt lat="47.4301607441" lon="11.0373859853">
			<ele>2107.83</ele>
			<time>2012-07-26T11:56:05Z</time>
		</trkpt>
		<trkpt lat="47.4301219359" lon="11.0373883322">
			<ele>2106.39</ele>
			<time>2012-07-26T11:56:14Z</time>
		</trkpt>
		<trkpt lat="47.4300919287" lon="11.03740233">
			<ele>2106.87</ele>
			<time>2012-07-26T11:56:22Z</time>
		</trkpt>
		<trkpt lat="47.4300427269" lon="11.0374160763">
			<ele>2105.42</ele>
			<time>2012-07-26T11:56:31Z</time>
		</trkpt>
		<trkpt lat="47.4300189223" lon="11.0374216083">
			<ele>2103.98</ele>
			<time>2012-07-26T11:56:36Z</time>
		</trkpt>
		<trkpt lat="47.429983383" lon="11.0374580696">
			<ele>2102.54</ele>
			<time>2012-07-26T11:56:46Z</time>
		</trkpt>
		<trkpt lat="47.4299744144" lon="11.0374590755">
			<ele>2101.58</ele>
			<time>2012-07-26T11:56:56Z</time>
		</trkpt>
		<trkpt lat="47.4299535435" lon="11.0374887474">
			<ele>2101.1</ele>
			<time>2012-07-26T11:57:08Z</time>
		</trkpt>
		<trkpt lat="47.4299226142" lon="11.0375093669">
			<ele>2100.62</ele>
			<time>2012-07-26T11:57:15Z</time>
		</trkpt>
		<trkpt lat="47.4298783578" lon="11.0375273041">
			<ele>2100.62</ele>
			<time>2012-07-26T11:57:24Z</time>
		</trkpt>
		<trkpt lat="47.4298415612" lon="11.0375208501">
			<ele>2099.18</ele>
			<time>2012-07-26T11:57:34Z</time>
		</trkpt>
		<trkpt lat="47.4298271444" lon="11.0375148989">
			<ele>2098.7</ele>
			<time>2012-07-26T11:57:45Z</time>
		</trkpt>
		<trkpt lat="47.4298121408" lon="11.0374812037">
			<ele>2097.73</ele>
			<time>2012-07-26T11:57:52Z</time>
		</trkpt>
		<trkpt lat="47.4298153259" lon="11.0374777671">
			<ele>2096.77</ele>
			<time>2012-07-26T11:58:03Z</time>
		</trkpt>
		<trkpt lat="47.4298181757" lon="11.0374547169">
			<ele>2095.81</ele>
			<time>2012-07-26T11:58:12Z</time>
		</trkpt>
		<trkpt lat="47.4298026692" lon="11.0374460835">
			<ele>2094.85</ele>
			<time>2012-07-26T11:58:21Z</time>
		</trkpt>
		<trkpt lat="47.4297794513" lon="11.0374309123">
			<ele>2093.41</ele>
			<time>2012-07-26T11:58:28Z</time>
		</trkpt>
		<trkpt lat="47.4297523778" lon="11.0373858176">
			<ele>2092.45</ele>
			<time>2012-07-26T11:58:34Z</time>
		</trkpt>
		<trkpt lat="47.429768974" lon="11.0373770166">
			<ele>2091.49</ele>
			<time>2012-07-26T11:58:42Z</time>
		</trkpt>
		<trkpt lat="47.4297926109" lon="11.0373174213">
			<ele>2089.56</ele>
			<time>2012-07-26T11:58:52Z</time>
		</trkpt>
		<trkpt lat="47.4298125599" lon="11.0373075306">
			<ele>2088.12</ele>
			<time>2012-07-26T11:59:00Z</time>
		</trkpt>
		<trkpt lat="47.429824546" lon="11.037296718">
			<ele>2086.68</ele>
			<time>2012-07-26T11:59:09Z</time>
		</trkpt>
		<trkpt lat="47.4298135657" lon="11.0373007413">
			<ele>2084.76</ele>
			<time>2012-07-26T11:59:19Z</time>
		</trkpt>
		<trkpt lat="47.4298014119" lon="11.0372703988">
			<ele>2082.35</ele>
			<time>2012-07-26T11:59:29Z</time>
		</trkpt>
		<trkpt lat="47.4297354463" lon="11.0372060258">
			<ele>2080.43</ele>
			<time>2012-07-26T11:59:41Z</time>
		</trkpt>
		<trkpt lat="47.4296781141" lon="11.0371658765">
			<ele>2079.95</ele>
			<time>2012-07-26T11:59:51Z</time>
		</trkpt>
		<trkpt lat="47.429636959" lon="11.0371454246">
			<ele>2078.03</ele>
			<time>2012-07-26T12:00:02Z</time>
		</trkpt>
		<trkpt lat="47.4296253081" lon="11.0371414013">
			<ele>2077.55</ele>
			<time>2012-07-26T12:00:10Z</time>
		</trkpt>
		<trkpt lat="47.4296288285" lon="11.0371201951">
			<ele>2076.1</ele>
			<time>2012-07-26T12:00:19Z</time>
		</trkpt>
		<trkpt lat="47.4296276551" lon="11.0371101368">
			<ele>2074.66</ele>
			<time>2012-07-26T12:00:28Z</time>
		</trkpt>
		<trkpt lat="47.4296259787" lon="11.0371038504">
			<ele>2074.66</ele>
			<time>2012-07-26T12:00:29Z</time>
		</trkpt>
		<trkpt lat="47.4296320975" lon="11.0370662156">
			<ele>2072.74</ele>
			<time>2012-07-26T12:00:38Z</time>
		</trkpt>
		<trkpt lat="47.4296266492" lon="11.0370388906">
			<ele>2071.3</ele>
			<time>2012-07-26T12:00:45Z</time>
		</trkpt>
		<trkpt lat="47.4296472687" lon="11.0370041057">
			<ele>2069.86</ele>
			<time>2012-07-26T12:00:53Z</time>
		</trkpt>
		<trkpt lat="47.4296279904" lon="11.036970662">
			<ele>2068.41</ele>
			<time>2012-07-26T12:01:01Z</time>
		</trkpt>
		<trkpt lat="47.4296041857" lon="11.0369454324">
			<ele>2066.97</ele>
			<time>2012-07-26T12:01:09Z</time>
		</trkpt>
		<trkpt lat="47.4295756873" lon="11.0369072948">
			<ele>2065.05</ele>
			<time>2012-07-26T12:01:17Z</time>
		</trkpt>
		<trkpt lat="47.4295787048" lon="11.0368938837">
			<ele>2064.57</ele>
			<time>2012-07-26T12:01:28Z</time>
		</trkpt>
		<trkpt lat="47.4295858294" lon="11.0368331987">
			<ele>2063.13</ele>
			<time>2012-07-26T12:01:40Z</time>
		</trkpt>
		<trkpt lat="47.429597564" lon="11.0368368868">
			<ele>2062.17</ele>
			<time>2012-07-26T12:01:49Z</time>
		</trkpt>
		<trkpt lat="47.4296383001" lon="11.0368324444">
			<ele>2060.24</ele>
			<time>2012-07-26T12:02:00Z</time>
		</trkpt>
		<trkpt lat="47.4296785332" lon="11.0367948934">
			<ele>2057.84</ele>
			<time>2012-07-26T12:02:12Z</time>
		</trkpt>
		<trkpt lat="47.4296819698" lon="11.0367979947">
			<ele>2057.84</ele>
			<time>2012-07-26T12:02:21Z</time>
		</trkpt>
		<trkpt lat="47.4296847358" lon="11.036786763">
			<ele>2057.36</ele>
			<time>2012-07-26T12:02:35Z</time>
		</trkpt>
		<trkpt lat="47.4296847358" lon="11.036786763">
			<ele>2057.36</ele>
			<time>2012-07-26T12:02:50Z</time>
		</trkpt>
		<trkpt lat="47.4296939559" lon="11.0367901158">
			<ele>2056.4</ele>
			<time>2012-07-26T12:02:57Z</time>
		</trkpt>
		<trkpt lat="47.4296939559" lon="11.0367901158">
			<ele>2055.44</ele>
			<time>2012-07-26T12:03:07Z</time>
		</trkpt>
		<trkpt lat="47.4296952132" lon="11.0367693286">
			<ele>2053.51</ele>
			<time>2012-07-26T12:03:16Z</time>
		</trkpt>
		<trkpt lat="47.429693453" lon="11.0367563367">
			<ele>2053.03</ele>
			<time>2012-07-26T12:03:26Z</time>
		</trkpt>
		<trkpt lat="47.4296945427" lon="11.0367565043">
			<ele>2051.11</ele>
			<time>2012-07-26T12:03:36Z</time>
		</trkpt>
		<trkpt lat="47.4296807963" lon="11.0367210489">
			<ele>2050.63</ele>
			<time>2012-07-26T12:03:46Z</time>
		</trkpt>
		<trkpt lat="47.4296531361" lon="11.0366798937">
			<ele>2048.71</ele>
			<time>2012-07-26T12:03:54Z</time>
		</trkpt>
		<trkpt lat="47.4296044372" lon="11.0366410017">
			<ele>2046.3</ele>
			<time>2012-07-26T12:04:03Z</time>
		</trkpt>
		<trkpt lat="47.4295996595" lon="11.0366234835">
			<ele>2044.86</ele>
			<time>2012-07-26T12:04:11Z</time>
		</trkpt>
		<trkpt lat="47.4295921996" lon="11.0365923028">
			<ele>2043.42</ele>
			<time>2012-07-26T12:04:21Z</time>
		</trkpt>
		<trkpt lat="47.429578118" lon="11.0365529079">
			<ele>2042.46</ele>
			<time>2012-07-26T12:04:25Z</time>
		</trkpt>
		<trkpt lat="47.429578118" lon="11.0365044605">
			<ele>2041.02</ele>
			<time>2012-07-26T12:04:34Z</time>
		</trkpt>
		<trkpt lat="47.429573508" lon="11.0364658199">
			<ele>2039.57</ele>
			<time>2012-07-26T12:04:43Z</time>
		</trkpt>
		<trkpt lat="47.4295299221" lon="11.0364472959">
			<ele>2039.09</ele>
			<time>2012-07-26T12:04:54Z</time>
		</trkpt>
		<trkpt lat="47.4295299221" lon="11.0364277661">
			<ele>2037.17</ele>
			<time>2012-07-26T12:05:09Z</time>
		</trkpt>
		<trkpt lat="47.4295393936" lon="11.036415277">
			<ele>2036.21</ele>
			<time>2012-07-26T12:05:19Z</time>
		</trkpt>
		<trkpt lat="47.4295346998" lon="11.0363975074">
			<ele>2035.25</ele>
			<time>2012-07-26T12:05:25Z</time>
		</trkpt>
		<trkpt lat="47.4295132421" lon="11.0363768879">
			<ele>2035.25</ele>
			<time>2012-07-26T12:05:30Z</time>
		</trkpt>
		<trkpt lat="47.4294760264" lon="11.0363852698">
			<ele>2034.77</ele>
			<time>2012-07-26T12:05:39Z</time>
		</trkpt>
		<trkpt lat="47.4294468574" lon="11.0363552626">
			<ele>2032.36</ele>
			<time>2012-07-26T12:05:50Z</time>
		</trkpt>
		<trkpt lat="47.4294197839" lon="11.0363391694">
			<ele>2032.36</ele>
			<time>2012-07-26T12:06:00Z</time>
		</trkpt>
		<trkpt lat="47.4293959793" lon="11.0363273509">
			<ele>2031.4</ele>
			<time>2012-07-26T12:06:10Z</time>
		</trkpt>
		<trkpt lat="47.4293959793" lon="11.0363273509">
			<ele>2030.92</ele>
			<time>2012-07-26T12:06:22Z</time>
		</trkpt>
		<trkpt lat="47.4293959793" lon="11.0363273509">
			<ele>2029.96</ele>
			<time>2012-07-26T12:06:35Z</time>
		</trkpt>
		<trkpt lat="47.4293867592" lon="11.0363405105">
			<ele>2030.92</ele>
			<time>2012-07-26T12:06:46Z</time>
		</trkpt>
		<trkpt lat="47.4293751922" lon="11.0363450367">
			<ele>2030.92</ele>
			<time>2012-07-26T12:06:58Z</time>
		</trkpt>
		<trkpt lat="47.4293733481" lon="11.036340259">
			<ele>2030.44</ele>
			<time>2012-07-26T12:07:08Z</time>
		</trkpt>
		<trkpt lat="47.4293694086" lon="11.0363325477">
			<ele>2030.44</ele>
			<time>2012-07-26T12:07:21Z</time>
		</trkpt>
		<trkpt lat="47.4292731006" lon="11.0363297816">
			<ele>2029.48</ele>
			<time>2012-07-26T12:07:29Z</time>
		</trkpt>
		<trkpt lat="47.429264551" lon="11.0363132693">
			<ele>2028.52</ele>
			<time>2012-07-26T12:07:39Z</time>
		</trkpt>
		<trkpt lat="47.4292631261" lon="11.0362996068">
			<ele>2027.08</ele>
			<time>2012-07-26T12:07:48Z</time>
		</trkpt>
		<trkpt lat="47.4292409141" lon="11.0363111738">
			<ele>2025.64</ele>
			<time>2012-07-26T12:07:56Z</time>
		</trkpt>
		<trkpt lat="47.4292369746" lon="11.0363160353">
			<ele>2024.67</ele>
			<time>2012-07-26T12:08:06Z</time>
		</trkpt>
		<trkpt lat="47.4292009324" lon="11.0363060609">
			<ele>2022.75</ele>
			<time>2012-07-26T12:08:15Z</time>
		</trkpt>
		<trkpt lat="47.42917981" lon="11.0362714436">
			<ele>2020.83</ele>
			<time>2012-07-26T12:08:26Z</time>
		</trkpt>
		<trkpt lat="47.4291730206" lon="11.0362551827">
			<ele>2019.87</ele>
			<time>2012-07-26T12:08:39Z</time>
		</trkpt>
		<trkpt lat="47.4291956518" lon="11.0362416878">
			<ele>2019.39</ele>
			<time>2012-07-26T12:08:46Z</time>
		</trkpt>
		<trkpt lat="47.429194646" lon="11.0362342279">
			<ele>2018.91</ele>
			<time>2012-07-26T12:08:49Z</time>
		</trkpt>
		<trkpt lat="47.4292144272" lon="11.0362237506">
			<ele>2018.43</ele>
			<time>2012-07-26T12:09:01Z</time>
		</trkpt>
		<trkpt lat="47.429200178" lon="11.036177231">
			<ele>2017.46</ele>
			<time>2012-07-26T12:09:10Z</time>
		</trkpt>
		<trkpt lat="47.42915852" lon="11.0361306276">
			<ele>2016.02</ele>
			<time>2012-07-26T12:09:18Z</time>
		</trkpt>
		<trkpt lat="47.4291359726" lon="11.0361166298">
			<ele>2014.58</ele>
			<time>2012-07-26T12:09:28Z</time>
		</trkpt>
		<trkpt lat="47.42914184" lon="11.0361105949">
			<ele>2013.14</ele>
			<time>2012-07-26T12:09:36Z</time>
		</trkpt>
		<trkpt lat="47.4291493837" lon="11.0360953398">
			<ele>2011.22</ele>
			<time>2012-07-26T12:09:46Z</time>
		</trkpt>
		<trkpt lat="47.4291661475" lon="11.0360541847">
			<ele>2009.29</ele>
			<time>2012-07-26T12:09:55Z</time>
		</trkpt>
		<trkpt lat="47.4291558377" lon="11.0360190645">
			<ele>2007.85</ele>
			<time>2012-07-26T12:10:06Z</time>
		</trkpt>
		<trkpt lat="47.4291601963" lon="11.0360216629">
			<ele>2006.89</ele>
			<time>2012-07-26T12:10:10Z</time>
		</trkpt>
		<trkpt lat="47.4291107431" lon="11.0360090062">
			<ele>2005.45</ele>
			<time>2012-07-26T12:10:19Z</time>
		</trkpt>
		<trkpt lat="47.4290928058" lon="11.0360087547">
			<ele>2003.52</ele>
			<time>2012-07-26T12:10:27Z</time>
		</trkpt>
		<trkpt lat="47.4290928058" lon="11.0360087547">
			<ele>2001.12</ele>
			<time>2012-07-26T12:10:39Z</time>
		</trkpt>
		<trkpt lat="47.4290884472" lon="11.0360028036">
			<ele>2000.16</ele>
			<time>2012-07-26T12:10:50Z</time>
		</trkpt>
		<trkpt lat="47.4290871061" lon="11.0359971039">
			<ele>1999.2</ele>
			<time>2012-07-26T12:11:00Z</time>
		</trkpt>
		<trkpt lat="47.4290871061" lon="11.0359971039">
			<ele>1998.72</ele>
			<time>2012-07-26T12:11:14Z</time>
		</trkpt>
		<trkpt lat="47.4290871061" lon="11.0359971039">
			<ele>1998.24</ele>
			<time>2012-07-26T12:11:23Z</time>
		</trkpt>
		<trkpt lat="47.4290871061" lon="11.0359971039">
			<ele>1996.32</ele>
			<time>2012-07-26T12:11:34Z</time>
		</trkpt>
		<trkpt lat="47.429111246" lon="11.0358864628">
			<ele>1994.87</ele>
			<time>2012-07-26T12:11:44Z</time>
		</trkpt>
		<trkpt lat="47.4291244894" lon="11.0358361714">
			<ele>1993.43</ele>
			<time>2012-07-26T12:11:54Z</time>
		</trkpt>
		<trkpt lat="47.4291399959" lon="11.0357745644">
			<ele>1991.99</ele>
			<time>2012-07-26T12:12:04Z</time>
		</trkpt>
		<trkpt lat="47.4291575979" lon="11.0357517656">
			<ele>1990.55</ele>
			<time>2012-07-26T12:12:12Z</time>
		</trkpt>
		<trkpt lat="47.4291587714" lon="11.0357327387">
			<ele>1988.62</ele>
			<time>2012-07-26T12:12:21Z</time>
		</trkpt>
		<trkpt lat="47.4291390739" lon="11.0357071739">
			<ele>1987.66</ele>
			<time>2012-07-26T12:12:31Z</time>
		</trkpt>
		<trkpt lat="47.4291390739" lon="11.0357071739">
			<ele>1985.74</ele>
			<time>2012-07-26T12:12:39Z</time>
		</trkpt>
		<trkpt lat="47.4291390739" lon="11.0357071739">
			<ele>1985.26</ele>
			<time>2012-07-26T12:12:49Z</time>
		</trkpt>
		<trkpt lat="47.4291390739" lon="11.0357071739">
			<ele>1984.78</ele>
			<time>2012-07-26T12:12:59Z</time>
		</trkpt>
		<trkpt lat="47.4291375652" lon="11.0357042402">
			<ele>1983.82</ele>
			<time>2012-07-26T12:13:07Z</time>
		</trkpt>
		<trkpt lat="47.4291318655" lon="11.0357032344">
			<ele>1983.34</ele>
			<time>2012-07-26T12:13:15Z</time>
		</trkpt>
		<trkpt lat="47.4291198794" lon="11.0356949363">
			<ele>1983.34</ele>
			<time>2012-07-26T12:13:23Z</time>
		</trkpt>
		<trkpt lat="47.4291089829" lon="11.0356816929">
			<ele>1982.86</ele>
			<time>2012-07-26T12:13:26Z</time>
		</trkpt>
		<trkpt lat="47.4290943984" lon="11.0356333293">
			<ele>1981.9</ele>
			<time>2012-07-26T12:13:35Z</time>
		</trkpt>
		<trkpt lat="47.4290750362" lon="11.0356169846">
			<ele>1979.49</ele>
			<time>2012-07-26T12:13:46Z</time>
		</trkpt>
		<trkpt lat="47.4290750362" lon="11.0356169846">
			<ele>1978.53</ele>
			<time>2012-07-26T12:13:56Z</time>
		</trkpt>
		<trkpt lat="47.4290077295" lon="11.0356673598">
			<ele>1978.05</ele>
			<time>2012-07-26T12:14:06Z</time>
		</trkpt>
		<trkpt lat="47.4289731961" lon="11.0356722213">
			<ele>1977.09</ele>
			<time>2012-07-26T12:14:16Z</time>
		</trkpt>
		<trkpt lat="47.4289731961" lon="11.0356722213">
			<ele>1975.17</ele>
			<time>2012-07-26T12:14:26Z</time>
		</trkpt>
		<trkpt lat="47.4289682508" lon="11.0356701259">
			<ele>1972.76</ele>
			<time>2012-07-26T12:14:35Z</time>
		</trkpt>
		<trkpt lat="47.4289550912" lon="11.0356545355">
			<ele>1971.32</ele>
			<time>2012-07-26T12:14:39Z</time>
		</trkpt>
		<trkpt lat="47.4288984295" lon="11.0356522724">
			<ele>1969.4</ele>
			<time>2012-07-26T12:14:51Z</time>
		</trkpt>
		<trkpt lat="47.4288984295" lon="11.0356522724">
			<ele>1967.96</ele>
			<time>2012-07-26T12:14:57Z</time>
		</trkpt>
		<trkpt lat="47.4290014431" lon="11.0355718061">
			<ele>1966.51</ele>
			<time>2012-07-26T12:15:08Z</time>
		</trkpt>
		<trkpt lat="47.4289410096" lon="11.0355366021">
			<ele>1965.07</ele>
			<time>2012-07-26T12:15:15Z</time>
		</trkpt>
		<trkpt lat="47.4289003573" lon="11.0355063435">
			<ele>1965.07</ele>
			<time>2012-07-26T12:15:26Z</time>
		</trkpt>
		<trkpt lat="47.4288868625" lon="11.0355025716">
			<ele>1964.11</ele>
			<time>2012-07-26T12:15:35Z</time>
		</trkpt>
		<trkpt lat="47.4288902991" lon="11.0354759172">
			<ele>1962.19</ele>
			<time>2012-07-26T12:15:46Z</time>
		</trkpt>
		<trkpt lat="47.4288716912" lon="11.0354554653">
			<ele>1961.23</ele>
			<time>2012-07-26T12:15:55Z</time>
		</trkpt>
		<trkpt lat="47.4288739543" lon="11.0354358517">
			<ele>1960.75</ele>
			<time>2012-07-26T12:16:11Z</time>
		</trkpt>
		<trkpt lat="47.4288369063" lon="11.0354179144">
			<ele>1959.78</ele>
			<time>2012-07-26T12:16:20Z</time>
		</trkpt>
		<trkpt lat="47.4287919793" lon="11.0353855602">
			<ele>1958.82</ele>
			<time>2012-07-26T12:16:30Z</time>
		</trkpt>
		<trkpt lat="47.4287491478" lon="11.0353749152">
			<ele>1956.42</ele>
			<time>2012-07-26T12:16:40Z</time>
		</trkpt>
		<trkpt lat="47.4287264328" lon="11.0353724845">
			<ele>1955.46</ele>
			<time>2012-07-26T12:16:48Z</time>
		</trkpt>
		<trkpt lat="47.4287072383" lon="11.0353608336">
			<ele>1954.98</ele>
			<time>2012-07-26T12:16:57Z</time>
		</trkpt>
		<trkpt lat="47.4286966771" lon="11.0353289824">
			<ele>1954.5</ele>
			<time>2012-07-26T12:17:05Z</time>
		</trkpt>
		<trkpt lat="47.4286963418" lon="11.0353073571">
			<ele>1953.54</ele>
			<time>2012-07-26T12:17:13Z</time>
		</trkpt>
		<trkpt lat="47.4286963418" lon="11.0353073571">
			<ele>1951.61</ele>
			<time>2012-07-26T12:17:22Z</time>
		</trkpt>
		<trkpt lat="47.4286955874" lon="11.0353076085">
			<ele>1951.13</ele>
			<time>2012-07-26T12:17:41Z</time>
		</trkpt>
		<trkpt lat="47.4286976829" lon="11.0353044234">
			<ele>1951.61</ele>
			<time>2012-07-26T12:18:01Z</time>
		</trkpt>
		<trkpt lat="47.4286863673" lon="11.0352765117">
			<ele>1950.17</ele>
			<time>2012-07-26T12:18:16Z</time>
		</trkpt>
		<trkpt lat="47.4286761414" lon="11.0352426488">
			<ele>1948.25</ele>
			<time>2012-07-26T12:18:25Z</time>
		</trkpt>
		<trkpt lat="47.4287338927" lon="11.0350983124">
			<ele>1945.36</ele>
			<time>2012-07-26T12:18:32Z</time>
		</trkpt>
		<trkpt lat="47.4287307076" lon="11.0350536369">
			<ele>1943.92</ele>
			<time>2012-07-26T12:18:35Z</time>
		</trkpt>
		<trkpt lat="47.4287153687" lon="11.0349207837">
			<ele>1941.52</ele>
			<time>2012-07-26T12:18:46Z</time>
		</trkpt>
		<trkpt lat="47.4286967609" lon="11.0349065345">
			<ele>1940.08</ele>
			<time>2012-07-26T12:18:54Z</time>
		</trkpt>
		<trkpt lat="47.4287011195" lon="11.0348502919">
			<ele>1938.16</ele>
			<time>2012-07-26T12:19:02Z</time>
		</trkpt>
		<trkpt lat="47.4287777301" lon="11.0347841587">
			<ele>1935.75</ele>
			<time>2012-07-26T12:19:11Z</time>
		</trkpt>
		<trkpt lat="47.4287654925" lon="11.0347640421">
			<ele>1933.35</ele>
			<time>2012-07-26T12:19:19Z</time>
		</trkpt>
		<trkpt lat="47.4287654925" lon="11.0347640421">
			<ele>1932.39</ele>
			<time>2012-07-26T12:19:27Z</time>
		</trkpt>
		<trkpt lat="47.4287654925" lon="11.0347640421">
			<ele>1929.98</ele>
			<time>2012-07-26T12:19:37Z</time>
		</trkpt>
		<trkpt lat="47.4287849385" lon="11.0347430035">
			<ele>1929.5</ele>
			<time>2012-07-26T12:19:45Z</time>
		</trkpt>
		<trkpt lat="47.4288159516" lon="11.0346938856">
			<ele>1927.1</ele>
			<time>2012-07-26T12:20:01Z</time>
		</trkpt>
		<trkpt lat="47.428904213" lon="11.0345606972">
			<ele>1924.22</ele>
			<time>2012-07-26T12:20:10Z</time>
		</trkpt>
		<trkpt lat="47.4289146904" lon="11.0345317796">
			<ele>1921.81</ele>
			<time>2012-07-26T12:20:18Z</time>
		</trkpt>
		<trkpt lat="47.4289243296" lon="11.0344767105">
			<ele>1920.85</ele>
			<time>2012-07-26T12:20:24Z</time>
		</trkpt>
		<trkpt lat="47.4289577734" lon="11.0344154388">
			<ele>1918.45</ele>
			<time>2012-07-26T12:20:32Z</time>
		</trkpt>
		<trkpt lat="47.4289974198" lon="11.0343949031">
			<ele>1916.04</ele>
			<time>2012-07-26T12:20:41Z</time>
		</trkpt>
		<trkpt lat="47.4289974198" lon="11.0343949031">
			<ele>1914.6</ele>
			<time>2012-07-26T12:20:49Z</time>
		</trkpt>
		<trkpt lat="47.4290815741" lon="11.0342996009">
			<ele>1912.2</ele>
			<time>2012-07-26T12:20:57Z</time>
		</trkpt>
		<trkpt lat="47.4291374814" lon="11.0342091601">
			<ele>1909.8</ele>
			<time>2012-07-26T12:21:06Z</time>
		</trkpt>
		<trkpt lat="47.4291547481" lon="11.0341890436">
			<ele>1907.87</ele>
			<time>2012-07-26T12:21:16Z</time>
		</trkpt>
		<trkpt lat="47.4291550834" lon="11.0341852717">
			<ele>1904.51</ele>
			<time>2012-07-26T12:21:27Z</time>
		</trkpt>
		<trkpt lat="47.4291547481" lon="11.0341890436">
			<ele>1903.55</ele>
			<time>2012-07-26T12:21:38Z</time>
		</trkpt>
		<trkpt lat="47.4291566759" lon="11.0341620538">
			<ele>1903.07</ele>
			<time>2012-07-26T12:21:40Z</time>
		</trkpt>
		<trkpt lat="47.429158017" lon="11.0341186356">
			<ele>1902.59</ele>
			<time>2012-07-26T12:21:42Z</time>
		</trkpt>
		<trkpt lat="47.4292464461" lon="11.0339235887">
			<ele>1899.7</ele>
			<time>2012-07-26T12:21:51Z</time>
		</trkpt>
		<trkpt lat="47.429274274" lon="11.0338211618">
			<ele>1896.82</ele>
			<time>2012-07-26T12:22:02Z</time>
		</trkpt>
		<trkpt lat="47.4292670656" lon="11.0338014644">
			<ele>1895.38</ele>
			<time>2012-07-26T12:22:12Z</time>
		</trkpt>
		<trkpt lat="47.4292532355" lon="11.0337287094">
			<ele>1892.01</ele>
			<time>2012-07-26T12:22:24Z</time>
		</trkpt>
		<trkpt lat="47.4292399082" lon="11.0335178208">
			<ele>1890.57</ele>
			<time>2012-07-26T12:22:34Z</time>
		</trkpt>
		<trkpt lat="47.4292755313" lon="11.0334173217">
			<ele>1890.09</ele>
			<time>2012-07-26T12:22:39Z</time>
		</trkpt>
		<trkpt lat="47.4293245655" lon="11.0332593229">
			<ele>1887.21</ele>
			<time>2012-07-26T12:22:49Z</time>
		</trkpt>
		<trkpt lat="47.4293189496" lon="11.0332029965">
			<ele>1885.76</ele>
			<time>2012-07-26T12:22:58Z</time>
		</trkpt>
		<trkpt lat="47.4293189496" lon="11.0332029965">
			<ele>1883.84</ele>
			<time>2012-07-26T12:23:07Z</time>
		</trkpt>
		<trkpt lat="47.4293189496" lon="11.0332029965">
			<ele>1882.4</ele>
			<time>2012-07-26T12:23:18Z</time>
		</trkpt>
		<trkpt lat="47.4294110667" lon="11.0330277309">
			<ele>1881.44</ele>
			<time>2012-07-26T12:23:27Z</time>
		</trkpt>
		<trkpt lat="47.4294328596" lon="11.0330052674">
			<ele>1880.48</ele>
			<time>2012-07-26T12:23:37Z</time>
		</trkpt>
		<trkpt lat="47.4294331111" lon="11.0329943709">
			<ele>1879.51</ele>
			<time>2012-07-26T12:23:46Z</time>
		</trkpt>
		<trkpt lat="47.4294176884" lon="11.0329641961">
			<ele>1877.59</ele>
			<time>2012-07-26T12:23:54Z</time>
		</trkpt>
		<trkpt lat="47.4294171017" lon="11.032963274">
			<ele>1877.11</ele>
			<time>2012-07-26T12:24:01Z</time>
		</trkpt>
		<trkpt lat="47.4294176884" lon="11.0329641961">
			<ele>1877.11</ele>
			<time>2012-07-26T12:24:03Z</time>
		</trkpt>
		<trkpt lat="47.429505866" lon="11.0329044331">
			<ele>1876.15</ele>
			<time>2012-07-26T12:24:11Z</time>
		</trkpt>
		<trkpt lat="47.4294665549" lon="11.0328273196">
			<ele>1875.19</ele>
			<time>2012-07-26T12:24:22Z</time>
		</trkpt>
		<trkpt lat="47.4294471927" lon="11.0327564087">
			<ele>1875.67</ele>
			<time>2012-07-26T12:24:31Z</time>
		</trkpt>
		<trkpt lat="47.4294207059" lon="11.0327036027">
			<ele>1876.15</ele>
			<time>2012-07-26T12:24:40Z</time>
		</trkpt>
		<trkpt lat="47.4294207059" lon="11.0327036027">
			<ele>1875.19</ele>
			<time>2012-07-26T12:24:50Z</time>
		</trkpt>
		<trkpt lat="47.4294164311" lon="11.032681223">
			<ele>1874.23</ele>
			<time>2012-07-26T12:25:00Z</time>
		</trkpt>
		<trkpt lat="47.4293959793" lon="11.032619616">
			<ele>1873.27</ele>
			<time>2012-07-26T12:25:03Z</time>
		</trkpt>
		<trkpt lat="47.429378964" lon="11.0325773712">
			<ele>1871.82</ele>
			<time>2012-07-26T12:25:09Z</time>
		</trkpt>
		<trkpt lat="47.4293429218" lon="11.0325355455">
			<ele>1872.3</ele>
			<time>2012-07-26T12:25:12Z</time>
		</trkpt>
		<trkpt lat="47.4292580131" lon="11.0323933885">
			<ele>1871.34</ele>
			<time>2012-07-26T12:25:20Z</time>
		</trkpt>
		<trkpt lat="47.4292497989" lon="11.0322964098">
			<ele>1870.38</ele>
			<time>2012-07-26T12:25:28Z</time>
		</trkpt>
		<trkpt lat="47.4292368907" lon="11.0322660673">
			<ele>1868.94</ele>
			<time>2012-07-26T12:25:38Z</time>
		</trkpt>
		<trkpt lat="47.4292368907" lon="11.0322660673">
			<ele>1867.5</ele>
			<time>2012-07-26T12:25:50Z</time>
		</trkpt>
		<trkpt lat="47.4292383157" lon="11.0322195478">
			<ele>1866.54</ele>
			<time>2012-07-26T12:25:59Z</time>
		</trkpt>
		<trkpt lat="47.4292185344" lon="11.0321178753">
			<ele>1865.09</ele>
			<time>2012-07-26T12:26:06Z</time>
		</trkpt>
		<trkpt lat="47.4292331189" lon="11.0320949927">
			<ele>1864.13</ele>
			<time>2012-07-26T12:26:12Z</time>
		</trkpt>
		<trkpt lat="47.4292166904" lon="11.0320139397">
			<ele>1863.17</ele>
			<time>2012-07-26T12:26:20Z</time>
		</trkpt>
		<trkpt lat="47.4292354658" lon="11.031929031">
			<ele>1862.69</ele>
			<time>2012-07-26T12:26:30Z</time>
		</trkpt>
		<trkpt lat="47.4293047003" lon="11.0319209844">
			<ele>1861.25</ele>
			<time>2012-07-26T12:26:34Z</time>
		</trkpt>
		<trkpt lat="47.4293306842" lon="11.031896174">
			<ele>1859.33</ele>
			<time>2012-07-26T12:26:42Z</time>
		</trkpt>
		<trkpt lat="47.4293306842" lon="11.031896174">
			<ele>1857.4</ele>
			<time>2012-07-26T12:26:51Z</time>
		</trkpt>
		<trkpt lat="47.4293306842" lon="11.031896174">
			<ele>1856.92</ele>
			<time>2012-07-26T12:26:52Z</time>
		</trkpt>
		<trkpt lat="47.4293680675" lon="11.0318272747">
			<ele>1855.48</ele>
			<time>2012-07-26T12:26:59Z</time>
		</trkpt>
		<trkpt lat="47.4294670578" lon="11.031667348">
			<ele>1853.08</ele>
			<time>2012-07-26T12:27:11Z</time>
		</trkpt>
		<trkpt lat="47.4295380525" lon="11.0315749794">
			<ele>1852.12</ele>
			<time>2012-07-26T12:27:18Z</time>
		</trkpt>
		<trkpt lat="47.4295634497" lon="11.031495519">
			<ele>1851.16</ele>
			<time>2012-07-26T12:27:26Z</time>
		</trkpt>
		<trkpt lat="47.4296108074" lon="11.0314090177">
			<ele>1849.23</ele>
			<time>2012-07-26T12:27:32Z</time>
		</trkpt>
		<trkpt lat="47.4296484422" lon="11.0312766675">
			<ele>1847.31</ele>
			<time>2012-07-26T12:27:43Z</time>
		</trkpt>
		<trkpt lat="47.4296581652" lon="11.0312640108">
			<ele>1846.35</ele>
			<time>2012-07-26T12:27:51Z</time>
		</trkpt>
		<trkpt lat="47.4297181796" lon="11.0311422218">
			<ele>1844.91</ele>
			<time>2012-07-26T12:28:01Z</time>
		</trkpt>
		<trkpt lat="47.4297284894" lon="11.0311070178">
			<ele>1843.95</ele>
			<time>2012-07-26T12:28:07Z</time>
		</trkpt>
		<trkpt lat="47.4297694769" lon="11.0310652759">
			<ele>1842.5</ele>
			<time>2012-07-26T12:28:11Z</time>
		</trkpt>
		<trkpt lat="47.4298839737" lon="11.0309938621">
			<ele>1841.06</ele>
			<time>2012-07-26T12:28:23Z</time>
		</trkpt>
		<trkpt lat="47.4299378693" lon="11.0309502762">
			<ele>1839.62</ele>
			<time>2012-07-26T12:28:31Z</time>
		</trkpt>
		<trkpt lat="47.4300002307" lon="11.0308899265">
			<ele>1836.74</ele>
			<time>2012-07-26T12:28:40Z</time>
		</trkpt>
		<trkpt lat="47.4300465826" lon="11.0308053531">
			<ele>1836.26</ele>
			<time>2012-07-26T12:28:51Z</time>
		</trkpt>
		<trkpt lat="47.4301039986" lon="11.0307117272">
			<ele>1834.33</ele>
			<time>2012-07-26T12:29:01Z</time>
		</trkpt>
		<trkpt lat="47.4301137216" lon="11.0307026748">
			<ele>1834.33</ele>
			<time>2012-07-26T12:29:10Z</time>
		</trkpt>
		<trkpt lat="47.4301263783" lon="11.0306828935">
			<ele>1833.37</ele>
			<time>2012-07-26T12:29:20Z</time>
		</trkpt>
		<trkpt lat="47.4301309884" lon="11.0306772776">
			<ele>1833.37</ele>
			<time>2012-07-26T12:29:36Z</time>
		</trkpt>
		<trkpt lat="47.4301345926" lon="11.0306636151">
			<ele>1831.93</ele>
			<time>2012-07-26T12:29:46Z</time>
		</trkpt>
		<trkpt lat="47.4301819503" lon="11.030626148">
			<ele>1830.49</ele>
			<time>2012-07-26T12:29:54Z</time>
		</trkpt>
		<trkpt lat="47.4301884044" lon="11.0306193586">
			<ele>1829.53</ele>
			<time>2012-07-26T12:29:58Z</time>
		</trkpt>
		<trkpt lat="47.4302233569" lon="11.0305523872">
			<ele>1827.6</ele>
			<time>2012-07-26T12:30:07Z</time>
		</trkpt>
		<trkpt lat="47.4302992132" lon="11.0305034369">
			<ele>1825.68</ele>
			<time>2012-07-26T12:30:17Z</time>
		</trkpt>
		<trkpt lat="47.4303357583" lon="11.0304855835">
			<ele>1826.16</ele>
			<time>2012-07-26T12:30:21Z</time>
		</trkpt>
		<trkpt lat="47.4304202478" lon="11.0304495413">
			<ele>1824.72</ele>
			<time>2012-07-26T12:30:28Z</time>
		</trkpt>
		<trkpt lat="47.4305501673" lon="11.0303815641">
			<ele>1822.8</ele>
			<time>2012-07-26T12:30:38Z</time>
		</trkpt>
		<trkpt lat="47.4306150433" lon="11.030299589">
			<ele>1822.32</ele>
			<time>2012-07-26T12:30:49Z</time>
		</trkpt>
		<trkpt lat="47.4306406919" lon="11.0302487947">
			<ele>1821.35</ele>
			<time>2012-07-26T12:30:53Z</time>
		</trkpt>
		<trkpt lat="47.4306560308" lon="11.0302214697">
			<ele>1820.87</ele>
			<time>2012-07-26T12:30:55Z</time>
		</trkpt>
		<trkpt lat="47.4307473097" lon="11.0301447753">
			<ele>1818.47</ele>
			<time>2012-07-26T12:31:05Z</time>
		</trkpt>
		<trkpt lat="47.4307463039" lon="11.0301370639">
			<ele>1818.47</ele>
			<time>2012-07-26T12:31:06Z</time>
		</trkpt>
		<trkpt lat="47.4307597149" lon="11.0301215574">
			<ele>1818.47</ele>
			<time>2012-07-26T12:31:08Z</time>
		</trkpt>
		<trkpt lat="47.4308214895" lon="11.0300926398">
			<ele>1815.11</ele>
			<time>2012-07-26T12:31:18Z</time>
		</trkpt>
		<trkpt lat="47.4309036322" lon="11.030048551">
			<ele>1816.55</ele>
			<time>2012-07-26T12:31:29Z</time>
		</trkpt>
		<trkpt lat="47.4309312925" lon="11.0300750379">
			<ele>1816.55</ele>
			<time>2012-07-26T12:31:34Z</time>
		</trkpt>
		<trkpt lat="47.4309703521" lon="11.030112002">
			<ele>1816.07</ele>
			<time>2012-07-26T12:31:38Z</time>
		</trkpt>
		<trkpt lat="47.4310198054" lon="11.0301581863">
			<ele>1816.07</ele>
			<time>2012-07-26T12:31:45Z</time>
		</trkpt>
		<trkpt lat="47.4311493896" lon="11.0301876906">
			<ele>1815.59</ele>
			<time>2012-07-26T12:31:57Z</time>
		</trkpt>
		<trkpt lat="47.4312536605" lon="11.0301474575">
			<ele>1815.59</ele>
			<time>2012-07-26T12:32:07Z</time>
		</trkpt>
		<trkpt lat="47.4313270859" lon="11.0301344655">
			<ele>1814.15</ele>
			<time>2012-07-26T12:32:16Z</time>
		</trkpt>
		<trkpt lat="47.4313808978" lon="11.03011108">
			<ele>1814.15</ele>
			<time>2012-07-26T12:32:25Z</time>
		</trkpt>
		<trkpt lat="47.4314302672" lon="11.0300756246">
			<ele>1811.26</ele>
			<time>2012-07-26T12:32:34Z</time>
		</trkpt>
		<trkpt lat="47.4314495455" lon="11.0300164483">
			<ele>1809.34</ele>
			<time>2012-07-26T12:32:41Z</time>
		</trkpt>
		<trkpt lat="47.4314940535" lon="11.029916117">
			<ele>1807.42</ele>
			<time>2012-07-26T12:32:51Z</time>
		</trkpt>
		<trkpt lat="47.4315465242" lon="11.0297801625">
			<ele>1805.97</ele>
			<time>2012-07-26T12:33:02Z</time>
		</trkpt>
		<trkpt lat="47.4315585103" lon="11.0297614709">
			<ele>1805.49</ele>
			<time>2012-07-26T12:33:04Z</time>
		</trkpt>
		<trkpt lat="47.4316269904" lon="11.0297237523">
			<ele>1803.09</ele>
			<time>2012-07-26T12:33:15Z</time>
		</trkpt>
		<trkpt lat="47.431708714" lon="11.0296426155">
			<ele>1802.13</ele>
			<time>2012-07-26T12:33:23Z</time>
		</trkpt>
		<trkpt lat="47.4317693152" lon="11.0295819305">
			<ele>1799.73</ele>
			<time>2012-07-26T12:33:33Z</time>
		</trkpt>
		<trkpt lat="47.4318552297" lon="11.0295274481">
			<ele>1797.8</ele>
			<time>2012-07-26T12:33:43Z</time>
		</trkpt>
		<trkpt lat="47.4319234584" lon="11.0294861253">
			<ele>1796.36</ele>
			<time>2012-07-26T12:33:52Z</time>
		</trkpt>
		<trkpt lat="47.4319340196" lon="11.0294791684">
			<ele>1795.88</ele>
			<time>2012-07-26T12:33:54Z</time>
		</trkpt>
		<trkpt lat="47.4319796171" lon="11.029487215">
			<ele>1793.48</ele>
			<time>2012-07-26T12:34:04Z</time>
		</trkpt>
		<trkpt lat="47.4320128094" lon="11.0294893943">
			<ele>1792.52</ele>
			<time>2012-07-26T12:34:11Z</time>
		</trkpt>
		<trkpt lat="47.4320603348" lon="11.0294852033">
			<ele>1790.11</ele>
			<time>2012-07-26T12:34:20Z</time>
		</trkpt>
		<trkpt lat="47.4321094528" lon="11.029466847">
			<ele>1788.19</ele>
			<time>2012-07-26T12:34:29Z</time>
		</trkpt>
		<trkpt lat="47.4321219418" lon="11.0294982791">
			<ele>1786.75</ele>
			<time>2012-07-26T12:34:32Z</time>
		</trkpt>
		<trkpt lat="47.4321539607" lon="11.0294859577">
			<ele>1786.27</ele>
			<time>2012-07-26T12:34:40Z</time>
		</trkpt>
		<trkpt lat="47.4321558047" lon="11.0294902325">
			<ele>1785.31</ele>
			<time>2012-07-26T12:35:00Z</time>
		</trkpt>
		<trkpt lat="47.4322008993" lon="11.0294810962">
			<ele>1784.82</ele>
			<time>2012-07-26T12:35:09Z</time>
		</trkpt>
		<trkpt lat="47.4322596565" lon="11.0294821858">
			<ele>1781.94</ele>
			<time>2012-07-26T12:35:19Z</time>
		</trkpt>
		<trkpt lat="47.4322889931" lon="11.0294748936">
			<ele>1780.5</ele>
			<time>2012-07-26T12:35:25Z</time>
		</trkpt>
		<trkpt lat="47.4323319923" lon="11.0294295475">
			<ele>1778.1</ele>
			<time>2012-07-26T12:35:35Z</time>
		</trkpt>
		<trkpt lat="47.4323515221" lon="11.0294139571">
			<ele>1776.65</ele>
			<time>2012-07-26T12:35:39Z</time>
		</trkpt>
		<trkpt lat="47.4323832057" lon="11.0293928348">
			<ele>1775.21</ele>
			<time>2012-07-26T12:35:47Z</time>
		</trkpt>
		<trkpt lat="47.4324087705" lon="11.0293759033">
			<ele>1773.29</ele>
			<time>2012-07-26T12:35:56Z</time>
		</trkpt>
		<trkpt lat="47.4324485008" lon="11.0293608159">
			<ele>1770.89</ele>
			<time>2012-07-26T12:36:08Z</time>
		</trkpt>
		<trkpt lat="47.4324667733" lon="11.0293665994">
			<ele>1768.96</ele>
			<time>2012-07-26T12:36:16Z</time>
		</trkpt>
		<trkpt lat="47.4325308111" lon="11.0293374304">
			<ele>1767.04</ele>
			<time>2012-07-26T12:36:24Z</time>
		</trkpt>
		<trkpt lat="47.4325954355" lon="11.0293132905">
			<ele>1764.16</ele>
			<time>2012-07-26T12:36:33Z</time>
		</trkpt>
		<trkpt lat="47.4326204136" lon="11.0292957723">
			<ele>1761.27</ele>
			<time>2012-07-26T12:36:42Z</time>
		</trkpt>
		<trkpt lat="47.4326968566" lon="11.0292806849">
			<ele>1760.31</ele>
			<time>2012-07-26T12:36:51Z</time>
		</trkpt>
		<trkpt lat="47.4327044841" lon="11.0292723868">
			<ele>1760.31</ele>
			<time>2012-07-26T12:36:52Z</time>
		</trkpt>
		<trkpt lat="47.4327527639" lon="11.0292800143">
			<ele>1758.39</ele>
			<time>2012-07-26T12:36:59Z</time>
		</trkpt>
		<trkpt lat="47.4327810947" lon="11.0292407032">
			<ele>1757.91</ele>
			<time>2012-07-26T12:37:04Z</time>
		</trkpt>
		<trkpt lat="47.4327874649" lon="11.0292402841">
			<ele>1756.95</ele>
			<time>2012-07-26T12:37:16Z</time>
		</trkpt>
		<trkpt lat="47.4327874649" lon="11.0292402841">
			<ele>1756.95</ele>
			<time>2012-07-26T12:37:41Z</time>
		</trkpt>
		<trkpt lat="47.4327770714" lon="11.0292578861">
			<ele>1756.47</ele>
			<time>2012-07-26T12:38:06Z</time>
		</trkpt>
		<trkpt lat="47.4327862915" lon="11.0292629991">
			<ele>1756.47</ele>
			<time>2012-07-26T12:38:27Z</time>
		</trkpt>
		<trkpt lat="47.4327862915" lon="11.0292629991">
			<ele>1755.5</ele>
			<time>2012-07-26T12:38:48Z</time>
		</trkpt>
		<trkpt lat="47.4328168016" lon="11.0292673577">
			<ele>1755.99</ele>
			<time>2012-07-26T12:38:58Z</time>
		</trkpt>
		<trkpt lat="47.4328617286" lon="11.0292710457">
			<ele>1753.58</ele>
			<time>2012-07-26T12:39:09Z</time>
		</trkpt>
		<trkpt lat="47.432888383" lon="11.0292844567">
			<ele>1752.62</ele>
			<time>2012-07-26T12:39:16Z</time>
		</trkpt>
		<trkpt lat="47.4329158757" lon="11.0293008853">
			<ele>1750.7</ele>
			<time>2012-07-26T12:39:25Z</time>
		</trkpt>
		<trkpt lat="47.4329577852" lon="11.0293245222">
			<ele>1748.29</ele>
			<time>2012-07-26T12:39:34Z</time>
		</trkpt>
		<trkpt lat="47.4329894688" lon="11.0293165594">
			<ele>1746.37</ele>
			<time>2012-07-26T12:39:42Z</time>
		</trkpt>
		<trkpt lat="47.4330357369" lon="11.0293639172">
			<ele>1743.97</ele>
			<time>2012-07-26T12:39:51Z</time>
		</trkpt>
		<trkpt lat="47.4330356531" lon="11.0293679405">
			<ele>1743.97</ele>
			<time>2012-07-26T12:40:09Z</time>
		</trkpt>
		<trkpt lat="47.4330397602" lon="11.0293781664">
			<ele>1743.01</ele>
			<time>2012-07-26T12:40:22Z</time>
		</trkpt>
		<trkpt lat="47.4330695998" lon="11.0293900687">
			<ele>1742.05</ele>
			<time>2012-07-26T12:40:29Z</time>
		</trkpt>
		<trkpt lat="47.4330939073" lon="11.0294254404">
			<ele>1740.6</ele>
			<time>2012-07-26T12:40:34Z</time>
		</trkpt>
		<trkpt lat="47.4331314582" lon="11.0294383485">
			<ele>1738.2</ele>
			<time>2012-07-26T12:40:44Z</time>
		</trkpt>
		<trkpt lat="47.4331367388" lon="11.0294788331">
			<ele>1736.28</ele>
			<time>2012-07-26T12:40:53Z</time>
		</trkpt>
		<trkpt lat="47.4331695121" lon="11.0295035597">
			<ele>1733.88</ele>
			<time>2012-07-26T12:41:03Z</time>
		</trkpt>
		<trkpt lat="47.4331996031" lon="11.0295477323">
			<ele>1731.95</ele>
			<time>2012-07-26T12:41:11Z</time>
		</trkpt>
		<trkpt lat="47.4332156964" lon="11.0295597184">
			<ele>1730.99</ele>
			<time>2012-07-26T12:41:15Z</time>
		</trkpt>
		<trkpt lat="47.4332736991" lon="11.0295608919">
			<ele>1727.63</ele>
			<time>2012-07-26T12:41:24Z</time>
		</trkpt>
		<trkpt lat="47.4333177041" lon="11.0295624845">
			<ele>1727.63</ele>
			<time>2012-07-26T12:41:28Z</time>
		</trkpt>
		<trkpt lat="47.4333351385" lon="11.0295502469">
			<ele>1727.15</ele>
			<time>2012-07-26T12:41:30Z</time>
		</trkpt>
		<trkpt lat="47.4333518185" lon="11.0295320582">
			<ele>1725.7</ele>
			<time>2012-07-26T12:41:31Z</time>
		</trkpt>
		<trkpt lat="47.4334266689" lon="11.0295715369">
			<ele>1724.74</ele>
			<time>2012-07-26T12:41:40Z</time>
		</trkpt>
		<trkpt lat="47.4334573466" lon="11.029645633">
			<ele>1722.82</ele>
			<time>2012-07-26T12:41:50Z</time>
		</trkpt>
		<trkpt lat="47.4335097335" lon="11.0296965949">
			<ele>1720.9</ele>
			<time>2012-07-26T12:41:58Z</time>
		</trkpt>
		<trkpt lat="47.4335076381" lon="11.0297360737">
			<ele>1719.94</ele>
			<time>2012-07-26T12:42:09Z</time>
		</trkpt>
		<trkpt lat="47.4335017707" lon="11.0297554359">
			<ele>1718.49</ele>
			<time>2012-07-26T12:42:20Z</time>
		</trkpt>
		<trkpt lat="47.433496993" lon="11.0297652427">
			<ele>1717.53</ele>
			<time>2012-07-26T12:42:30Z</time>
		</trkpt>
		<trkpt lat="47.4335328676" lon="11.0298161209">
			<ele>1716.57</ele>
			<time>2012-07-26T12:42:39Z</time>
		</trkpt>
		<trkpt lat="47.4335654732" lon="11.0298627242">
			<ele>1714.65</ele>
			<time>2012-07-26T12:42:49Z</time>
		</trkpt>
		<trkpt lat="47.433622973" lon="11.0299130157">
			<ele>1713.21</ele>
			<time>2012-07-26T12:42:59Z</time>
		</trkpt>
		<trkpt lat="47.4337168504" lon="11.0299043823">
			<ele>1715.13</ele>
			<time>2012-07-26T12:43:09Z</time>
		</trkpt>
		<trkpt lat="47.433731351" lon="11.0299078189">
			<ele>1714.65</ele>
			<time>2012-07-26T12:43:17Z</time>
		</trkpt>
		<trkpt lat="47.433731351" lon="11.0299078189">
			<ele>1713.69</ele>
			<time>2012-07-26T12:43:28Z</time>
		</trkpt>
		<trkpt lat="47.4337608553" lon="11.0299405083">
			<ele>1711.76</ele>
			<time>2012-07-26T12:43:37Z</time>
		</trkpt>
		<trkpt lat="47.4337935448" lon="11.0299743712">
			<ele>1710.32</ele>
			<time>2012-07-26T12:43:47Z</time>
		</trkpt>
		<trkpt lat="47.4338276591" lon="11.0300233215">
			<ele>1708.4</ele>
			<time>2012-07-26T12:43:58Z</time>
		</trkpt>
		<trkpt lat="47.4338516314" lon="11.0300384089">
			<ele>1706.48</ele>
			<time>2012-07-26T12:44:09Z</time>
		</trkpt>
		<trkpt lat="47.4338588398" lon="11.0300788097">
			<ele>1705.04</ele>
			<time>2012-07-26T12:44:20Z</time>
		</trkpt>
		<trkpt lat="47.4338560738" lon="11.0301078111">
			<ele>1703.59</ele>
			<time>2012-07-26T12:44:29Z</time>
		</trkpt>
		<trkpt lat="47.4338560738" lon="11.0301078111">
			<ele>1703.11</ele>
			<time>2012-07-26T12:44:39Z</time>
		</trkpt>
		<trkpt lat="47.43389396" lon="11.0301567614">
			<ele>1702.15</ele>
			<time>2012-07-26T12:44:47Z</time>
		</trkpt>
		<trkpt lat="47.4339049403" lon="11.0301897023">
			<ele>1701.67</ele>
			<time>2012-07-26T12:44:54Z</time>
		</trkpt>
		<trkpt lat="47.4339204468" lon="11.0302409157">
			<ele>1699.27</ele>
			<time>2012-07-26T12:45:04Z</time>
		</trkpt>
		<trkpt lat="47.433964368" lon="11.0302630439">
			<ele>1698.31</ele>
			<time>2012-07-26T12:45:12Z</time>
		</trkpt>
		<trkpt lat="47.4339913577" lon="11.0302743595">
			<ele>1695.9</ele>
			<time>2012-07-26T12:45:24Z</time>
		</trkpt>
		<trkpt lat="47.4340170063" lon="11.0303100664">
			<ele>1694.94</ele>
			<time>2012-07-26T12:45:33Z</time>
		</trkpt>
		<trkpt lat="47.4340486899" lon="11.0303420853">
			<ele>1693.02</ele>
			<time>2012-07-26T12:45:42Z</time>
		</trkpt>
		<trkpt lat="47.4341014959" lon="11.0303837433">
			<ele>1692.06</ele>
			<time>2012-07-26T12:45:51Z</time>
		</trkpt>
		<trkpt lat="47.4342335947" lon="11.0303591844">
			<ele>1691.1</ele>
			<time>2012-07-26T12:46:02Z</time>
		</trkpt>
		<trkpt lat="47.4342636019" lon="11.0303712543">
			<ele>1689.65</ele>
			<time>2012-07-26T12:46:12Z</time>
		</trkpt>
		<trkpt lat="47.4342636019" lon="11.0303712543">
			<ele>1689.65</ele>
			<time>2012-07-26T12:46:27Z</time>
		</trkpt>
		<trkpt lat="47.4342522863" lon="11.0303841624">
			<ele>1688.69</ele>
			<time>2012-07-26T12:46:36Z</time>
		</trkpt>
		<trkpt lat="47.4342506099" lon="11.0303922929">
			<ele>1687.73</ele>
			<time>2012-07-26T12:46:45Z</time>
		</trkpt>
		<trkpt lat="47.4342731573" lon="11.0304549057">
			<ele>1686.77</ele>
			<time>2012-07-26T12:46:55Z</time>
		</trkpt>
		<trkpt lat="47.4342893343" lon="11.0305209551">
			<ele>1684.85</ele>
			<time>2012-07-26T12:47:05Z</time>
		</trkpt>
		<trkpt lat="47.4342953693" lon="11.0305415746">
			<ele>1683.89</ele>
			<time>2012-07-26T12:47:13Z</time>
		</trkpt>
		<trkpt lat="47.434352031" lon="11.0305570811">
			<ele>1681.48</ele>
			<time>2012-07-26T12:47:25Z</time>
		</trkpt>
		<trkpt lat="47.434352031" lon="11.0305570811">
			<ele>1680.52</ele>
			<time>2012-07-26T12:47:35Z</time>
		</trkpt>
		<trkpt lat="47.434352031" lon="11.0305570811">
			<ele>1679.56</ele>
			<time>2012-07-26T12:47:46Z</time>
		</trkpt>
		<trkpt lat="47.434352031" lon="11.0305570811">
			<ele>1677.64</ele>
			<time>2012-07-26T12:47:57Z</time>
		</trkpt>
		<trkpt lat="47.4345497601" lon="11.030641906">
			<ele>1675.23</ele>
			<time>2012-07-26T12:48:09Z</time>
		</trkpt>
		<trkpt lat="47.4346548691" lon="11.0306972265">
			<ele>1673.31</ele>
			<time>2012-07-26T12:48:19Z</time>
		</trkpt>
		<trkpt lat="47.4346971978" lon="11.0306851566">
			<ele>1672.35</ele>
			<time>2012-07-26T12:48:27Z</time>
		</trkpt>
		<trkpt lat="47.434780011" lon="11.0306743439">
			<ele>1673.31</ele>
			<time>2012-07-26T12:48:36Z</time>
		</trkpt>
		<trkpt lat="47.4348852038" lon="11.0306030978">
			<ele>1674.75</ele>
			<time>2012-07-26T12:48:47Z</time>
		</trkpt>
		<trkpt lat="47.4349510856" lon="11.030545095">
			<ele>1676.68</ele>
			<time>2012-07-26T12:48:56Z</time>
		</trkpt>
		<trkpt lat="47.4350007903" lon="11.0305115674">
			<ele>1676.68</ele>
			<time>2012-07-26T12:49:06Z</time>
		</trkpt>
		<trkpt lat="47.4350756407" lon="11.0304931272">
			<ele>1674.75</ele>
			<time>2012-07-26T12:49:17Z</time>
		</trkpt>
		<trkpt lat="47.4351802468" lon="11.0304919537">
			<ele>1672.83</ele>
			<time>2012-07-26T12:49:28Z</time>
		</trkpt>
		<trkpt lat="47.4352297839" lon="11.0305326898">
			<ele>1670.91</ele>
			<time>2012-07-26T12:49:38Z</time>
		</trkpt>
		<trkpt lat="47.4352384172" lon="11.0305454303">
			<ele>1669.47</ele>
			<time>2012-07-26T12:49:40Z</time>
		</trkpt>
		<trkpt lat="47.4353253376" lon="11.0306168441">
			<ele>1668.99</ele>
			<time>2012-07-26T12:49:50Z</time>
		</trkpt>
		<trkpt lat="47.4353791494" lon="11.0306218732">
			<ele>1668.99</ele>
			<time>2012-07-26T12:50:02Z</time>
		</trkpt>
		<trkpt lat="47.4353791494" lon="11.0306218732">
			<ele>1668.02</ele>
			<time>2012-07-26T12:50:10Z</time>
		</trkpt>
		<trkpt lat="47.4353791494" lon="11.0306218732">
			<ele>1667.54</ele>
			<time>2012-07-26T12:50:20Z</time>
		</trkpt>
		<trkpt lat="47.4353791494" lon="11.0306218732">
			<ele>1668.02</ele>
			<time>2012-07-26T12:50:22Z</time>
		</trkpt>
		<trkpt lat="47.435522899" lon="11.0306331888">
			<ele>1668.51</ele>
			<time>2012-07-26T12:50:34Z</time>
		</trkpt>
		<trkpt lat="47.4356526509" lon="11.0306403972">
			<ele>1669.95</ele>
			<time>2012-07-26T12:50:44Z</time>
		</trkpt>
		<trkpt lat="47.4357098155" lon="11.0307237133">
			<ele>1669.47</ele>
			<time>2012-07-26T12:50:55Z</time>
		</trkpt>
		<trkpt lat="47.4357584305" lon="11.0307613481">
			<ele>1671.87</ele>
			<time>2012-07-26T12:51:05Z</time>
		</trkpt>
		<trkpt lat="47.4358498771" lon="11.0307548102">
			<ele>1672.83</ele>
			<time>2012-07-26T12:51:16Z</time>
		</trkpt>
		<trkpt lat="47.4358544871" lon="11.030753972">
			<ele>1672.83</ele>
			<time>2012-07-26T12:51:27Z</time>
		</trkpt>
		<trkpt lat="47.4359179381" lon="11.030773418">
			<ele>1670.91</ele>
			<time>2012-07-26T12:51:37Z</time>
		</trkpt>
		<trkpt lat="47.4359563272" lon="11.0308229551">
			<ele>1668.99</ele>
			<time>2012-07-26T12:51:46Z</time>
		</trkpt>
		<trkpt lat="47.4359853286" lon="11.0308527946">
			<ele>1668.99</ele>
			<time>2012-07-26T12:51:57Z</time>
		</trkpt>
		<trkpt lat="47.4359853286" lon="11.0308527946">
			<ele>1670.43</ele>
			<time>2012-07-26T12:52:08Z</time>
		</trkpt>
		<trkpt lat="47.4359853286" lon="11.0308527946">
			<ele>1671.87</ele>
			<time>2012-07-26T12:52:19Z</time>
		</trkpt>
		<trkpt lat="47.4360029306" lon="11.0308963805">
			<ele>1673.79</ele>
			<time>2012-07-26T12:52:32Z</time>
		</trkpt>
		<trkpt lat="47.4360029306" lon="11.0308963805">
			<ele>1673.79</ele>
			<time>2012-07-26T12:52:43Z</time>
		</trkpt>
		<trkpt lat="47.4360065348" lon="11.0308943689">
			<ele>1672.35</ele>
			<time>2012-07-26T12:52:54Z</time>
		</trkpt>
		<trkpt lat="47.4360505398" lon="11.0309126414">
			<ele>1672.83</ele>
			<time>2012-07-26T12:53:02Z</time>
		</trkpt>
		<trkpt lat="47.4360788707" lon="11.0309407208">
			<ele>1672.35</ele>
			<time>2012-07-26T12:53:17Z</time>
		</trkpt>
		<trkpt lat="47.4361419026" lon="11.0309990589">
			<ele>1672.83</ele>
			<time>2012-07-26T12:53:29Z</time>
		</trkpt>
		<trkpt lat="47.4361506198" lon="11.0310259648">
			<ele>1673.31</ele>
			<time>2012-07-26T12:53:42Z</time>
		</trkpt>
		<trkpt lat="47.4361561518" lon="11.0310408846">
			<ele>1673.79</ele>
			<time>2012-07-26T12:53:51Z</time>
		</trkpt>
		<trkpt lat="47.4361561518" lon="11.0310408846">
			<ele>1674.75</ele>
			<time>2012-07-26T12:54:01Z</time>
		</trkpt>
		<trkpt lat="47.4361692276" lon="11.0310335085">
			<ele>1676.68</ele>
			<time>2012-07-26T12:54:16Z</time>
		</trkpt>
		<trkpt lat="47.4362372886" lon="11.0310107935">
			<ele>1677.16</ele>
			<time>2012-07-26T12:54:26Z</time>
		</trkpt>
		<trkpt lat="47.4362869933" lon="11.0309895035">
			<ele>1678.6</ele>
			<time>2012-07-26T12:54:37Z</time>
		</trkpt>
		<trkpt lat="47.4362869933" lon="11.0309895035">
			<ele>1677.64</ele>
			<time>2012-07-26T12:54:50Z</time>
		</trkpt>
		<trkpt lat="47.4362869933" lon="11.0309895035">
			<ele>1676.68</ele>
			<time>2012-07-26T12:55:01Z</time>
		</trkpt>
		<trkpt lat="47.4365008157" lon="11.0308520403">
			<ele>1674.75</ele>
			<time>2012-07-26T12:55:11Z</time>
		</trkpt>
		<trkpt lat="47.4365950283" lon="11.0308133997">
			<ele>1674.75</ele>
			<time>2012-07-26T12:55:22Z</time>
		</trkpt>
		<trkpt lat="47.4366293941" lon="11.0307629406">
			<ele>1672.35</ele>
			<time>2012-07-26T12:55:31Z</time>
		</trkpt>
		<trkpt lat="47.4366846308" lon="11.0307202768">
			<ele>1671.39</ele>
			<time>2012-07-26T12:55:36Z</time>
		</trkpt>
		<trkpt lat="47.4367224332" lon="11.0306752659">
			<ele>1670.91</ele>
			<time>2012-07-26T12:55:43Z</time>
		</trkpt>
		<trkpt lat="47.4367405381" lon="11.0306476895">
			<ele>1669.47</ele>
			<time>2012-07-26T12:55:52Z</time>
		</trkpt>
		<trkpt lat="47.4367811065" lon="11.0306196939">
			<ele>1668.51</ele>
			<time>2012-07-26T12:55:58Z</time>
		</trkpt>
		<trkpt lat="47.4367905781" lon="11.0305930395">
			<ele>1666.58</ele>
			<time>2012-07-26T12:56:10Z</time>
		</trkpt>
		<trkpt lat="47.4367952719" lon="11.0305275768">
			<ele>1665.14</ele>
			<time>2012-07-26T12:56:25Z</time>
		</trkpt>
		<trkpt lat="47.4367904104" lon="11.0305109806">
			<ele>1663.7</ele>
			<time>2012-07-26T12:56:34Z</time>
		</trkpt>
		<trkpt lat="47.4368298054" lon="11.0305031855">
			<ele>1663.22</ele>
			<time>2012-07-26T12:56:44Z</time>
		</trkpt>
		<trkpt lat="47.4368443899" lon="11.0304918699">
			<ele>1660.81</ele>
			<time>2012-07-26T12:56:53Z</time>
		</trkpt>
		<trkpt lat="47.4368287157" lon="11.0304576717">
			<ele>1659.85</ele>
			<time>2012-07-26T12:57:04Z</time>
		</trkpt>
		<trkpt lat="47.4368261173" lon="11.0303977411">
			<ele>1658.41</ele>
			<time>2012-07-26T12:57:13Z</time>
		</trkpt>
		<trkpt lat="47.4368023966" lon="11.0303365532">
			<ele>1658.41</ele>
			<time>2012-07-26T12:57:22Z</time>
		</trkpt>
		<trkpt lat="47.4367895722" lon="11.0302615352">
			<ele>1657.45</ele>
			<time>2012-07-26T12:57:31Z</time>
		</trkpt>
		<trkpt lat="47.4367825314" lon="11.0302067176">
			<ele>1656.97</ele>
			<time>2012-07-26T12:57:41Z</time>
		</trkpt>
		<trkpt lat="47.4367639236" lon="11.0301705077">
			<ele>1654.57</ele>
			<time>2012-07-26T12:57:52Z</time>
		</trkpt>
		<trkpt lat="47.4367502611" lon="11.0301108286">
			<ele>1653.12</ele>
			<time>2012-07-26T12:58:01Z</time>
		</trkpt>
		<trkpt lat="47.4367648456" lon="11.0300732777">
			<ele>1651.68</ele>
			<time>2012-07-26T12:58:10Z</time>
		</trkpt>
		<trkpt lat="47.4367578886" lon="11.0300417617">
			<ele>1650.24</ele>
			<time>2012-07-26T12:58:19Z</time>
		</trkpt>
		<trkpt lat="47.4367629178" lon="11.0300223995">
			<ele>1647.84</ele>
			<time>2012-07-26T12:58:28Z</time>
		</trkpt>
		<trkpt lat="47.4367710482" lon="11.0299683362">
			<ele>1645.91</ele>
			<time>2012-07-26T12:58:38Z</time>
		</trkpt>
		<trkpt lat="47.4367796816" lon="11.029920727">
			<ele>1644.95</ele>
			<time>2012-07-26T12:58:47Z</time>
		</trkpt>
		<trkpt lat="47.4367795978" lon="11.029888792">
			<ele>1642.55</ele>
			<time>2012-07-26T12:58:57Z</time>
		</trkpt>
		<trkpt lat="47.4367893208" lon="11.0298597906">
			<ele>1640.15</ele>
			<time>2012-07-26T12:59:07Z</time>
		</trkpt>
		<trkpt lat="47.4368081801" lon="11.0298027936">
			<ele>1639.19</ele>
			<time>2012-07-26T12:59:16Z</time>
		</trkpt>
		<trkpt lat="47.4368142989" lon="11.0297281109">
			<ele>1637.74</ele>
			<time>2012-07-26T12:59:25Z</time>
		</trkpt>
		<trkpt lat="47.4368303921" lon="11.0297031328">
			<ele>1635.34</ele>
			<time>2012-07-26T12:59:34Z</time>
		</trkpt>
		<trkpt lat="47.436842965" lon="11.0296643246">
			<ele>1633.9</ele>
			<time>2012-07-26T12:59:45Z</time>
		</trkpt>
		<trkpt lat="47.4368513469" lon="11.029616883">
			<ele>1631.98</ele>
			<time>2012-07-26T12:59:54Z</time>
		</trkpt>
		<trkpt lat="47.4368590582" lon="11.0295929108">
			<ele>1630.53</ele>
			<time>2012-07-26T12:59:58Z</time>
		</trkpt>
		<trkpt lat="47.4368630815" lon="11.0295686871">
			<ele>1629.57</ele>
			<time>2012-07-26T13:00:03Z</time>
		</trkpt>
		<trkpt lat="47.4368358403" lon="11.0295150429">
			<ele>1631.01</ele>
			<time>2012-07-26T13:00:12Z</time>
		</trkpt>
		<trkpt lat="47.4368430488" lon="11.0294763185">
			<ele>1630.53</ele>
			<time>2012-07-26T13:00:20Z</time>
		</trkpt>
		<trkpt lat="47.436863333" lon="11.0293873865">
			<ele>1628.61</ele>
			<time>2012-07-26T13:00:28Z</time>
		</trkpt>
		<trkpt lat="47.436884623" lon="11.0293418728">
			<ele>1628.13</ele>
			<time>2012-07-26T13:00:34Z</time>
		</trkpt>
		<trkpt lat="47.4369202461" lon="11.0292530246">
			<ele>1629.09</ele>
			<time>2012-07-26T13:00:45Z</time>
		</trkpt>
		<trkpt lat="47.4369223416" lon="11.0291715525">
			<ele>1629.09</ele>
			<time>2012-07-26T13:00:53Z</time>
		</trkpt>
		<trkpt lat="47.4369184021" lon="11.029134253">
			<ele>1628.61</ele>
			<time>2012-07-26T13:01:06Z</time>
		</trkpt>
		<trkpt lat="47.4369223416" lon="11.0291070119">
			<ele>1627.17</ele>
			<time>2012-07-26T13:01:18Z</time>
		</trkpt>
		<trkpt lat="47.436921671" lon="11.0290764179">
			<ele>1626.69</ele>
			<time>2012-07-26T13:01:29Z</time>
		</trkpt>
		<trkpt lat="47.4369124509" lon="11.0290719755">
			<ele>1626.21</ele>
			<time>2012-07-26T13:01:43Z</time>
		</trkpt>
		<trkpt lat="47.4369199947" lon="11.0290401243">
			<ele>1624.28</ele>
			<time>2012-07-26T13:01:54Z</time>
		</trkpt>
		<trkpt lat="47.4369278736" lon="11.0290289763">
			<ele>1622.84</ele>
			<time>2012-07-26T13:02:04Z</time>
		</trkpt>
		<trkpt lat="47.4369336572" lon="11.0290070996">
			<ele>1621.88</ele>
			<time>2012-07-26T13:02:14Z</time>
		</trkpt>
		<trkpt lat="47.4369401112" lon="11.028992096">
			<ele>1619.96</ele>
			<time>2012-07-26T13:02:25Z</time>
		</trkpt>
		<trkpt lat="47.436943464" lon="11.0289891623">
			<ele>1619.96</ele>
			<time>2012-07-26T13:02:33Z</time>
		</trkpt>
		<trkpt lat="47.4369588867" lon="11.0289884917">
			<ele>1618.04</ele>
			<time>2012-07-26T13:02:42Z</time>
		</trkpt>
		<trkpt lat="47.4369623233" lon="11.0289931856">
			<ele>1617.56</ele>
			<time>2012-07-26T13:02:54Z</time>
		</trkpt>
		<trkpt lat="47.4369762372" lon="11.0289844684">
			<ele>1615.63</ele>
			<time>2012-07-26T13:03:05Z</time>
		</trkpt>
		<trkpt lat="47.4370091781" lon="11.028985139">
			<ele>1614.19</ele>
			<time>2012-07-26T13:03:16Z</time>
		</trkpt>
		<trkpt lat="47.4370322283" lon="11.0289792717">
			<ele>1613.23</ele>
			<time>2012-07-26T13:03:25Z</time>
		</trkpt>
		<trkpt lat="47.4370438792" lon="11.0289727338">
			<ele>1611.79</ele>
			<time>2012-07-26T13:03:36Z</time>
		</trkpt>
		<trkpt lat="47.4370676838" lon="11.0289502703">
			<ele>1610.35</ele>
			<time>2012-07-26T13:03:46Z</time>
		</trkpt>
		<trkpt lat="47.4370811787" lon="11.0289698839">
			<ele>1607.94</ele>
			<time>2012-07-26T13:03:55Z</time>
		</trkpt>
		<trkpt lat="47.4371099286" lon="11.0289797746">
			<ele>1606.98</ele>
			<time>2012-07-26T13:04:03Z</time>
		</trkpt>
		<trkpt lat="47.4371321406" lon="11.0289816186">
			<ele>1604.1</ele>
			<time>2012-07-26T13:04:13Z</time>
		</trkpt>
		<trkpt lat="47.4371644948" lon="11.0289599095">
			<ele>1601.69</ele>
			<time>2012-07-26T13:04:21Z</time>
		</trkpt>
		<trkpt lat="47.4371879641" lon="11.0289357696">
			<ele>1600.25</ele>
			<time>2012-07-26T13:04:32Z</time>
		</trkpt>
		<trkpt lat="47.4371924903" lon="11.0288936086">
			<ele>1598.81</ele>
			<time>2012-07-26T13:04:42Z</time>
		</trkpt>
		<trkpt lat="47.4371898919" lon="11.0288714804">
			<ele>1598.33</ele>
			<time>2012-07-26T13:04:57Z</time>
		</trkpt>
		<trkpt lat="47.4371879641" lon="11.0288572311">
			<ele>1596.89</ele>
			<time>2012-07-26T13:05:05Z</time>
		</trkpt>
		<trkpt lat="47.4371932447" lon="11.0288006533">
			<ele>1595.93</ele>
			<time>2012-07-26T13:05:13Z</time>
		</trkpt>
		<trkpt lat="47.4371903948" lon="11.0287807882">
			<ele>1594.48</ele>
			<time>2012-07-26T13:05:23Z</time>
		</trkpt>
		<trkpt lat="47.4371818453" lon="11.0287755914">
			<ele>1593.52</ele>
			<time>2012-07-26T13:05:31Z</time>
		</trkpt>
		<trkpt lat="47.4371638242" lon="11.0287481826">
			<ele>1591.12</ele>
			<time>2012-07-26T13:05:41Z</time>
		</trkpt>
		<trkpt lat="47.4371269438" lon="11.0287066922">
			<ele>1589.2</ele>
			<time>2012-07-26T13:05:50Z</time>
		</trkpt>
		<trkpt lat="47.437077323" lon="11.0285882559">
			<ele>1587.75</ele>
			<time>2012-07-26T13:06:00Z</time>
		</trkpt>
		<trkpt lat="47.4370574579" lon="11.0285499506">
			<ele>1587.27</ele>
			<time>2012-07-26T13:06:08Z</time>
		</trkpt>
		<trkpt lat="47.4370193202" lon="11.028489517">
			<ele>1585.83</ele>
			<time>2012-07-26T13:06:17Z</time>
		</trkpt>
		<trkpt lat="47.4369686935" lon="11.0284216236">
			<ele>1583.91</ele>
			<time>2012-07-26T13:06:27Z</time>
		</trkpt>
		<trkpt lat="47.4369723815" lon="11.028333446">
			<ele>1582.95</ele>
			<time>2012-07-26T13:06:39Z</time>
		</trkpt>
		<trkpt lat="47.4369453918" lon="11.0282589309">
			<ele>1580.54</ele>
			<time>2012-07-26T13:06:49Z</time>
		</trkpt>
		<trkpt lat="47.4369511753" lon="11.0281866789">
			<ele>1579.1</ele>
			<time>2012-07-26T13:06:57Z</time>
		</trkpt>
		<trkpt lat="47.436961066" lon="11.0281170253">
			<ele>1576.7</ele>
			<time>2012-07-26T13:07:05Z</time>
		</trkpt>
		<trkpt lat="47.4369557854" lon="11.0280494671">
			<ele>1575.26</ele>
			<time>2012-07-26T13:07:13Z</time>
		</trkpt>
		<trkpt lat="47.4369796738" lon="11.0280155204">
			<ele>1573.33</ele>
			<time>2012-07-26T13:07:20Z</time>
		</trkpt>
		<trkpt lat="47.4369966052" lon="11.0280509759">
			<ele>1571.41</ele>
			<time>2012-07-26T13:07:29Z</time>
		</trkpt>
		<trkpt lat="47.437030552" lon="11.0280451924">
			<ele>1568.05</ele>
			<time>2012-07-26T13:07:39Z</time>
		</trkpt>
		<trkpt lat="47.437057877" lon="11.0280765407">
			<ele>1566.12</ele>
			<time>2012-07-26T13:07:49Z</time>
		</trkpt>
		<trkpt lat="47.4371097609" lon="11.028120378">
			<ele>1563.72</ele>
			<time>2012-07-26T13:08:01Z</time>
		</trkpt>
		<trkpt lat="47.4371081684" lon="11.0281223897">
			<ele>1562.28</ele>
			<time>2012-07-26T13:08:09Z</time>
		</trkpt>
		<trkpt lat="47.4371144548" lon="11.0281130858">
			<ele>1560.36</ele>
			<time>2012-07-26T13:08:19Z</time>
		</trkpt>
		<trkpt lat="47.4371291231" lon="11.0280941427">
			<ele>1559.4</ele>
			<time>2012-07-26T13:08:29Z</time>
		</trkpt>
		<trkpt lat="47.4371887185" lon="11.0280907899">
			<ele>1557.47</ele>
			<time>2012-07-26T13:08:41Z</time>
		</trkpt>
		<trkpt lat="47.4371930771" lon="11.0280733556">
			<ele>1556.03</ele>
			<time>2012-07-26T13:08:50Z</time>
		</trkpt>
		<trkpt lat="47.4372138642" lon="11.0280502215">
			<ele>1553.63</ele>
			<time>2012-07-26T13:09:01Z</time>
		</trkpt>
		<trkpt lat="47.4372074939" lon="11.0279965773">
			<ele>1550.74</ele>
			<time>2012-07-26T13:09:11Z</time>
		</trkpt>
		<trkpt lat="47.4372327235" lon="11.0279655643">
			<ele>1549.78</ele>
			<time>2012-07-26T13:09:20Z</time>
		</trkpt>
		<trkpt lat="47.437271364" lon="11.0278949048">
			<ele>1546.9</ele>
			<time>2012-07-26T13:09:31Z</time>
		</trkpt>
		<trkpt lat="47.4372620601" lon="11.0278520733">
			<ele>1545.46</ele>
			<time>2012-07-26T13:09:40Z</time>
		</trkpt>
		<trkpt lat="47.4372418597" lon="11.0278056376">
			<ele>1544.01</ele>
			<time>2012-07-26T13:09:47Z</time>
		</trkpt>
		<trkpt lat="47.4372150376" lon="11.0277886223">
			<ele>1543.53</ele>
			<time>2012-07-26T13:09:49Z</time>
		</trkpt>
		<trkpt lat="47.43723616" lon="11.0277341399">
			<ele>1542.09</ele>
			<time>2012-07-26T13:09:58Z</time>
		</trkpt>
		<trkpt lat="47.4372548517" lon="11.0276994389">
			<ele>1539.21</ele>
			<time>2012-07-26T13:10:08Z</time>
		</trkpt>
		<trkpt lat="47.4372849427" lon="11.0276300367">
			<ele>1537.29</ele>
			<time>2012-07-26T13:10:18Z</time>
		</trkpt>
		<trkpt lat="47.4373453762" lon="11.0276472196">
			<ele>1534.4</ele>
			<time>2012-07-26T13:10:28Z</time>
		</trkpt>
		<trkpt lat="47.4373592902" lon="11.0276599601">
			<ele>1532.48</ele>
			<time>2012-07-26T13:10:39Z</time>
		</trkpt>
		<trkpt lat="47.4373737909" lon="11.0276017059">
			<ele>1530.08</ele>
			<time>2012-07-26T13:10:49Z</time>
		</trkpt>
		<trkpt lat="47.4374019541" lon="11.0275588743">
			<ele>1527.67</ele>
			<time>2012-07-26T13:10:59Z</time>
		</trkpt>
		<trkpt lat="47.4374091625" lon="11.0275541805">
			<ele>1525.75</ele>
			<time>2012-07-26T13:11:09Z</time>
		</trkpt>
		<trkpt lat="47.4374193046" lon="11.0275348183">
			<ele>1523.35</ele>
			<time>2012-07-26T13:11:19Z</time>
		</trkpt>
		<trkpt lat="47.4374406785" lon="11.0274762288">
			<ele>1520.94</ele>
			<time>2012-07-26T13:11:28Z</time>
		</trkpt>
		<trkpt lat="47.4374443665" lon="11.0274282843">
			<ele>1519.5</ele>
			<time>2012-07-26T13:11:36Z</time>
		</trkpt>
		<trkpt lat="47.437443696" lon="11.0273992829">
			<ele>1518.54</ele>
			<time>2012-07-26T13:11:45Z</time>
		</trkpt>
		<trkpt lat="47.4374826718" lon="11.027387213">
			<ele>1517.1</ele>
			<time>2012-07-26T13:11:57Z</time>
		</trkpt>
		<trkpt lat="47.4374797381" lon="11.0273655038">
			<ele>1514.69</ele>
			<time>2012-07-26T13:12:07Z</time>
		</trkpt>
		<trkpt lat="47.4375110865" lon="11.0273851175">
			<ele>1513.25</ele>
			<time>2012-07-26T13:12:17Z</time>
		</trkpt>
		<trkpt lat="47.4374896288" lon="11.0273416154">
			<ele>1511.33</ele>
			<time>2012-07-26T13:12:27Z</time>
		</trkpt>
		<trkpt lat="47.4374754634" lon="11.0272887256">
			<ele>1509.41</ele>
			<time>2012-07-26T13:12:37Z</time>
		</trkpt>
		<trkpt lat="47.4375297781" lon="11.0272647534">
			<ele>1507</ele>
			<time>2012-07-26T13:12:45Z</time>
		</trkpt>
		<trkpt lat="47.4375510681" lon="11.0272371769">
			<ele>1505.56</ele>
			<time>2012-07-26T13:12:54Z</time>
		</trkpt>
		<trkpt lat="47.4375586119" lon="11.027220916">
			<ele>1503.16</ele>
			<time>2012-07-26T13:13:03Z</time>
		</trkpt>
		<trkpt lat="47.4376202188" lon="11.0272095166">
			<ele>1501.24</ele>
			<time>2012-07-26T13:13:12Z</time>
		</trkpt>
		<trkpt lat="47.437652573" lon="11.0272509232">
			<ele>1499.79</ele>
			<time>2012-07-26T13:13:21Z</time>
		</trkpt>
		<trkpt lat="47.4376449455" lon="11.0272401106">
			<ele>1498.83</ele>
			<time>2012-07-26T13:13:29Z</time>
		</trkpt>
		<trkpt lat="47.437654417" lon="11.0271937586">
			<ele>1495.95</ele>
			<time>2012-07-26T13:13:38Z</time>
		</trkpt>
		<trkpt lat="47.4376547523" lon="11.027154699">
			<ele>1494.51</ele>
			<time>2012-07-26T13:13:46Z</time>
		</trkpt>
		<trkpt lat="47.4376434367" lon="11.0270910803">
			<ele>1492.58</ele>
			<time>2012-07-26T13:13:55Z</time>
		</trkpt>
		<trkpt lat="47.4376902077" lon="11.0270413756">
			<ele>1491.14</ele>
			<time>2012-07-26T13:14:03Z</time>
		</trkpt>
		<trkpt lat="47.4376774672" lon="11.0270068422">
			<ele>1488.74</ele>
			<time>2012-07-26T13:14:12Z</time>
		</trkpt>
		<trkpt lat="47.4376460351" lon="11.0269270465">
			<ele>1485.85</ele>
			<time>2012-07-26T13:14:23Z</time>
		</trkpt>
		<trkpt lat="47.4376318697" lon="11.026921263">
			<ele>1485.37</ele>
			<time>2012-07-26T13:14:25Z</time>
		</trkpt>
		<trkpt lat="47.437601611" lon="11.0268148128">
			<ele>1484.41</ele>
			<time>2012-07-26T13:14:36Z</time>
		</trkpt>
		<trkpt lat="47.4375814945" lon="11.0267514456">
			<ele>1482.97</ele>
			<time>2012-07-26T13:14:44Z</time>
		</trkpt>
		<trkpt lat="47.4375466257" lon="11.0266363621">
			<ele>1481.53</ele>
			<time>2012-07-26T13:14:54Z</time>
		</trkpt>
		<trkpt lat="47.4375250004" lon="11.0265108012">
			<ele>1479.13</ele>
			<time>2012-07-26T13:15:05Z</time>
		</trkpt>
		<trkpt lat="47.4375161156" lon="11.0264262278">
			<ele>1477.2</ele>
			<time>2012-07-26T13:15:14Z</time>
		</trkpt>
		<trkpt lat="47.4375161156" lon="11.0263137426">
			<ele>1474.8</ele>
			<time>2012-07-26T13:15:24Z</time>
		</trkpt>
		<trkpt lat="47.437474709" lon="11.0262340307">
			<ele>1472.88</ele>
			<time>2012-07-26T13:15:32Z</time>
		</trkpt>
		<trkpt lat="47.4374533352" lon="11.0261288378">
			<ele>1470.95</ele>
			<time>2012-07-26T13:15:41Z</time>
		</trkpt>
		<trkpt lat="47.4374137726" lon="11.0259873513">
			<ele>1469.51</ele>
			<time>2012-07-26T13:15:52Z</time>
		</trkpt>
		<trkpt lat="47.4374018703" lon="11.0259574279">
			<ele>1468.55</ele>
			<time>2012-07-26T13:16:02Z</time>
		</trkpt>
		<trkpt lat="47.437332971" lon="11.0259278398">
			<ele>1466.15</ele>
			<time>2012-07-26T13:16:13Z</time>
		</trkpt>
		<trkpt lat="47.4372899719" lon="11.0259087291">
			<ele>1464.23</ele>
			<time>2012-07-26T13:16:25Z</time>
		</trkpt>
		<trkpt lat="47.4372816738" lon="11.0258671548">
			<ele>1462.3</ele>
			<time>2012-07-26T13:16:34Z</time>
		</trkpt>
		<trkpt lat="47.437245464" lon="11.0258060507">
			<ele>1459.42</ele>
			<time>2012-07-26T13:16:47Z</time>
		</trkpt>
		<trkpt lat="47.4372233357" lon="11.0257190466">
			<ele>1457.5</ele>
			<time>2012-07-26T13:16:57Z</time>
		</trkpt>
		<trkpt lat="47.4371886346" lon="11.02562299">
			<ele>1454.61</ele>
			<time>2012-07-26T13:17:08Z</time>
		</trkpt>
		<trkpt lat="47.4371462222" lon="11.0255462956">
			<ele>1453.17</ele>
			<time>2012-07-26T13:17:19Z</time>
		</trkpt>
		<trkpt lat="47.4371248484" lon="11.0254911426">
			<ele>1451.25</ele>
			<time>2012-07-26T13:17:29Z</time>
		</trkpt>
		<trkpt lat="47.4370959308" lon="11.0254259314">
			<ele>1448.36</ele>
			<time>2012-07-26T13:17:39Z</time>
		</trkpt>
		<trkpt lat="47.4370898958" lon="11.0252827685">
			<ele>1446.44</ele>
			<time>2012-07-26T13:17:49Z</time>
		</trkpt>
		<trkpt lat="47.437071288" lon="11.0250785016">
			<ele>1445</ele>
			<time>2012-07-26T13:17:59Z</time>
		</trkpt>
		<trkpt lat="47.4370264448" lon="11.0249484144">
			<ele>1444.04</ele>
			<time>2012-07-26T13:18:08Z</time>
		</trkpt>
		<trkpt lat="47.4370091781" lon="11.0249215923">
			<ele>1444.04</ele>
			<time>2012-07-26T13:18:11Z</time>
		</trkpt>
		<trkpt lat="47.436935585" lon="11.0248569679">
			<ele>1441.63</ele>
			<time>2012-07-26T13:18:19Z</time>
		</trkpt>
		<trkpt lat="47.4368848745" lon="11.0247842129">
			<ele>1440.19</ele>
			<time>2012-07-26T13:18:30Z</time>
		</trkpt>
		<trkpt lat="47.4368697871" lon="11.0247285571">
			<ele>1437.31</ele>
			<time>2012-07-26T13:18:41Z</time>
		</trkpt>
		<trkpt lat="47.4368831981" lon="11.0246851388">
			<ele>1435.87</ele>
			<time>2012-07-26T13:18:49Z</time>
		</trkpt>
		<trkpt lat="47.4368796777" lon="11.0246412177">
			<ele>1433.94</ele>
			<time>2012-07-26T13:18:57Z</time>
		</trkpt>
		<trkpt lat="47.4368645903" lon="11.0246081091">
			<ele>1432.02</ele>
			<time>2012-07-26T13:19:07Z</time>
		</trkpt>
		<trkpt lat="47.4369006325" lon="11.0244969651">
			<ele>1430.1</ele>
			<time>2012-07-26T13:19:16Z</time>
		</trkpt>
		<trkpt lat="47.4369057454" lon="11.0244678799">
			<ele>1428.18</ele>
			<time>2012-07-26T13:19:26Z</time>
		</trkpt>
		<trkpt lat="47.4369056616" lon="11.0244711488">
			<ele>1429.14</ele>
			<time>2012-07-26T13:19:35Z</time>
		</trkpt>
		<trkpt lat="47.4369056616" lon="11.0244711488">
			<ele>1429.14</ele>
			<time>2012-07-26T13:19:52Z</time>
		</trkpt>
		<trkpt lat="47.4368856288" lon="11.0244592465">
			<ele>1428.66</ele>
			<time>2012-07-26T13:20:00Z</time>
		</trkpt>
		<trkpt lat="47.4368643388" lon="11.0243533831">
			<ele>1427.21</ele>
			<time>2012-07-26T13:20:09Z</time>
		</trkpt>
		<trkpt lat="47.4368522689" lon="11.0243189335">
			<ele>1426.25</ele>
			<time>2012-07-26T13:20:16Z</time>
		</trkpt>
		<trkpt lat="47.436924018" lon="11.0242801253">
			<ele>1423.85</ele>
			<time>2012-07-26T13:20:24Z</time>
		</trkpt>
		<trkpt lat="47.4369335733" lon="11.0242623556">
			<ele>1423.85</ele>
			<time>2012-07-26T13:20:26Z</time>
		</trkpt>
		<trkpt lat="47.4369165581" lon="11.0242492799">
			<ele>1423.85</ele>
			<time>2012-07-26T13:20:29Z</time>
		</trkpt>
		<trkpt lat="47.4369347468" lon="11.0241515469">
			<ele>1422.89</ele>
			<time>2012-07-26T13:20:35Z</time>
		</trkpt>
		<trkpt lat="47.4369498342" lon="11.0240749363">
			<ele>1421.93</ele>
			<time>2012-07-26T13:20:41Z</time>
		</trkpt>
		<trkpt lat="47.4369885586" lon="11.0240674764">
			<ele>1421.93</ele>
			<time>2012-07-26T13:20:46Z</time>
		</trkpt>
		<trkpt lat="47.4370441306" lon="11.0240877606">
			<ele>1421.45</ele>
			<time>2012-07-26T13:20:54Z</time>
		</trkpt>
		<trkpt lat="47.4371273629" lon="11.0241329391">
			<ele>1420.49</ele>
			<time>2012-07-26T13:21:04Z</time>
		</trkpt>
		<trkpt lat="47.4371634051" lon="11.0242619365">
			<ele>1420.49</ele>
			<time>2012-07-26T13:21:14Z</time>
		</trkpt>
		<trkpt lat="47.437175056" lon="11.0242953803">
			<ele>1420.49</ele>
			<time>2012-07-26T13:21:17Z</time>
		</trkpt>
		<trkpt lat="47.4372845236" lon="11.0243408103">
			<ele>1420.49</ele>
			<time>2012-07-26T13:21:28Z</time>
		</trkpt>
		<trkpt lat="47.4372845236" lon="11.0243408103">
			<ele>1420.49</ele>
			<time>2012-07-26T13:21:31Z</time>
		</trkpt>
		<trkpt lat="47.4373613019" lon="11.0244304128">
			<ele>1419.52</ele>
			<time>2012-07-26T13:21:41Z</time>
		</trkpt>
		<trkpt lat="47.4373841844" lon="11.0244958755">
			<ele>1418.56</ele>
			<time>2012-07-26T13:21:54Z</time>
		</trkpt>
		<trkpt lat="47.4374757148" lon="11.0245254636">
			<ele>1418.56</ele>
			<time>2012-07-26T13:22:00Z</time>
		</trkpt>
		<trkpt lat="47.4375694245" lon="11.0245869029">
			<ele>1419.04</ele>
			<time>2012-07-26T13:22:09Z</time>
		</trkpt>
		<trkpt lat="47.4375799019" lon="11.0246763378">
			<ele>1418.08</ele>
			<time>2012-07-26T13:22:17Z</time>
		</trkpt>
		<trkpt lat="47.4376633856" lon="11.0247522779">
			<ele>1418.08</ele>
			<time>2012-07-26T13:22:25Z</time>
		</trkpt>
		<trkpt lat="47.4377426784" lon="11.0247875657">
			<ele>1418.56</ele>
			<time>2012-07-26T13:22:37Z</time>
		</trkpt>
		<trkpt lat="47.4377426784" lon="11.0247875657">
			<ele>1418.56</ele>
			<time>2012-07-26T13:22:49Z</time>
		</trkpt>
		<trkpt lat="47.4377443548" lon="11.0247875657">
			<ele>1419.04</ele>
			<time>2012-07-26T13:23:00Z</time>
		</trkpt>
		<trkpt lat="47.4377564248" lon="11.0248148907">
			<ele>1418.08</ele>
			<time>2012-07-26T13:42:23Z</time>
		</trkpt>
		<trkpt lat="47.4378254917" lon="11.0247899126">
			<ele>1417.6</ele>
			<time>2012-07-26T13:42:33Z</time>
		</trkpt>
		<trkpt lat="47.437845692" lon="11.0247941036">
			<ele>1416.64</ele>
			<time>2012-07-26T13:42:48Z</time>
		</trkpt>
		<trkpt lat="47.4378900323" lon="11.0247160681">
			<ele>1414.24</ele>
			<time>2012-07-26T13:43:48Z</time>
		</trkpt>
		<trkpt lat="47.4379167706" lon="11.0247422196">
			<ele>1413.28</ele>
			<time>2012-07-26T13:43:53Z</time>
		</trkpt>
		<trkpt lat="47.4379769526" lon="11.0247810278">
			<ele>1411.83</ele>
			<time>2012-07-26T13:43:58Z</time>
		</trkpt>
		<trkpt lat="47.4380821455" lon="11.0248438921">
			<ele>1410.87</ele>
			<time>2012-07-26T13:44:07Z</time>
		</trkpt>
		<trkpt lat="47.4381103087" lon="11.0248482507">
			<ele>1410.87</ele>
			<time>2012-07-26T13:44:11Z</time>
		</trkpt>
		<trkpt lat="47.4381325208" lon="11.024863841">
			<ele>1410.87</ele>
			<time>2012-07-26T13:44:14Z</time>
		</trkpt>
		<trkpt lat="47.4382714089" lon="11.0249432176">
			<ele>1409.43</ele>
			<time>2012-07-26T13:44:25Z</time>
		</trkpt>
		<trkpt lat="47.4382942077" lon="11.0249608196">
			<ele>1409.43</ele>
			<time>2012-07-26T13:44:27Z</time>
		</trkpt>
		<trkpt lat="47.4384413101" lon="11.0250333231">
			<ele>1408.95</ele>
			<time>2012-07-26T13:44:37Z</time>
		</trkpt>
		<trkpt lat="47.4384882487" lon="11.0250512604">
			<ele>1408.95</ele>
			<time>2012-07-26T13:44:40Z</time>
		</trkpt>
		<trkpt lat="47.4385759234" lon="11.0252986103">
			<ele>1406.55</ele>
			<time>2012-07-26T13:44:51Z</time>
		</trkpt>
		<trkpt lat="47.4386118818" lon="11.0255976766">
			<ele>1405.58</ele>
			<time>2012-07-26T13:45:02Z</time>
		</trkpt>
		<trkpt lat="47.4386015721" lon="11.0257343855">
			<ele>1405.58</ele>
			<time>2012-07-26T13:45:07Z</time>
		</trkpt>
		<trkpt lat="47.4386203475" lon="11.0258848406">
			<ele>1405.1</ele>
			<time>2012-07-26T13:45:14Z</time>
		</trkpt>
		<trkpt lat="47.4386938568" lon="11.0260212142">
			<ele>1404.14</ele>
			<time>2012-07-26T13:45:23Z</time>
		</trkpt>
		<trkpt lat="47.4387620855" lon="11.0262181051">
			<ele>1403.66</ele>
			<time>2012-07-26T13:45:33Z</time>
		</trkpt>
		<trkpt lat="47.4388310686" lon="11.0263665486">
			<ele>1402.22</ele>
			<time>2012-07-26T13:45:42Z</time>
		</trkpt>
		<trkpt lat="47.4388340861" lon="11.0263781156">
			<ele>1402.22</ele>
			<time>2012-07-26T13:45:43Z</time>
		</trkpt>
		<trkpt lat="47.4388766661" lon="11.0264662933">
			<ele>1401.74</ele>
			<time>2012-07-26T13:45:48Z</time>
		</trkpt>
		<trkpt lat="47.4389142171" lon="11.0265597515">
			<ele>1401.26</ele>
			<time>2012-07-26T13:45:54Z</time>
		</trkpt>
		<trkpt lat="47.4390226789" lon="11.0267325025">
			<ele>1400.3</ele>
			<time>2012-07-26T13:46:04Z</time>
		</trkpt>
		<trkpt lat="47.4390776642" lon="11.0268416349">
			<ele>1399.82</ele>
			<time>2012-07-26T13:46:10Z</time>
		</trkpt>
		<trkpt lat="47.4391216692" lon="11.0269257054">
			<ele>1399.34</ele>
			<time>2012-07-26T13:46:14Z</time>
		</trkpt>
		<trkpt lat="47.4391832761" lon="11.027091248">
			<ele>1397.89</ele>
			<time>2012-07-26T13:46:25Z</time>
		</trkpt>
		<trkpt lat="47.4391928315" lon="11.027098624">
			<ele>1397.89</ele>
			<time>2012-07-26T13:46:26Z</time>
		</trkpt>
		<trkpt lat="47.4392029736" lon="11.0271349177">
			<ele>1396.93</ele>
			<time>2012-07-26T13:46:28Z</time>
		</trkpt>
		<trkpt lat="47.4392373394" lon="11.0272796731">
			<ele>1395.49</ele>
			<time>2012-07-26T13:46:37Z</time>
		</trkpt>
		<trkpt lat="47.4392684363" lon="11.0274106823">
			<ele>1393.09</ele>
			<time>2012-07-26T13:46:47Z</time>
		</trkpt>
		<trkpt lat="47.4392707832" lon="11.0274207406">
			<ele>1393.09</ele>
			<time>2012-07-26T13:46:49Z</time>
		</trkpt>
		<trkpt lat="47.4392824341" lon="11.0275094211">
			<ele>1392.13</ele>
			<time>2012-07-26T13:46:54Z</time>
		</trkpt>
		<trkpt lat="47.4392834399" lon="11.027543284">
			<ele>1392.13</ele>
			<time>2012-07-26T13:46:56Z</time>
		</trkpt>
		<trkpt lat="47.4393593799" lon="11.0276858602">
			<ele>1389.72</ele>
			<time>2012-07-26T13:47:06Z</time>
		</trkpt>
		<trkpt lat="47.4394093361" lon="11.0277374089">
			<ele>1388.28</ele>
			<time>2012-07-26T13:47:10Z</time>
		</trkpt>
		<trkpt lat="47.4394516647" lon="11.0277746245">
			<ele>1387.32</ele>
			<time>2012-07-26T13:47:16Z</time>
		</trkpt>
		<trkpt lat="47.4394814204" lon="11.0278410092">
			<ele>1386.36</ele>
			<time>2012-07-26T13:47:20Z</time>
		</trkpt>
		<trkpt lat="47.4394977652" lon="11.0280011036">
			<ele>1385.4</ele>
			<time>2012-07-26T13:47:30Z</time>
		</trkpt>
		<trkpt lat="47.4395425245" lon="11.0281327832">
			<ele>1384.44</ele>
			<time>2012-07-26T13:47:40Z</time>
		</trkpt>
		<trkpt lat="47.4395663291" lon="11.0281802248">
			<ele>1384.44</ele>
			<time>2012-07-26T13:47:44Z</time>
		</trkpt>
		<trkpt lat="47.439614106" lon="11.0283148382">
			<ele>1383.47</ele>
			<time>2012-07-26T13:47:54Z</time>
		</trkpt>
		<trkpt lat="47.4396155309" lon="11.0283432528">
			<ele>1382.99</ele>
			<time>2012-07-26T13:48:02Z</time>
		</trkpt>
		<trkpt lat="47.4396846816" lon="11.0284094699">
			<ele>1382.99</ele>
			<time>2012-07-26T13:48:12Z</time>
		</trkpt>
		<trkpt lat="47.4396848492" lon="11.0284104757">
			<ele>1382.51</ele>
			<time>2012-07-26T13:48:27Z</time>
		</trkpt>
		<trkpt lat="47.439680323" lon="11.0284667183">
			<ele>1382.99</ele>
			<time>2012-07-26T13:48:42Z</time>
		</trkpt>
		<trkpt lat="47.4396797363" lon="11.0285044368">
			<ele>1382.03</ele>
			<time>2012-07-26T13:48:46Z</time>
		</trkpt>
		<trkpt lat="47.4397021998" lon="11.0286144912">
			<ele>1380.59</ele>
			<time>2012-07-26T13:48:56Z</time>
		</trkpt>
		<trkpt lat="47.4397203885" lon="11.0287266411">
			<ele>1378.67</ele>
			<time>2012-07-26T13:49:05Z</time>
		</trkpt>
		<trkpt lat="47.4397307821" lon="11.0287954565">
			<ele>1377.71</ele>
			<time>2012-07-26T13:49:10Z</time>
		</trkpt>
		<trkpt lat="47.4397494737" lon="11.028862847">
			<ele>1377.23</ele>
			<time>2012-07-26T13:49:14Z</time>
		</trkpt>
		<trkpt lat="47.4397848453" lon="11.0290107876">
			<ele>1374.82</ele>
			<time>2012-07-26T13:49:23Z</time>
		</trkpt>
		<trkpt lat="47.4397845101" lon="11.029082872">
			<ele>1373.86</ele>
			<time>2012-07-26T13:49:28Z</time>
		</trkpt>
		<trkpt lat="47.4397731945" lon="11.0291896574">
			<ele>1372.42</ele>
			<time>2012-07-26T13:49:35Z</time>
		</trkpt>
		<trkpt lat="47.4397788104" lon="11.0293010529">
			<ele>1370.02</ele>
			<time>2012-07-26T13:49:44Z</time>
		</trkpt>
		<trkpt lat="47.4398066383" lon="11.0294544417">
			<ele>1368.09</ele>
			<time>2012-07-26T13:49:55Z</time>
		</trkpt>
		<trkpt lat="47.4398193788" lon="11.0295129474">
			<ele>1366.65</ele>
			<time>2012-07-26T13:50:00Z</time>
		</trkpt>
		<trkpt lat="47.4398473743" lon="11.0296215769">
			<ele>1366.17</ele>
			<time>2012-07-26T13:50:10Z</time>
		</trkpt>
		<trkpt lat="47.439885512" lon="11.0297228303">
			<ele>1364.73</ele>
			<time>2012-07-26T13:50:17Z</time>
		</trkpt>
		<trkpt lat="47.4399132561" lon="11.0298037156">
			<ele>1364.25</ele>
			<time>2012-07-26T13:50:21Z</time>
		</trkpt>
		<trkpt lat="47.439978132" lon="11.0299893748">
			<ele>1362.33</ele>
			<time>2012-07-26T13:50:32Z</time>
		</trkpt>
		<trkpt lat="47.4399508908" lon="11.0300545022">
			<ele>1362.33</ele>
			<time>2012-07-26T13:50:40Z</time>
		</trkpt>
		<trkpt lat="47.439951729" lon="11.0301477928">
			<ele>1360.4</ele>
			<time>2012-07-26T13:50:50Z</time>
		</trkpt>
		<trkpt lat="47.4399583507" lon="11.0301677417">
			<ele>1359.44</ele>
			<time>2012-07-26T13:51:01Z</time>
		</trkpt>
		<trkpt lat="47.4399363063" lon="11.0302564222">
			<ele>1358.48</ele>
			<time>2012-07-26T13:51:13Z</time>
		</trkpt>
		<trkpt lat="47.4399127532" lon="11.030318113">
			<ele>1357.52</ele>
			<time>2012-07-26T13:51:21Z</time>
		</trkpt>
		<trkpt lat="47.439979976" lon="11.0304264911">
			<ele>1356.56</ele>
			<time>2012-07-26T13:51:28Z</time>
		</trkpt>
		<trkpt lat="47.4400145095" lon="11.030499246">
			<ele>1356.08</ele>
			<time>2012-07-26T13:51:33Z</time>
		</trkpt>
		<trkpt lat="47.4400477856" lon="11.0305647925">
			<ele>1356.56</ele>
			<time>2012-07-26T13:51:43Z</time>
		</trkpt>
		<trkpt lat="47.4401099794" lon="11.0306468513">
			<ele>1356.08</ele>
			<time>2012-07-26T13:51:51Z</time>
		</trkpt>
		<trkpt lat="47.4401159305" lon="11.030654395">
			<ele>1356.08</ele>
			<time>2012-07-26T13:51:53Z</time>
		</trkpt>
		<trkpt lat="47.4401340354" lon="11.0306943767">
			<ele>1356.56</ele>
			<time>2012-07-26T13:51:56Z</time>
		</trkpt>
		<trkpt lat="47.4401840754" lon="11.0308540519">
			<ele>1356.08</ele>
			<time>2012-07-26T13:52:07Z</time>
		</trkpt>
		<trkpt lat="47.4402094726" lon="11.0310852248">
			<ele>1356.56</ele>
			<time>2012-07-26T13:52:18Z</time>
		</trkpt>
		<trkpt lat="47.4402307626" lon="11.031259736">
			<ele>1356.56</ele>
			<time>2012-07-26T13:52:28Z</time>
		</trkpt>
		<trkpt lat="47.4402383901" lon="11.0314039886">
			<ele>1356.56</ele>
			<time>2012-07-26T13:52:39Z</time>
		</trkpt>
		<trkpt lat="47.4402705766" lon="11.0315023921">
			<ele>1357.04</ele>
			<time>2012-07-26T13:52:44Z</time>
		</trkpt>
		<trkpt lat="47.4404855724" lon="11.0317778215">
			<ele>1356.08</ele>
			<time>2012-07-26T13:52:51Z</time>
		</trkpt>
		<trkpt lat="47.4405309185" lon="11.0318385903">
			<ele>1356.56</ele>
			<time>2012-07-26T13:52:55Z</time>
		</trkpt>
		<trkpt lat="47.4405769352" lon="11.0319578648">
			<ele>1355.6</ele>
			<time>2012-07-26T13:53:03Z</time>
		</trkpt>
		<trkpt lat="47.440615911" lon="11.0321201384">
			<ele>1354.15</ele>
			<time>2012-07-26T13:53:13Z</time>
		</trkpt>
		<trkpt lat="47.4406512827" lon="11.0322043765">
			<ele>1353.19</ele>
			<time>2012-07-26T13:53:21Z</time>
		</trkpt>
		<trkpt lat="47.4407220259" lon="11.032312084">
			<ele>1351.75</ele>
			<time>2012-07-26T13:53:27Z</time>
		</trkpt>
		<trkpt lat="47.4407410529" lon="11.0324529">
			<ele>1350.31</ele>
			<time>2012-07-26T13:53:36Z</time>
		</trkpt>
		<trkpt lat="47.4407844711" lon="11.0326040257">
			<ele>1348.39</ele>
			<time>2012-07-26T13:53:44Z</time>
		</trkpt>
		<trkpt lat="47.440840546" lon="11.0327022616">
			<ele>1346.94</ele>
			<time>2012-07-26T13:53:52Z</time>
		</trkpt>
		<trkpt lat="47.4408552982" lon="11.032773843">
			<ele>1345.5</ele>
			<time>2012-07-26T13:54:00Z</time>
		</trkpt>
		<trkpt lat="47.4408814497" lon="11.0328019224">
			<ele>1345.02</ele>
			<time>2012-07-26T13:54:02Z</time>
		</trkpt>
		<trkpt lat="47.4409282207" lon="11.0329037625">
			<ele>1343.58</ele>
			<time>2012-07-26T13:54:13Z</time>
		</trkpt>
		<trkpt lat="47.4409352615" lon="11.0329716559">
			<ele>1342.14</ele>
			<time>2012-07-26T13:54:17Z</time>
		</trkpt>
		<trkpt lat="47.4409310706" lon="11.0331334267">
			<ele>1339.73</ele>
			<time>2012-07-26T13:54:30Z</time>
		</trkpt>
		<trkpt lat="47.4409031589" lon="11.0331879929">
			<ele>1339.73</ele>
			<time>2012-07-26T13:54:46Z</time>
		</trkpt>
		<trkpt lat="47.4407510273" lon="11.0333858896">
			<ele>1337.33</ele>
			<time>2012-07-26T13:54:58Z</time>
		</trkpt>
		<trkpt lat="47.4406832177" lon="11.0335692856">
			<ele>1336.85</ele>
			<time>2012-07-26T13:55:02Z</time>
		</trkpt>
		<trkpt lat="47.4407550506" lon="11.03388872">
			<ele>1335.41</ele>
			<time>2012-07-26T13:55:11Z</time>
		</trkpt>
		<trkpt lat="47.4411655124" lon="11.0343910474">
			<ele>1310.9</ele>
			<time>2012-07-26T13:57:25Z</time>
		</trkpt>
		<trkpt lat="47.4413753953" lon="11.0351462569">
			<ele>1268.6</ele>
			<time>2012-07-26T14:01:08Z</time>
		</trkpt>
		<trkpt lat="47.4412364233" lon="11.035267543">
			<ele>1266.67</ele>
			<time>2012-07-26T14:01:17Z</time>
		</trkpt>
		<trkpt lat="47.4411352538" lon="11.0353987198">
			<ele>1264.27</ele>
			<time>2012-07-26T14:01:28Z</time>
		</trkpt>
		<trkpt lat="47.443139283" lon="11.0382310487">
			<ele>1222.45</ele>
			<time>2012-07-26T14:06:04Z</time>
		</trkpt>
		<trkpt lat="47.443155041" lon="11.0383716132">
			<ele>1220.05</ele>
			<time>2012-07-26T14:06:15Z</time>
		</trkpt>
		<trkpt lat="47.4431570526" lon="11.0383965913">
			<ele>1220.53</ele>
			<time>2012-07-26T14:06:17Z</time>
		</trkpt>
		<trkpt lat="47.4432510138" lon="11.038581077">
			<ele>1219.09</ele>
			<time>2012-07-26T14:06:28Z</time>
		</trkpt>
		<trkpt lat="47.4434965197" lon="11.0388002638">
			<ele>1217.65</ele>
			<time>2012-07-26T14:06:38Z</time>
		</trkpt>
		<trkpt lat="47.4435409438" lon="11.0388287622">
			<ele>1216.69</ele>
			<time>2012-07-26T14:06:50Z</time>
		</trkpt>
		<trkpt lat="47.4435516726" lon="11.0388335399">
			<ele>1216.69</ele>
			<time>2012-07-26T14:06:59Z</time>
		</trkpt>
		<trkpt lat="47.4435494095" lon="11.038841838">
			<ele>1217.17</ele>
			<time>2012-07-26T14:07:02Z</time>
		</trkpt>
		<trkpt lat="47.4435439613" lon="11.0388735216">
			<ele>1216.69</ele>
			<time>2012-07-26T14:07:03Z</time>
		</trkpt>
		<trkpt lat="47.4435556959" lon="11.0388661455">
			<ele>1216.69</ele>
			<time>2012-07-26T14:07:10Z</time>
		</trkpt>
		<trkpt lat="47.4435868766" lon="11.0388782155">
			<ele>1214.76</ele>
			<time>2012-07-26T14:07:20Z</time>
		</trkpt>
		<trkpt lat="47.4437768105" lon="11.0389523115">
			<ele>1215.24</ele>
			<time>2012-07-26T14:07:24Z</time>
		</trkpt>
		<trkpt lat="47.4438143615" lon="11.0389827378">
			<ele>1214.76</ele>
			<time>2012-07-26T14:07:34Z</time>
		</trkpt>
		<trkpt lat="47.4438804947" lon="11.0391129926">
			<ele>1209.48</ele>
			<time>2012-07-26T14:09:08Z</time>
		</trkpt>
		<trkpt lat="47.4438310415" lon="11.0392048582">
			<ele>1206.11</ele>
			<time>2012-07-26T14:09:29Z</time>
		</trkpt>
		<trkpt lat="47.4449102115" lon="11.0409244057">
			<ele>1163.33</ele>
			<time>2012-07-26T14:19:39Z</time>
		</trkpt>
		<trkpt lat="47.447918728" lon="11.0443613213">
			<ele>1090.75</ele>
			<time>2012-07-26T14:30:54Z</time>
		</trkpt>
		<trkpt lat="47.4479603022" lon="11.0443478264">
			<ele>1091.23</ele>
			<time>2012-07-26T14:30:56Z</time>
		</trkpt>
		<trkpt lat="47.4483191315" lon="11.0444588866">
			<ele>1090.75</ele>
			<time>2012-07-26T14:31:10Z</time>
		</trkpt>
		<trkpt lat="47.4487221334" lon="11.0441639274">
			<ele>1075.85</ele>
			<time>2012-07-26T14:36:23Z</time>
		</trkpt>
		<trkpt lat="47.448717691" lon="11.0441484209">
			<ele>1074.89</ele>
			<time>2012-07-26T14:36:31Z</time>
		</trkpt>
		<trkpt lat="47.4487402383" lon="11.0440660268">
			<ele>1072.49</ele>
			<time>2012-07-26T14:36:40Z</time>
		</trkpt>
		<trkpt lat="47.4487496261" lon="11.0440034978">
			<ele>1070.57</ele>
			<time>2012-07-26T14:36:48Z</time>
		</trkpt>
		<trkpt lat="47.448798744" lon="11.0438737459">
			<ele>1068.16</ele>
			<time>2012-07-26T14:36:59Z</time>
		</trkpt>
		<trkpt lat="47.448798744" lon="11.0438496061">
			<ele>1067.68</ele>
			<time>2012-07-26T14:37:03Z</time>
		</trkpt>
		<trkpt lat="47.4487746041" lon="11.0436973069">
			<ele>1066.24</ele>
			<time>2012-07-26T14:37:11Z</time>
		</trkpt>
		<trkpt lat="47.4487616122" lon="11.0434852447">
			<ele>1063.84</ele>
			<time>2012-07-26T14:37:21Z</time>
		</trkpt>
		<trkpt lat="47.4487798009" lon="11.0433476139">
			<ele>1062.39</ele>
			<time>2012-07-26T14:37:29Z</time>
		</trkpt>
		<trkpt lat="47.448788099" lon="11.0433306824">
			<ele>1062.39</ele>
			<time>2012-07-26T14:37:43Z</time>
		</trkpt>
		<trkpt lat="47.448826991" lon="11.0433129128">
			<ele>1062.39</ele>
			<time>2012-07-26T14:37:46Z</time>
		</trkpt>
		<trkpt lat="47.4488353729" lon="11.0432909522">
			<ele>1062.39</ele>
			<time>2012-07-26T14:37:50Z</time>
		</trkpt>
		<trkpt lat="47.4488438386" lon="11.0432740208">
			<ele>1060.95</ele>
			<time>2012-07-26T14:37:59Z</time>
		</trkpt>
		<trkpt lat="47.4488438386" lon="11.0432740208">
			<ele>1060.95</ele>
			<time>2012-07-26T14:38:14Z</time>
		</trkpt>
		<trkpt lat="47.4488380551" lon="11.0432817321">
			<ele>1060.95</ele>
			<time>2012-07-26T14:38:33Z</time>
		</trkpt>
		<trkpt lat="47.4488380551" lon="11.0432817321">
			<ele>1060.47</ele>
			<time>2012-07-26T14:38:53Z</time>
		</trkpt>
		<trkpt lat="47.448833948" lon="11.043280391">
			<ele>1060.47</ele>
			<time>2012-07-26T14:39:14Z</time>
		</trkpt>
		<trkpt lat="47.4488143343" lon="11.0432579275">
			<ele>1060.95</ele>
			<time>2012-07-26T14:39:35Z</time>
		</trkpt>
		<trkpt lat="47.448826991" lon="11.0432458576">
			<ele>1059.99</ele>
			<time>2012-07-26T14:39:45Z</time>
		</trkpt>
		<trkpt lat="47.4488639552" lon="11.0431811493">
			<ele>1058.55</ele>
			<time>2012-07-26T14:39:53Z</time>
		</trkpt>
		<trkpt lat="47.4488921184" lon="11.0431431793">
			<ele>1057.59</ele>
			<time>2012-07-26T14:39:57Z</time>
		</trkpt>
		<trkpt lat="47.4489827268" lon="11.0430458654">
			<ele>1055.67</ele>
			<time>2012-07-26T14:40:09Z</time>
		</trkpt>
		<trkpt lat="47.4490100518" lon="11.0429560952">
			<ele>1053.74</ele>
			<time>2012-07-26T14:40:18Z</time>
		</trkpt>
		<trkpt lat="47.4490671325" lon="11.0429076478">
			<ele>1052.3</ele>
			<time>2012-07-26T14:40:24Z</time>
		</trkpt>
		<trkpt lat="47.4491240457" lon="11.0428110044">
			<ele>1050.38</ele>
			<time>2012-07-26T14:40:34Z</time>
		</trkpt>
		<trkpt lat="47.4491387978" lon="11.0427760519">
			<ele>1048.94</ele>
			<time>2012-07-26T14:40:42Z</time>
		</trkpt>
		<trkpt lat="47.4492543843" lon="11.0427897144">
			<ele>1047.49</ele>
			<time>2012-07-26T14:40:48Z</time>
		</trkpt>
		<trkpt lat="47.4492873251" lon="11.0427910555">
			<ele>1045.57</ele>
			<time>2012-07-26T14:40:58Z</time>
		</trkpt>
		<trkpt lat="47.4493345153" lon="11.0427638143">
			<ele>1043.65</ele>
			<time>2012-07-26T14:41:07Z</time>
		</trkpt>
		<trkpt lat="47.4495500978" lon="11.0428243317">
			<ele>1041.25</ele>
			<time>2012-07-26T14:41:18Z</time>
		</trkpt>
		<trkpt lat="47.449580105" lon="11.0428175423">
			<ele>1040.76</ele>
			<time>2012-07-26T14:41:21Z</time>
		</trkpt>
		<trkpt lat="47.4497468211" lon="11.0429115873">
			<ele>1038.36</ele>
			<time>2012-07-26T14:41:32Z</time>
		</trkpt>
		<trkpt lat="47.4498093501" lon="11.0429558437">
			<ele>1036.44</ele>
			<time>2012-07-26T14:41:41Z</time>
		</trkpt>
		<trkpt lat="47.4498094339" lon="11.0429638904">
			<ele>1034.04</ele>
			<time>2012-07-26T14:41:52Z</time>
		</trkpt>
		<trkpt lat="47.4498094339" lon="11.0429638904">
			<ele>1032.59</ele>
			<time>2012-07-26T14:41:58Z</time>
		</trkpt>
		<trkpt lat="47.4498531874" lon="11.0431307741">
			<ele>1029.71</ele>
			<time>2012-07-26T14:42:08Z</time>
		</trkpt>
		<trkpt lat="47.4497817736" lon="11.0431568418">
			<ele>1027.79</ele>
			<time>2012-07-26T14:42:18Z</time>
		</trkpt>
		<trkpt lat="47.4497734755" lon="11.0431356356">
			<ele>1025.86</ele>
			<time>2012-07-26T14:42:25Z</time>
		</trkpt>
		<trkpt lat="47.4498270359" lon="11.0431444366">
			<ele>1024.42</ele>
			<time>2012-07-26T14:42:34Z</time>
		</trkpt>
		<trkpt lat="47.4498646706" lon="11.0431375634">
			<ele>1023.46</ele>
			<time>2012-07-26T14:42:40Z</time>
		</trkpt>
		<trkpt lat="47.4499031436" lon="11.0431359708">
			<ele>1022.02</ele>
			<time>2012-07-26T14:42:43Z</time>
		</trkpt>
		<trkpt lat="47.4500307161" lon="11.0431814007">
			<ele>1019.62</ele>
			<time>2012-07-26T14:42:54Z</time>
		</trkpt>
		<trkpt lat="47.4500629026" lon="11.0433476977">
			<ele>1017.69</ele>
			<time>2012-07-26T14:43:02Z</time>
		</trkpt>
		<trkpt lat="47.4500328116" lon="11.0433601867">
			<ele>1015.29</ele>
			<time>2012-07-26T14:43:11Z</time>
		</trkpt>
		<trkpt lat="47.4500888027" lon="11.0433500446">
			<ele>1012.89</ele>
			<time>2012-07-26T14:43:21Z</time>
		</trkpt>
		<trkpt lat="47.4501427822" lon="11.0433871765">
			<ele>1010.96</ele>
			<time>2012-07-26T14:43:29Z</time>
		</trkpt>
		<trkpt lat="47.4501374178" lon="11.0434113164">
			<ele>1010</ele>
			<time>2012-07-26T14:43:32Z</time>
		</trkpt>
		<trkpt lat="47.4501106795" lon="11.0434296727">
			<ele>1008.56</ele>
			<time>2012-07-26T14:43:40Z</time>
		</trkpt>
		<trkpt lat="47.4501365796" lon="11.0434270743">
			<ele>1008.08</ele>
			<time>2012-07-26T14:43:42Z</time>
		</trkpt>
		<trkpt lat="47.4502386712" lon="11.043476779">
			<ele>1004.72</ele>
			<time>2012-07-26T14:43:53Z</time>
		</trkpt>
		<trkpt lat="47.4502617214" lon="11.0435298365">
			<ele>1001.83</ele>
			<time>2012-07-26T14:44:02Z</time>
		</trkpt>
		<trkpt lat="47.4502104241" lon="11.0436154995">
			<ele>1000.39</ele>
			<time>2012-07-26T14:44:09Z</time>
		</trkpt>
		<trkpt lat="47.4502927344" lon="11.0436811298">
			<ele>998.47</ele>
			<time>2012-07-26T14:44:20Z</time>
		</trkpt>
		<trkpt lat="47.4503754638" lon="11.0437140707">
			<ele>996.06</ele>
			<time>2012-07-26T14:44:28Z</time>
		</trkpt>
		<trkpt lat="47.4504101649" lon="11.0436989833">
			<ele>995.1</ele>
			<time>2012-07-26T14:44:31Z</time>
		</trkpt>
		<trkpt lat="47.4504386634" lon="11.0437197704">
			<ele>995.1</ele>
			<time>2012-07-26T14:44:34Z</time>
		</trkpt>
		<trkpt lat="47.4505161121" lon="11.0437332653">
			<ele>994.62</ele>
			<time>2012-07-26T14:44:44Z</time>
		</trkpt>
		<trkpt lat="47.4506226461" lon="11.0436863266">
			<ele>994.62</ele>
			<time>2012-07-26T14:44:55Z</time>
		</trkpt>
		<trkpt lat="47.4507203791" lon="11.0437149089">
			<ele>994.62</ele>
			<time>2012-07-26T14:45:02Z</time>
		</trkpt>
		<trkpt lat="47.450887179" lon="11.0437414795">
			<ele>994.62</ele>
			<time>2012-07-26T14:45:12Z</time>
		</trkpt>
		<trkpt lat="47.4510381371" lon="11.0437889211">
			<ele>994.14</ele>
			<time>2012-07-26T14:45:20Z</time>
		</trkpt>
		<trkpt lat="47.4511983991" lon="11.0437211115">
			<ele>993.18</ele>
			<time>2012-07-26T14:45:30Z</time>
		</trkpt>
		<trkpt lat="47.451207703" lon="11.0437247157">
			<ele>992.7</ele>
			<time>2012-07-26T14:45:31Z</time>
		</trkpt>
		<trkpt lat="47.451338293" lon="11.0436779447">
			<ele>991.26</ele>
			<time>2012-07-26T14:45:41Z</time>
		</trkpt>
		<trkpt lat="47.4514465034" lon="11.0437181778">
			<ele>989.33</ele>
			<time>2012-07-26T14:45:51Z</time>
		</trkpt>
		<trkpt lat="47.4515333399" lon="11.0436878353">
			<ele>986.45</ele>
			<time>2012-07-26T14:46:01Z</time>
		</trkpt>
		<trkpt lat="47.4516127165" lon="11.0436346103">
			<ele>984.05</ele>
			<time>2012-07-26T14:46:12Z</time>
		</trkpt>
		<trkpt lat="47.4516651873" lon="11.0435916111">
			<ele>981.64</ele>
			<time>2012-07-26T14:46:20Z</time>
		</trkpt>
		<trkpt lat="47.4517884851" lon="11.0435131565">
			<ele>979.72</ele>
			<time>2012-07-26T14:46:30Z</time>
		</trkpt>
		<trkpt lat="47.4518534448" lon="11.0434460174">
			<ele>978.76</ele>
			<time>2012-07-26T14:46:37Z</time>
		</trkpt>
		<trkpt lat="47.4518796802" lon="11.0434108973">
			<ele>978.76</ele>
			<time>2012-07-26T14:46:39Z</time>
		</trkpt>
		<trkpt lat="47.4519670196" lon="11.0433682334">
			<ele>975.39</ele>
			<time>2012-07-26T14:46:46Z</time>
		</trkpt>
		<trkpt lat="47.45215578" lon="11.0434099752">
			<ele>972.99</ele>
			<time>2012-07-26T14:46:57Z</time>
		</trkpt>
		<trkpt lat="47.4522537645" lon="11.0434580036">
			<ele>971.55</ele>
			<time>2012-07-26T14:47:03Z</time>
		</trkpt>
		<trkpt lat="47.4523148686" lon="11.0435303394">
			<ele>970.11</ele>
			<time>2012-07-26T14:47:08Z</time>
		</trkpt>
		<trkpt lat="47.4524960853" lon="11.0435680579">
			<ele>968.18</ele>
			<time>2012-07-26T14:47:18Z</time>
		</trkpt>
		<trkpt lat="47.4526519887" lon="11.0436554812">
			<ele>966.26</ele>
			<time>2012-07-26T14:47:28Z</time>
		</trkpt>
		<trkpt lat="47.452771347" lon="11.0436999891">
			<ele>966.26</ele>
			<time>2012-07-26T14:47:36Z</time>
		</trkpt>
		<trkpt lat="47.4528818205" lon="11.0437899269">
			<ele>965.78</ele>
			<time>2012-07-26T14:47:46Z</time>
		</trkpt>
		<trkpt lat="47.4528870173" lon="11.0437874962">
			<ele>966.26</ele>
			<time>2012-07-26T14:47:47Z</time>
		</trkpt>
		<trkpt lat="47.4529446848" lon="11.0437772702">
			<ele>965.78</ele>
			<time>2012-07-26T14:47:51Z</time>
		</trkpt>
		<trkpt lat="47.4530461058" lon="11.0437978059">
			<ele>965.78</ele>
			<time>2012-07-26T14:48:00Z</time>
		</trkpt>
		<trkpt lat="47.4530799687" lon="11.0437844787">
			<ele>965.78</ele>
			<time>2012-07-26T14:48:04Z</time>
		</trkpt>
		<trkpt lat="47.4531631172" lon="11.0437786113">
			<ele>964.34</ele>
			<time>2012-07-26T14:48:12Z</time>
		</trkpt>
		<trkpt lat="47.4532220419" lon="11.0437828023">
			<ele>964.82</ele>
			<time>2012-07-26T14:48:16Z</time>
		</trkpt>
		<trkpt lat="47.4533872493" lon="11.043740809">
			<ele>964.34</ele>
			<time>2012-07-26T14:48:27Z</time>
		</trkpt>
		<trkpt lat="47.4534506164" lon="11.0437496938">
			<ele>964.34</ele>
			<time>2012-07-26T14:48:36Z</time>
		</trkpt>
		<trkpt lat="47.4534915201" lon="11.0437556449">
			<ele>964.34</ele>
			<time>2012-07-26T14:48:40Z</time>
		</trkpt>
		<trkpt lat="47.4535769317" lon="11.043748688">
			<ele>964.82</ele>
			<time>2012-07-26T14:48:45Z</time>
		</trkpt>
		<trkpt lat="47.4536274746" lon="11.0437679663">
			<ele>964.82</ele>
			<time>2012-07-26T14:48:48Z</time>
		</trkpt>
		<trkpt lat="47.4537542928" lon="11.0437948722">
			<ele>964.82</ele>
			<time>2012-07-26T14:48:56Z</time>
		</trkpt>
		<trkpt lat="47.4538999703" lon="11.0438920185">
			<ele>964.82</ele>
			<time>2012-07-26T14:49:06Z</time>
		</trkpt>
		<trkpt lat="47.4539225176" lon="11.0439037532">
			<ele>964.82</ele>
			<time>2012-07-26T14:49:08Z</time>
		</trkpt>
		<trkpt lat="47.453939449" lon="11.0439008195">
			<ele>964.82</ele>
			<time>2012-07-26T14:49:09Z</time>
		</trkpt>
		<trkpt lat="47.4540822767" lon="11.0439087823">
			<ele>965.3</ele>
			<time>2012-07-26T14:49:21Z</time>
		</trkpt>
		<trkpt lat="47.454089988" lon="11.0439040046">
			<ele>964.82</ele>
			<time>2012-07-26T14:49:22Z</time>
		</trkpt>
		<trkpt lat="47.4542390183" lon="11.0438530426">
			<ele>964.82</ele>
			<time>2012-07-26T14:49:32Z</time>
		</trkpt>
		<trkpt lat="47.4543181434" lon="11.0438662022">
			<ele>965.3</ele>
			<time>2012-07-26T14:49:37Z</time>
		</trkpt>
		<trkpt lat="47.4544566963" lon="11.0439314134">
			<ele>964.82</ele>
			<time>2012-07-26T14:49:47Z</time>
		</trkpt>
		<trkpt lat="47.4546458758" lon="11.0439957026">
			<ele>965.78</ele>
			<time>2012-07-26T14:49:56Z</time>
		</trkpt>
		<trkpt lat="47.4547164515" lon="11.0440134723">
			<ele>965.78</ele>
			<time>2012-07-26T14:50:00Z</time>
		</trkpt>
		<trkpt lat="47.4548384082" lon="11.044053873">
			<ele>965.3</ele>
			<time>2012-07-26T14:50:11Z</time>
		</trkpt>
		<trkpt lat="47.4549612869" lon="11.0441586468">
			<ele>966.26</ele>
			<time>2012-07-26T14:50:21Z</time>
		</trkpt>
		<trkpt lat="47.4550147634" lon="11.0441939346">
			<ele>965.78</ele>
			<time>2012-07-26T14:50:25Z</time>
		</trkpt>
		<trkpt lat="47.4550914578" lon="11.044231737">
			<ele>965.78</ele>
			<time>2012-07-26T14:50:31Z</time>
		</trkpt>
		<trkpt lat="47.4553217925" lon="11.0442209244">
			<ele>966.26</ele>
			<time>2012-07-26T14:50:43Z</time>
		</trkpt>
		<trkpt lat="47.4554538075" lon="11.0442531947">
			<ele>966.26</ele>
			<time>2012-07-26T14:50:51Z</time>
		</trkpt>
		<trkpt lat="47.4554928672" lon="11.0442855489">
			<ele>966.26</ele>
			<time>2012-07-26T14:50:55Z</time>
		</trkpt>
		<trkpt lat="47.4555752613" lon="11.04435822">
			<ele>966.26</ele>
			<time>2012-07-26T14:51:01Z</time>
		</trkpt>
		<trkpt lat="47.4556890875" lon="11.0444753151">
			<ele>966.26</ele>
			<time>2012-07-26T14:51:11Z</time>
		</trkpt>
		<trkpt lat="47.4558184203" lon="11.0445716232">
			<ele>966.26</ele>
			<time>2012-07-26T14:51:21Z</time>
		</trkpt>
		<trkpt lat="47.4558631796" lon="11.0446057376">
			<ele>966.26</ele>
			<time>2012-07-26T14:51:24Z</time>
		</trkpt>
		<trkpt lat="47.4560062587" lon="11.0447044764">
			<ele>966.74</ele>
			<time>2012-07-26T14:51:35Z</time>
		</trkpt>
		<trkpt lat="47.456025118" lon="11.0447198991">
			<ele>966.74</ele>
			<time>2012-07-26T14:51:37Z</time>
		</trkpt>
		<trkpt lat="47.4562157225" lon="11.0447550192">
			<ele>966.74</ele>
			<time>2012-07-26T14:51:45Z</time>
		</trkpt>
		<trkpt lat="47.4563398585" lon="11.0448950808">
			<ele>966.74</ele>
			<time>2012-07-26T14:51:56Z</time>
		</trkpt>
		<trkpt lat="47.4564627372" lon="11.0449787322">
			<ele>967.22</ele>
			<time>2012-07-26T14:52:05Z</time>
		</trkpt>
		<trkpt lat="47.4565397669" lon="11.0449914727">
			<ele>967.22</ele>
			<time>2012-07-26T14:52:10Z</time>
		</trkpt>
		<trkpt lat="47.4566498213" lon="11.0449474677">
			<ele>967.22</ele>
			<time>2012-07-26T14:52:20Z</time>
		</trkpt>
		<trkpt lat="47.456718469" lon="11.0448835138">
			<ele>967.22</ele>
			<time>2012-07-26T14:52:27Z</time>
		</trkpt>
		<trkpt lat="47.4567444529" lon="11.0448126029">
			<ele>967.22</ele>
			<time>2012-07-26T14:52:32Z</time>
		</trkpt>
		<trkpt lat="47.4568749592" lon="11.0446998663">
			<ele>966.74</ele>
			<time>2012-07-26T14:52:42Z</time>
		</trkpt>
		<trkpt lat="47.4570156075" lon="11.0446466412">
			<ele>967.22</ele>
			<time>2012-07-26T14:52:52Z</time>
		</trkpt>
		<trkpt lat="47.4571485445" lon="11.0446337331">
			<ele>966.74</ele>
			<time>2012-07-26T14:53:02Z</time>
		</trkpt>
		<trkpt lat="47.4572409969" lon="11.0445907339">
			<ele>967.22</ele>
			<time>2012-07-26T14:53:07Z</time>
		</trkpt>
		<trkpt lat="47.4573724251" lon="11.0444929171">
			<ele>967.7</ele>
			<time>2012-07-26T14:53:18Z</time>
		</trkpt>
		<trkpt lat="47.4573994149" lon="11.0443956871">
			<ele>967.22</ele>
			<time>2012-07-26T14:53:27Z</time>
		</trkpt>
		<trkpt lat="47.4574181065" lon="11.0443710443">
			<ele>966.74</ele>
			<time>2012-07-26T14:53:28Z</time>
		</trkpt>
		<trkpt lat="47.4574424978" lon="11.044304492">
			<ele>966.74</ele>
			<time>2012-07-26T14:53:32Z</time>
		</trkpt>
		<trkpt lat="47.457490107" lon="11.0441241972">
			<ele>967.22</ele>
			<time>2012-07-26T14:53:43Z</time>
		</trkpt>
		<trkpt lat="47.4575156718" lon="11.0440790188">
			<ele>967.22</ele>
			<time>2012-07-26T14:53:47Z</time>
		</trkpt>
		<trkpt lat="47.457575351" lon="11.0440154839">
			<ele>966.74</ele>
			<time>2012-07-26T14:53:51Z</time>
		</trkpt>
		<trkpt lat="47.4577006605" lon="11.0439558048">
			<ele>966.26</ele>
			<time>2012-07-26T14:54:02Z</time>
		</trkpt>
		<trkpt lat="47.4577844795" lon="11.0439396277">
			<ele>965.3</ele>
			<time>2012-07-26T14:54:12Z</time>
		</trkpt>
		<trkpt lat="47.4577970523" lon="11.0439395439">
			<ele>965.3</ele>
			<time>2012-07-26T14:54:13Z</time>
		</trkpt>
		<trkpt lat="47.4579078611" lon="11.043932084">
			<ele>965.3</ele>
			<time>2012-07-26T14:54:21Z</time>
		</trkpt>
		<trkpt lat="47.4580225255" lon="11.0439643543">
			<ele>964.82</ele>
			<time>2012-07-26T14:54:28Z</time>
		</trkpt>
		<trkpt lat="47.4582013115" lon="11.0439656116">
			<ele>965.3</ele>
			<time>2012-07-26T14:54:36Z</time>
		</trkpt>
		<trkpt lat="47.4583276268" lon="11.0439832974">
			<ele>964.82</ele>
			<time>2012-07-26T14:54:44Z</time>
		</trkpt>
		<trkpt lat="47.4584320653" lon="11.0439685453">
			<ele>963.38</ele>
			<time>2012-07-26T14:54:50Z</time>
		</trkpt>
		<trkpt lat="47.4586209934" lon="11.0440146457">
			<ele>961.46</ele>
			<time>2012-07-26T14:55:02Z</time>
		</trkpt>
		<trkpt lat="47.4586767331" lon="11.0440561362">
			<ele>960.49</ele>
			<time>2012-07-26T14:55:07Z</time>
		</trkpt>
		<trkpt lat="47.458756445" lon="11.0440977942">
			<ele>959.05</ele>
			<time>2012-07-26T14:55:14Z</time>
		</trkpt>
		<trkpt lat="47.458816627" lon="11.0441022366">
			<ele>958.57</ele>
			<time>2012-07-26T14:55:18Z</time>
		</trkpt>
		<trkpt lat="47.4589280225" lon="11.0440819524">
			<ele>957.61</ele>
			<time>2012-07-26T14:55:26Z</time>
		</trkpt>
		<trkpt lat="47.4590725265" lon="11.044064099">
			<ele>955.69</ele>
			<time>2012-07-26T14:55:37Z</time>
		</trkpt>
		<trkpt lat="47.4591942318" lon="11.044035852">
			<ele>954.73</ele>
			<time>2012-07-26T14:55:46Z</time>
		</trkpt>
		<trkpt lat="47.4593026936" lon="11.0439404659">
			<ele>954.25</ele>
			<time>2012-07-26T14:55:55Z</time>
		</trkpt>
		<trkpt lat="47.4593716767" lon="11.0438142344">
			<ele>952.8</ele>
			<time>2012-07-26T14:56:04Z</time>
		</trkpt>
		<trkpt lat="47.4594371393" lon="11.0437301639">
			<ele>951.84</ele>
			<time>2012-07-26T14:56:10Z</time>
		</trkpt>
		<trkpt lat="47.4595530611" lon="11.0436686408">
			<ele>951.36</ele>
			<time>2012-07-26T14:56:15Z</time>
		</trkpt>
		<trkpt lat="47.4596642051" lon="11.0436549783">
			<ele>951.36</ele>
			<time>2012-07-26T14:56:21Z</time>
		</trkpt>
		<trkpt lat="47.4596871715" lon="11.0436612647">
			<ele>951.36</ele>
			<time>2012-07-26T14:56:23Z</time>
		</trkpt>
		<trkpt lat="47.4597227108" lon="11.0436423216">
			<ele>950.88</ele>
			<time>2012-07-26T14:56:27Z</time>
		</trkpt>
		<trkpt lat="47.4598056078" lon="11.0436222889">
			<ele>949.44</ele>
			<time>2012-07-26T14:56:35Z</time>
		</trkpt>
		<trkpt lat="47.4598818831" lon="11.0436058603">
			<ele>948</ele>
			<time>2012-07-26T14:56:45Z</time>
		</trkpt>
		<trkpt lat="47.4600371998" lon="11.043575434">
			<ele>945.11</ele>
			<time>2012-07-26T14:56:56Z</time>
		</trkpt>
		<trkpt lat="47.4601811171" lon="11.0435604304">
			<ele>942.23</ele>
			<time>2012-07-26T14:57:06Z</time>
		</trkpt>
		<trkpt lat="47.4603155628" lon="11.04361156">
			<ele>939.35</ele>
			<time>2012-07-26T14:57:18Z</time>
		</trkpt>
		<trkpt lat="47.4604083505" lon="11.0436136555">
			<ele>936.94</ele>
			<time>2012-07-26T14:57:28Z</time>
		</trkpt>
		<trkpt lat="47.4604515173" lon="11.0436192714">
			<ele>935.98</ele>
			<time>2012-07-26T14:57:32Z</time>
		</trkpt>
		<trkpt lat="47.4605124537" lon="11.0436586663">
			<ele>935.02</ele>
			<time>2012-07-26T14:57:36Z</time>
		</trkpt>
		<trkpt lat="47.4605484959" lon="11.0436878353">
			<ele>934.06</ele>
			<time>2012-07-26T14:57:40Z</time>
		</trkpt>
		<trkpt lat="47.4605759047" lon="11.0436948761">
			<ele>933.1</ele>
			<time>2012-07-26T14:57:42Z</time>
		</trkpt>
		<trkpt lat="47.4607030582" lon="11.0437688045">
			<ele>931.17</ele>
			<time>2012-07-26T14:57:52Z</time>
		</trkpt>
		<trkpt lat="47.4608298764" lon="11.0438163299">
			<ele>929.25</ele>
			<time>2012-07-26T14:58:02Z</time>
		</trkpt>
		<trkpt lat="47.4609079119" lon="11.0439046752">
			<ele>927.33</ele>
			<time>2012-07-26T14:58:12Z</time>
		</trkpt>
		<trkpt lat="47.4610328861" lon="11.0440086108">
			<ele>924.45</ele>
			<time>2012-07-26T14:58:23Z</time>
		</trkpt>
		<trkpt lat="47.4610670842" lon="11.044169208">
			<ele>922.04</ele>
			<time>2012-07-26T14:58:34Z</time>
		</trkpt>
		<trkpt lat="47.4610655755" lon="11.0442140512">
			<ele>921.08</ele>
			<time>2012-07-26T14:58:37Z</time>
		</trkpt>
		<trkpt lat="47.4610931519" lon="11.044413792">
			<ele>918.68</ele>
			<time>2012-07-26T14:58:47Z</time>
		</trkpt>
		<trkpt lat="47.4611275177" lon="11.0445994511">
			<ele>915.79</ele>
			<time>2012-07-26T14:58:59Z</time>
		</trkpt>
		<trkpt lat="47.4611438625" lon="11.0447255988">
			<ele>913.87</ele>
			<time>2012-07-26T14:59:07Z</time>
		</trkpt>
		<trkpt lat="47.4611077365" lon="11.0449117608">
			<ele>911.47</ele>
			<time>2012-07-26T14:59:17Z</time>
		</trkpt>
		<trkpt lat="47.4611045513" lon="11.0449250881">
			<ele>911.95</ele>
			<time>2012-07-26T14:59:18Z</time>
		</trkpt>
		<trkpt lat="47.4609404337" lon="11.045033047">
			<ele>908.58</ele>
			<time>2012-07-26T14:59:30Z</time>
		</trkpt>
		<trkpt lat="47.4608034734" lon="11.0451252479">
			<ele>907.14</ele>
			<time>2012-07-26T14:59:40Z</time>
		</trkpt>
		<trkpt lat="47.4607793335" lon="11.0451720189">
			<ele>904.74</ele>
			<time>2012-07-26T14:59:49Z</time>
		</trkpt>
		<trkpt lat="47.4607442971" lon="11.0452493001">
			<ele>902.82</ele>
			<time>2012-07-26T15:00:01Z</time>
		</trkpt>
		<trkpt lat="47.4605707917" lon="11.0453815665">
			<ele>900.41</ele>
			<time>2012-07-26T15:00:11Z</time>
		</trkpt>
		<trkpt lat="47.4604741484" lon="11.0454184469">
			<ele>898.49</ele>
			<time>2012-07-26T15:00:21Z</time>
		</trkpt>
		<trkpt lat="47.4603366852" lon="11.04547536">
			<ele>896.57</ele>
			<time>2012-07-26T15:00:31Z</time>
		</trkpt>
		<trkpt lat="47.4602418859" lon="11.045486927">
			<ele>894.16</ele>
			<time>2012-07-26T15:00:40Z</time>
		</trkpt>
		<trkpt lat="47.4601408001" lon="11.0455381405">
			<ele>891.76</ele>
			<time>2012-07-26T15:00:50Z</time>
		</trkpt>
		<trkpt lat="47.4601110443" lon="11.0456176847">
			<ele>888.88</ele>
			<time>2012-07-26T15:01:00Z</time>
		</trkpt>
		<trkpt lat="47.460107021" lon="11.0457326006">
			<ele>885.51</ele>
			<time>2012-07-26T15:01:11Z</time>
		</trkpt>
		<trkpt lat="47.4601419736" lon="11.0457969736">
			<ele>882.63</ele>
			<time>2012-07-26T15:01:20Z</time>
		</trkpt>
		<trkpt lat="47.4601457454" lon="11.0458061937">
			<ele>882.63</ele>
			<time>2012-07-26T15:01:21Z</time>
		</trkpt>
		<trkpt lat="47.460199222" lon="11.0458665434">
			<ele>880.71</ele>
			<time>2012-07-26T15:01:30Z</time>
		</trkpt>
		<trkpt lat="47.4602106214" lon="11.045866292">
			<ele>879.74</ele>
			<time>2012-07-26T15:01:31Z</time>
		</trkpt>
		<trkpt lat="47.4602323305" lon="11.0458825529">
			<ele>879.74</ele>
			<time>2012-07-26T15:01:33Z</time>
		</trkpt>
		<trkpt lat="47.4602651875" lon="11.0459104646">
			<ele>878.78</ele>
			<time>2012-07-26T15:01:36Z</time>
		</trkpt>
		<trkpt lat="47.4603497609" lon="11.0459829681">
			<ele>877.34</ele>
			<time>2012-07-26T15:01:46Z</time>
		</trkpt>
		<trkpt lat="47.4603904132" lon="11.0460045096">
			<ele>876.38</ele>
			<time>2012-07-26T15:01:51Z</time>
		</trkpt>
		<trkpt lat="47.4605026469" lon="11.0460227821">
			<ele>874.94</ele>
			<time>2012-07-26T15:02:02Z</time>
		</trkpt>
		<trkpt lat="47.4605573807" lon="11.0460076947">
			<ele>873.98</ele>
			<time>2012-07-26T15:02:08Z</time>
		</trkpt>
		<trkpt lat="47.4606277887" lon="11.0459795315">
			<ele>873.01</ele>
			<time>2012-07-26T15:02:14Z</time>
		</trkpt>
		<trkpt lat="47.4607811775" lon="11.0458580777">
			<ele>871.57</ele>
			<time>2012-07-26T15:02:25Z</time>
		</trkpt>
		<trkpt lat="47.4609064031" lon="11.0458002426">
			<ele>871.09</ele>
			<time>2012-07-26T15:02:36Z</time>
		</trkpt>
		<trkpt lat="47.4609747995" lon="11.0457471013">
			<ele>869.65</ele>
			<time>2012-07-26T15:02:43Z</time>
		</trkpt>
		<trkpt lat="47.4610121828" lon="11.0457340255">
			<ele>869.17</ele>
			<time>2012-07-26T15:02:46Z</time>
		</trkpt>
		<trkpt lat="47.4610703532" lon="11.0456801299">
			<ele>868.69</ele>
			<time>2012-07-26T15:02:51Z</time>
		</trkpt>
		<trkpt lat="47.4611466285" lon="11.0456502065">
			<ele>868.69</ele>
			<time>2012-07-26T15:02:55Z</time>
		</trkpt>
		<trkpt lat="47.4612301122" lon="11.0455785412">
			<ele>868.21</ele>
			<time>2012-07-26T15:03:04Z</time>
		</trkpt>
		<trkpt lat="47.4613860995" lon="11.0454769526">
			<ele>867.25</ele>
			<time>2012-07-26T15:03:15Z</time>
		</trkpt>
		<trkpt lat="47.4615270831" lon="11.045410065">
			<ele>866.29</ele>
			<time>2012-07-26T15:03:23Z</time>
		</trkpt>
		<trkpt lat="47.4617065396" lon="11.0453780461">
			<ele>865.8</ele>
			<time>2012-07-26T15:03:32Z</time>
		</trkpt>
		<trkpt lat="47.4618052784" lon="11.0453288443">
			<ele>865.32</ele>
			<time>2012-07-26T15:03:40Z</time>
		</trkpt>
		<trkpt lat="47.4618423264" lon="11.0452622082">
			<ele>864.84</ele>
			<time>2012-07-26T15:03:47Z</time>
		</trkpt>
		<trkpt lat="47.4619157519" lon="11.0451003537">
			<ele>863.4</ele>
			<time>2012-07-26T15:04:00Z</time>
		</trkpt>
		<trkpt lat="47.4619720783" lon="11.0449291952">
			<ele>861.48</ele>
			<time>2012-07-26T15:04:11Z</time>
		</trkpt>
		<trkpt lat="47.4620104674" lon="11.0447807517">
			<ele>859.56</ele>
			<time>2012-07-26T15:04:19Z</time>
		</trkpt>
		<trkpt lat="47.4620180111" lon="11.0446123593">
			<ele>858.11</ele>
			<time>2012-07-26T15:04:30Z</time>
		</trkpt>
		<trkpt lat="47.4620860722" lon="11.0444796737">
			<ele>857.15</ele>
			<time>2012-07-26T15:04:38Z</time>
		</trkpt>
		<trkpt lat="47.4622607511" lon="11.0443023127">
			<ele>856.19</ele>
			<time>2012-07-26T15:04:48Z</time>
		</trkpt>
		<trkpt lat="47.4623382837" lon="11.0441992152">
			<ele>855.23</ele>
			<time>2012-07-26T15:04:59Z</time>
		</trkpt>
		<trkpt lat="47.4623738229" lon="11.0441592336">
			<ele>854.75</ele>
			<time>2012-07-26T15:05:04Z</time>
		</trkpt>
		<trkpt lat="47.4625796825" lon="11.0440363549">
			<ele>854.75</ele>
			<time>2012-07-26T15:05:15Z</time>
		</trkpt>
		<trkpt lat="47.4627078418" lon="11.0439546313">
			<ele>854.27</ele>
			<time>2012-07-26T15:05:25Z</time>
		</trkpt>
		<trkpt lat="47.4628922436" lon="11.0438532941">
			<ele>854.27</ele>
			<time>2012-07-26T15:05:35Z</time>
		</trkpt>
		<trkpt lat="47.4629890546" lon="11.0438252985">
			<ele>853.79</ele>
			<time>2012-07-26T15:05:45Z</time>
		</trkpt>
		<trkpt lat="47.4630903918" lon="11.0437471792">
			<ele>853.31</ele>
			<time>2012-07-26T15:05:53Z</time>
		</trkpt>
		<trkpt lat="47.4632656574" lon="11.0437351093">
			<ele>851.87</ele>
			<time>2012-07-26T15:06:03Z</time>
		</trkpt>
		<trkpt lat="47.4634280987" lon="11.0437470116">
			<ele>849.46</ele>
			<time>2012-07-26T15:06:14Z</time>
		</trkpt>
		<trkpt lat="47.4634280987" lon="11.0437470116">
			<ele>849.46</ele>
			<time>2012-07-26T15:06:15Z</time>
		</trkpt>
		<trkpt lat="47.4635788891" lon="11.0437325109">
			<ele>848.5</ele>
			<time>2012-07-26T15:06:25Z</time>
		</trkpt>
		<trkpt lat="47.463706797" lon="11.0437510349">
			<ele>847.54</ele>
			<time>2012-07-26T15:06:33Z</time>
		</trkpt>
		<trkpt lat="47.4638186954" lon="11.0438953713">
			<ele>847.54</ele>
			<time>2012-07-26T15:06:44Z</time>
		</trkpt>
		<trkpt lat="47.4639543146" lon="11.0440713074">
			<ele>847.54</ele>
			<time>2012-07-26T15:06:57Z</time>
		</trkpt>
		<trkpt lat="47.463982394" lon="11.0442043282">
			<ele>847.06</ele>
			<time>2012-07-26T15:07:01Z</time>
		</trkpt>
		<trkpt lat="47.464112062" lon="11.0444135405">
			<ele>847.06</ele>
			<time>2012-07-26T15:07:11Z</time>
		</trkpt>
		<trkpt lat="47.4642557278" lon="11.044507334">
			<ele>845.14</ele>
			<time>2012-07-26T15:07:23Z</time>
		</trkpt>
		<trkpt lat="47.4642936978" lon="11.0446940828">
			<ele>844.18</ele>
			<time>2012-07-26T15:07:31Z</time>
		</trkpt>
		<trkpt lat="47.4643474258" lon="11.0448192246">
			<ele>843.21</ele>
			<time>2012-07-26T15:07:41Z</time>
		</trkpt>
		<trkpt lat="47.4644040875" lon="11.0448495671">
			<ele>843.21</ele>
			<time>2012-07-26T15:07:47Z</time>
		</trkpt>
		<trkpt lat="47.4646013137" lon="11.0448258463">
			<ele>842.73</ele>
			<time>2012-07-26T15:07:58Z</time>
		</trkpt>
		<trkpt lat="47.464620173" lon="11.044832468">
			<ele>842.73</ele>
			<time>2012-07-26T15:07:59Z</time>
		</trkpt>
		<trkpt lat="47.4647476617" lon="11.0449706856">
			<ele>842.25</ele>
			<time>2012-07-26T15:08:10Z</time>
		</trkpt>
		<trkpt lat="47.4647480808" lon="11.044995496">
			<ele>842.73</ele>
			<time>2012-07-26T15:08:11Z</time>
		</trkpt>
		<trkpt lat="47.4648414552" lon="11.0450733639">
			<ele>842.25</ele>
			<time>2012-07-26T15:08:22Z</time>
		</trkpt>
		<trkpt lat="47.464886466" lon="11.0451325402">
			<ele>842.25</ele>
			<time>2012-07-26T15:08:33Z</time>
		</trkpt>
		<trkpt lat="47.4649631605" lon="11.0451838374">
			<ele>841.77</ele>
			<time>2012-07-26T15:08:41Z</time>
		</trkpt>
		<trkpt lat="47.4650163855" lon="11.0452404153">
			<ele>841.77</ele>
			<time>2012-07-26T15:08:46Z</time>
		</trkpt>
		<trkpt lat="47.4650872964" lon="11.045423476">
			<ele>841.77</ele>
			<time>2012-07-26T15:08:58Z</time>
		</trkpt>
		<trkpt lat="47.4651276972" lon="11.0455055349">
			<ele>841.77</ele>
			<time>2012-07-26T15:09:09Z</time>
		</trkpt>
		<trkpt lat="47.465138007" lon="11.0455524735">
			<ele>841.77</ele>
			<time>2012-07-26T15:09:21Z</time>
		</trkpt>
		<trkpt lat="47.465138007" lon="11.0455524735">
			<ele>841.77</ele>
			<time>2012-07-26T15:09:40Z</time>
		</trkpt>
		<trkpt lat="47.4651437905" lon="11.0455490369">
			<ele>841.77</ele>
			<time>2012-07-26T15:10:03Z</time>
		</trkpt>
		<trkpt lat="47.4651437905" lon="11.0455490369">
			<ele>842.25</ele>
			<time>2012-07-26T15:10:24Z</time>
		</trkpt>
		<trkpt lat="47.4651481491" lon="11.0455456842">
			<ele>842.25</ele>
			<time>2012-07-26T15:10:47Z</time>
		</trkpt>
		<trkpt lat="47.4651481491" lon="11.0455456842">
			<ele>841.77</ele>
			<time>2012-07-26T15:11:01Z</time>
		</trkpt>
		<trkpt lat="47.4651740491" lon="11.0455637053">
			<ele>841.77</ele>
			<time>2012-07-26T15:11:03Z</time>
		</trkpt>
		<trkpt lat="47.4652355723" lon="11.0456430819">
			<ele>841.77</ele>
			<time>2012-07-26T15:11:08Z</time>
		</trkpt>
		<trkpt lat="47.4652728718" lon="11.0457063653">
			<ele>841.77</ele>
			<time>2012-07-26T15:11:12Z</time>
		</trkpt>
		<trkpt lat="47.4653739575" lon="11.0459082853">
			<ele>841.77</ele>
			<time>2012-07-26T15:11:23Z</time>
		</trkpt>
		<trkpt lat="47.4654292781" lon="11.0461041704">
			<ele>840.33</ele>
			<time>2012-07-26T15:11:35Z</time>
		</trkpt>
		<trkpt lat="47.4654732831" lon="11.0462476686">
			<ele>839.85</ele>
			<time>2012-07-26T15:11:43Z</time>
		</trkpt>
		<trkpt lat="47.465493232" lon="11.0463039111">
			<ele>839.85</ele>
			<time>2012-07-26T15:11:46Z</time>
		</trkpt>
		<trkpt lat="47.4655490555" lon="11.0465269536">
			<ele>839.37</ele>
			<time>2012-07-26T15:11:57Z</time>
		</trkpt>
		<trkpt lat="47.4655876122" lon="11.0466609802">
			<ele>838.89</ele>
			<time>2012-07-26T15:12:05Z</time>
		</trkpt>
		<trkpt lat="47.4656413402" lon="11.0468269419">
			<ele>838.89</ele>
			<time>2012-07-26T15:12:16Z</time>
		</trkpt>
		<trkpt lat="47.4656716827" lon="11.0469401814">
			<ele>837.93</ele>
			<time>2012-07-26T15:12:23Z</time>
		</trkpt>
		<trkpt lat="47.4657076411" lon="11.0470056441">
			<ele>837.93</ele>
			<time>2012-07-26T15:12:27Z</time>
		</trkpt>
		<trkpt lat="47.4658127502" lon="11.0472301114">
			<ele>836.48</ele>
			<time>2012-07-26T15:12:42Z</time>
		</trkpt>
		<trkpt lat="47.4659112375" lon="11.0474587698">
			<ele>836.48</ele>
			<time>2012-07-26T15:12:55Z</time>
		</trkpt>
		<trkpt lat="47.4660020135" lon="11.0476494581">
			<ele>835.04</ele>
			<time>2012-07-26T15:13:07Z</time>
		</trkpt>
		<trkpt lat="47.4661014229" lon="11.0478511266">
			<ele>834.56</ele>
			<time>2012-07-26T15:13:19Z</time>
		</trkpt>
		<trkpt lat="47.4661923666" lon="11.0480178427">
			<ele>833.6</ele>
			<time>2012-07-26T15:13:31Z</time>
		</trkpt>
		<trkpt lat="47.4662395567" lon="11.0480694752">
			<ele>834.08</ele>
			<time>2012-07-26T15:13:35Z</time>
		</trkpt>
		<trkpt lat="47.4663375411" lon="11.0482834652">
			<ele>832.64</ele>
			<time>2012-07-26T15:13:47Z</time>
		</trkpt>
		<trkpt lat="47.4664387107" lon="11.0483987164">
			<ele>832.16</ele>
			<time>2012-07-26T15:13:56Z</time>
		</trkpt>
		<trkpt lat="47.4665912613" lon="11.0485603195">
			<ele>831.68</ele>
			<time>2012-07-26T15:14:08Z</time>
		</trkpt>
		<trkpt lat="47.4667185824" lon="11.0487313941">
			<ele>830.24</ele>
			<time>2012-07-26T15:14:20Z</time>
		</trkpt>
		<trkpt lat="47.4667811114" lon="11.0488052387">
			<ele>829.27</ele>
			<time>2012-07-26T15:14:27Z</time>
		</trkpt>
		<trkpt lat="47.4669063371" lon="11.0489594657">
			<ele>828.31</ele>
			<time>2012-07-26T15:14:38Z</time>
		</trkpt>
		<trkpt lat="47.4669701234" lon="11.0490452126">
			<ele>828.31</ele>
			<time>2012-07-26T15:14:45Z</time>
		</trkpt>
		<trkpt lat="47.4670950137" lon="11.0491720308">
			<ele>826.87</ele>
			<time>2012-07-26T15:14:55Z</time>
		</trkpt>
		<trkpt lat="47.4672321416" lon="11.0493275151">
			<ele>826.87</ele>
			<time>2012-07-26T15:15:08Z</time>
		</trkpt>
		<trkpt lat="47.4673602171" lon="11.0494737793">
			<ele>825.91</ele>
			<time>2012-07-26T15:15:19Z</time>
		</trkpt>
		<trkpt lat="47.4674530048" lon="11.0494958237">
			<ele>825.43</ele>
			<time>2012-07-26T15:15:29Z</time>
		</trkpt>
		<trkpt lat="47.4675151985" lon="11.0495099891">
			<ele>824.47</ele>
			<time>2012-07-26T15:15:40Z</time>
		</trkpt>
		<trkpt lat="47.4675509892" lon="11.0496208817">
			<ele>823.99</ele>
			<time>2012-07-26T15:15:49Z</time>
		</trkpt>
		<trkpt lat="47.4675520789" lon="11.0496498831">
			<ele>823.51</ele>
			<time>2012-07-26T15:15:58Z</time>
		</trkpt>
		<trkpt lat="47.4675520789" lon="11.0496498831">
			<ele>823.03</ele>
			<time>2012-07-26T15:16:16Z</time>
		</trkpt>
		<trkpt lat="47.4675665796" lon="11.0496902838">
			<ele>822.55</ele>
			<time>2012-07-26T15:16:19Z</time>
		</trkpt>
		<trkpt lat="47.4676706828" lon="11.0498889349">
			<ele>822.55</ele>
			<time>2012-07-26T15:16:32Z</time>
		</trkpt>
		<trkpt lat="47.4676829204" lon="11.0499201994">
			<ele>822.06</ele>
			<time>2012-07-26T15:16:34Z</time>
		</trkpt>
		<trkpt lat="47.4677434377" lon="11.0500807967">
			<ele>821.1</ele>
			<time>2012-07-26T15:16:44Z</time>
		</trkpt>
		<trkpt lat="47.4678139295" lon="11.0502415616">
			<ele>820.62</ele>
			<time>2012-07-26T15:16:53Z</time>
		</trkpt>
		<trkpt lat="47.4678529054" lon="11.0503531247">
			<ele>820.14</ele>
			<time>2012-07-26T15:16:59Z</time>
		</trkpt>
		<trkpt lat="47.4678736925" lon="11.0503979679">
			<ele>820.14</ele>
			<time>2012-07-26T15:17:02Z</time>
		</trkpt>
		<trkpt lat="47.4679333717" lon="11.0505618341">
			<ele>819.18</ele>
			<time>2012-07-26T15:17:11Z</time>
		</trkpt>
		<trkpt lat="47.4680279195" lon="11.0507589765">
			<ele>819.18</ele>
			<time>2012-07-26T15:17:22Z</time>
		</trkpt>
		<trkpt lat="47.4680912029" lon="11.0509379301">
			<ele>817.74</ele>
			<time>2012-07-26T15:17:33Z</time>
		</trkpt>
		<trkpt lat="47.4681021832" lon="11.0509733018">
			<ele>817.74</ele>
			<time>2012-07-26T15:17:35Z</time>
		</trkpt>
		<trkpt lat="47.4681410752" lon="11.0510564502">
			<ele>817.74</ele>
			<time>2012-07-26T15:17:40Z</time>
		</trkpt>
		<trkpt lat="47.4681677297" lon="11.0511205718">
			<ele>817.26</ele>
			<time>2012-07-26T15:17:44Z</time>
		</trkpt>
		<trkpt lat="47.4682420772" lon="11.0513044707">
			<ele>816.78</ele>
			<time>2012-07-26T15:17:55Z</time>
		</trkpt>
		<trkpt lat="47.4682896864" lon="11.0514300317">
			<ele>816.3</ele>
			<time>2012-07-26T15:18:03Z</time>
		</trkpt>
		<trkpt lat="47.4683580827" lon="11.05158736">
			<ele>815.82</ele>
			<time>2012-07-26T15:18:13Z</time>
		</trkpt>
		<trkpt lat="47.4684232939" lon="11.0517497174">
			<ele>814.85</ele>
			<time>2012-07-26T15:18:24Z</time>
		</trkpt>
		<trkpt lat="47.4684879184" lon="11.0519057885">
			<ele>814.37</ele>
			<time>2012-07-26T15:18:34Z</time>
		</trkpt>
		<trkpt lat="47.4685708992" lon="11.0521026794">
			<ele>813.41</ele>
			<time>2012-07-26T15:18:45Z</time>
		</trkpt>
		<trkpt lat="47.4686378706" lon="11.0522848181">
			<ele>812.45</ele>
			<time>2012-07-26T15:18:56Z</time>
		</trkpt>
		<trkpt lat="47.4686527904" lon="11.0523116402">
			<ele>812.45</ele>
			<time>2012-07-26T15:18:58Z</time>
		</trkpt>
		<trkpt lat="47.4687110446" lon="11.0524445772">
			<ele>812.93</ele>
			<time>2012-07-26T15:19:08Z</time>
		</trkpt>
		<trkpt lat="47.4687183369" lon="11.0524722375">
			<ele>812.93</ele>
			<time>2012-07-26T15:19:17Z</time>
		</trkpt>
		<trkpt lat="47.4687198456" lon="11.0524836369">
			<ele>812.45</ele>
			<time>2012-07-26T15:19:19Z</time>
		</trkpt>
		<trkpt lat="47.4687341787" lon="11.0524963774">
			<ele>811.49</ele>
			<time>2012-07-26T15:19:21Z</time>
		</trkpt>
		<trkpt lat="47.4687469192" lon="11.0525300726">
			<ele>812.45</ele>
			<time>2012-07-26T15:19:27Z</time>
		</trkpt>
		<trkpt lat="47.4687606655" lon="11.0525562242">
			<ele>813.41</ele>
			<time>2012-07-26T15:19:29Z</time>
		</trkpt>
		<trkpt lat="47.4687938578" lon="11.0526698828">
			<ele>812.45</ele>
			<time>2012-07-26T15:19:36Z</time>
		</trkpt>
		<trkpt lat="47.468833169" lon="11.0527998023">
			<ele>811.97</ele>
			<time>2012-07-26T15:19:44Z</time>
		</trkpt>
		<trkpt lat="47.4688422214" lon="11.0528486688">
			<ele>811.49</ele>
			<time>2012-07-26T15:19:53Z</time>
		</trkpt>
		<trkpt lat="47.4688422214" lon="11.0528486688">
			<ele>810.53</ele>
			<time>2012-07-26T15:20:12Z</time>
		</trkpt>
		<trkpt lat="47.4688532855" lon="11.0528678633">
			<ele>810.53</ele>
			<time>2012-07-26T15:20:15Z</time>
		</trkpt>
		<trkpt lat="47.4689059239" lon="11.0530437157">
			<ele>810.05</ele>
			<time>2012-07-26T15:20:26Z</time>
		</trkpt>
		<trkpt lat="47.4689322431" lon="11.053141281">
			<ele>808.61</ele>
			<time>2012-07-26T15:20:32Z</time>
		</trkpt>
		<trkpt lat="47.4689932633" lon="11.0532800015">
			<ele>808.61</ele>
			<time>2012-07-26T15:20:40Z</time>
		</trkpt>
		<trkpt lat="47.4690464884" lon="11.0534609668">
			<ele>807.64</ele>
			<time>2012-07-26T15:20:50Z</time>
		</trkpt>
		<trkpt lat="47.4690749869" lon="11.0535621364">
			<ele>807.16</ele>
			<time>2012-07-26T15:20:55Z</time>
		</trkpt>
		<trkpt lat="47.469130056" lon="11.0537514836">
			<ele>806.68</ele>
			<time>2012-07-26T15:21:05Z</time>
		</trkpt>
		<trkpt lat="47.4691914953" lon="11.0539446864">
			<ele>805.72</ele>
			<time>2012-07-26T15:21:17Z</time>
		</trkpt>
		<trkpt lat="47.46920323" lon="11.0539832432">
			<ele>805.72</ele>
			<time>2012-07-26T15:21:19Z</time>
		</trkpt>
		<trkpt lat="47.4692452233" lon="11.0541367158">
			<ele>805.72</ele>
			<time>2012-07-26T15:21:27Z</time>
		</trkpt>
		<trkpt lat="47.4692589696" lon="11.0541730933">
			<ele>805.24</ele>
			<time>2012-07-26T15:21:29Z</time>
		</trkpt>
		<trkpt lat="47.4692980293" lon="11.0543382168">
			<ele>804.76</ele>
			<time>2012-07-26T15:21:37Z</time>
		</trkpt>
		<trkpt lat="47.4693524279" lon="11.0545376223">
			<ele>803.8</ele>
			<time>2012-07-26T15:21:48Z</time>
		</trkpt>
		<trkpt lat="47.4693733826" lon="11.0545939486">
			<ele>803.32</ele>
			<time>2012-07-26T15:21:51Z</time>
		</trkpt>
		<trkpt lat="47.4693873804" lon="11.0546274763">
			<ele>803.32</ele>
			<time>2012-07-26T15:21:53Z</time>
		</trkpt>
		<trkpt lat="47.469436666" lon="11.0548046697">
			<ele>803.32</ele>
			<time>2012-07-26T15:22:03Z</time>
		</trkpt>
		<trkpt lat="47.4694623146" lon="11.0548748262">
			<ele>802.84</ele>
			<time>2012-07-26T15:22:07Z</time>
		</trkpt>
		<trkpt lat="47.4694723729" lon="11.0549357627">
			<ele>802.84</ele>
			<time>2012-07-26T15:22:10Z</time>
		</trkpt>
		<trkpt lat="47.4694936629" lon="11.0550005548">
			<ele>802.36</ele>
			<time>2012-07-26T15:22:14Z</time>
		</trkpt>
		<trkpt lat="47.4695214909" lon="11.0551147163">
			<ele>802.36</ele>
			<time>2012-07-26T15:22:20Z</time>
		</trkpt>
		<trkpt lat="47.4695424456" lon="11.0551948473">
			<ele>801.4</ele>
			<time>2012-07-26T15:22:24Z</time>
		</trkpt>
		<trkpt lat="47.4696023762" lon="11.0553668439">
			<ele>801.4</ele>
			<time>2012-07-26T15:22:34Z</time>
		</trkpt>
		<trkpt lat="47.4696545955" lon="11.0555675905">
			<ele>800.44</ele>
			<time>2012-07-26T15:22:44Z</time>
		</trkpt>
		<trkpt lat="47.4697218183" lon="11.0557629727">
			<ele>799.95</ele>
			<time>2012-07-26T15:22:54Z</time>
		</trkpt>
		<trkpt lat="47.4697594531" lon="11.0558788106">
			<ele>799.47</ele>
			<time>2012-07-26T15:23:00Z</time>
		</trkpt>
		<trkpt lat="47.4697966687" lon="11.0559830815">
			<ele>799.95</ele>
			<time>2012-07-26T15:23:06Z</time>
		</trkpt>
		<trkpt lat="47.4698357284" lon="11.0561425891">
			<ele>798.51</ele>
			<time>2012-07-26T15:23:14Z</time>
		</trkpt>
		<trkpt lat="47.4698902946" lon="11.0563348699">
			<ele>798.99</ele>
			<time>2012-07-26T15:23:24Z</time>
		</trkpt>
		<trkpt lat="47.4699128419" lon="11.0564212874">
			<ele>798.51</ele>
			<time>2012-07-26T15:23:29Z</time>
		</trkpt>
		<trkpt lat="47.469970677" lon="11.0566323437">
			<ele>798.51</ele>
			<time>2012-07-26T15:23:40Z</time>
		</trkpt>
		<trkpt lat="47.4700041208" lon="11.0567210242">
			<ele>798.03</ele>
			<time>2012-07-26T15:23:45Z</time>
		</trkpt>
		<trkpt lat="47.4701140914" lon="11.0568356048">
			<ele>797.07</ele>
			<time>2012-07-26T15:23:55Z</time>
		</trkpt>
		<trkpt lat="47.4701927975" lon="11.0570283048">
			<ele>796.59</ele>
			<time>2012-07-26T15:24:06Z</time>
		</trkpt>
		<trkpt lat="47.4702527281" lon="11.0572531912">
			<ele>796.11</ele>
			<time>2012-07-26T15:24:17Z</time>
		</trkpt>
		<trkpt lat="47.4703070428" lon="11.0574629903">
			<ele>795.15</ele>
			<time>2012-07-26T15:24:28Z</time>
		</trkpt>
		<trkpt lat="47.4703580886" lon="11.0576407705">
			<ele>794.67</ele>
			<time>2012-07-26T15:24:37Z</time>
		</trkpt>
		<trkpt lat="47.4704119842" lon="11.0578791518">
			<ele>794.19</ele>
			<time>2012-07-26T15:24:49Z</time>
		</trkpt>
		<trkpt lat="47.4704305921" lon="11.0579349753">
			<ele>793.71</ele>
			<time>2012-07-26T15:24:52Z</time>
		</trkpt>
		<trkpt lat="47.4704485293" lon="11.0580248293">
			<ele>794.19</ele>
			<time>2012-07-26T15:24:57Z</time>
		</trkpt>
		<trkpt lat="47.4705041014" lon="11.0582619533">
			<ele>793.22</ele>
			<time>2012-07-26T15:25:09Z</time>
		</trkpt>
		<trkpt lat="47.4705372937" lon="11.0583708342">
			<ele>793.22</ele>
			<time>2012-07-26T15:25:15Z</time>
		</trkpt>
		<trkpt lat="47.4705894291" lon="11.0585671384">
			<ele>793.71</ele>
			<time>2012-07-26T15:25:25Z</time>
		</trkpt>
		<trkpt lat="47.4705964699" lon="11.0586026777">
			<ele>793.22</ele>
			<time>2012-07-26T15:25:27Z</time>
		</trkpt>
		<trkpt lat="47.470640894" lon="11.0587786138">
			<ele>793.22</ele>
			<time>2012-07-26T15:25:36Z</time>
		</trkpt>
		<trkpt lat="47.4706639443" lon="11.0588511173">
			<ele>793.71</ele>
			<time>2012-07-26T15:25:40Z</time>
		</trkpt>
		<trkpt lat="47.4706817977" lon="11.0589075275">
			<ele>792.74</ele>
			<time>2012-07-26T15:25:43Z</time>
		</trkpt>
		<trkpt lat="47.4707111344" lon="11.0590149835">
			<ele>793.22</ele>
			<time>2012-07-26T15:25:49Z</time>
		</trkpt>
		<trkpt lat="47.4707558937" lon="11.0592210107">
			<ele>793.22</ele>
			<time>2012-07-26T15:26:00Z</time>
		</trkpt>
		<trkpt lat="47.4707590789" lon="11.0592398699">
			<ele>793.22</ele>
			<time>2012-07-26T15:26:01Z</time>
		</trkpt>
		<trkpt lat="47.4707833026" lon="11.0593102779">
			<ele>793.22</ele>
			<time>2012-07-26T15:26:05Z</time>
		</trkpt>
		<trkpt lat="47.4708463345" lon="11.0595284589">
			<ele>792.74</ele>
			<time>2012-07-26T15:26:17Z</time>
		</trkpt>
		<trkpt lat="47.4708915967" lon="11.059658546">
			<ele>792.74</ele>
			<time>2012-07-26T15:26:24Z</time>
		</trkpt>
		<trkpt lat="47.4709213525" lon="11.0597805865">
			<ele>792.74</ele>
			<time>2012-07-26T15:26:30Z</time>
		</trkpt>
		<trkpt lat="47.4709786847" lon="11.0599763039">
			<ele>792.74</ele>
			<time>2012-07-26T15:26:40Z</time>
		</trkpt>
		<trkpt lat="47.4710340891" lon="11.0601737816">
			<ele>793.71</ele>
			<time>2012-07-26T15:26:51Z</time>
		</trkpt>
		<trkpt lat="47.4710830394" lon="11.0603673197">
			<ele>793.71</ele>
			<time>2012-07-26T15:27:01Z</time>
		</trkpt>
		<trkpt lat="47.4711389467" lon="11.0605305992">
			<ele>794.19</ele>
			<time>2012-07-26T15:27:10Z</time>
		</trkpt>
		<trkpt lat="47.4711873103" lon="11.0607271548">
			<ele>794.19</ele>
			<time>2012-07-26T15:27:21Z</time>
		</trkpt>
		<trkpt lat="47.4711963627" lon="11.0607560724">
			<ele>794.19</ele>
			<time>2012-07-26T15:27:23Z</time>
		</trkpt>
		<trkpt lat="47.4712117855" lon="11.0608774424">
			<ele>794.67</ele>
			<time>2012-07-26T15:27:30Z</time>
		</trkpt>
		<trkpt lat="47.4712228496" lon="11.060951706">
			<ele>794.67</ele>
			<time>2012-07-26T15:27:34Z</time>
		</trkpt>
		<trkpt lat="47.4712298065" lon="11.0611242056">
			<ele>795.15</ele>
			<time>2012-07-26T15:27:44Z</time>
		</trkpt>
		<trkpt lat="47.4712298904" lon="11.0611727368">
			<ele>795.15</ele>
			<time>2012-07-26T15:27:47Z</time>
		</trkpt>
		<trkpt lat="47.4712623283" lon="11.0613713041">
			<ele>795.63</ele>
			<time>2012-07-26T15:27:58Z</time>
		</trkpt>
		<trkpt lat="47.4712645914" lon="11.0614115372">
			<ele>795.63</ele>
			<time>2012-07-26T15:28:00Z</time>
		</trkpt>
		<trkpt lat="47.4712930899" lon="11.0615582205">
			<ele>796.11</ele>
			<time>2012-07-26T15:28:08Z</time>
		</trkpt>
		<trkpt lat="47.4713720474" lon="11.0617422871">
			<ele>796.59</ele>
			<time>2012-07-26T15:28:19Z</time>
		</trkpt>
		<trkpt lat="47.471481096" lon="11.0618302133">
			<ele>797.07</ele>
			<time>2012-07-26T15:28:29Z</time>
		</trkpt>
		<trkpt lat="47.4716077466" lon="11.0618662555">
			<ele>796.59</ele>
			<time>2012-07-26T15:28:39Z</time>
		</trkpt>
		<trkpt lat="47.4716426153" lon="11.0619034711">
			<ele>796.11</ele>
			<time>2012-07-26T15:28:48Z</time>
		</trkpt>
		<trkpt lat="47.4717423599" lon="11.0619264375">
			<ele>795.63</ele>
			<time>2012-07-26T15:28:57Z</time>
		</trkpt>
		<trkpt lat="47.4718195572" lon="11.0619532596">
			<ele>795.63</ele>
			<time>2012-07-26T15:29:06Z</time>
		</trkpt>
		<trkpt lat="47.471849313" lon="11.0619561095">
			<ele>795.15</ele>
			<time>2012-07-26T15:29:16Z</time>
		</trkpt>
		<trkpt lat="47.4718866125" lon="11.0619617254">
			<ele>795.15</ele>
			<time>2012-07-26T15:29:26Z</time>
		</trkpt>
		<trkpt lat="47.4718866125" lon="11.0619617254">
			<ele>794.19</ele>
			<time>2012-07-26T15:29:40Z</time>
		</trkpt>
		<trkpt lat="47.4718866125" lon="11.0619617254">
			<ele>798.03</ele>
			<time>2012-07-26T15:30:01Z</time>
		</trkpt>
		<trkpt lat="47.4718866125" lon="11.0619617254">
			<ele>794.19</ele>
			<time>2012-07-26T15:30:02Z</time>
		</trkpt>
		<trkpt lat="47.4718888756" lon="11.061963737">
			<ele>797.07</ele>
			<time>2012-07-26T15:30:06Z</time>
		</trkpt>
		<trkpt lat="47.4718888756" lon="11.061963737">
			<ele>793.71</ele>
			<time>2012-07-26T15:30:07Z</time>
		</trkpt>
	</trkseg>
</trk>

</gpx> 
